<?xml version="1.0" encoding="UTF-8" standalone="no" ?>
<gpx xmlns="http://www.topografix.com/GPX/1/1" xmlns:xsi="http://www.w3.org/2001/XMLSchema-instance" xsi:schemaLocation="http://www.topografix.com/GPX/1/1 http://www.topografix.com/GPX/1/1/gpx.xsd" version="1.1" creator="VisuGPX - https://www.visugpx.com">
  <metadata>
    <name>Granier par passage de Tencovaz, descente par la Balme à Colon</name>
    <desc><![CDATA[Petite rando à la fraiche au Granier par ce sentier original, avec Olivier. 

A la montée on quitte le sentier balisé avant la grotte de la Balme à Colon pour rejoindre le passage de Tencovaz par un long sentier mal tracé et un peu chaud par moment dans des pierriers. Je ne crois pas qu'on ait pris le passage "officiel" sur la fin, mais on a fini par récupérer le sentier avec un reste de vieux balisage après un peu de grimpe sur deux ou trois mètres. Le passage de Tencovaz nécessite de grimper un peu, mais c'est pas beaucoup pire que le Pas de l'Oeil à la Dent de Crolles. 

Notre descente passe par la Balme à Colon, belle grotte que le sentier traverse confortablement. Le soucis c'est qu'on fait la course avec les orages qui arrivent de l'ouest de la vallée du Rhône. Déjà au sommet on a vu la Dent du Chat dans le nuage. Le nuage commence à se former sous nos pieds en sortant de la grotte à la descente. Nous y passons en quelques minutes, puis le passage dans la forêt est bien sombre avec le nuage qui gonfle au-dessus de nos têtes. On prend les premières gouttes entre la sortie de la forêt et le hameaux de La Plagne, puis on finit de rejoindre la voiture au sprint sous la pluie battante sur les derniers 100 ou 200 m. Petite pensée pour les gens qu'on a croisé qui montaient encore pendant qu'on descendait.]]></desc>
  </metadata>
  <trk>
    <name><![CDATA[Tracé actuel: 24 AOU 2013 08:30]]></name>
    <trkseg>
      <trkpt lat="45.44413" lon="5.90542">
        <ele>1090.75</ele>
        <time>2013-08-24T06:30:09Z</time>
      </trkpt>
      <trkpt lat="45.44413" lon="5.90542">
        <ele>1090.27</ele>
        <time>2013-08-24T06:30:13Z</time>
      </trkpt>
      <trkpt lat="45.44413" lon="5.90541">
        <ele>1090.75</ele>
        <time>2013-08-24T06:30:17Z</time>
      </trkpt>
      <trkpt lat="45.44413" lon="5.90541">
        <ele>1089.79</ele>
        <time>2013-08-24T06:30:21Z</time>
      </trkpt>
      <trkpt lat="45.44413" lon="5.90541">
        <ele>1089.79</ele>
        <time>2013-08-24T06:30:25Z</time>
      </trkpt>
      <trkpt lat="45.44412" lon="5.90541">
        <ele>1089.79</ele>
        <time>2013-08-24T06:30:29Z</time>
      </trkpt>
      <trkpt lat="45.44412" lon="5.90541">
        <ele>1091.71</ele>
        <time>2013-08-24T06:30:33Z</time>
      </trkpt>
      <trkpt lat="45.44412" lon="5.90542">
        <ele>1091.71</ele>
        <time>2013-08-24T06:30:37Z</time>
      </trkpt>
      <trkpt lat="45.44413" lon="5.90542">
        <ele>1091.23</ele>
        <time>2013-08-24T06:30:41Z</time>
      </trkpt>
      <trkpt lat="45.44412" lon="5.90543">
        <ele>1091.71</ele>
        <time>2013-08-24T06:30:45Z</time>
      </trkpt>
      <trkpt lat="45.44412" lon="5.90544">
        <ele>1092.2</ele>
        <time>2013-08-24T06:30:49Z</time>
      </trkpt>
      <trkpt lat="45.44413" lon="5.90543">
        <ele>1092.68</ele>
        <time>2013-08-24T06:30:53Z</time>
      </trkpt>
      <trkpt lat="45.44413" lon="5.90543">
        <ele>1091.71</ele>
        <time>2013-08-24T06:30:57Z</time>
      </trkpt>
      <trkpt lat="45.44413" lon="5.90543">
        <ele>1092.68</ele>
        <time>2013-08-24T06:31:01Z</time>
      </trkpt>
      <trkpt lat="45.44413" lon="5.90542">
        <ele>1093.64</ele>
        <time>2013-08-24T06:31:05Z</time>
      </trkpt>
      <trkpt lat="45.44413" lon="5.90542">
        <ele>1093.64</ele>
        <time>2013-08-24T06:31:09Z</time>
      </trkpt>
      <trkpt lat="45.44412" lon="5.90543">
        <ele>1093.16</ele>
        <time>2013-08-24T06:31:13Z</time>
      </trkpt>
      <trkpt lat="45.44413" lon="5.90544">
        <ele>1093.16</ele>
        <time>2013-08-24T06:31:17Z</time>
      </trkpt>
      <trkpt lat="45.44412" lon="5.90543">
        <ele>1092.68</ele>
        <time>2013-08-24T06:31:21Z</time>
      </trkpt>
      <trkpt lat="45.44412" lon="5.90543">
        <ele>1092.68</ele>
        <time>2013-08-24T06:31:25Z</time>
      </trkpt>
      <trkpt lat="45.44412" lon="5.90543">
        <ele>1092.68</ele>
        <time>2013-08-24T06:31:29Z</time>
      </trkpt>
      <trkpt lat="45.44413" lon="5.90543">
        <ele>1092.2</ele>
        <time>2013-08-24T06:31:33Z</time>
      </trkpt>
      <trkpt lat="45.44412" lon="5.90544">
        <ele>1091.71</ele>
        <time>2013-08-24T06:31:37Z</time>
      </trkpt>
      <trkpt lat="45.44413" lon="5.90545">
        <ele>1091.71</ele>
        <time>2013-08-24T06:31:41Z</time>
      </trkpt>
      <trkpt lat="45.44413" lon="5.90546">
        <ele>1090.75</ele>
        <time>2013-08-24T06:31:45Z</time>
      </trkpt>
      <trkpt lat="45.44412" lon="5.90546">
        <ele>1090.75</ele>
        <time>2013-08-24T06:31:49Z</time>
      </trkpt>
      <trkpt lat="45.44413" lon="5.90551">
        <ele>1091.23</ele>
        <time>2013-08-24T06:31:53Z</time>
      </trkpt>
      <trkpt lat="45.44413" lon="5.90556">
        <ele>1091.71</ele>
        <time>2013-08-24T06:31:57Z</time>
      </trkpt>
      <trkpt lat="45.44414" lon="5.90562">
        <ele>1092.2</ele>
        <time>2013-08-24T06:32:01Z</time>
      </trkpt>
      <trkpt lat="45.44415" lon="5.90568">
        <ele>1092.68</ele>
        <time>2013-08-24T06:32:05Z</time>
      </trkpt>
      <trkpt lat="45.44416" lon="5.90574">
        <ele>1093.16</ele>
        <time>2013-08-24T06:32:09Z</time>
      </trkpt>
      <trkpt lat="45.44417" lon="5.9058">
        <ele>1094.12</ele>
        <time>2013-08-24T06:32:13Z</time>
      </trkpt>
      <trkpt lat="45.44418" lon="5.90585">
        <ele>1095.08</ele>
        <time>2013-08-24T06:32:17Z</time>
      </trkpt>
      <trkpt lat="45.44418" lon="5.90591">
        <ele>1095.56</ele>
        <time>2013-08-24T06:32:21Z</time>
      </trkpt>
      <trkpt lat="45.44418" lon="5.90598">
        <ele>1095.08</ele>
        <time>2013-08-24T06:32:25Z</time>
      </trkpt>
      <trkpt lat="45.44418" lon="5.90605">
        <ele>1095.08</ele>
        <time>2013-08-24T06:32:29Z</time>
      </trkpt>
      <trkpt lat="45.44417" lon="5.90612">
        <ele>1095.56</ele>
        <time>2013-08-24T06:32:33Z</time>
      </trkpt>
      <trkpt lat="45.44417" lon="5.90619">
        <ele>1096.04</ele>
        <time>2013-08-24T06:32:37Z</time>
      </trkpt>
      <trkpt lat="45.44416" lon="5.90626">
        <ele>1096.52</ele>
        <time>2013-08-24T06:32:41Z</time>
      </trkpt>
      <trkpt lat="45.44416" lon="5.90632">
        <ele>1097</ele>
        <time>2013-08-24T06:32:45Z</time>
      </trkpt>
      <trkpt lat="45.44415" lon="5.90637">
        <ele>1097.96</ele>
        <time>2013-08-24T06:32:49Z</time>
      </trkpt>
      <trkpt lat="45.44414" lon="5.90643">
        <ele>1098.92</ele>
        <time>2013-08-24T06:32:53Z</time>
      </trkpt>
      <trkpt lat="45.44414" lon="5.90649">
        <ele>1099.4</ele>
        <time>2013-08-24T06:32:57Z</time>
      </trkpt>
      <trkpt lat="45.44413" lon="5.90654">
        <ele>1099.89</ele>
        <time>2013-08-24T06:33:01Z</time>
      </trkpt>
      <trkpt lat="45.44412" lon="5.9066">
        <ele>1100.85</ele>
        <time>2013-08-24T06:33:05Z</time>
      </trkpt>
      <trkpt lat="45.44412" lon="5.90665">
        <ele>1101.81</ele>
        <time>2013-08-24T06:33:09Z</time>
      </trkpt>
      <trkpt lat="45.44413" lon="5.9067">
        <ele>1101.81</ele>
        <time>2013-08-24T06:33:13Z</time>
      </trkpt>
      <trkpt lat="45.44415" lon="5.90673">
        <ele>1102.77</ele>
        <time>2013-08-24T06:33:17Z</time>
      </trkpt>
      <trkpt lat="45.44417" lon="5.90677">
        <ele>1103.73</ele>
        <time>2013-08-24T06:33:21Z</time>
      </trkpt>
      <trkpt lat="45.4442" lon="5.9068">
        <ele>1105.65</ele>
        <time>2013-08-24T06:33:25Z</time>
      </trkpt>
      <trkpt lat="45.44422" lon="5.90685">
        <ele>1107.1</ele>
        <time>2013-08-24T06:33:29Z</time>
      </trkpt>
      <trkpt lat="45.44423" lon="5.90693">
        <ele>1107.58</ele>
        <time>2013-08-24T06:33:33Z</time>
      </trkpt>
      <trkpt lat="45.44421" lon="5.907">
        <ele>1107.58</ele>
        <time>2013-08-24T06:33:37Z</time>
      </trkpt>
      <trkpt lat="45.4442" lon="5.90706">
        <ele>1107.1</ele>
        <time>2013-08-24T06:33:41Z</time>
      </trkpt>
      <trkpt lat="45.44418" lon="5.90712">
        <ele>1108.54</ele>
        <time>2013-08-24T06:33:45Z</time>
      </trkpt>
      <trkpt lat="45.44417" lon="5.90718">
        <ele>1109.02</ele>
        <time>2013-08-24T06:33:49Z</time>
      </trkpt>
      <trkpt lat="45.44417" lon="5.90724">
        <ele>1109.5</ele>
        <time>2013-08-24T06:33:53Z</time>
      </trkpt>
      <trkpt lat="45.44417" lon="5.9073">
        <ele>1109.5</ele>
        <time>2013-08-24T06:33:57Z</time>
      </trkpt>
      <trkpt lat="45.44417" lon="5.90737">
        <ele>1110.46</ele>
        <time>2013-08-24T06:34:01Z</time>
      </trkpt>
      <trkpt lat="45.44417" lon="5.90743">
        <ele>1111.42</ele>
        <time>2013-08-24T06:34:05Z</time>
      </trkpt>
      <trkpt lat="45.44416" lon="5.90746">
        <ele>1113.34</ele>
        <time>2013-08-24T06:34:09Z</time>
      </trkpt>
      <trkpt lat="45.44416" lon="5.9075">
        <ele>1114.79</ele>
        <time>2013-08-24T06:34:13Z</time>
      </trkpt>
      <trkpt lat="45.44416" lon="5.90756">
        <ele>1116.23</ele>
        <time>2013-08-24T06:34:17Z</time>
      </trkpt>
      <trkpt lat="45.44416" lon="5.90762">
        <ele>1118.15</ele>
        <time>2013-08-24T06:34:21Z</time>
      </trkpt>
      <trkpt lat="45.44415" lon="5.90767">
        <ele>1119.11</ele>
        <time>2013-08-24T06:34:25Z</time>
      </trkpt>
      <trkpt lat="45.44415" lon="5.90773">
        <ele>1119.59</ele>
        <time>2013-08-24T06:34:29Z</time>
      </trkpt>
      <trkpt lat="45.44415" lon="5.90775">
        <ele>1120.07</ele>
        <time>2013-08-24T06:34:33Z</time>
      </trkpt>
      <trkpt lat="45.4442" lon="5.90776">
        <ele>1121.03</ele>
        <time>2013-08-24T06:34:37Z</time>
      </trkpt>
      <trkpt lat="45.44424" lon="5.90774">
        <ele>1122</ele>
        <time>2013-08-24T06:34:41Z</time>
      </trkpt>
      <trkpt lat="45.44427" lon="5.90771">
        <ele>1123.44</ele>
        <time>2013-08-24T06:34:45Z</time>
      </trkpt>
      <trkpt lat="45.44431" lon="5.90769">
        <ele>1124.88</ele>
        <time>2013-08-24T06:34:49Z</time>
      </trkpt>
      <trkpt lat="45.44435" lon="5.90766">
        <ele>1125.84</ele>
        <time>2013-08-24T06:34:53Z</time>
      </trkpt>
      <trkpt lat="45.44438" lon="5.90765">
        <ele>1126.32</ele>
        <time>2013-08-24T06:34:57Z</time>
      </trkpt>
      <trkpt lat="45.44442" lon="5.90763">
        <ele>1126.8</ele>
        <time>2013-08-24T06:35:01Z</time>
      </trkpt>
      <trkpt lat="45.44445" lon="5.90761">
        <ele>1126.8</ele>
        <time>2013-08-24T06:35:05Z</time>
      </trkpt>
      <trkpt lat="45.44448" lon="5.9076">
        <ele>1127.28</ele>
        <time>2013-08-24T06:35:09Z</time>
      </trkpt>
      <trkpt lat="45.44451" lon="5.90759">
        <ele>1127.28</ele>
        <time>2013-08-24T06:35:13Z</time>
      </trkpt>
      <trkpt lat="45.44454" lon="5.90758">
        <ele>1127.28</ele>
        <time>2013-08-24T06:35:17Z</time>
      </trkpt>
      <trkpt lat="45.44457" lon="5.90756">
        <ele>1128.24</ele>
        <time>2013-08-24T06:35:21Z</time>
      </trkpt>
      <trkpt lat="45.4446" lon="5.90754">
        <ele>1129.21</ele>
        <time>2013-08-24T06:35:25Z</time>
      </trkpt>
      <trkpt lat="45.44462" lon="5.90752">
        <ele>1130.65</ele>
        <time>2013-08-24T06:35:29Z</time>
      </trkpt>
      <trkpt lat="45.44465" lon="5.90751">
        <ele>1132.09</ele>
        <time>2013-08-24T06:35:33Z</time>
      </trkpt>
      <trkpt lat="45.44468" lon="5.90748">
        <ele>1133.53</ele>
        <time>2013-08-24T06:35:37Z</time>
      </trkpt>
      <trkpt lat="45.44471" lon="5.90745">
        <ele>1134.49</ele>
        <time>2013-08-24T06:35:41Z</time>
      </trkpt>
      <trkpt lat="45.44474" lon="5.90741">
        <ele>1134.97</ele>
        <time>2013-08-24T06:35:45Z</time>
      </trkpt>
      <trkpt lat="45.44477" lon="5.90737">
        <ele>1136.42</ele>
        <time>2013-08-24T06:35:49Z</time>
      </trkpt>
      <trkpt lat="45.44481" lon="5.90733">
        <ele>1137.86</ele>
        <time>2013-08-24T06:35:53Z</time>
      </trkpt>
      <trkpt lat="45.44484" lon="5.90729">
        <ele>1139.3</ele>
        <time>2013-08-24T06:35:57Z</time>
      </trkpt>
      <trkpt lat="45.44487" lon="5.90724">
        <ele>1140.74</ele>
        <time>2013-08-24T06:36:01Z</time>
      </trkpt>
      <trkpt lat="45.44492" lon="5.90719">
        <ele>1140.74</ele>
        <time>2013-08-24T06:36:05Z</time>
      </trkpt>
      <trkpt lat="45.44495" lon="5.90715">
        <ele>1141.22</ele>
        <time>2013-08-24T06:36:09Z</time>
      </trkpt>
      <trkpt lat="45.44497" lon="5.90712">
        <ele>1142.18</ele>
        <time>2013-08-24T06:36:13Z</time>
      </trkpt>
      <trkpt lat="45.445" lon="5.9071">
        <ele>1142.18</ele>
        <time>2013-08-24T06:36:17Z</time>
      </trkpt>
      <trkpt lat="45.44504" lon="5.90706">
        <ele>1143.14</ele>
        <time>2013-08-24T06:36:21Z</time>
      </trkpt>
      <trkpt lat="45.44507" lon="5.90704">
        <ele>1144.11</ele>
        <time>2013-08-24T06:36:25Z</time>
      </trkpt>
      <trkpt lat="45.4451" lon="5.90702">
        <ele>1145.55</ele>
        <time>2013-08-24T06:36:29Z</time>
      </trkpt>
      <trkpt lat="45.44514" lon="5.90699">
        <ele>1146.51</ele>
        <time>2013-08-24T06:36:33Z</time>
      </trkpt>
      <trkpt lat="45.44517" lon="5.90696">
        <ele>1147.47</ele>
        <time>2013-08-24T06:36:37Z</time>
      </trkpt>
      <trkpt lat="45.4452" lon="5.90693">
        <ele>1148.43</ele>
        <time>2013-08-24T06:36:41Z</time>
      </trkpt>
      <trkpt lat="45.44524" lon="5.9069">
        <ele>1149.39</ele>
        <time>2013-08-24T06:36:45Z</time>
      </trkpt>
      <trkpt lat="45.44526" lon="5.90687">
        <ele>1150.35</ele>
        <time>2013-08-24T06:36:49Z</time>
      </trkpt>
      <trkpt lat="45.4453" lon="5.90683">
        <ele>1150.84</ele>
        <time>2013-08-24T06:36:53Z</time>
      </trkpt>
      <trkpt lat="45.44533" lon="5.9068">
        <ele>1150.84</ele>
        <time>2013-08-24T06:36:57Z</time>
      </trkpt>
      <trkpt lat="45.44536" lon="5.90677">
        <ele>1151.8</ele>
        <time>2013-08-24T06:37:01Z</time>
      </trkpt>
      <trkpt lat="45.44539" lon="5.90674">
        <ele>1153.24</ele>
        <time>2013-08-24T06:37:05Z</time>
      </trkpt>
      <trkpt lat="45.44542" lon="5.9067">
        <ele>1154.68</ele>
        <time>2013-08-24T06:37:09Z</time>
      </trkpt>
      <trkpt lat="45.44546" lon="5.90666">
        <ele>1155.64</ele>
        <time>2013-08-24T06:37:13Z</time>
      </trkpt>
      <trkpt lat="45.44549" lon="5.90662">
        <ele>1156.6</ele>
        <time>2013-08-24T06:37:17Z</time>
      </trkpt>
      <trkpt lat="45.44551" lon="5.90657">
        <ele>1156.6</ele>
        <time>2013-08-24T06:37:21Z</time>
      </trkpt>
      <trkpt lat="45.44554" lon="5.90652">
        <ele>1158.05</ele>
        <time>2013-08-24T06:37:25Z</time>
      </trkpt>
      <trkpt lat="45.44557" lon="5.90648">
        <ele>1161.41</ele>
        <time>2013-08-24T06:37:29Z</time>
      </trkpt>
      <trkpt lat="45.44559" lon="5.90644">
        <ele>1163.33</ele>
        <time>2013-08-24T06:37:33Z</time>
      </trkpt>
      <trkpt lat="45.44561" lon="5.90641">
        <ele>1165.26</ele>
        <time>2013-08-24T06:37:37Z</time>
      </trkpt>
      <trkpt lat="45.44564" lon="5.90637">
        <ele>1166.7</ele>
        <time>2013-08-24T06:37:41Z</time>
      </trkpt>
      <trkpt lat="45.44565" lon="5.90632">
        <ele>1168.62</ele>
        <time>2013-08-24T06:37:45Z</time>
      </trkpt>
      <trkpt lat="45.44567" lon="5.90628">
        <ele>1169.58</ele>
        <time>2013-08-24T06:37:49Z</time>
      </trkpt>
      <trkpt lat="45.44569" lon="5.90625">
        <ele>1169.58</ele>
        <time>2013-08-24T06:37:53Z</time>
      </trkpt>
      <trkpt lat="45.44572" lon="5.90625">
        <ele>1170.06</ele>
        <time>2013-08-24T06:37:57Z</time>
      </trkpt>
      <trkpt lat="45.44574" lon="5.90625">
        <ele>1169.58</ele>
        <time>2013-08-24T06:38:01Z</time>
      </trkpt>
      <trkpt lat="45.44576" lon="5.90627">
        <ele>1169.58</ele>
        <time>2013-08-24T06:38:05Z</time>
      </trkpt>
      <trkpt lat="45.44577" lon="5.90629">
        <ele>1169.58</ele>
        <time>2013-08-24T06:38:09Z</time>
      </trkpt>
      <trkpt lat="45.44579" lon="5.90633">
        <ele>1170.06</ele>
        <time>2013-08-24T06:38:13Z</time>
      </trkpt>
      <trkpt lat="45.44581" lon="5.90636">
        <ele>1170.54</ele>
        <time>2013-08-24T06:38:17Z</time>
      </trkpt>
      <trkpt lat="45.44583" lon="5.9064">
        <ele>1171.02</ele>
        <time>2013-08-24T06:38:21Z</time>
      </trkpt>
      <trkpt lat="45.44587" lon="5.90642">
        <ele>1171.98</ele>
        <time>2013-08-24T06:38:25Z</time>
      </trkpt>
      <trkpt lat="45.44591" lon="5.9064">
        <ele>1172.47</ele>
        <time>2013-08-24T06:38:29Z</time>
      </trkpt>
      <trkpt lat="45.44595" lon="5.90639">
        <ele>1172.95</ele>
        <time>2013-08-24T06:38:33Z</time>
      </trkpt>
      <trkpt lat="45.44598" lon="5.90636">
        <ele>1173.91</ele>
        <time>2013-08-24T06:38:37Z</time>
      </trkpt>
      <trkpt lat="45.44601" lon="5.90633">
        <ele>1174.39</ele>
        <time>2013-08-24T06:38:41Z</time>
      </trkpt>
      <trkpt lat="45.44604" lon="5.90631">
        <ele>1174.87</ele>
        <time>2013-08-24T06:38:45Z</time>
      </trkpt>
      <trkpt lat="45.44606" lon="5.90629">
        <ele>1174.87</ele>
        <time>2013-08-24T06:38:49Z</time>
      </trkpt>
      <trkpt lat="45.44608" lon="5.90628">
        <ele>1174.87</ele>
        <time>2013-08-24T06:38:53Z</time>
      </trkpt>
      <trkpt lat="45.4461" lon="5.90626">
        <ele>1175.35</ele>
        <time>2013-08-24T06:38:57Z</time>
      </trkpt>
      <trkpt lat="45.44613" lon="5.90624">
        <ele>1176.31</ele>
        <time>2013-08-24T06:39:01Z</time>
      </trkpt>
      <trkpt lat="45.44615" lon="5.90621">
        <ele>1177.27</ele>
        <time>2013-08-24T06:39:05Z</time>
      </trkpt>
      <trkpt lat="45.44618" lon="5.90617">
        <ele>1178.71</ele>
        <time>2013-08-24T06:39:09Z</time>
      </trkpt>
      <trkpt lat="45.44622" lon="5.90615">
        <ele>1180.64</ele>
        <time>2013-08-24T06:39:13Z</time>
      </trkpt>
      <trkpt lat="45.44625" lon="5.90613">
        <ele>1182.08</ele>
        <time>2013-08-24T06:39:17Z</time>
      </trkpt>
      <trkpt lat="45.44629" lon="5.90612">
        <ele>1183.52</ele>
        <time>2013-08-24T06:39:21Z</time>
      </trkpt>
      <trkpt lat="45.44633" lon="5.9061">
        <ele>1184</ele>
        <time>2013-08-24T06:39:25Z</time>
      </trkpt>
      <trkpt lat="45.44636" lon="5.90607">
        <ele>1184.48</ele>
        <time>2013-08-24T06:39:29Z</time>
      </trkpt>
      <trkpt lat="45.44641" lon="5.90605">
        <ele>1185.44</ele>
        <time>2013-08-24T06:39:33Z</time>
      </trkpt>
      <trkpt lat="45.44644" lon="5.90602">
        <ele>1186.88</ele>
        <time>2013-08-24T06:39:37Z</time>
      </trkpt>
      <trkpt lat="45.44646" lon="5.90596">
        <ele>1188.33</ele>
        <time>2013-08-24T06:39:41Z</time>
      </trkpt>
      <trkpt lat="45.44648" lon="5.90592">
        <ele>1191.21</ele>
        <time>2013-08-24T06:39:45Z</time>
      </trkpt>
      <trkpt lat="45.44649" lon="5.90586">
        <ele>1193.61</ele>
        <time>2013-08-24T06:39:49Z</time>
      </trkpt>
      <trkpt lat="45.44651" lon="5.9058">
        <ele>1195.54</ele>
        <time>2013-08-24T06:39:53Z</time>
      </trkpt>
      <trkpt lat="45.44653" lon="5.90573">
        <ele>1196.98</ele>
        <time>2013-08-24T06:39:57Z</time>
      </trkpt>
      <trkpt lat="45.44654" lon="5.90569">
        <ele>1198.9</ele>
        <time>2013-08-24T06:40:01Z</time>
      </trkpt>
      <trkpt lat="45.44655" lon="5.90563">
        <ele>1199.86</ele>
        <time>2013-08-24T06:40:05Z</time>
      </trkpt>
      <trkpt lat="45.44656" lon="5.90559">
        <ele>1201.3</ele>
        <time>2013-08-24T06:40:09Z</time>
      </trkpt>
      <trkpt lat="45.44657" lon="5.90553">
        <ele>1202.75</ele>
        <time>2013-08-24T06:40:13Z</time>
      </trkpt>
      <trkpt lat="45.44658" lon="5.90548">
        <ele>1203.23</ele>
        <time>2013-08-24T06:40:17Z</time>
      </trkpt>
      <trkpt lat="45.44659" lon="5.90543">
        <ele>1204.19</ele>
        <time>2013-08-24T06:40:21Z</time>
      </trkpt>
      <trkpt lat="45.4466" lon="5.90539">
        <ele>1205.15</ele>
        <time>2013-08-24T06:40:25Z</time>
      </trkpt>
      <trkpt lat="45.4466" lon="5.90535">
        <ele>1206.59</ele>
        <time>2013-08-24T06:40:29Z</time>
      </trkpt>
      <trkpt lat="45.44661" lon="5.90529">
        <ele>1207.55</ele>
        <time>2013-08-24T06:40:33Z</time>
      </trkpt>
      <trkpt lat="45.44662" lon="5.90524">
        <ele>1208.51</ele>
        <time>2013-08-24T06:40:37Z</time>
      </trkpt>
      <trkpt lat="45.44665" lon="5.90518">
        <ele>1209.48</ele>
        <time>2013-08-24T06:40:41Z</time>
      </trkpt>
      <trkpt lat="45.44666" lon="5.90513">
        <ele>1210.44</ele>
        <time>2013-08-24T06:40:45Z</time>
      </trkpt>
      <trkpt lat="45.44669" lon="5.90509">
        <ele>1211.4</ele>
        <time>2013-08-24T06:40:49Z</time>
      </trkpt>
      <trkpt lat="45.44672" lon="5.90506">
        <ele>1211.4</ele>
        <time>2013-08-24T06:40:53Z</time>
      </trkpt>
      <trkpt lat="45.44674" lon="5.90503">
        <ele>1211.88</ele>
        <time>2013-08-24T06:40:57Z</time>
      </trkpt>
      <trkpt lat="45.44678" lon="5.90501">
        <ele>1212.36</ele>
        <time>2013-08-24T06:41:01Z</time>
      </trkpt>
      <trkpt lat="45.44681" lon="5.90498">
        <ele>1212.36</ele>
        <time>2013-08-24T06:41:05Z</time>
      </trkpt>
      <trkpt lat="45.44684" lon="5.90497">
        <ele>1212.84</ele>
        <time>2013-08-24T06:41:09Z</time>
      </trkpt>
      <trkpt lat="45.44689" lon="5.90495">
        <ele>1212.84</ele>
        <time>2013-08-24T06:41:13Z</time>
      </trkpt>
      <trkpt lat="45.44694" lon="5.90494">
        <ele>1212.36</ele>
        <time>2013-08-24T06:41:17Z</time>
      </trkpt>
      <trkpt lat="45.44698" lon="5.90493">
        <ele>1211.4</ele>
        <time>2013-08-24T06:41:21Z</time>
      </trkpt>
      <trkpt lat="45.44703" lon="5.90493">
        <ele>1211.4</ele>
        <time>2013-08-24T06:41:25Z</time>
      </trkpt>
      <trkpt lat="45.44707" lon="5.90492">
        <ele>1211.88</ele>
        <time>2013-08-24T06:41:29Z</time>
      </trkpt>
      <trkpt lat="45.44712" lon="5.90492">
        <ele>1211.88</ele>
        <time>2013-08-24T06:41:33Z</time>
      </trkpt>
      <trkpt lat="45.44716" lon="5.9049">
        <ele>1211.88</ele>
        <time>2013-08-24T06:41:37Z</time>
      </trkpt>
      <trkpt lat="45.4472" lon="5.9049">
        <ele>1211.88</ele>
        <time>2013-08-24T06:41:41Z</time>
      </trkpt>
      <trkpt lat="45.44723" lon="5.9049">
        <ele>1212.36</ele>
        <time>2013-08-24T06:41:45Z</time>
      </trkpt>
      <trkpt lat="45.44726" lon="5.90491">
        <ele>1212.84</ele>
        <time>2013-08-24T06:41:49Z</time>
      </trkpt>
      <trkpt lat="45.44729" lon="5.90491">
        <ele>1213.32</ele>
        <time>2013-08-24T06:41:53Z</time>
      </trkpt>
      <trkpt lat="45.44733" lon="5.90491">
        <ele>1214.28</ele>
        <time>2013-08-24T06:41:57Z</time>
      </trkpt>
      <trkpt lat="45.44736" lon="5.90491">
        <ele>1214.28</ele>
        <time>2013-08-24T06:42:01Z</time>
      </trkpt>
      <trkpt lat="45.4474" lon="5.9049">
        <ele>1215.24</ele>
        <time>2013-08-24T06:42:05Z</time>
      </trkpt>
      <trkpt lat="45.44743" lon="5.90491">
        <ele>1215.72</ele>
        <time>2013-08-24T06:42:09Z</time>
      </trkpt>
      <trkpt lat="45.44747" lon="5.9049">
        <ele>1216.21</ele>
        <time>2013-08-24T06:42:13Z</time>
      </trkpt>
      <trkpt lat="45.44751" lon="5.9049">
        <ele>1216.69</ele>
        <time>2013-08-24T06:42:17Z</time>
      </trkpt>
      <trkpt lat="45.44754" lon="5.90489">
        <ele>1217.65</ele>
        <time>2013-08-24T06:42:21Z</time>
      </trkpt>
      <trkpt lat="45.44757" lon="5.90487">
        <ele>1218.13</ele>
        <time>2013-08-24T06:42:25Z</time>
      </trkpt>
      <trkpt lat="45.44761" lon="5.90485">
        <ele>1218.61</ele>
        <time>2013-08-24T06:42:29Z</time>
      </trkpt>
      <trkpt lat="45.44765" lon="5.90484">
        <ele>1218.61</ele>
        <time>2013-08-24T06:42:33Z</time>
      </trkpt>
      <trkpt lat="45.44768" lon="5.90483">
        <ele>1218.13</ele>
        <time>2013-08-24T06:42:37Z</time>
      </trkpt>
      <trkpt lat="45.44771" lon="5.90482">
        <ele>1218.13</ele>
        <time>2013-08-24T06:42:41Z</time>
      </trkpt>
      <trkpt lat="45.44774" lon="5.9048">
        <ele>1218.13</ele>
        <time>2013-08-24T06:42:45Z</time>
      </trkpt>
      <trkpt lat="45.44776" lon="5.90481">
        <ele>1217.65</ele>
        <time>2013-08-24T06:42:49Z</time>
      </trkpt>
      <trkpt lat="45.44777" lon="5.9048">
        <ele>1217.65</ele>
        <time>2013-08-24T06:42:53Z</time>
      </trkpt>
      <trkpt lat="45.44778" lon="5.90481">
        <ele>1218.13</ele>
        <time>2013-08-24T06:42:57Z</time>
      </trkpt>
      <trkpt lat="45.44777" lon="5.90481">
        <ele>1218.61</ele>
        <time>2013-08-24T06:43:01Z</time>
      </trkpt>
      <trkpt lat="45.44779" lon="5.90482">
        <ele>1218.13</ele>
        <time>2013-08-24T06:43:05Z</time>
      </trkpt>
      <trkpt lat="45.4478" lon="5.90483">
        <ele>1217.65</ele>
        <time>2013-08-24T06:43:09Z</time>
      </trkpt>
      <trkpt lat="45.4478" lon="5.90485">
        <ele>1217.65</ele>
        <time>2013-08-24T06:43:13Z</time>
      </trkpt>
      <trkpt lat="45.4478" lon="5.90485">
        <ele>1217.17</ele>
        <time>2013-08-24T06:43:17Z</time>
      </trkpt>
      <trkpt lat="45.44779" lon="5.90489">
        <ele>1216.69</ele>
        <time>2013-08-24T06:43:21Z</time>
      </trkpt>
      <trkpt lat="45.44778" lon="5.90493">
        <ele>1216.69</ele>
        <time>2013-08-24T06:43:25Z</time>
      </trkpt>
      <trkpt lat="45.44776" lon="5.90497">
        <ele>1217.17</ele>
        <time>2013-08-24T06:43:29Z</time>
      </trkpt>
      <trkpt lat="45.44773" lon="5.90501">
        <ele>1216.21</ele>
        <time>2013-08-24T06:43:33Z</time>
      </trkpt>
      <trkpt lat="45.4477" lon="5.90506">
        <ele>1216.21</ele>
        <time>2013-08-24T06:43:37Z</time>
      </trkpt>
      <trkpt lat="45.44767" lon="5.90511">
        <ele>1215.72</ele>
        <time>2013-08-24T06:43:41Z</time>
      </trkpt>
      <trkpt lat="45.44764" lon="5.90516">
        <ele>1215.72</ele>
        <time>2013-08-24T06:43:45Z</time>
      </trkpt>
      <trkpt lat="45.44762" lon="5.9052">
        <ele>1215.24</ele>
        <time>2013-08-24T06:43:49Z</time>
      </trkpt>
      <trkpt lat="45.4476" lon="5.90525">
        <ele>1215.72</ele>
        <time>2013-08-24T06:43:53Z</time>
      </trkpt>
      <trkpt lat="45.44758" lon="5.90531">
        <ele>1216.21</ele>
        <time>2013-08-24T06:43:57Z</time>
      </trkpt>
      <trkpt lat="45.44757" lon="5.90535">
        <ele>1216.21</ele>
        <time>2013-08-24T06:44:01Z</time>
      </trkpt>
      <trkpt lat="45.44756" lon="5.9054">
        <ele>1216.69</ele>
        <time>2013-08-24T06:44:05Z</time>
      </trkpt>
      <trkpt lat="45.44755" lon="5.90545">
        <ele>1217.65</ele>
        <time>2013-08-24T06:44:09Z</time>
      </trkpt>
      <trkpt lat="45.44753" lon="5.9055">
        <ele>1218.61</ele>
        <time>2013-08-24T06:44:13Z</time>
      </trkpt>
      <trkpt lat="45.44752" lon="5.90553">
        <ele>1219.09</ele>
        <time>2013-08-24T06:44:17Z</time>
      </trkpt>
      <trkpt lat="45.44752" lon="5.90557">
        <ele>1219.57</ele>
        <time>2013-08-24T06:44:21Z</time>
      </trkpt>
      <trkpt lat="45.44751" lon="5.90561">
        <ele>1221.01</ele>
        <time>2013-08-24T06:44:25Z</time>
      </trkpt>
      <trkpt lat="45.4475" lon="5.90565">
        <ele>1222.45</ele>
        <time>2013-08-24T06:44:29Z</time>
      </trkpt>
      <trkpt lat="45.44749" lon="5.90568">
        <ele>1223.42</ele>
        <time>2013-08-24T06:44:33Z</time>
      </trkpt>
      <trkpt lat="45.44748" lon="5.90572">
        <ele>1224.38</ele>
        <time>2013-08-24T06:44:37Z</time>
      </trkpt>
      <trkpt lat="45.44747" lon="5.90578">
        <ele>1225.82</ele>
        <time>2013-08-24T06:44:41Z</time>
      </trkpt>
      <trkpt lat="45.44746" lon="5.90583">
        <ele>1226.78</ele>
        <time>2013-08-24T06:44:45Z</time>
      </trkpt>
      <trkpt lat="45.44746" lon="5.9059">
        <ele>1227.74</ele>
        <time>2013-08-24T06:44:49Z</time>
      </trkpt>
      <trkpt lat="45.44745" lon="5.90597">
        <ele>1228.7</ele>
        <time>2013-08-24T06:44:53Z</time>
      </trkpt>
      <trkpt lat="45.44746" lon="5.90602">
        <ele>1229.18</ele>
        <time>2013-08-24T06:44:57Z</time>
      </trkpt>
      <trkpt lat="45.44745" lon="5.90608">
        <ele>1229.66</ele>
        <time>2013-08-24T06:45:01Z</time>
      </trkpt>
      <trkpt lat="45.44744" lon="5.90614">
        <ele>1230.62</ele>
        <time>2013-08-24T06:45:05Z</time>
      </trkpt>
      <trkpt lat="45.44744" lon="5.90618">
        <ele>1231.11</ele>
        <time>2013-08-24T06:45:08Z</time>
      </trkpt>
      <trkpt lat="45.44743" lon="5.90627">
        <ele>1232.07</ele>
        <time>2013-08-24T06:45:13Z</time>
      </trkpt>
      <trkpt lat="45.44742" lon="5.90633">
        <ele>1232.07</ele>
        <time>2013-08-24T06:45:17Z</time>
      </trkpt>
      <trkpt lat="45.44741" lon="5.9064">
        <ele>1232.55</ele>
        <time>2013-08-24T06:45:21Z</time>
      </trkpt>
      <trkpt lat="45.44741" lon="5.90647">
        <ele>1233.99</ele>
        <time>2013-08-24T06:45:25Z</time>
      </trkpt>
      <trkpt lat="45.44741" lon="5.90653">
        <ele>1234.47</ele>
        <time>2013-08-24T06:45:29Z</time>
      </trkpt>
      <trkpt lat="45.4474" lon="5.9066">
        <ele>1235.43</ele>
        <time>2013-08-24T06:45:33Z</time>
      </trkpt>
      <trkpt lat="45.44739" lon="5.90665">
        <ele>1236.39</ele>
        <time>2013-08-24T06:45:37Z</time>
      </trkpt>
      <trkpt lat="45.44738" lon="5.90671">
        <ele>1236.39</ele>
        <time>2013-08-24T06:45:41Z</time>
      </trkpt>
      <trkpt lat="45.44737" lon="5.90677">
        <ele>1236.87</ele>
        <time>2013-08-24T06:45:45Z</time>
      </trkpt>
      <trkpt lat="45.44736" lon="5.90682">
        <ele>1237.83</ele>
        <time>2013-08-24T06:45:49Z</time>
      </trkpt>
      <trkpt lat="45.44735" lon="5.90686">
        <ele>1238.32</ele>
        <time>2013-08-24T06:45:53Z</time>
      </trkpt>
      <trkpt lat="45.44735" lon="5.9069">
        <ele>1238.8</ele>
        <time>2013-08-24T06:45:57Z</time>
      </trkpt>
      <trkpt lat="45.44734" lon="5.90695">
        <ele>1239.76</ele>
        <time>2013-08-24T06:46:01Z</time>
      </trkpt>
      <trkpt lat="45.44733" lon="5.90699">
        <ele>1240.72</ele>
        <time>2013-08-24T06:46:05Z</time>
      </trkpt>
      <trkpt lat="45.44733" lon="5.90702">
        <ele>1241.2</ele>
        <time>2013-08-24T06:46:09Z</time>
      </trkpt>
      <trkpt lat="45.44733" lon="5.90707">
        <ele>1242.64</ele>
        <time>2013-08-24T06:46:13Z</time>
      </trkpt>
      <trkpt lat="45.44733" lon="5.90713">
        <ele>1243.6</ele>
        <time>2013-08-24T06:46:17Z</time>
      </trkpt>
      <trkpt lat="45.44732" lon="5.90719">
        <ele>1245.04</ele>
        <time>2013-08-24T06:46:21Z</time>
      </trkpt>
      <trkpt lat="45.44733" lon="5.90725">
        <ele>1246.49</ele>
        <time>2013-08-24T06:46:25Z</time>
      </trkpt>
      <trkpt lat="45.44733" lon="5.90731">
        <ele>1247.93</ele>
        <time>2013-08-24T06:46:29Z</time>
      </trkpt>
      <trkpt lat="45.44734" lon="5.90737">
        <ele>1248.89</ele>
        <time>2013-08-24T06:46:33Z</time>
      </trkpt>
      <trkpt lat="45.44734" lon="5.90743">
        <ele>1248.89</ele>
        <time>2013-08-24T06:46:37Z</time>
      </trkpt>
      <trkpt lat="45.44734" lon="5.90746">
        <ele>1249.37</ele>
        <time>2013-08-24T06:46:40Z</time>
      </trkpt>
      <trkpt lat="45.44736" lon="5.90752">
        <ele>1250.33</ele>
        <time>2013-08-24T06:46:45Z</time>
      </trkpt>
      <trkpt lat="45.44737" lon="5.90757">
        <ele>1251.77</ele>
        <time>2013-08-24T06:46:49Z</time>
      </trkpt>
      <trkpt lat="45.44738" lon="5.90762">
        <ele>1252.25</ele>
        <time>2013-08-24T06:46:53Z</time>
      </trkpt>
      <trkpt lat="45.4474" lon="5.90766">
        <ele>1253.7</ele>
        <time>2013-08-24T06:46:57Z</time>
      </trkpt>
      <trkpt lat="45.44741" lon="5.9077">
        <ele>1254.18</ele>
        <time>2013-08-24T06:47:01Z</time>
      </trkpt>
      <trkpt lat="45.44742" lon="5.90774">
        <ele>1254.66</ele>
        <time>2013-08-24T06:47:05Z</time>
      </trkpt>
      <trkpt lat="45.44743" lon="5.90778">
        <ele>1255.14</ele>
        <time>2013-08-24T06:47:09Z</time>
      </trkpt>
      <trkpt lat="45.44744" lon="5.90781">
        <ele>1256.1</ele>
        <time>2013-08-24T06:47:13Z</time>
      </trkpt>
      <trkpt lat="45.44745" lon="5.90784">
        <ele>1256.58</ele>
        <time>2013-08-24T06:47:17Z</time>
      </trkpt>
      <trkpt lat="45.44746" lon="5.90788">
        <ele>1257.06</ele>
        <time>2013-08-24T06:47:21Z</time>
      </trkpt>
      <trkpt lat="45.44746" lon="5.90793">
        <ele>1258.02</ele>
        <time>2013-08-24T06:47:25Z</time>
      </trkpt>
      <trkpt lat="45.44746" lon="5.90799">
        <ele>1258.98</ele>
        <time>2013-08-24T06:47:29Z</time>
      </trkpt>
      <trkpt lat="45.44747" lon="5.90803">
        <ele>1260.43</ele>
        <time>2013-08-24T06:47:33Z</time>
      </trkpt>
      <trkpt lat="45.44748" lon="5.90807">
        <ele>1261.87</ele>
        <time>2013-08-24T06:47:37Z</time>
      </trkpt>
      <trkpt lat="45.44748" lon="5.90811">
        <ele>1262.83</ele>
        <time>2013-08-24T06:47:41Z</time>
      </trkpt>
      <trkpt lat="45.44749" lon="5.90815">
        <ele>1263.31</ele>
        <time>2013-08-24T06:47:45Z</time>
      </trkpt>
      <trkpt lat="45.44749" lon="5.90821">
        <ele>1264.27</ele>
        <time>2013-08-24T06:47:49Z</time>
      </trkpt>
      <trkpt lat="45.4475" lon="5.90826">
        <ele>1265.23</ele>
        <time>2013-08-24T06:47:53Z</time>
      </trkpt>
      <trkpt lat="45.44751" lon="5.9083">
        <ele>1266.19</ele>
        <time>2013-08-24T06:47:57Z</time>
      </trkpt>
      <trkpt lat="45.44753" lon="5.90835">
        <ele>1267.16</ele>
        <time>2013-08-24T06:48:01Z</time>
      </trkpt>
      <trkpt lat="45.44755" lon="5.90837">
        <ele>1267.64</ele>
        <time>2013-08-24T06:48:05Z</time>
      </trkpt>
      <trkpt lat="45.44756" lon="5.9084">
        <ele>1268.12</ele>
        <time>2013-08-24T06:48:09Z</time>
      </trkpt>
      <trkpt lat="45.44758" lon="5.90842">
        <ele>1268.6</ele>
        <time>2013-08-24T06:48:13Z</time>
      </trkpt>
      <trkpt lat="45.4476" lon="5.90844">
        <ele>1269.08</ele>
        <time>2013-08-24T06:48:17Z</time>
      </trkpt>
      <trkpt lat="45.44762" lon="5.90846">
        <ele>1270.52</ele>
        <time>2013-08-24T06:48:21Z</time>
      </trkpt>
      <trkpt lat="45.44765" lon="5.90849">
        <ele>1271.48</ele>
        <time>2013-08-24T06:48:25Z</time>
      </trkpt>
      <trkpt lat="45.44769" lon="5.90852">
        <ele>1273.4</ele>
        <time>2013-08-24T06:48:29Z</time>
      </trkpt>
      <trkpt lat="45.44774" lon="5.90855">
        <ele>1276.29</ele>
        <time>2013-08-24T06:48:33Z</time>
      </trkpt>
      <trkpt lat="45.44776" lon="5.90857">
        <ele>1278.69</ele>
        <time>2013-08-24T06:48:37Z</time>
      </trkpt>
      <trkpt lat="45.44777" lon="5.90859">
        <ele>1281.57</ele>
        <time>2013-08-24T06:48:41Z</time>
      </trkpt>
      <trkpt lat="45.44778" lon="5.90861">
        <ele>1283.02</ele>
        <time>2013-08-24T06:48:45Z</time>
      </trkpt>
      <trkpt lat="45.4478" lon="5.90862">
        <ele>1284.46</ele>
        <time>2013-08-24T06:48:49Z</time>
      </trkpt>
      <trkpt lat="45.44784" lon="5.90863">
        <ele>1285.9</ele>
        <time>2013-08-24T06:48:53Z</time>
      </trkpt>
      <trkpt lat="45.44786" lon="5.90864">
        <ele>1287.34</ele>
        <time>2013-08-24T06:48:57Z</time>
      </trkpt>
      <trkpt lat="45.44789" lon="5.90864">
        <ele>1288.78</ele>
        <time>2013-08-24T06:49:01Z</time>
      </trkpt>
      <trkpt lat="45.44791" lon="5.90866">
        <ele>1290.23</ele>
        <time>2013-08-24T06:49:05Z</time>
      </trkpt>
      <trkpt lat="45.44793" lon="5.90868">
        <ele>1291.67</ele>
        <time>2013-08-24T06:49:09Z</time>
      </trkpt>
      <trkpt lat="45.44798" lon="5.90871">
        <ele>1292.15</ele>
        <time>2013-08-24T06:49:13Z</time>
      </trkpt>
      <trkpt lat="45.448" lon="5.90872">
        <ele>1293.11</ele>
        <time>2013-08-24T06:49:17Z</time>
      </trkpt>
      <trkpt lat="45.44803" lon="5.90872">
        <ele>1294.07</ele>
        <time>2013-08-24T06:49:21Z</time>
      </trkpt>
      <trkpt lat="45.44806" lon="5.90873">
        <ele>1295.03</ele>
        <time>2013-08-24T06:49:25Z</time>
      </trkpt>
      <trkpt lat="45.4481" lon="5.90874">
        <ele>1295.51</ele>
        <time>2013-08-24T06:49:29Z</time>
      </trkpt>
      <trkpt lat="45.44813" lon="5.90874">
        <ele>1296.96</ele>
        <time>2013-08-24T06:49:33Z</time>
      </trkpt>
      <trkpt lat="45.44817" lon="5.90874">
        <ele>1298.4</ele>
        <time>2013-08-24T06:49:37Z</time>
      </trkpt>
      <trkpt lat="45.4482" lon="5.90874">
        <ele>1299.84</ele>
        <time>2013-08-24T06:49:41Z</time>
      </trkpt>
      <trkpt lat="45.44823" lon="5.90873">
        <ele>1301.28</ele>
        <time>2013-08-24T06:49:45Z</time>
      </trkpt>
      <trkpt lat="45.44826" lon="5.90874">
        <ele>1302.72</ele>
        <time>2013-08-24T06:49:49Z</time>
      </trkpt>
      <trkpt lat="45.44829" lon="5.90874">
        <ele>1304.65</ele>
        <time>2013-08-24T06:49:53Z</time>
      </trkpt>
      <trkpt lat="45.44832" lon="5.90874">
        <ele>1305.61</ele>
        <time>2013-08-24T06:49:57Z</time>
      </trkpt>
      <trkpt lat="45.44835" lon="5.90875">
        <ele>1306.57</ele>
        <time>2013-08-24T06:50:01Z</time>
      </trkpt>
      <trkpt lat="45.44839" lon="5.90877">
        <ele>1308.01</ele>
        <time>2013-08-24T06:50:05Z</time>
      </trkpt>
      <trkpt lat="45.44843" lon="5.90879">
        <ele>1308.97</ele>
        <time>2013-08-24T06:50:09Z</time>
      </trkpt>
      <trkpt lat="45.44847" lon="5.90881">
        <ele>1309.93</ele>
        <time>2013-08-24T06:50:13Z</time>
      </trkpt>
      <trkpt lat="45.4485" lon="5.90883">
        <ele>1311.38</ele>
        <time>2013-08-24T06:50:17Z</time>
      </trkpt>
      <trkpt lat="45.44854" lon="5.90885">
        <ele>1311.86</ele>
        <time>2013-08-24T06:50:21Z</time>
      </trkpt>
      <trkpt lat="45.44858" lon="5.90888">
        <ele>1312.34</ele>
        <time>2013-08-24T06:50:25Z</time>
      </trkpt>
      <trkpt lat="45.44861" lon="5.90891">
        <ele>1313.3</ele>
        <time>2013-08-24T06:50:29Z</time>
      </trkpt>
      <trkpt lat="45.44865" lon="5.90893">
        <ele>1313.78</ele>
        <time>2013-08-24T06:50:33Z</time>
      </trkpt>
      <trkpt lat="45.44868" lon="5.90895">
        <ele>1314.26</ele>
        <time>2013-08-24T06:50:37Z</time>
      </trkpt>
      <trkpt lat="45.44872" lon="5.90898">
        <ele>1313.78</ele>
        <time>2013-08-24T06:50:41Z</time>
      </trkpt>
      <trkpt lat="45.44875" lon="5.90902">
        <ele>1313.78</ele>
        <time>2013-08-24T06:50:45Z</time>
      </trkpt>
      <trkpt lat="45.44879" lon="5.90904">
        <ele>1314.74</ele>
        <time>2013-08-24T06:50:49Z</time>
      </trkpt>
      <trkpt lat="45.44881" lon="5.90906">
        <ele>1315.7</ele>
        <time>2013-08-24T06:50:53Z</time>
      </trkpt>
      <trkpt lat="45.44884" lon="5.90908">
        <ele>1317.14</ele>
        <time>2013-08-24T06:50:57Z</time>
      </trkpt>
      <trkpt lat="45.44887" lon="5.90911">
        <ele>1318.1</ele>
        <time>2013-08-24T06:51:01Z</time>
      </trkpt>
      <trkpt lat="45.4489" lon="5.90913">
        <ele>1319.07</ele>
        <time>2013-08-24T06:51:05Z</time>
      </trkpt>
      <trkpt lat="45.44894" lon="5.90916">
        <ele>1319.07</ele>
        <time>2013-08-24T06:51:09Z</time>
      </trkpt>
      <trkpt lat="45.44896" lon="5.90918">
        <ele>1320.99</ele>
        <time>2013-08-24T06:51:13Z</time>
      </trkpt>
      <trkpt lat="45.44898" lon="5.90917">
        <ele>1322.43</ele>
        <time>2013-08-24T06:51:17Z</time>
      </trkpt>
      <trkpt lat="45.449" lon="5.90918">
        <ele>1323.87</ele>
        <time>2013-08-24T06:51:21Z</time>
      </trkpt>
      <trkpt lat="45.44902" lon="5.90917">
        <ele>1324.83</ele>
        <time>2013-08-24T06:51:25Z</time>
      </trkpt>
      <trkpt lat="45.44904" lon="5.90918">
        <ele>1325.8</ele>
        <time>2013-08-24T06:51:29Z</time>
      </trkpt>
      <trkpt lat="45.44906" lon="5.90917">
        <ele>1326.28</ele>
        <time>2013-08-24T06:51:33Z</time>
      </trkpt>
      <trkpt lat="45.44909" lon="5.90918">
        <ele>1327.72</ele>
        <time>2013-08-24T06:51:37Z</time>
      </trkpt>
      <trkpt lat="45.44911" lon="5.90918">
        <ele>1328.68</ele>
        <time>2013-08-24T06:51:41Z</time>
      </trkpt>
      <trkpt lat="45.44912" lon="5.90917">
        <ele>1329.64</ele>
        <time>2013-08-24T06:51:45Z</time>
      </trkpt>
      <trkpt lat="45.44915" lon="5.90919">
        <ele>1330.6</ele>
        <time>2013-08-24T06:51:49Z</time>
      </trkpt>
      <trkpt lat="45.44918" lon="5.9092">
        <ele>1331.56</ele>
        <time>2013-08-24T06:51:53Z</time>
      </trkpt>
      <trkpt lat="45.44922" lon="5.90924">
        <ele>1332.52</ele>
        <time>2013-08-24T06:51:57Z</time>
      </trkpt>
      <trkpt lat="45.44925" lon="5.90925">
        <ele>1333.01</ele>
        <time>2013-08-24T06:52:01Z</time>
      </trkpt>
      <trkpt lat="45.44927" lon="5.90929">
        <ele>1333.49</ele>
        <time>2013-08-24T06:52:05Z</time>
      </trkpt>
      <trkpt lat="45.44929" lon="5.9093">
        <ele>1334.45</ele>
        <time>2013-08-24T06:52:09Z</time>
      </trkpt>
      <trkpt lat="45.44931" lon="5.90929">
        <ele>1335.41</ele>
        <time>2013-08-24T06:52:13Z</time>
      </trkpt>
      <trkpt lat="45.44934" lon="5.90929">
        <ele>1336.37</ele>
        <time>2013-08-24T06:52:17Z</time>
      </trkpt>
      <trkpt lat="45.44937" lon="5.9093">
        <ele>1337.33</ele>
        <time>2013-08-24T06:52:21Z</time>
      </trkpt>
      <trkpt lat="45.4494" lon="5.9093">
        <ele>1337.81</ele>
        <time>2013-08-24T06:52:25Z</time>
      </trkpt>
      <trkpt lat="45.44944" lon="5.90931">
        <ele>1338.77</ele>
        <time>2013-08-24T06:52:29Z</time>
      </trkpt>
      <trkpt lat="45.44947" lon="5.90932">
        <ele>1341.18</ele>
        <time>2013-08-24T06:52:33Z</time>
      </trkpt>
      <trkpt lat="45.44949" lon="5.9093">
        <ele>1342.62</ele>
        <time>2013-08-24T06:52:37Z</time>
      </trkpt>
      <trkpt lat="45.4495" lon="5.90929">
        <ele>1344.06</ele>
        <time>2013-08-24T06:52:41Z</time>
      </trkpt>
      <trkpt lat="45.44951" lon="5.90929">
        <ele>1345.5</ele>
        <time>2013-08-24T06:52:45Z</time>
      </trkpt>
      <trkpt lat="45.44953" lon="5.90929">
        <ele>1346.46</ele>
        <time>2013-08-24T06:52:49Z</time>
      </trkpt>
      <trkpt lat="45.44955" lon="5.90931">
        <ele>1347.91</ele>
        <time>2013-08-24T06:52:53Z</time>
      </trkpt>
      <trkpt lat="45.44957" lon="5.90932">
        <ele>1348.87</ele>
        <time>2013-08-24T06:52:57Z</time>
      </trkpt>
      <trkpt lat="45.44959" lon="5.90933">
        <ele>1349.35</ele>
        <time>2013-08-24T06:53:01Z</time>
      </trkpt>
      <trkpt lat="45.44962" lon="5.90933">
        <ele>1350.31</ele>
        <time>2013-08-24T06:53:05Z</time>
      </trkpt>
      <trkpt lat="45.44964" lon="5.90934">
        <ele>1350.79</ele>
        <time>2013-08-24T06:53:09Z</time>
      </trkpt>
      <trkpt lat="45.44966" lon="5.90935">
        <ele>1351.75</ele>
        <time>2013-08-24T06:53:13Z</time>
      </trkpt>
      <trkpt lat="45.44968" lon="5.90935">
        <ele>1352.71</ele>
        <time>2013-08-24T06:53:17Z</time>
      </trkpt>
      <trkpt lat="45.4497" lon="5.90933">
        <ele>1353.67</ele>
        <time>2013-08-24T06:53:21Z</time>
      </trkpt>
      <trkpt lat="45.44972" lon="5.90933">
        <ele>1354.15</ele>
        <time>2013-08-24T06:53:25Z</time>
      </trkpt>
      <trkpt lat="45.44974" lon="5.90933">
        <ele>1355.12</ele>
        <time>2013-08-24T06:53:29Z</time>
      </trkpt>
      <trkpt lat="45.44977" lon="5.90933">
        <ele>1356.56</ele>
        <time>2013-08-24T06:53:33Z</time>
      </trkpt>
      <trkpt lat="45.44978" lon="5.90933">
        <ele>1357.52</ele>
        <time>2013-08-24T06:53:37Z</time>
      </trkpt>
      <trkpt lat="45.4498" lon="5.90933">
        <ele>1358</ele>
        <time>2013-08-24T06:53:41Z</time>
      </trkpt>
      <trkpt lat="45.44982" lon="5.90932">
        <ele>1358.48</ele>
        <time>2013-08-24T06:53:45Z</time>
      </trkpt>
      <trkpt lat="45.44984" lon="5.90933">
        <ele>1359.44</ele>
        <time>2013-08-24T06:53:49Z</time>
      </trkpt>
      <trkpt lat="45.44986" lon="5.90932">
        <ele>1359.92</ele>
        <time>2013-08-24T06:53:53Z</time>
      </trkpt>
      <trkpt lat="45.44987" lon="5.90933">
        <ele>1360.4</ele>
        <time>2013-08-24T06:53:57Z</time>
      </trkpt>
      <trkpt lat="45.44989" lon="5.90934">
        <ele>1361.36</ele>
        <time>2013-08-24T06:54:01Z</time>
      </trkpt>
      <trkpt lat="45.4499" lon="5.90934">
        <ele>1362.33</ele>
        <time>2013-08-24T06:54:05Z</time>
      </trkpt>
      <trkpt lat="45.44993" lon="5.90934">
        <ele>1363.29</ele>
        <time>2013-08-24T06:54:09Z</time>
      </trkpt>
      <trkpt lat="45.44995" lon="5.90935">
        <ele>1363.77</ele>
        <time>2013-08-24T06:54:13Z</time>
      </trkpt>
      <trkpt lat="45.44997" lon="5.90936">
        <ele>1363.77</ele>
        <time>2013-08-24T06:54:17Z</time>
      </trkpt>
      <trkpt lat="45.45001" lon="5.90936">
        <ele>1363.77</ele>
        <time>2013-08-24T06:54:21Z</time>
      </trkpt>
      <trkpt lat="45.45004" lon="5.90937">
        <ele>1363.29</ele>
        <time>2013-08-24T06:54:25Z</time>
      </trkpt>
      <trkpt lat="45.45006" lon="5.90938">
        <ele>1362.81</ele>
        <time>2013-08-24T06:54:29Z</time>
      </trkpt>
      <trkpt lat="45.45009" lon="5.90938">
        <ele>1361.84</ele>
        <time>2013-08-24T06:54:33Z</time>
      </trkpt>
      <trkpt lat="45.45012" lon="5.90938">
        <ele>1361.84</ele>
        <time>2013-08-24T06:54:37Z</time>
      </trkpt>
      <trkpt lat="45.45016" lon="5.90938">
        <ele>1361.36</ele>
        <time>2013-08-24T06:54:41Z</time>
      </trkpt>
      <trkpt lat="45.45018" lon="5.90937">
        <ele>1361.84</ele>
        <time>2013-08-24T06:54:45Z</time>
      </trkpt>
      <trkpt lat="45.4502" lon="5.90936">
        <ele>1362.33</ele>
        <time>2013-08-24T06:54:49Z</time>
      </trkpt>
      <trkpt lat="45.45022" lon="5.90935">
        <ele>1363.29</ele>
        <time>2013-08-24T06:54:53Z</time>
      </trkpt>
      <trkpt lat="45.45024" lon="5.90935">
        <ele>1363.29</ele>
        <time>2013-08-24T06:54:57Z</time>
      </trkpt>
      <trkpt lat="45.45026" lon="5.90935">
        <ele>1363.77</ele>
        <time>2013-08-24T06:55:01Z</time>
      </trkpt>
      <trkpt lat="45.45029" lon="5.90935">
        <ele>1364.25</ele>
        <time>2013-08-24T06:55:05Z</time>
      </trkpt>
      <trkpt lat="45.45031" lon="5.90935">
        <ele>1365.21</ele>
        <time>2013-08-24T06:55:09Z</time>
      </trkpt>
      <trkpt lat="45.45034" lon="5.90935">
        <ele>1366.65</ele>
        <time>2013-08-24T06:55:13Z</time>
      </trkpt>
      <trkpt lat="45.45036" lon="5.90935">
        <ele>1368.09</ele>
        <time>2013-08-24T06:55:17Z</time>
      </trkpt>
      <trkpt lat="45.45039" lon="5.90935">
        <ele>1369.05</ele>
        <time>2013-08-24T06:55:21Z</time>
      </trkpt>
      <trkpt lat="45.45041" lon="5.90935">
        <ele>1370.02</ele>
        <time>2013-08-24T06:55:25Z</time>
      </trkpt>
      <trkpt lat="45.45043" lon="5.90937">
        <ele>1371.46</ele>
        <time>2013-08-24T06:55:29Z</time>
      </trkpt>
      <trkpt lat="45.45045" lon="5.9094">
        <ele>1372.42</ele>
        <time>2013-08-24T06:55:33Z</time>
      </trkpt>
      <trkpt lat="45.45047" lon="5.90941">
        <ele>1373.38</ele>
        <time>2013-08-24T06:55:37Z</time>
      </trkpt>
      <trkpt lat="45.45049" lon="5.90941">
        <ele>1374.34</ele>
        <time>2013-08-24T06:55:41Z</time>
      </trkpt>
      <trkpt lat="45.45052" lon="5.90943">
        <ele>1374.82</ele>
        <time>2013-08-24T06:55:45Z</time>
      </trkpt>
      <trkpt lat="45.45054" lon="5.90945">
        <ele>1375.78</ele>
        <time>2013-08-24T06:55:49Z</time>
      </trkpt>
      <trkpt lat="45.45056" lon="5.90948">
        <ele>1375.78</ele>
        <time>2013-08-24T06:55:53Z</time>
      </trkpt>
      <trkpt lat="45.45059" lon="5.9095">
        <ele>1376.26</ele>
        <time>2013-08-24T06:55:57Z</time>
      </trkpt>
      <trkpt lat="45.45061" lon="5.90951">
        <ele>1377.23</ele>
        <time>2013-08-24T06:56:01Z</time>
      </trkpt>
      <trkpt lat="45.45063" lon="5.90953">
        <ele>1378.19</ele>
        <time>2013-08-24T06:56:05Z</time>
      </trkpt>
      <trkpt lat="45.45065" lon="5.90955">
        <ele>1378.67</ele>
        <time>2013-08-24T06:56:09Z</time>
      </trkpt>
      <trkpt lat="45.45068" lon="5.90957">
        <ele>1379.15</ele>
        <time>2013-08-24T06:56:13Z</time>
      </trkpt>
      <trkpt lat="45.45071" lon="5.9096">
        <ele>1380.11</ele>
        <time>2013-08-24T06:56:17Z</time>
      </trkpt>
      <trkpt lat="45.45073" lon="5.90961">
        <ele>1381.07</ele>
        <time>2013-08-24T06:56:21Z</time>
      </trkpt>
      <trkpt lat="45.45076" lon="5.90964">
        <ele>1381.55</ele>
        <time>2013-08-24T06:56:25Z</time>
      </trkpt>
      <trkpt lat="45.45077" lon="5.90966">
        <ele>1381.55</ele>
        <time>2013-08-24T06:56:29Z</time>
      </trkpt>
      <trkpt lat="45.4508" lon="5.90968">
        <ele>1382.03</ele>
        <time>2013-08-24T06:56:33Z</time>
      </trkpt>
      <trkpt lat="45.45082" lon="5.9097">
        <ele>1382.03</ele>
        <time>2013-08-24T06:56:37Z</time>
      </trkpt>
      <trkpt lat="45.45083" lon="5.90972">
        <ele>1382.51</ele>
        <time>2013-08-24T06:56:41Z</time>
      </trkpt>
      <trkpt lat="45.45085" lon="5.90973">
        <ele>1383.47</ele>
        <time>2013-08-24T06:56:45Z</time>
      </trkpt>
      <trkpt lat="45.45087" lon="5.90975">
        <ele>1383.96</ele>
        <time>2013-08-24T06:56:49Z</time>
      </trkpt>
      <trkpt lat="45.45089" lon="5.90976">
        <ele>1384.44</ele>
        <time>2013-08-24T06:56:53Z</time>
      </trkpt>
      <trkpt lat="45.45091" lon="5.90979">
        <ele>1384.92</ele>
        <time>2013-08-24T06:56:57Z</time>
      </trkpt>
      <trkpt lat="45.45092" lon="5.90983">
        <ele>1385.88</ele>
        <time>2013-08-24T06:57:01Z</time>
      </trkpt>
      <trkpt lat="45.45093" lon="5.90987">
        <ele>1385.88</ele>
        <time>2013-08-24T06:57:05Z</time>
      </trkpt>
      <trkpt lat="45.45095" lon="5.9099">
        <ele>1386.84</ele>
        <time>2013-08-24T06:57:09Z</time>
      </trkpt>
      <trkpt lat="45.45097" lon="5.90992">
        <ele>1387.8</ele>
        <time>2013-08-24T06:57:13Z</time>
      </trkpt>
      <trkpt lat="45.45099" lon="5.90994">
        <ele>1388.76</ele>
        <time>2013-08-24T06:57:17Z</time>
      </trkpt>
      <trkpt lat="45.451" lon="5.90997">
        <ele>1389.24</ele>
        <time>2013-08-24T06:57:21Z</time>
      </trkpt>
      <trkpt lat="45.45101" lon="5.91001">
        <ele>1389.24</ele>
        <time>2013-08-24T06:57:25Z</time>
      </trkpt>
      <trkpt lat="45.45102" lon="5.91006">
        <ele>1389.24</ele>
        <time>2013-08-24T06:57:29Z</time>
      </trkpt>
      <trkpt lat="45.45104" lon="5.91008">
        <ele>1389.72</ele>
        <time>2013-08-24T06:57:33Z</time>
      </trkpt>
      <trkpt lat="45.45105" lon="5.9101">
        <ele>1390.2</ele>
        <time>2013-08-24T06:57:37Z</time>
      </trkpt>
      <trkpt lat="45.45107" lon="5.91013">
        <ele>1390.2</ele>
        <time>2013-08-24T06:57:41Z</time>
      </trkpt>
      <trkpt lat="45.4511" lon="5.91015">
        <ele>1390.2</ele>
        <time>2013-08-24T06:57:45Z</time>
      </trkpt>
      <trkpt lat="45.45111" lon="5.91019">
        <ele>1389.72</ele>
        <time>2013-08-24T06:57:49Z</time>
      </trkpt>
      <trkpt lat="45.45112" lon="5.91023">
        <ele>1390.2</ele>
        <time>2013-08-24T06:57:53Z</time>
      </trkpt>
      <trkpt lat="45.45114" lon="5.91026">
        <ele>1391.17</ele>
        <time>2013-08-24T06:57:57Z</time>
      </trkpt>
      <trkpt lat="45.45115" lon="5.91029">
        <ele>1392.61</ele>
        <time>2013-08-24T06:58:01Z</time>
      </trkpt>
      <trkpt lat="45.45116" lon="5.91031">
        <ele>1394.05</ele>
        <time>2013-08-24T06:58:05Z</time>
      </trkpt>
      <trkpt lat="45.45117" lon="5.91033">
        <ele>1395.01</ele>
        <time>2013-08-24T06:58:09Z</time>
      </trkpt>
      <trkpt lat="45.45118" lon="5.91037">
        <ele>1396.45</ele>
        <time>2013-08-24T06:58:13Z</time>
      </trkpt>
      <trkpt lat="45.4512" lon="5.9104">
        <ele>1398.37</ele>
        <time>2013-08-24T06:58:17Z</time>
      </trkpt>
      <trkpt lat="45.45122" lon="5.91043">
        <ele>1399.82</ele>
        <time>2013-08-24T06:58:21Z</time>
      </trkpt>
      <trkpt lat="45.45123" lon="5.91044">
        <ele>1400.78</ele>
        <time>2013-08-24T06:58:25Z</time>
      </trkpt>
      <trkpt lat="45.45124" lon="5.91046">
        <ele>1402.22</ele>
        <time>2013-08-24T06:58:29Z</time>
      </trkpt>
      <trkpt lat="45.45125" lon="5.91048">
        <ele>1402.7</ele>
        <time>2013-08-24T06:58:33Z</time>
      </trkpt>
      <trkpt lat="45.45126" lon="5.91051">
        <ele>1403.18</ele>
        <time>2013-08-24T06:58:37Z</time>
      </trkpt>
      <trkpt lat="45.45128" lon="5.91053">
        <ele>1404.14</ele>
        <time>2013-08-24T06:58:41Z</time>
      </trkpt>
      <trkpt lat="45.4513" lon="5.91056">
        <ele>1405.1</ele>
        <time>2013-08-24T06:58:45Z</time>
      </trkpt>
      <trkpt lat="45.45131" lon="5.91059">
        <ele>1406.07</ele>
        <time>2013-08-24T06:58:49Z</time>
      </trkpt>
      <trkpt lat="45.45133" lon="5.91062">
        <ele>1406.55</ele>
        <time>2013-08-24T06:58:53Z</time>
      </trkpt>
      <trkpt lat="45.45135" lon="5.91065">
        <ele>1407.03</ele>
        <time>2013-08-24T06:58:57Z</time>
      </trkpt>
      <trkpt lat="45.45136" lon="5.91068">
        <ele>1407.99</ele>
        <time>2013-08-24T06:59:01Z</time>
      </trkpt>
      <trkpt lat="45.45138" lon="5.91072">
        <ele>1409.43</ele>
        <time>2013-08-24T06:59:05Z</time>
      </trkpt>
      <trkpt lat="45.4514" lon="5.91076">
        <ele>1409.43</ele>
        <time>2013-08-24T06:59:09Z</time>
      </trkpt>
      <trkpt lat="45.45141" lon="5.91082">
        <ele>1410.39</ele>
        <time>2013-08-24T06:59:13Z</time>
      </trkpt>
      <trkpt lat="45.45142" lon="5.91086">
        <ele>1410.87</ele>
        <time>2013-08-24T06:59:17Z</time>
      </trkpt>
      <trkpt lat="45.45144" lon="5.91088">
        <ele>1410.39</ele>
        <time>2013-08-24T06:59:21Z</time>
      </trkpt>
      <trkpt lat="45.45145" lon="5.91091">
        <ele>1410.87</ele>
        <time>2013-08-24T06:59:25Z</time>
      </trkpt>
      <trkpt lat="45.45147" lon="5.91093">
        <ele>1412.31</ele>
        <time>2013-08-24T06:59:29Z</time>
      </trkpt>
      <trkpt lat="45.45148" lon="5.91095">
        <ele>1413.28</ele>
        <time>2013-08-24T06:59:33Z</time>
      </trkpt>
      <trkpt lat="45.45148" lon="5.91097">
        <ele>1414.72</ele>
        <time>2013-08-24T06:59:37Z</time>
      </trkpt>
      <trkpt lat="45.4515" lon="5.91099">
        <ele>1415.2</ele>
        <time>2013-08-24T06:59:41Z</time>
      </trkpt>
      <trkpt lat="45.45151" lon="5.91104">
        <ele>1416.16</ele>
        <time>2013-08-24T06:59:45Z</time>
      </trkpt>
      <trkpt lat="45.45153" lon="5.9111">
        <ele>1417.6</ele>
        <time>2013-08-24T06:59:49Z</time>
      </trkpt>
      <trkpt lat="45.45155" lon="5.91113">
        <ele>1417.6</ele>
        <time>2013-08-24T06:59:53Z</time>
      </trkpt>
      <trkpt lat="45.45157" lon="5.91115">
        <ele>1417.6</ele>
        <time>2013-08-24T06:59:57Z</time>
      </trkpt>
      <trkpt lat="45.45158" lon="5.91118">
        <ele>1418.56</ele>
        <time>2013-08-24T07:00:01Z</time>
      </trkpt>
      <trkpt lat="45.4516" lon="5.91121">
        <ele>1419.52</ele>
        <time>2013-08-24T07:00:05Z</time>
      </trkpt>
      <trkpt lat="45.45161" lon="5.91124">
        <ele>1420.49</ele>
        <time>2013-08-24T07:00:09Z</time>
      </trkpt>
      <trkpt lat="45.45162" lon="5.91126">
        <ele>1420.97</ele>
        <time>2013-08-24T07:00:13Z</time>
      </trkpt>
      <trkpt lat="45.45162" lon="5.91129">
        <ele>1421.45</ele>
        <time>2013-08-24T07:00:17Z</time>
      </trkpt>
      <trkpt lat="45.45163" lon="5.91133">
        <ele>1421.93</ele>
        <time>2013-08-24T07:00:21Z</time>
      </trkpt>
      <trkpt lat="45.45165" lon="5.91136">
        <ele>1421.93</ele>
        <time>2013-08-24T07:00:25Z</time>
      </trkpt>
      <trkpt lat="45.45166" lon="5.91139">
        <ele>1422.89</ele>
        <time>2013-08-24T07:00:29Z</time>
      </trkpt>
      <trkpt lat="45.45167" lon="5.91142">
        <ele>1423.85</ele>
        <time>2013-08-24T07:00:33Z</time>
      </trkpt>
      <trkpt lat="45.45168" lon="5.91145">
        <ele>1424.33</ele>
        <time>2013-08-24T07:00:37Z</time>
      </trkpt>
      <trkpt lat="45.45169" lon="5.91147">
        <ele>1425.77</ele>
        <time>2013-08-24T07:00:41Z</time>
      </trkpt>
      <trkpt lat="45.4517" lon="5.9115">
        <ele>1426.73</ele>
        <time>2013-08-24T07:00:45Z</time>
      </trkpt>
      <trkpt lat="45.45171" lon="5.91154">
        <ele>1427.7</ele>
        <time>2013-08-24T07:00:49Z</time>
      </trkpt>
      <trkpt lat="45.45172" lon="5.91159">
        <ele>1428.66</ele>
        <time>2013-08-24T07:00:53Z</time>
      </trkpt>
      <trkpt lat="45.45175" lon="5.91165">
        <ele>1428.66</ele>
        <time>2013-08-24T07:00:57Z</time>
      </trkpt>
      <trkpt lat="45.45175" lon="5.91168">
        <ele>1429.62</ele>
        <time>2013-08-24T07:01:01Z</time>
      </trkpt>
      <trkpt lat="45.45176" lon="5.91171">
        <ele>1431.06</ele>
        <time>2013-08-24T07:01:05Z</time>
      </trkpt>
      <trkpt lat="45.45178" lon="5.91174">
        <ele>1431.54</ele>
        <time>2013-08-24T07:01:09Z</time>
      </trkpt>
      <trkpt lat="45.4518" lon="5.91178">
        <ele>1432.5</ele>
        <time>2013-08-24T07:01:13Z</time>
      </trkpt>
      <trkpt lat="45.45181" lon="5.91179">
        <ele>1432.98</ele>
        <time>2013-08-24T07:01:17Z</time>
      </trkpt>
      <trkpt lat="45.45182" lon="5.91181">
        <ele>1434.42</ele>
        <time>2013-08-24T07:01:21Z</time>
      </trkpt>
      <trkpt lat="45.45184" lon="5.91185">
        <ele>1434.91</ele>
        <time>2013-08-24T07:01:25Z</time>
      </trkpt>
      <trkpt lat="45.45186" lon="5.91186">
        <ele>1435.87</ele>
        <time>2013-08-24T07:01:29Z</time>
      </trkpt>
      <trkpt lat="45.45188" lon="5.91188">
        <ele>1436.83</ele>
        <time>2013-08-24T07:01:33Z</time>
      </trkpt>
      <trkpt lat="45.45191" lon="5.91191">
        <ele>1437.31</ele>
        <time>2013-08-24T07:01:37Z</time>
      </trkpt>
      <trkpt lat="45.45194" lon="5.91196">
        <ele>1438.27</ele>
        <time>2013-08-24T07:01:41Z</time>
      </trkpt>
      <trkpt lat="45.45195" lon="5.91199">
        <ele>1438.75</ele>
        <time>2013-08-24T07:01:45Z</time>
      </trkpt>
      <trkpt lat="45.45197" lon="5.91203">
        <ele>1439.23</ele>
        <time>2013-08-24T07:01:49Z</time>
      </trkpt>
      <trkpt lat="45.45199" lon="5.91207">
        <ele>1439.23</ele>
        <time>2013-08-24T07:01:53Z</time>
      </trkpt>
      <trkpt lat="45.45201" lon="5.91211">
        <ele>1439.71</ele>
        <time>2013-08-24T07:01:57Z</time>
      </trkpt>
      <trkpt lat="45.45204" lon="5.91215">
        <ele>1439.71</ele>
        <time>2013-08-24T07:02:01Z</time>
      </trkpt>
      <trkpt lat="45.45206" lon="5.91218">
        <ele>1440.19</ele>
        <time>2013-08-24T07:02:05Z</time>
      </trkpt>
      <trkpt lat="45.45207" lon="5.91222">
        <ele>1441.63</ele>
        <time>2013-08-24T07:02:09Z</time>
      </trkpt>
      <trkpt lat="45.45207" lon="5.91226">
        <ele>1442.6</ele>
        <time>2013-08-24T07:02:13Z</time>
      </trkpt>
      <trkpt lat="45.45208" lon="5.91229">
        <ele>1442.6</ele>
        <time>2013-08-24T07:02:17Z</time>
      </trkpt>
      <trkpt lat="45.45209" lon="5.91234">
        <ele>1442.6</ele>
        <time>2013-08-24T07:02:21Z</time>
      </trkpt>
      <trkpt lat="45.4521" lon="5.91238">
        <ele>1443.08</ele>
        <time>2013-08-24T07:02:25Z</time>
      </trkpt>
      <trkpt lat="45.45211" lon="5.91242">
        <ele>1443.56</ele>
        <time>2013-08-24T07:02:29Z</time>
      </trkpt>
      <trkpt lat="45.45212" lon="5.91246">
        <ele>1445</ele>
        <time>2013-08-24T07:02:33Z</time>
      </trkpt>
      <trkpt lat="45.45213" lon="5.91249">
        <ele>1445.96</ele>
        <time>2013-08-24T07:02:37Z</time>
      </trkpt>
      <trkpt lat="45.45213" lon="5.91252">
        <ele>1446.92</ele>
        <time>2013-08-24T07:02:41Z</time>
      </trkpt>
      <trkpt lat="45.45214" lon="5.91257">
        <ele>1446.92</ele>
        <time>2013-08-24T07:02:45Z</time>
      </trkpt>
      <trkpt lat="45.45214" lon="5.91261">
        <ele>1447.4</ele>
        <time>2013-08-24T07:02:49Z</time>
      </trkpt>
      <trkpt lat="45.45216" lon="5.91266">
        <ele>1447.88</ele>
        <time>2013-08-24T07:02:53Z</time>
      </trkpt>
      <trkpt lat="45.45216" lon="5.91271">
        <ele>1448.36</ele>
        <time>2013-08-24T07:02:57Z</time>
      </trkpt>
      <trkpt lat="45.45216" lon="5.91276">
        <ele>1448.36</ele>
        <time>2013-08-24T07:03:01Z</time>
      </trkpt>
      <trkpt lat="45.45215" lon="5.91281">
        <ele>1448.36</ele>
        <time>2013-08-24T07:03:05Z</time>
      </trkpt>
      <trkpt lat="45.45214" lon="5.91285">
        <ele>1448.36</ele>
        <time>2013-08-24T07:03:09Z</time>
      </trkpt>
      <trkpt lat="45.45212" lon="5.91287">
        <ele>1449.32</ele>
        <time>2013-08-24T07:03:13Z</time>
      </trkpt>
      <trkpt lat="45.45211" lon="5.9129">
        <ele>1449.32</ele>
        <time>2013-08-24T07:03:17Z</time>
      </trkpt>
      <trkpt lat="45.4521" lon="5.91291">
        <ele>1450.29</ele>
        <time>2013-08-24T07:03:21Z</time>
      </trkpt>
      <trkpt lat="45.45208" lon="5.91294">
        <ele>1450.29</ele>
        <time>2013-08-24T07:03:25Z</time>
      </trkpt>
      <trkpt lat="45.45207" lon="5.91298">
        <ele>1449.32</ele>
        <time>2013-08-24T07:03:29Z</time>
      </trkpt>
      <trkpt lat="45.45206" lon="5.91299">
        <ele>1449.81</ele>
        <time>2013-08-24T07:03:33Z</time>
      </trkpt>
      <trkpt lat="45.45204" lon="5.91298">
        <ele>1450.77</ele>
        <time>2013-08-24T07:03:37Z</time>
      </trkpt>
      <trkpt lat="45.45203" lon="5.91296">
        <ele>1451.73</ele>
        <time>2013-08-24T07:03:41Z</time>
      </trkpt>
      <trkpt lat="45.45202" lon="5.91294">
        <ele>1452.21</ele>
        <time>2013-08-24T07:03:45Z</time>
      </trkpt>
      <trkpt lat="45.45199" lon="5.91292">
        <ele>1452.21</ele>
        <time>2013-08-24T07:03:49Z</time>
      </trkpt>
      <trkpt lat="45.45197" lon="5.91293">
        <ele>1452.69</ele>
        <time>2013-08-24T07:03:53Z</time>
      </trkpt>
      <trkpt lat="45.45197" lon="5.91294">
        <ele>1453.17</ele>
        <time>2013-08-24T07:03:57Z</time>
      </trkpt>
      <trkpt lat="45.45196" lon="5.91293">
        <ele>1454.13</ele>
        <time>2013-08-24T07:04:01Z</time>
      </trkpt>
      <trkpt lat="45.45195" lon="5.91294">
        <ele>1454.61</ele>
        <time>2013-08-24T07:04:05Z</time>
      </trkpt>
      <trkpt lat="45.45193" lon="5.91294">
        <ele>1455.09</ele>
        <time>2013-08-24T07:04:09Z</time>
      </trkpt>
      <trkpt lat="45.45192" lon="5.91295">
        <ele>1455.57</ele>
        <time>2013-08-24T07:04:13Z</time>
      </trkpt>
      <trkpt lat="45.4519" lon="5.91296">
        <ele>1456.05</ele>
        <time>2013-08-24T07:04:17Z</time>
      </trkpt>
      <trkpt lat="45.45188" lon="5.91297">
        <ele>1457.02</ele>
        <time>2013-08-24T07:04:21Z</time>
      </trkpt>
      <trkpt lat="45.45187" lon="5.91298">
        <ele>1457.98</ele>
        <time>2013-08-24T07:04:25Z</time>
      </trkpt>
      <trkpt lat="45.45185" lon="5.91299">
        <ele>1458.94</ele>
        <time>2013-08-24T07:04:29Z</time>
      </trkpt>
      <trkpt lat="45.45184" lon="5.913">
        <ele>1459.9</ele>
        <time>2013-08-24T07:04:33Z</time>
      </trkpt>
      <trkpt lat="45.45183" lon="5.91301">
        <ele>1461.34</ele>
        <time>2013-08-24T07:04:37Z</time>
      </trkpt>
      <trkpt lat="45.45181" lon="5.91303">
        <ele>1462.3</ele>
        <time>2013-08-24T07:04:41Z</time>
      </trkpt>
      <trkpt lat="45.45179" lon="5.91305">
        <ele>1462.78</ele>
        <time>2013-08-24T07:04:45Z</time>
      </trkpt>
      <trkpt lat="45.45177" lon="5.91307">
        <ele>1463.26</ele>
        <time>2013-08-24T07:04:49Z</time>
      </trkpt>
      <trkpt lat="45.45175" lon="5.91308">
        <ele>1463.74</ele>
        <time>2013-08-24T07:04:53Z</time>
      </trkpt>
      <trkpt lat="45.45174" lon="5.91309">
        <ele>1463.26</ele>
        <time>2013-08-24T07:04:57Z</time>
      </trkpt>
      <trkpt lat="45.45173" lon="5.9131">
        <ele>1463.26</ele>
        <time>2013-08-24T07:05:01Z</time>
      </trkpt>
      <trkpt lat="45.45172" lon="5.9131">
        <ele>1464.23</ele>
        <time>2013-08-24T07:05:05Z</time>
      </trkpt>
      <trkpt lat="45.45171" lon="5.9131">
        <ele>1465.67</ele>
        <time>2013-08-24T07:05:09Z</time>
      </trkpt>
      <trkpt lat="45.45171" lon="5.91311">
        <ele>1466.63</ele>
        <time>2013-08-24T07:05:13Z</time>
      </trkpt>
      <trkpt lat="45.45169" lon="5.91311">
        <ele>1467.11</ele>
        <time>2013-08-24T07:05:17Z</time>
      </trkpt>
      <trkpt lat="45.45166" lon="5.9131">
        <ele>1467.59</ele>
        <time>2013-08-24T07:05:21Z</time>
      </trkpt>
      <trkpt lat="45.45161" lon="5.9131">
        <ele>1468.07</ele>
        <time>2013-08-24T07:05:25Z</time>
      </trkpt>
      <trkpt lat="45.45159" lon="5.91309">
        <ele>1468.55</ele>
        <time>2013-08-24T07:05:29Z</time>
      </trkpt>
      <trkpt lat="45.45158" lon="5.91309">
        <ele>1469.99</ele>
        <time>2013-08-24T07:05:33Z</time>
      </trkpt>
      <trkpt lat="45.45156" lon="5.9131">
        <ele>1470.95</ele>
        <time>2013-08-24T07:05:37Z</time>
      </trkpt>
      <trkpt lat="45.45155" lon="5.91311">
        <ele>1471.92</ele>
        <time>2013-08-24T07:05:41Z</time>
      </trkpt>
      <trkpt lat="45.45153" lon="5.91311">
        <ele>1472.88</ele>
        <time>2013-08-24T07:05:45Z</time>
      </trkpt>
      <trkpt lat="45.45152" lon="5.91312">
        <ele>1473.36</ele>
        <time>2013-08-24T07:05:49Z</time>
      </trkpt>
      <trkpt lat="45.45152" lon="5.91311">
        <ele>1474.32</ele>
        <time>2013-08-24T07:05:53Z</time>
      </trkpt>
      <trkpt lat="45.4515" lon="5.91311">
        <ele>1475.76</ele>
        <time>2013-08-24T07:05:57Z</time>
      </trkpt>
      <trkpt lat="45.45149" lon="5.91311">
        <ele>1476.72</ele>
        <time>2013-08-24T07:06:01Z</time>
      </trkpt>
      <trkpt lat="45.45148" lon="5.91311">
        <ele>1477.68</ele>
        <time>2013-08-24T07:06:05Z</time>
      </trkpt>
      <trkpt lat="45.45148" lon="5.91312">
        <ele>1478.65</ele>
        <time>2013-08-24T07:06:09Z</time>
      </trkpt>
      <trkpt lat="45.45147" lon="5.91314">
        <ele>1479.13</ele>
        <time>2013-08-24T07:06:13Z</time>
      </trkpt>
      <trkpt lat="45.45146" lon="5.91316">
        <ele>1480.57</ele>
        <time>2013-08-24T07:06:17Z</time>
      </trkpt>
      <trkpt lat="45.45145" lon="5.91319">
        <ele>1481.53</ele>
        <time>2013-08-24T07:06:21Z</time>
      </trkpt>
      <trkpt lat="45.45143" lon="5.9132">
        <ele>1482.49</ele>
        <time>2013-08-24T07:06:25Z</time>
      </trkpt>
      <trkpt lat="45.45142" lon="5.91321">
        <ele>1482.97</ele>
        <time>2013-08-24T07:06:29Z</time>
      </trkpt>
      <trkpt lat="45.45142" lon="5.91322">
        <ele>1482.97</ele>
        <time>2013-08-24T07:06:33Z</time>
      </trkpt>
      <trkpt lat="45.4514" lon="5.91323">
        <ele>1482.97</ele>
        <time>2013-08-24T07:06:37Z</time>
      </trkpt>
      <trkpt lat="45.45139" lon="5.91323">
        <ele>1483.45</ele>
        <time>2013-08-24T07:06:41Z</time>
      </trkpt>
      <trkpt lat="45.45138" lon="5.91325">
        <ele>1484.41</ele>
        <time>2013-08-24T07:06:45Z</time>
      </trkpt>
      <trkpt lat="45.45135" lon="5.91325">
        <ele>1485.37</ele>
        <time>2013-08-24T07:06:49Z</time>
      </trkpt>
      <trkpt lat="45.45134" lon="5.91324">
        <ele>1487.3</ele>
        <time>2013-08-24T07:06:53Z</time>
      </trkpt>
      <trkpt lat="45.45133" lon="5.91324">
        <ele>1488.26</ele>
        <time>2013-08-24T07:06:57Z</time>
      </trkpt>
      <trkpt lat="45.45131" lon="5.91324">
        <ele>1489.22</ele>
        <time>2013-08-24T07:07:01Z</time>
      </trkpt>
      <trkpt lat="45.4513" lon="5.91324">
        <ele>1490.18</ele>
        <time>2013-08-24T07:07:05Z</time>
      </trkpt>
      <trkpt lat="45.45127" lon="5.91324">
        <ele>1490.66</ele>
        <time>2013-08-24T07:07:09Z</time>
      </trkpt>
      <trkpt lat="45.45126" lon="5.91324">
        <ele>1491.62</ele>
        <time>2013-08-24T07:07:13Z</time>
      </trkpt>
      <trkpt lat="45.45122" lon="5.91326">
        <ele>1491.62</ele>
        <time>2013-08-24T07:07:17Z</time>
      </trkpt>
      <trkpt lat="45.45119" lon="5.91326">
        <ele>1492.1</ele>
        <time>2013-08-24T07:07:21Z</time>
      </trkpt>
      <trkpt lat="45.45116" lon="5.91327">
        <ele>1492.58</ele>
        <time>2013-08-24T07:07:25Z</time>
      </trkpt>
      <trkpt lat="45.45115" lon="5.91327">
        <ele>1493.06</ele>
        <time>2013-08-24T07:07:29Z</time>
      </trkpt>
      <trkpt lat="45.45112" lon="5.91327">
        <ele>1493.55</ele>
        <time>2013-08-24T07:07:33Z</time>
      </trkpt>
      <trkpt lat="45.45109" lon="5.91327">
        <ele>1493.55</ele>
        <time>2013-08-24T07:07:37Z</time>
      </trkpt>
      <trkpt lat="45.45107" lon="5.91327">
        <ele>1494.99</ele>
        <time>2013-08-24T07:07:41Z</time>
      </trkpt>
      <trkpt lat="45.45107" lon="5.91327">
        <ele>1495.95</ele>
        <time>2013-08-24T07:07:45Z</time>
      </trkpt>
      <trkpt lat="45.45105" lon="5.91328">
        <ele>1496.91</ele>
        <time>2013-08-24T07:07:49Z</time>
      </trkpt>
      <trkpt lat="45.45104" lon="5.91328">
        <ele>1498.35</ele>
        <time>2013-08-24T07:07:53Z</time>
      </trkpt>
      <trkpt lat="45.45102" lon="5.91328">
        <ele>1499.31</ele>
        <time>2013-08-24T07:07:57Z</time>
      </trkpt>
      <trkpt lat="45.45102" lon="5.91329">
        <ele>1500.27</ele>
        <time>2013-08-24T07:08:01Z</time>
      </trkpt>
      <trkpt lat="45.45102" lon="5.91331">
        <ele>1501.24</ele>
        <time>2013-08-24T07:08:05Z</time>
      </trkpt>
      <trkpt lat="45.45103" lon="5.91334">
        <ele>1501.24</ele>
        <time>2013-08-24T07:08:09Z</time>
      </trkpt>
      <trkpt lat="45.45103" lon="5.91337">
        <ele>1501.24</ele>
        <time>2013-08-24T07:08:13Z</time>
      </trkpt>
      <trkpt lat="45.45101" lon="5.9134">
        <ele>1501.24</ele>
        <time>2013-08-24T07:08:17Z</time>
      </trkpt>
      <trkpt lat="45.45101" lon="5.91343">
        <ele>1501.72</ele>
        <time>2013-08-24T07:08:21Z</time>
      </trkpt>
      <trkpt lat="45.45102" lon="5.91346">
        <ele>1502.68</ele>
        <time>2013-08-24T07:08:25Z</time>
      </trkpt>
      <trkpt lat="45.45101" lon="5.91347">
        <ele>1503.64</ele>
        <time>2013-08-24T07:08:29Z</time>
      </trkpt>
      <trkpt lat="45.451" lon="5.91348">
        <ele>1504.6</ele>
        <time>2013-08-24T07:08:33Z</time>
      </trkpt>
      <trkpt lat="45.451" lon="5.91349">
        <ele>1505.08</ele>
        <time>2013-08-24T07:08:37Z</time>
      </trkpt>
      <trkpt lat="45.45099" lon="5.9135">
        <ele>1505.08</ele>
        <time>2013-08-24T07:08:41Z</time>
      </trkpt>
      <trkpt lat="45.45098" lon="5.91352">
        <ele>1505.56</ele>
        <time>2013-08-24T07:08:45Z</time>
      </trkpt>
      <trkpt lat="45.45097" lon="5.91354">
        <ele>1506.52</ele>
        <time>2013-08-24T07:08:49Z</time>
      </trkpt>
      <trkpt lat="45.45095" lon="5.91355">
        <ele>1507.48</ele>
        <time>2013-08-24T07:08:53Z</time>
      </trkpt>
      <trkpt lat="45.45095" lon="5.91357">
        <ele>1507.97</ele>
        <time>2013-08-24T07:08:57Z</time>
      </trkpt>
      <trkpt lat="45.45095" lon="5.91358">
        <ele>1508.45</ele>
        <time>2013-08-24T07:09:01Z</time>
      </trkpt>
      <trkpt lat="45.45094" lon="5.91359">
        <ele>1508.45</ele>
        <time>2013-08-24T07:09:05Z</time>
      </trkpt>
      <trkpt lat="45.45093" lon="5.91362">
        <ele>1509.41</ele>
        <time>2013-08-24T07:09:09Z</time>
      </trkpt>
      <trkpt lat="45.45092" lon="5.91363">
        <ele>1510.37</ele>
        <time>2013-08-24T07:09:13Z</time>
      </trkpt>
      <trkpt lat="45.4509" lon="5.91363">
        <ele>1510.37</ele>
        <time>2013-08-24T07:09:17Z</time>
      </trkpt>
      <trkpt lat="45.45089" lon="5.91364">
        <ele>1510.85</ele>
        <time>2013-08-24T07:09:21Z</time>
      </trkpt>
      <trkpt lat="45.45088" lon="5.91366">
        <ele>1511.33</ele>
        <time>2013-08-24T07:09:25Z</time>
      </trkpt>
      <trkpt lat="45.45087" lon="5.91368">
        <ele>1512.29</ele>
        <time>2013-08-24T07:09:29Z</time>
      </trkpt>
      <trkpt lat="45.45087" lon="5.91371">
        <ele>1512.77</ele>
        <time>2013-08-24T07:09:33Z</time>
      </trkpt>
      <trkpt lat="45.45087" lon="5.91371">
        <ele>1513.73</ele>
        <time>2013-08-24T07:09:37Z</time>
      </trkpt>
      <trkpt lat="45.45087" lon="5.91372">
        <ele>1514.69</ele>
        <time>2013-08-24T07:09:41Z</time>
      </trkpt>
      <trkpt lat="45.45086" lon="5.91373">
        <ele>1515.66</ele>
        <time>2013-08-24T07:09:45Z</time>
      </trkpt>
      <trkpt lat="45.45086" lon="5.91376">
        <ele>1516.62</ele>
        <time>2013-08-24T07:09:49Z</time>
      </trkpt>
      <trkpt lat="45.45086" lon="5.91378">
        <ele>1517.58</ele>
        <time>2013-08-24T07:09:53Z</time>
      </trkpt>
      <trkpt lat="45.45085" lon="5.91381">
        <ele>1518.06</ele>
        <time>2013-08-24T07:09:57Z</time>
      </trkpt>
      <trkpt lat="45.45083" lon="5.91383">
        <ele>1519.02</ele>
        <time>2013-08-24T07:10:01Z</time>
      </trkpt>
      <trkpt lat="45.45082" lon="5.91384">
        <ele>1519.98</ele>
        <time>2013-08-24T07:10:05Z</time>
      </trkpt>
      <trkpt lat="45.4508" lon="5.91385">
        <ele>1521.42</ele>
        <time>2013-08-24T07:10:09Z</time>
      </trkpt>
      <trkpt lat="45.4508" lon="5.91386">
        <ele>1522.87</ele>
        <time>2013-08-24T07:10:13Z</time>
      </trkpt>
      <trkpt lat="45.45079" lon="5.91388">
        <ele>1523.83</ele>
        <time>2013-08-24T07:10:17Z</time>
      </trkpt>
      <trkpt lat="45.45079" lon="5.91389">
        <ele>1523.83</ele>
        <time>2013-08-24T07:10:21Z</time>
      </trkpt>
      <trkpt lat="45.45077" lon="5.91391">
        <ele>1523.83</ele>
        <time>2013-08-24T07:10:25Z</time>
      </trkpt>
      <trkpt lat="45.45076" lon="5.91391">
        <ele>1524.79</ele>
        <time>2013-08-24T07:10:29Z</time>
      </trkpt>
      <trkpt lat="45.45074" lon="5.91393">
        <ele>1525.27</ele>
        <time>2013-08-24T07:10:33Z</time>
      </trkpt>
      <trkpt lat="45.45073" lon="5.91395">
        <ele>1525.75</ele>
        <time>2013-08-24T07:10:37Z</time>
      </trkpt>
      <trkpt lat="45.45071" lon="5.91396">
        <ele>1526.23</ele>
        <time>2013-08-24T07:10:41Z</time>
      </trkpt>
      <trkpt lat="45.4507" lon="5.91399">
        <ele>1527.67</ele>
        <time>2013-08-24T07:10:45Z</time>
      </trkpt>
      <trkpt lat="45.45068" lon="5.91399">
        <ele>1528.63</ele>
        <time>2013-08-24T07:10:49Z</time>
      </trkpt>
      <trkpt lat="45.45067" lon="5.914">
        <ele>1529.11</ele>
        <time>2013-08-24T07:10:53Z</time>
      </trkpt>
      <trkpt lat="45.45066" lon="5.91401">
        <ele>1530.08</ele>
        <time>2013-08-24T07:10:57Z</time>
      </trkpt>
      <trkpt lat="45.45065" lon="5.91402">
        <ele>1531.52</ele>
        <time>2013-08-24T07:11:01Z</time>
      </trkpt>
      <trkpt lat="45.45064" lon="5.91404">
        <ele>1532.96</ele>
        <time>2013-08-24T07:11:05Z</time>
      </trkpt>
      <trkpt lat="45.45064" lon="5.91407">
        <ele>1533.44</ele>
        <time>2013-08-24T07:11:09Z</time>
      </trkpt>
      <trkpt lat="45.45062" lon="5.91408">
        <ele>1533.92</ele>
        <time>2013-08-24T07:11:13Z</time>
      </trkpt>
      <trkpt lat="45.45061" lon="5.91409">
        <ele>1534.88</ele>
        <time>2013-08-24T07:11:17Z</time>
      </trkpt>
      <trkpt lat="45.4506" lon="5.9141">
        <ele>1536.32</ele>
        <time>2013-08-24T07:11:21Z</time>
      </trkpt>
      <trkpt lat="45.45058" lon="5.91412">
        <ele>1537.77</ele>
        <time>2013-08-24T07:11:25Z</time>
      </trkpt>
      <trkpt lat="45.45057" lon="5.91414">
        <ele>1538.73</ele>
        <time>2013-08-24T07:11:29Z</time>
      </trkpt>
      <trkpt lat="45.45057" lon="5.91415">
        <ele>1538.73</ele>
        <time>2013-08-24T07:11:33Z</time>
      </trkpt>
      <trkpt lat="45.45055" lon="5.91416">
        <ele>1539.69</ele>
        <time>2013-08-24T07:11:37Z</time>
      </trkpt>
      <trkpt lat="45.45055" lon="5.91418">
        <ele>1540.65</ele>
        <time>2013-08-24T07:11:41Z</time>
      </trkpt>
      <trkpt lat="45.45054" lon="5.9142">
        <ele>1542.09</ele>
        <time>2013-08-24T07:11:45Z</time>
      </trkpt>
      <trkpt lat="45.45054" lon="5.91422">
        <ele>1543.05</ele>
        <time>2013-08-24T07:11:49Z</time>
      </trkpt>
      <trkpt lat="45.45053" lon="5.91424">
        <ele>1543.53</ele>
        <time>2013-08-24T07:11:53Z</time>
      </trkpt>
      <trkpt lat="45.45052" lon="5.91426">
        <ele>1543.53</ele>
        <time>2013-08-24T07:11:57Z</time>
      </trkpt>
      <trkpt lat="45.4505" lon="5.91427">
        <ele>1543.53</ele>
        <time>2013-08-24T07:12:01Z</time>
      </trkpt>
      <trkpt lat="45.45048" lon="5.91428">
        <ele>1544.5</ele>
        <time>2013-08-24T07:12:05Z</time>
      </trkpt>
      <trkpt lat="45.45048" lon="5.91429">
        <ele>1546.42</ele>
        <time>2013-08-24T07:12:09Z</time>
      </trkpt>
      <trkpt lat="45.45047" lon="5.9143">
        <ele>1546.9</ele>
        <time>2013-08-24T07:12:13Z</time>
      </trkpt>
      <trkpt lat="45.45045" lon="5.91432">
        <ele>1547.86</ele>
        <time>2013-08-24T07:12:17Z</time>
      </trkpt>
      <trkpt lat="45.45043" lon="5.91434">
        <ele>1548.82</ele>
        <time>2013-08-24T07:12:21Z</time>
      </trkpt>
      <trkpt lat="45.45041" lon="5.91435">
        <ele>1549.78</ele>
        <time>2013-08-24T07:12:25Z</time>
      </trkpt>
      <trkpt lat="45.45041" lon="5.91435">
        <ele>1551.71</ele>
        <time>2013-08-24T07:12:29Z</time>
      </trkpt>
      <trkpt lat="45.45039" lon="5.91435">
        <ele>1552.67</ele>
        <time>2013-08-24T07:12:33Z</time>
      </trkpt>
      <trkpt lat="45.45039" lon="5.91436">
        <ele>1553.15</ele>
        <time>2013-08-24T07:12:37Z</time>
      </trkpt>
      <trkpt lat="45.4504" lon="5.91437">
        <ele>1554.11</ele>
        <time>2013-08-24T07:12:41Z</time>
      </trkpt>
      <trkpt lat="45.4504" lon="5.91439">
        <ele>1554.59</ele>
        <time>2013-08-24T07:12:45Z</time>
      </trkpt>
      <trkpt lat="45.45039" lon="5.91442">
        <ele>1555.55</ele>
        <time>2013-08-24T07:12:49Z</time>
      </trkpt>
      <trkpt lat="45.45038" lon="5.91446">
        <ele>1556.99</ele>
        <time>2013-08-24T07:12:53Z</time>
      </trkpt>
      <trkpt lat="45.45036" lon="5.91448">
        <ele>1558.43</ele>
        <time>2013-08-24T07:12:57Z</time>
      </trkpt>
      <trkpt lat="45.45035" lon="5.91448">
        <ele>1559.88</ele>
        <time>2013-08-24T07:13:01Z</time>
      </trkpt>
      <trkpt lat="45.45035" lon="5.91449">
        <ele>1561.32</ele>
        <time>2013-08-24T07:13:05Z</time>
      </trkpt>
      <trkpt lat="45.45034" lon="5.91451">
        <ele>1562.28</ele>
        <time>2013-08-24T07:13:09Z</time>
      </trkpt>
      <trkpt lat="45.45033" lon="5.91453">
        <ele>1562.76</ele>
        <time>2013-08-24T07:13:13Z</time>
      </trkpt>
      <trkpt lat="45.45034" lon="5.91455">
        <ele>1563.72</ele>
        <time>2013-08-24T07:13:17Z</time>
      </trkpt>
      <trkpt lat="45.45034" lon="5.91457">
        <ele>1564.68</ele>
        <time>2013-08-24T07:13:21Z</time>
      </trkpt>
      <trkpt lat="45.45034" lon="5.9146">
        <ele>1565.64</ele>
        <time>2013-08-24T07:13:25Z</time>
      </trkpt>
      <trkpt lat="45.45033" lon="5.91462">
        <ele>1565.64</ele>
        <time>2013-08-24T07:13:29Z</time>
      </trkpt>
      <trkpt lat="45.45032" lon="5.91467">
        <ele>1566.12</ele>
        <time>2013-08-24T07:13:33Z</time>
      </trkpt>
      <trkpt lat="45.4503" lon="5.9147">
        <ele>1566.61</ele>
        <time>2013-08-24T07:13:37Z</time>
      </trkpt>
      <trkpt lat="45.45029" lon="5.91471">
        <ele>1566.61</ele>
        <time>2013-08-24T07:13:41Z</time>
      </trkpt>
      <trkpt lat="45.45027" lon="5.91473">
        <ele>1566.61</ele>
        <time>2013-08-24T07:13:45Z</time>
      </trkpt>
      <trkpt lat="45.45028" lon="5.91475">
        <ele>1567.09</ele>
        <time>2013-08-24T07:13:49Z</time>
      </trkpt>
      <trkpt lat="45.45028" lon="5.91476">
        <ele>1568.05</ele>
        <time>2013-08-24T07:13:53Z</time>
      </trkpt>
      <trkpt lat="45.45028" lon="5.91478">
        <ele>1569.01</ele>
        <time>2013-08-24T07:13:57Z</time>
      </trkpt>
      <trkpt lat="45.45027" lon="5.91481">
        <ele>1569.97</ele>
        <time>2013-08-24T07:14:01Z</time>
      </trkpt>
      <trkpt lat="45.45027" lon="5.91483">
        <ele>1570.93</ele>
        <time>2013-08-24T07:14:05Z</time>
      </trkpt>
      <trkpt lat="45.45025" lon="5.91485">
        <ele>1570.93</ele>
        <time>2013-08-24T07:14:09Z</time>
      </trkpt>
      <trkpt lat="45.45025" lon="5.91486">
        <ele>1571.41</ele>
        <time>2013-08-24T07:14:13Z</time>
      </trkpt>
      <trkpt lat="45.45024" lon="5.91489">
        <ele>1572.37</ele>
        <time>2013-08-24T07:14:17Z</time>
      </trkpt>
      <trkpt lat="45.45023" lon="5.91491">
        <ele>1572.85</ele>
        <time>2013-08-24T07:14:21Z</time>
      </trkpt>
      <trkpt lat="45.45022" lon="5.91493">
        <ele>1573.33</ele>
        <time>2013-08-24T07:14:25Z</time>
      </trkpt>
      <trkpt lat="45.4502" lon="5.91495">
        <ele>1573.33</ele>
        <time>2013-08-24T07:14:29Z</time>
      </trkpt>
      <trkpt lat="45.45019" lon="5.91495">
        <ele>1574.78</ele>
        <time>2013-08-24T07:14:33Z</time>
      </trkpt>
      <trkpt lat="45.45018" lon="5.91497">
        <ele>1576.22</ele>
        <time>2013-08-24T07:14:37Z</time>
      </trkpt>
      <trkpt lat="45.45017" lon="5.91499">
        <ele>1577.18</ele>
        <time>2013-08-24T07:14:41Z</time>
      </trkpt>
      <trkpt lat="45.45016" lon="5.91502">
        <ele>1578.14</ele>
        <time>2013-08-24T07:14:45Z</time>
      </trkpt>
      <trkpt lat="45.45015" lon="5.91503">
        <ele>1579.58</ele>
        <time>2013-08-24T07:14:49Z</time>
      </trkpt>
      <trkpt lat="45.45015" lon="5.91505">
        <ele>1581.51</ele>
        <time>2013-08-24T07:14:53Z</time>
      </trkpt>
      <trkpt lat="45.45016" lon="5.91506">
        <ele>1583.43</ele>
        <time>2013-08-24T07:14:57Z</time>
      </trkpt>
      <trkpt lat="45.45016" lon="5.91508">
        <ele>1584.39</ele>
        <time>2013-08-24T07:15:01Z</time>
      </trkpt>
      <trkpt lat="45.45014" lon="5.91512">
        <ele>1583.91</ele>
        <time>2013-08-24T07:15:05Z</time>
      </trkpt>
      <trkpt lat="45.4501" lon="5.91515">
        <ele>1583.91</ele>
        <time>2013-08-24T07:15:09Z</time>
      </trkpt>
      <trkpt lat="45.45008" lon="5.91518">
        <ele>1583.91</ele>
        <time>2013-08-24T07:15:13Z</time>
      </trkpt>
      <trkpt lat="45.45006" lon="5.91521">
        <ele>1583.43</ele>
        <time>2013-08-24T07:15:17Z</time>
      </trkpt>
      <trkpt lat="45.45005" lon="5.91524">
        <ele>1583.43</ele>
        <time>2013-08-24T07:15:21Z</time>
      </trkpt>
      <trkpt lat="45.45005" lon="5.91525">
        <ele>1584.39</ele>
        <time>2013-08-24T07:15:25Z</time>
      </trkpt>
      <trkpt lat="45.45004" lon="5.91528">
        <ele>1585.35</ele>
        <time>2013-08-24T07:15:29Z</time>
      </trkpt>
      <trkpt lat="45.45004" lon="5.91529">
        <ele>1587.27</ele>
        <time>2013-08-24T07:15:33Z</time>
      </trkpt>
      <trkpt lat="45.45003" lon="5.9153">
        <ele>1588.24</ele>
        <time>2013-08-24T07:15:37Z</time>
      </trkpt>
      <trkpt lat="45.45004" lon="5.91532">
        <ele>1589.2</ele>
        <time>2013-08-24T07:15:41Z</time>
      </trkpt>
      <trkpt lat="45.45003" lon="5.91536">
        <ele>1589.68</ele>
        <time>2013-08-24T07:15:45Z</time>
      </trkpt>
      <trkpt lat="45.45003" lon="5.91538">
        <ele>1590.64</ele>
        <time>2013-08-24T07:15:49Z</time>
      </trkpt>
      <trkpt lat="45.45003" lon="5.91539">
        <ele>1591.12</ele>
        <time>2013-08-24T07:15:53Z</time>
      </trkpt>
      <trkpt lat="45.45004" lon="5.91542">
        <ele>1592.08</ele>
        <time>2013-08-24T07:15:57Z</time>
      </trkpt>
      <trkpt lat="45.45002" lon="5.91544">
        <ele>1593.04</ele>
        <time>2013-08-24T07:16:01Z</time>
      </trkpt>
      <trkpt lat="45.45002" lon="5.91546">
        <ele>1593.52</ele>
        <time>2013-08-24T07:16:05Z</time>
      </trkpt>
      <trkpt lat="45.45" lon="5.91548">
        <ele>1593.52</ele>
        <time>2013-08-24T07:16:09Z</time>
      </trkpt>
      <trkpt lat="45.44999" lon="5.91551">
        <ele>1594.96</ele>
        <time>2013-08-24T07:16:13Z</time>
      </trkpt>
      <trkpt lat="45.44999" lon="5.91553">
        <ele>1596.41</ele>
        <time>2013-08-24T07:16:17Z</time>
      </trkpt>
      <trkpt lat="45.44999" lon="5.91555">
        <ele>1597.37</ele>
        <time>2013-08-24T07:16:21Z</time>
      </trkpt>
      <trkpt lat="45.44999" lon="5.91557">
        <ele>1598.81</ele>
        <time>2013-08-24T07:16:25Z</time>
      </trkpt>
      <trkpt lat="45.44999" lon="5.9156">
        <ele>1599.29</ele>
        <time>2013-08-24T07:16:29Z</time>
      </trkpt>
      <trkpt lat="45.44998" lon="5.91562">
        <ele>1599.77</ele>
        <time>2013-08-24T07:16:33Z</time>
      </trkpt>
      <trkpt lat="45.44998" lon="5.91565">
        <ele>1600.25</ele>
        <time>2013-08-24T07:16:37Z</time>
      </trkpt>
      <trkpt lat="45.44998" lon="5.91567">
        <ele>1600.73</ele>
        <time>2013-08-24T07:16:41Z</time>
      </trkpt>
      <trkpt lat="45.44998" lon="5.91569">
        <ele>1601.21</ele>
        <time>2013-08-24T07:16:45Z</time>
      </trkpt>
      <trkpt lat="45.45" lon="5.91571">
        <ele>1601.69</ele>
        <time>2013-08-24T07:16:49Z</time>
      </trkpt>
      <trkpt lat="45.44998" lon="5.91575">
        <ele>1602.66</ele>
        <time>2013-08-24T07:16:53Z</time>
      </trkpt>
      <trkpt lat="45.44996" lon="5.91577">
        <ele>1602.66</ele>
        <time>2013-08-24T07:16:57Z</time>
      </trkpt>
      <trkpt lat="45.44996" lon="5.91578">
        <ele>1603.62</ele>
        <time>2013-08-24T07:17:01Z</time>
      </trkpt>
      <trkpt lat="45.44996" lon="5.91579">
        <ele>1604.58</ele>
        <time>2013-08-24T07:17:05Z</time>
      </trkpt>
      <trkpt lat="45.44995" lon="5.9158">
        <ele>1604.58</ele>
        <time>2013-08-24T07:17:09Z</time>
      </trkpt>
      <trkpt lat="45.44995" lon="5.91581">
        <ele>1605.06</ele>
        <time>2013-08-24T07:17:13Z</time>
      </trkpt>
      <trkpt lat="45.44995" lon="5.9158">
        <ele>1604.58</ele>
        <time>2013-08-24T07:17:17Z</time>
      </trkpt>
      <trkpt lat="45.44994" lon="5.9158">
        <ele>1604.58</ele>
        <time>2013-08-24T07:17:21Z</time>
      </trkpt>
      <trkpt lat="45.44994" lon="5.9158">
        <ele>1604.58</ele>
        <time>2013-08-24T07:17:25Z</time>
      </trkpt>
      <trkpt lat="45.44993" lon="5.91581">
        <ele>1604.58</ele>
        <time>2013-08-24T07:17:29Z</time>
      </trkpt>
      <trkpt lat="45.44993" lon="5.91581">
        <ele>1604.1</ele>
        <time>2013-08-24T07:17:33Z</time>
      </trkpt>
      <trkpt lat="45.44992" lon="5.91582">
        <ele>1603.62</ele>
        <time>2013-08-24T07:17:37Z</time>
      </trkpt>
      <trkpt lat="45.44992" lon="5.91582">
        <ele>1603.62</ele>
        <time>2013-08-24T07:17:41Z</time>
      </trkpt>
      <trkpt lat="45.44992" lon="5.91582">
        <ele>1603.62</ele>
        <time>2013-08-24T07:17:45Z</time>
      </trkpt>
      <trkpt lat="45.44992" lon="5.91582">
        <ele>1603.62</ele>
        <time>2013-08-24T07:17:49Z</time>
      </trkpt>
      <trkpt lat="45.44992" lon="5.91582">
        <ele>1603.62</ele>
        <time>2013-08-24T07:17:53Z</time>
      </trkpt>
      <trkpt lat="45.44992" lon="5.91583">
        <ele>1602.66</ele>
        <time>2013-08-24T07:17:57Z</time>
      </trkpt>
      <trkpt lat="45.44993" lon="5.91583">
        <ele>1603.14</ele>
        <time>2013-08-24T07:18:01Z</time>
      </trkpt>
      <trkpt lat="45.44993" lon="5.91582">
        <ele>1603.14</ele>
        <time>2013-08-24T07:18:05Z</time>
      </trkpt>
      <trkpt lat="45.44993" lon="5.91582">
        <ele>1602.66</ele>
        <time>2013-08-24T07:18:09Z</time>
      </trkpt>
      <trkpt lat="45.44993" lon="5.91581">
        <ele>1602.17</ele>
        <time>2013-08-24T07:18:13Z</time>
      </trkpt>
      <trkpt lat="45.44993" lon="5.91581">
        <ele>1601.21</ele>
        <time>2013-08-24T07:18:17Z</time>
      </trkpt>
      <trkpt lat="45.44993" lon="5.91582">
        <ele>1600.73</ele>
        <time>2013-08-24T07:18:21Z</time>
      </trkpt>
      <trkpt lat="45.44993" lon="5.91582">
        <ele>1600.25</ele>
        <time>2013-08-24T07:18:25Z</time>
      </trkpt>
      <trkpt lat="45.44993" lon="5.91582">
        <ele>1599.77</ele>
        <time>2013-08-24T07:18:29Z</time>
      </trkpt>
      <trkpt lat="45.44994" lon="5.91581">
        <ele>1599.77</ele>
        <time>2013-08-24T07:18:33Z</time>
      </trkpt>
      <trkpt lat="45.44994" lon="5.91582">
        <ele>1600.25</ele>
        <time>2013-08-24T07:18:37Z</time>
      </trkpt>
      <trkpt lat="45.44994" lon="5.91582">
        <ele>1600.25</ele>
        <time>2013-08-24T07:18:41Z</time>
      </trkpt>
      <trkpt lat="45.44994" lon="5.91583">
        <ele>1600.25</ele>
        <time>2013-08-24T07:18:45Z</time>
      </trkpt>
      <trkpt lat="45.44992" lon="5.91584">
        <ele>1600.73</ele>
        <time>2013-08-24T07:18:49Z</time>
      </trkpt>
      <trkpt lat="45.44991" lon="5.91585">
        <ele>1602.17</ele>
        <time>2013-08-24T07:18:53Z</time>
      </trkpt>
      <trkpt lat="45.44989" lon="5.91587">
        <ele>1603.62</ele>
        <time>2013-08-24T07:18:57Z</time>
      </trkpt>
      <trkpt lat="45.44987" lon="5.91589">
        <ele>1604.58</ele>
        <time>2013-08-24T07:19:01Z</time>
      </trkpt>
      <trkpt lat="45.44986" lon="5.91591">
        <ele>1606.02</ele>
        <time>2013-08-24T07:19:05Z</time>
      </trkpt>
      <trkpt lat="45.44985" lon="5.91593">
        <ele>1607.46</ele>
        <time>2013-08-24T07:19:09Z</time>
      </trkpt>
      <trkpt lat="45.44983" lon="5.91596">
        <ele>1608.42</ele>
        <time>2013-08-24T07:19:13Z</time>
      </trkpt>
      <trkpt lat="45.44981" lon="5.91598">
        <ele>1609.38</ele>
        <time>2013-08-24T07:19:17Z</time>
      </trkpt>
      <trkpt lat="45.44978" lon="5.916">
        <ele>1610.83</ele>
        <time>2013-08-24T07:19:21Z</time>
      </trkpt>
      <trkpt lat="45.44976" lon="5.91601">
        <ele>1611.79</ele>
        <time>2013-08-24T07:19:25Z</time>
      </trkpt>
      <trkpt lat="45.44974" lon="5.91603">
        <ele>1612.75</ele>
        <time>2013-08-24T07:19:29Z</time>
      </trkpt>
      <trkpt lat="45.44973" lon="5.91604">
        <ele>1613.23</ele>
        <time>2013-08-24T07:19:33Z</time>
      </trkpt>
      <trkpt lat="45.44971" lon="5.91607">
        <ele>1613.71</ele>
        <time>2013-08-24T07:19:37Z</time>
      </trkpt>
      <trkpt lat="45.4497" lon="5.91608">
        <ele>1615.15</ele>
        <time>2013-08-24T07:19:41Z</time>
      </trkpt>
      <trkpt lat="45.44969" lon="5.91611">
        <ele>1616.11</ele>
        <time>2013-08-24T07:19:45Z</time>
      </trkpt>
      <trkpt lat="45.44967" lon="5.91612">
        <ele>1617.07</ele>
        <time>2013-08-24T07:19:49Z</time>
      </trkpt>
      <trkpt lat="45.44965" lon="5.91614">
        <ele>1618.52</ele>
        <time>2013-08-24T07:19:53Z</time>
      </trkpt>
      <trkpt lat="45.44964" lon="5.91615">
        <ele>1619</ele>
        <time>2013-08-24T07:19:57Z</time>
      </trkpt>
      <trkpt lat="45.44963" lon="5.91618">
        <ele>1619.48</ele>
        <time>2013-08-24T07:20:01Z</time>
      </trkpt>
      <trkpt lat="45.44965" lon="5.91619">
        <ele>1620.44</ele>
        <time>2013-08-24T07:20:05Z</time>
      </trkpt>
      <trkpt lat="45.44966" lon="5.91621">
        <ele>1621.4</ele>
        <time>2013-08-24T07:20:09Z</time>
      </trkpt>
      <trkpt lat="45.44967" lon="5.91623">
        <ele>1621.88</ele>
        <time>2013-08-24T07:20:13Z</time>
      </trkpt>
      <trkpt lat="45.44968" lon="5.91622">
        <ele>1622.36</ele>
        <time>2013-08-24T07:20:17Z</time>
      </trkpt>
      <trkpt lat="45.4497" lon="5.91624">
        <ele>1622.84</ele>
        <time>2013-08-24T07:20:21Z</time>
      </trkpt>
      <trkpt lat="45.44971" lon="5.91625">
        <ele>1623.8</ele>
        <time>2013-08-24T07:20:25Z</time>
      </trkpt>
      <trkpt lat="45.44974" lon="5.91626">
        <ele>1625.25</ele>
        <time>2013-08-24T07:20:29Z</time>
      </trkpt>
      <trkpt lat="45.44975" lon="5.91625">
        <ele>1626.69</ele>
        <time>2013-08-24T07:20:33Z</time>
      </trkpt>
      <trkpt lat="45.44977" lon="5.91626">
        <ele>1628.13</ele>
        <time>2013-08-24T07:20:37Z</time>
      </trkpt>
      <trkpt lat="45.44979" lon="5.91626">
        <ele>1629.57</ele>
        <time>2013-08-24T07:20:41Z</time>
      </trkpt>
      <trkpt lat="45.4498" lon="5.91628">
        <ele>1631.01</ele>
        <time>2013-08-24T07:20:45Z</time>
      </trkpt>
      <trkpt lat="45.44982" lon="5.91628">
        <ele>1631.98</ele>
        <time>2013-08-24T07:20:49Z</time>
      </trkpt>
      <trkpt lat="45.44984" lon="5.91629">
        <ele>1632.46</ele>
        <time>2013-08-24T07:20:53Z</time>
      </trkpt>
      <trkpt lat="45.44985" lon="5.91629">
        <ele>1631.98</ele>
        <time>2013-08-24T07:20:57Z</time>
      </trkpt>
      <trkpt lat="45.44985" lon="5.91629">
        <ele>1631.98</ele>
        <time>2013-08-24T07:21:01Z</time>
      </trkpt>
      <trkpt lat="45.44986" lon="5.91629">
        <ele>1632.46</ele>
        <time>2013-08-24T07:21:05Z</time>
      </trkpt>
      <trkpt lat="45.44986" lon="5.91629">
        <ele>1632.46</ele>
        <time>2013-08-24T07:21:09Z</time>
      </trkpt>
      <trkpt lat="45.44986" lon="5.91628">
        <ele>1632.46</ele>
        <time>2013-08-24T07:21:13Z</time>
      </trkpt>
      <trkpt lat="45.44986" lon="5.91628">
        <ele>1632.46</ele>
        <time>2013-08-24T07:21:17Z</time>
      </trkpt>
      <trkpt lat="45.44987" lon="5.91628">
        <ele>1631.98</ele>
        <time>2013-08-24T07:21:21Z</time>
      </trkpt>
      <trkpt lat="45.44987" lon="5.91629">
        <ele>1631.49</ele>
        <time>2013-08-24T07:21:25Z</time>
      </trkpt>
      <trkpt lat="45.44986" lon="5.9163">
        <ele>1631.49</ele>
        <time>2013-08-24T07:21:29Z</time>
      </trkpt>
      <trkpt lat="45.44984" lon="5.91632">
        <ele>1631.98</ele>
        <time>2013-08-24T07:21:33Z</time>
      </trkpt>
      <trkpt lat="45.44985" lon="5.91636">
        <ele>1631.98</ele>
        <time>2013-08-24T07:21:37Z</time>
      </trkpt>
      <trkpt lat="45.44983" lon="5.91638">
        <ele>1632.46</ele>
        <time>2013-08-24T07:21:41Z</time>
      </trkpt>
      <trkpt lat="45.44981" lon="5.91639">
        <ele>1632.94</ele>
        <time>2013-08-24T07:21:45Z</time>
      </trkpt>
      <trkpt lat="45.4498" lon="5.91641">
        <ele>1633.42</ele>
        <time>2013-08-24T07:21:49Z</time>
      </trkpt>
      <trkpt lat="45.44981" lon="5.91643">
        <ele>1634.38</ele>
        <time>2013-08-24T07:21:53Z</time>
      </trkpt>
      <trkpt lat="45.4498" lon="5.91646">
        <ele>1635.82</ele>
        <time>2013-08-24T07:21:57Z</time>
      </trkpt>
      <trkpt lat="45.44977" lon="5.91648">
        <ele>1638.22</ele>
        <time>2013-08-24T07:22:01Z</time>
      </trkpt>
      <trkpt lat="45.44977" lon="5.9165">
        <ele>1639.19</ele>
        <time>2013-08-24T07:22:05Z</time>
      </trkpt>
      <trkpt lat="45.44976" lon="5.91652">
        <ele>1639.67</ele>
        <time>2013-08-24T07:22:09Z</time>
      </trkpt>
      <trkpt lat="45.44976" lon="5.91653">
        <ele>1640.63</ele>
        <time>2013-08-24T07:22:13Z</time>
      </trkpt>
      <trkpt lat="45.44975" lon="5.91655">
        <ele>1641.59</ele>
        <time>2013-08-24T07:22:17Z</time>
      </trkpt>
      <trkpt lat="45.44973" lon="5.91656">
        <ele>1642.55</ele>
        <time>2013-08-24T07:22:21Z</time>
      </trkpt>
      <trkpt lat="45.44971" lon="5.91656">
        <ele>1644.47</ele>
        <time>2013-08-24T07:22:25Z</time>
      </trkpt>
      <trkpt lat="45.44971" lon="5.91658">
        <ele>1644.95</ele>
        <time>2013-08-24T07:22:29Z</time>
      </trkpt>
      <trkpt lat="45.44971" lon="5.91661">
        <ele>1645.91</ele>
        <time>2013-08-24T07:22:33Z</time>
      </trkpt>
      <trkpt lat="45.44971" lon="5.91659">
        <ele>1646.88</ele>
        <time>2013-08-24T07:22:37Z</time>
      </trkpt>
      <trkpt lat="45.44972" lon="5.91661">
        <ele>1647.84</ele>
        <time>2013-08-24T07:22:41Z</time>
      </trkpt>
      <trkpt lat="45.44973" lon="5.91661">
        <ele>1649.28</ele>
        <time>2013-08-24T07:22:45Z</time>
      </trkpt>
      <trkpt lat="45.44975" lon="5.91662">
        <ele>1650.24</ele>
        <time>2013-08-24T07:22:49Z</time>
      </trkpt>
      <trkpt lat="45.44975" lon="5.91663">
        <ele>1651.2</ele>
        <time>2013-08-24T07:22:53Z</time>
      </trkpt>
      <trkpt lat="45.44977" lon="5.91665">
        <ele>1651.68</ele>
        <time>2013-08-24T07:22:57Z</time>
      </trkpt>
      <trkpt lat="45.44978" lon="5.91668">
        <ele>1652.16</ele>
        <time>2013-08-24T07:23:01Z</time>
      </trkpt>
      <trkpt lat="45.44979" lon="5.9167">
        <ele>1652.16</ele>
        <time>2013-08-24T07:23:05Z</time>
      </trkpt>
      <trkpt lat="45.44978" lon="5.91672">
        <ele>1652.16</ele>
        <time>2013-08-24T07:23:09Z</time>
      </trkpt>
      <trkpt lat="45.44977" lon="5.91673">
        <ele>1652.16</ele>
        <time>2013-08-24T07:23:13Z</time>
      </trkpt>
      <trkpt lat="45.44976" lon="5.91672">
        <ele>1652.64</ele>
        <time>2013-08-24T07:23:17Z</time>
      </trkpt>
      <trkpt lat="45.44974" lon="5.91673">
        <ele>1654.09</ele>
        <time>2013-08-24T07:23:21Z</time>
      </trkpt>
      <trkpt lat="45.44973" lon="5.91676">
        <ele>1655.05</ele>
        <time>2013-08-24T07:23:25Z</time>
      </trkpt>
      <trkpt lat="45.44973" lon="5.91679">
        <ele>1655.53</ele>
        <time>2013-08-24T07:23:29Z</time>
      </trkpt>
      <trkpt lat="45.44974" lon="5.91681">
        <ele>1655.53</ele>
        <time>2013-08-24T07:23:33Z</time>
      </trkpt>
      <trkpt lat="45.44975" lon="5.91684">
        <ele>1656.01</ele>
        <time>2013-08-24T07:23:37Z</time>
      </trkpt>
      <trkpt lat="45.44977" lon="5.91686">
        <ele>1656.01</ele>
        <time>2013-08-24T07:23:41Z</time>
      </trkpt>
      <trkpt lat="45.44977" lon="5.9169">
        <ele>1656.49</ele>
        <time>2013-08-24T07:23:45Z</time>
      </trkpt>
      <trkpt lat="45.44975" lon="5.9169">
        <ele>1657.45</ele>
        <time>2013-08-24T07:23:49Z</time>
      </trkpt>
      <trkpt lat="45.44975" lon="5.91692">
        <ele>1658.41</ele>
        <time>2013-08-24T07:23:53Z</time>
      </trkpt>
      <trkpt lat="45.44977" lon="5.91693">
        <ele>1658.89</ele>
        <time>2013-08-24T07:23:57Z</time>
      </trkpt>
      <trkpt lat="45.44978" lon="5.91694">
        <ele>1658.41</ele>
        <time>2013-08-24T07:24:01Z</time>
      </trkpt>
      <trkpt lat="45.44978" lon="5.91696">
        <ele>1658.89</ele>
        <time>2013-08-24T07:24:05Z</time>
      </trkpt>
      <trkpt lat="45.44975" lon="5.91696">
        <ele>1660.33</ele>
        <time>2013-08-24T07:24:09Z</time>
      </trkpt>
      <trkpt lat="45.44975" lon="5.91699">
        <ele>1661.3</ele>
        <time>2013-08-24T07:24:13Z</time>
      </trkpt>
      <trkpt lat="45.44977" lon="5.917">
        <ele>1662.26</ele>
        <time>2013-08-24T07:24:17Z</time>
      </trkpt>
      <trkpt lat="45.44979" lon="5.917">
        <ele>1663.22</ele>
        <time>2013-08-24T07:24:21Z</time>
      </trkpt>
      <trkpt lat="45.44979" lon="5.91703">
        <ele>1663.22</ele>
        <time>2013-08-24T07:24:25Z</time>
      </trkpt>
      <trkpt lat="45.44977" lon="5.91704">
        <ele>1664.66</ele>
        <time>2013-08-24T07:24:29Z</time>
      </trkpt>
      <trkpt lat="45.44976" lon="5.91705">
        <ele>1665.62</ele>
        <time>2013-08-24T07:24:33Z</time>
      </trkpt>
      <trkpt lat="45.44976" lon="5.91707">
        <ele>1666.58</ele>
        <time>2013-08-24T07:24:37Z</time>
      </trkpt>
      <trkpt lat="45.44977" lon="5.91709">
        <ele>1667.54</ele>
        <time>2013-08-24T07:24:41Z</time>
      </trkpt>
      <trkpt lat="45.44978" lon="5.91708">
        <ele>1668.51</ele>
        <time>2013-08-24T07:24:45Z</time>
      </trkpt>
      <trkpt lat="45.4498" lon="5.9171">
        <ele>1668.99</ele>
        <time>2013-08-24T07:24:49Z</time>
      </trkpt>
      <trkpt lat="45.4498" lon="5.91711">
        <ele>1669.95</ele>
        <time>2013-08-24T07:24:53Z</time>
      </trkpt>
      <trkpt lat="45.44981" lon="5.91712">
        <ele>1669.95</ele>
        <time>2013-08-24T07:24:57Z</time>
      </trkpt>
      <trkpt lat="45.44983" lon="5.91714">
        <ele>1670.43</ele>
        <time>2013-08-24T07:25:01Z</time>
      </trkpt>
      <trkpt lat="45.44985" lon="5.91714">
        <ele>1669.95</ele>
        <time>2013-08-24T07:25:05Z</time>
      </trkpt>
      <trkpt lat="45.44986" lon="5.91715">
        <ele>1670.91</ele>
        <time>2013-08-24T07:25:09Z</time>
      </trkpt>
      <trkpt lat="45.44986" lon="5.91715">
        <ele>1671.87</ele>
        <time>2013-08-24T07:25:13Z</time>
      </trkpt>
      <trkpt lat="45.44986" lon="5.91715">
        <ele>1672.83</ele>
        <time>2013-08-24T07:25:17Z</time>
      </trkpt>
      <trkpt lat="45.44986" lon="5.91716">
        <ele>1673.79</ele>
        <time>2013-08-24T07:25:21Z</time>
      </trkpt>
      <trkpt lat="45.44986" lon="5.91717">
        <ele>1673.79</ele>
        <time>2013-08-24T07:25:25Z</time>
      </trkpt>
      <trkpt lat="45.44988" lon="5.91718">
        <ele>1674.27</ele>
        <time>2013-08-24T07:25:29Z</time>
      </trkpt>
      <trkpt lat="45.4499" lon="5.91718">
        <ele>1675.23</ele>
        <time>2013-08-24T07:25:33Z</time>
      </trkpt>
      <trkpt lat="45.44991" lon="5.91719">
        <ele>1676.2</ele>
        <time>2013-08-24T07:25:37Z</time>
      </trkpt>
      <trkpt lat="45.44993" lon="5.91718">
        <ele>1677.16</ele>
        <time>2013-08-24T07:25:41Z</time>
      </trkpt>
      <trkpt lat="45.44994" lon="5.9172">
        <ele>1678.12</ele>
        <time>2013-08-24T07:25:45Z</time>
      </trkpt>
      <trkpt lat="45.44993" lon="5.91723">
        <ele>1679.08</ele>
        <time>2013-08-24T07:25:49Z</time>
      </trkpt>
      <trkpt lat="45.44995" lon="5.91723">
        <ele>1680.04</ele>
        <time>2013-08-24T07:25:53Z</time>
      </trkpt>
      <trkpt lat="45.44996" lon="5.91725">
        <ele>1680.52</ele>
        <time>2013-08-24T07:25:57Z</time>
      </trkpt>
      <trkpt lat="45.44998" lon="5.91725">
        <ele>1681.48</ele>
        <time>2013-08-24T07:26:01Z</time>
      </trkpt>
      <trkpt lat="45.45" lon="5.91724">
        <ele>1682.44</ele>
        <time>2013-08-24T07:26:05Z</time>
      </trkpt>
      <trkpt lat="45.45001" lon="5.91726">
        <ele>1683.41</ele>
        <time>2013-08-24T07:26:09Z</time>
      </trkpt>
      <trkpt lat="45.45003" lon="5.91726">
        <ele>1684.37</ele>
        <time>2013-08-24T07:26:13Z</time>
      </trkpt>
      <trkpt lat="45.45005" lon="5.91726">
        <ele>1685.33</ele>
        <time>2013-08-24T07:26:17Z</time>
      </trkpt>
      <trkpt lat="45.45006" lon="5.91725">
        <ele>1686.29</ele>
        <time>2013-08-24T07:26:21Z</time>
      </trkpt>
      <trkpt lat="45.45007" lon="5.91725">
        <ele>1685.81</ele>
        <time>2013-08-24T07:26:25Z</time>
      </trkpt>
      <trkpt lat="45.45006" lon="5.91728">
        <ele>1686.29</ele>
        <time>2013-08-24T07:26:29Z</time>
      </trkpt>
      <trkpt lat="45.45003" lon="5.91729">
        <ele>1687.73</ele>
        <time>2013-08-24T07:26:33Z</time>
      </trkpt>
      <trkpt lat="45.45" lon="5.91729">
        <ele>1689.17</ele>
        <time>2013-08-24T07:26:37Z</time>
      </trkpt>
      <trkpt lat="45.44998" lon="5.9173">
        <ele>1690.62</ele>
        <time>2013-08-24T07:26:41Z</time>
      </trkpt>
      <trkpt lat="45.44997" lon="5.91733">
        <ele>1691.1</ele>
        <time>2013-08-24T07:26:45Z</time>
      </trkpt>
      <trkpt lat="45.44997" lon="5.91735">
        <ele>1692.06</ele>
        <time>2013-08-24T07:26:49Z</time>
      </trkpt>
      <trkpt lat="45.44996" lon="5.91736">
        <ele>1693.02</ele>
        <time>2013-08-24T07:26:53Z</time>
      </trkpt>
      <trkpt lat="45.44995" lon="5.91734">
        <ele>1693.98</ele>
        <time>2013-08-24T07:26:57Z</time>
      </trkpt>
      <trkpt lat="45.44996" lon="5.91733">
        <ele>1695.42</ele>
        <time>2013-08-24T07:27:01Z</time>
      </trkpt>
      <trkpt lat="45.44996" lon="5.91733">
        <ele>1696.38</ele>
        <time>2013-08-24T07:27:05Z</time>
      </trkpt>
      <trkpt lat="45.44996" lon="5.91733">
        <ele>1696.86</ele>
        <time>2013-08-24T07:27:09Z</time>
      </trkpt>
      <trkpt lat="45.44995" lon="5.91733">
        <ele>1697.34</ele>
        <time>2013-08-24T07:27:13Z</time>
      </trkpt>
      <trkpt lat="45.44993" lon="5.91739">
        <ele>1697.83</ele>
        <time>2013-08-24T07:27:17Z</time>
      </trkpt>
      <trkpt lat="45.44993" lon="5.91742">
        <ele>1698.79</ele>
        <time>2013-08-24T07:27:21Z</time>
      </trkpt>
      <trkpt lat="45.44994" lon="5.91745">
        <ele>1699.27</ele>
        <time>2013-08-24T07:27:25Z</time>
      </trkpt>
      <trkpt lat="45.44996" lon="5.91747">
        <ele>1699.75</ele>
        <time>2013-08-24T07:27:29Z</time>
      </trkpt>
      <trkpt lat="45.44998" lon="5.9175">
        <ele>1700.23</ele>
        <time>2013-08-24T07:27:33Z</time>
      </trkpt>
      <trkpt lat="45.44999" lon="5.91751">
        <ele>1700.71</ele>
        <time>2013-08-24T07:27:37Z</time>
      </trkpt>
      <trkpt lat="45.45" lon="5.91752">
        <ele>1701.67</ele>
        <time>2013-08-24T07:27:41Z</time>
      </trkpt>
      <trkpt lat="45.45001" lon="5.91753">
        <ele>1702.15</ele>
        <time>2013-08-24T07:27:45Z</time>
      </trkpt>
      <trkpt lat="45.45001" lon="5.91752">
        <ele>1702.63</ele>
        <time>2013-08-24T07:27:49Z</time>
      </trkpt>
      <trkpt lat="45.45001" lon="5.91753">
        <ele>1702.63</ele>
        <time>2013-08-24T07:27:53Z</time>
      </trkpt>
      <trkpt lat="45.44996" lon="5.91746">
        <ele>1705.04</ele>
        <time>2013-08-24T07:28:35Z</time>
      </trkpt>
      <trkpt lat="45.44995" lon="5.91727">
        <ele>1709.36</ele>
        <time>2013-08-24T07:28:39Z</time>
      </trkpt>
      <trkpt lat="45.44996" lon="5.91717">
        <ele>1711.28</ele>
        <time>2013-08-24T07:28:43Z</time>
      </trkpt>
      <trkpt lat="45.44997" lon="5.91713">
        <ele>1712.25</ele>
        <time>2013-08-24T07:28:47Z</time>
      </trkpt>
      <trkpt lat="45.44998" lon="5.91706">
        <ele>1716.09</ele>
        <time>2013-08-24T07:28:51Z</time>
      </trkpt>
      <trkpt lat="45.45" lon="5.91707">
        <ele>1713.69</ele>
        <time>2013-08-24T07:28:55Z</time>
      </trkpt>
      <trkpt lat="45.44997" lon="5.91724">
        <ele>1701.67</ele>
        <time>2013-08-24T07:28:59Z</time>
      </trkpt>
      <trkpt lat="45.44997" lon="5.91729">
        <ele>1696.86</ele>
        <time>2013-08-24T07:29:03Z</time>
      </trkpt>
      <trkpt lat="45.44998" lon="5.91729">
        <ele>1695.9</ele>
        <time>2013-08-24T07:29:07Z</time>
      </trkpt>
      <trkpt lat="45.45" lon="5.91726">
        <ele>1695.42</ele>
        <time>2013-08-24T07:29:11Z</time>
      </trkpt>
      <trkpt lat="45.45002" lon="5.91724">
        <ele>1695.9</ele>
        <time>2013-08-24T07:29:15Z</time>
      </trkpt>
      <trkpt lat="45.45006" lon="5.91724">
        <ele>1694.94</ele>
        <time>2013-08-24T07:29:19Z</time>
      </trkpt>
      <trkpt lat="45.4501" lon="5.91726">
        <ele>1693.5</ele>
        <time>2013-08-24T07:29:23Z</time>
      </trkpt>
      <trkpt lat="45.45012" lon="5.91727">
        <ele>1692.54</ele>
        <time>2013-08-24T07:29:27Z</time>
      </trkpt>
      <trkpt lat="45.45015" lon="5.91729">
        <ele>1692.06</ele>
        <time>2013-08-24T07:29:31Z</time>
      </trkpt>
      <trkpt lat="45.45017" lon="5.9173">
        <ele>1692.06</ele>
        <time>2013-08-24T07:29:35Z</time>
      </trkpt>
      <trkpt lat="45.45021" lon="5.91731">
        <ele>1690.62</ele>
        <time>2013-08-24T07:29:39Z</time>
      </trkpt>
      <trkpt lat="45.45023" lon="5.91731">
        <ele>1691.1</ele>
        <time>2013-08-24T07:29:43Z</time>
      </trkpt>
      <trkpt lat="45.45027" lon="5.9173">
        <ele>1691.1</ele>
        <time>2013-08-24T07:29:47Z</time>
      </trkpt>
      <trkpt lat="45.45028" lon="5.91732">
        <ele>1690.62</ele>
        <time>2013-08-24T07:29:51Z</time>
      </trkpt>
      <trkpt lat="45.45028" lon="5.91734">
        <ele>1691.1</ele>
        <time>2013-08-24T07:29:55Z</time>
      </trkpt>
      <trkpt lat="45.45028" lon="5.91735">
        <ele>1691.58</ele>
        <time>2013-08-24T07:29:59Z</time>
      </trkpt>
      <trkpt lat="45.45029" lon="5.91736">
        <ele>1691.58</ele>
        <time>2013-08-24T07:30:03Z</time>
      </trkpt>
      <trkpt lat="45.4503" lon="5.91738">
        <ele>1691.58</ele>
        <time>2013-08-24T07:30:07Z</time>
      </trkpt>
      <trkpt lat="45.4503" lon="5.91741">
        <ele>1691.1</ele>
        <time>2013-08-24T07:30:11Z</time>
      </trkpt>
      <trkpt lat="45.45031" lon="5.91741">
        <ele>1691.1</ele>
        <time>2013-08-24T07:30:15Z</time>
      </trkpt>
      <trkpt lat="45.45031" lon="5.91742">
        <ele>1691.1</ele>
        <time>2013-08-24T07:30:19Z</time>
      </trkpt>
      <trkpt lat="45.45032" lon="5.91742">
        <ele>1691.58</ele>
        <time>2013-08-24T07:30:23Z</time>
      </trkpt>
      <trkpt lat="45.45032" lon="5.91742">
        <ele>1691.1</ele>
        <time>2013-08-24T07:30:27Z</time>
      </trkpt>
      <trkpt lat="45.4503" lon="5.91742">
        <ele>1689.65</ele>
        <time>2013-08-24T07:30:31Z</time>
      </trkpt>
      <trkpt lat="45.4503" lon="5.91743">
        <ele>1688.21</ele>
        <time>2013-08-24T07:30:35Z</time>
      </trkpt>
      <trkpt lat="45.4503" lon="5.91744">
        <ele>1687.73</ele>
        <time>2013-08-24T07:30:39Z</time>
      </trkpt>
      <trkpt lat="45.4503" lon="5.91745">
        <ele>1686.77</ele>
        <time>2013-08-24T07:30:43Z</time>
      </trkpt>
      <trkpt lat="45.45029" lon="5.91747">
        <ele>1685.81</ele>
        <time>2013-08-24T07:30:47Z</time>
      </trkpt>
      <trkpt lat="45.45028" lon="5.91748">
        <ele>1685.81</ele>
        <time>2013-08-24T07:30:51Z</time>
      </trkpt>
      <trkpt lat="45.45028" lon="5.91748">
        <ele>1685.81</ele>
        <time>2013-08-24T07:30:55Z</time>
      </trkpt>
      <trkpt lat="45.45027" lon="5.91748">
        <ele>1685.81</ele>
        <time>2013-08-24T07:30:59Z</time>
      </trkpt>
      <trkpt lat="45.45027" lon="5.91748">
        <ele>1686.29</ele>
        <time>2013-08-24T07:31:03Z</time>
      </trkpt>
      <trkpt lat="45.45028" lon="5.91748">
        <ele>1685.81</ele>
        <time>2013-08-24T07:31:07Z</time>
      </trkpt>
      <trkpt lat="45.4503" lon="5.91748">
        <ele>1685.81</ele>
        <time>2013-08-24T07:31:11Z</time>
      </trkpt>
      <trkpt lat="45.45031" lon="5.91747">
        <ele>1685.81</ele>
        <time>2013-08-24T07:31:15Z</time>
      </trkpt>
      <trkpt lat="45.45031" lon="5.91747">
        <ele>1685.33</ele>
        <time>2013-08-24T07:31:19Z</time>
      </trkpt>
      <trkpt lat="45.45031" lon="5.91747">
        <ele>1684.85</ele>
        <time>2013-08-24T07:31:23Z</time>
      </trkpt>
      <trkpt lat="45.45031" lon="5.91747">
        <ele>1684.85</ele>
        <time>2013-08-24T07:31:27Z</time>
      </trkpt>
      <trkpt lat="45.45031" lon="5.91748">
        <ele>1683.89</ele>
        <time>2013-08-24T07:31:31Z</time>
      </trkpt>
      <trkpt lat="45.4503" lon="5.9175">
        <ele>1682.44</ele>
        <time>2013-08-24T07:31:35Z</time>
      </trkpt>
      <trkpt lat="45.45029" lon="5.9175">
        <ele>1681.48</ele>
        <time>2013-08-24T07:31:39Z</time>
      </trkpt>
      <trkpt lat="45.4503" lon="5.91751">
        <ele>1681</ele>
        <time>2013-08-24T07:31:43Z</time>
      </trkpt>
      <trkpt lat="45.45031" lon="5.91751">
        <ele>1681</ele>
        <time>2013-08-24T07:31:47Z</time>
      </trkpt>
      <trkpt lat="45.45031" lon="5.91751">
        <ele>1680.52</ele>
        <time>2013-08-24T07:31:51Z</time>
      </trkpt>
      <trkpt lat="45.45031" lon="5.91751">
        <ele>1681</ele>
        <time>2013-08-24T07:31:55Z</time>
      </trkpt>
      <trkpt lat="45.4503" lon="5.91751">
        <ele>1681</ele>
        <time>2013-08-24T07:31:59Z</time>
      </trkpt>
      <trkpt lat="45.4503" lon="5.91749">
        <ele>1680.52</ele>
        <time>2013-08-24T07:32:03Z</time>
      </trkpt>
      <trkpt lat="45.45029" lon="5.9175">
        <ele>1679.56</ele>
        <time>2013-08-24T07:32:07Z</time>
      </trkpt>
      <trkpt lat="45.45026" lon="5.91749">
        <ele>1678.6</ele>
        <time>2013-08-24T07:32:11Z</time>
      </trkpt>
      <trkpt lat="45.45023" lon="5.91746">
        <ele>1679.08</ele>
        <time>2013-08-24T07:32:15Z</time>
      </trkpt>
      <trkpt lat="45.45023" lon="5.91742">
        <ele>1680.52</ele>
        <time>2013-08-24T07:32:19Z</time>
      </trkpt>
      <trkpt lat="45.45022" lon="5.91738">
        <ele>1681.96</ele>
        <time>2013-08-24T07:32:23Z</time>
      </trkpt>
      <trkpt lat="45.45018" lon="5.91734">
        <ele>1683.41</ele>
        <time>2013-08-24T07:32:27Z</time>
      </trkpt>
      <trkpt lat="45.45012" lon="5.9173">
        <ele>1683.89</ele>
        <time>2013-08-24T07:32:32Z</time>
      </trkpt>
      <trkpt lat="45.45008" lon="5.91727">
        <ele>1683.41</ele>
        <time>2013-08-24T07:32:36Z</time>
      </trkpt>
      <trkpt lat="45.45004" lon="5.91725">
        <ele>1682.93</ele>
        <time>2013-08-24T07:32:40Z</time>
      </trkpt>
      <trkpt lat="45.45001" lon="5.91723">
        <ele>1681.96</ele>
        <time>2013-08-24T07:32:44Z</time>
      </trkpt>
      <trkpt lat="45.44998" lon="5.91724">
        <ele>1681.96</ele>
        <time>2013-08-24T07:32:48Z</time>
      </trkpt>
      <trkpt lat="45.44997" lon="5.91723">
        <ele>1680.52</ele>
        <time>2013-08-24T07:32:52Z</time>
      </trkpt>
      <trkpt lat="45.44996" lon="5.91722">
        <ele>1679.08</ele>
        <time>2013-08-24T07:32:56Z</time>
      </trkpt>
      <trkpt lat="45.44996" lon="5.91724">
        <ele>1677.16</ele>
        <time>2013-08-24T07:33:00Z</time>
      </trkpt>
      <trkpt lat="45.44996" lon="5.91725">
        <ele>1674.75</ele>
        <time>2013-08-24T07:33:04Z</time>
      </trkpt>
      <trkpt lat="45.44994" lon="5.91723">
        <ele>1674.27</ele>
        <time>2013-08-24T07:33:08Z</time>
      </trkpt>
      <trkpt lat="45.44992" lon="5.91721">
        <ele>1672.35</ele>
        <time>2013-08-24T07:33:12Z</time>
      </trkpt>
      <trkpt lat="45.44989" lon="5.91719">
        <ele>1670.91</ele>
        <time>2013-08-24T07:33:16Z</time>
      </trkpt>
      <trkpt lat="45.44988" lon="5.91719">
        <ele>1669.47</ele>
        <time>2013-08-24T07:33:20Z</time>
      </trkpt>
      <trkpt lat="45.44986" lon="5.91718">
        <ele>1668.02</ele>
        <time>2013-08-24T07:33:24Z</time>
      </trkpt>
      <trkpt lat="45.44984" lon="5.91717">
        <ele>1666.58</ele>
        <time>2013-08-24T07:33:28Z</time>
      </trkpt>
      <trkpt lat="45.44983" lon="5.91715">
        <ele>1665.14</ele>
        <time>2013-08-24T07:33:32Z</time>
      </trkpt>
      <trkpt lat="45.4498" lon="5.91712">
        <ele>1664.18</ele>
        <time>2013-08-24T07:33:36Z</time>
      </trkpt>
      <trkpt lat="45.44978" lon="5.91712">
        <ele>1663.7</ele>
        <time>2013-08-24T07:33:40Z</time>
      </trkpt>
      <trkpt lat="45.44978" lon="5.91711">
        <ele>1662.74</ele>
        <time>2013-08-24T07:33:44Z</time>
      </trkpt>
      <trkpt lat="45.44979" lon="5.9171">
        <ele>1662.74</ele>
        <time>2013-08-24T07:33:48Z</time>
      </trkpt>
      <trkpt lat="45.44981" lon="5.91707">
        <ele>1662.26</ele>
        <time>2013-08-24T07:33:52Z</time>
      </trkpt>
      <trkpt lat="45.44981" lon="5.91704">
        <ele>1660.33</ele>
        <time>2013-08-24T07:33:56Z</time>
      </trkpt>
      <trkpt lat="45.44979" lon="5.91703">
        <ele>1658.89</ele>
        <time>2013-08-24T07:34:00Z</time>
      </trkpt>
      <trkpt lat="45.44978" lon="5.91704">
        <ele>1657.45</ele>
        <time>2013-08-24T07:34:04Z</time>
      </trkpt>
      <trkpt lat="45.44976" lon="5.91703">
        <ele>1656.97</ele>
        <time>2013-08-24T07:34:08Z</time>
      </trkpt>
      <trkpt lat="45.44976" lon="5.91701">
        <ele>1657.45</ele>
        <time>2013-08-24T07:34:12Z</time>
      </trkpt>
      <trkpt lat="45.44975" lon="5.91699">
        <ele>1658.41</ele>
        <time>2013-08-24T07:34:16Z</time>
      </trkpt>
      <trkpt lat="45.44976" lon="5.91696">
        <ele>1659.37</ele>
        <time>2013-08-24T07:34:20Z</time>
      </trkpt>
      <trkpt lat="45.44975" lon="5.91695">
        <ele>1659.85</ele>
        <time>2013-08-24T07:34:24Z</time>
      </trkpt>
      <trkpt lat="45.44974" lon="5.91694">
        <ele>1659.37</ele>
        <time>2013-08-24T07:34:28Z</time>
      </trkpt>
      <trkpt lat="45.44975" lon="5.91694">
        <ele>1658.89</ele>
        <time>2013-08-24T07:34:32Z</time>
      </trkpt>
      <trkpt lat="45.44975" lon="5.91693">
        <ele>1658.89</ele>
        <time>2013-08-24T07:34:36Z</time>
      </trkpt>
      <trkpt lat="45.44976" lon="5.91693">
        <ele>1658.89</ele>
        <time>2013-08-24T07:34:40Z</time>
      </trkpt>
      <trkpt lat="45.44976" lon="5.91695">
        <ele>1658.41</ele>
        <time>2013-08-24T07:34:44Z</time>
      </trkpt>
      <trkpt lat="45.44977" lon="5.91695">
        <ele>1658.41</ele>
        <time>2013-08-24T07:34:48Z</time>
      </trkpt>
      <trkpt lat="45.44976" lon="5.91694">
        <ele>1658.89</ele>
        <time>2013-08-24T07:34:52Z</time>
      </trkpt>
      <trkpt lat="45.44976" lon="5.91694">
        <ele>1659.85</ele>
        <time>2013-08-24T07:34:56Z</time>
      </trkpt>
      <trkpt lat="45.44977" lon="5.91694">
        <ele>1659.37</ele>
        <time>2013-08-24T07:35:00Z</time>
      </trkpt>
      <trkpt lat="45.44976" lon="5.91693">
        <ele>1657.93</ele>
        <time>2013-08-24T07:35:04Z</time>
      </trkpt>
      <trkpt lat="45.44975" lon="5.91693">
        <ele>1657.45</ele>
        <time>2013-08-24T07:35:08Z</time>
      </trkpt>
      <trkpt lat="45.44975" lon="5.91691">
        <ele>1657.45</ele>
        <time>2013-08-24T07:35:12Z</time>
      </trkpt>
      <trkpt lat="45.44976" lon="5.91691">
        <ele>1657.93</ele>
        <time>2013-08-24T07:35:16Z</time>
      </trkpt>
      <trkpt lat="45.44976" lon="5.91691">
        <ele>1657.93</ele>
        <time>2013-08-24T07:35:20Z</time>
      </trkpt>
      <trkpt lat="45.44975" lon="5.91688">
        <ele>1657.93</ele>
        <time>2013-08-24T07:35:24Z</time>
      </trkpt>
      <trkpt lat="45.44975" lon="5.91687">
        <ele>1657.45</ele>
        <time>2013-08-24T07:35:28Z</time>
      </trkpt>
      <trkpt lat="45.44974" lon="5.91687">
        <ele>1656.97</ele>
        <time>2013-08-24T07:35:32Z</time>
      </trkpt>
      <trkpt lat="45.44973" lon="5.91684">
        <ele>1656.49</ele>
        <time>2013-08-24T07:35:36Z</time>
      </trkpt>
      <trkpt lat="45.44973" lon="5.91681">
        <ele>1655.53</ele>
        <time>2013-08-24T07:35:40Z</time>
      </trkpt>
      <trkpt lat="45.44973" lon="5.91679">
        <ele>1655.05</ele>
        <time>2013-08-24T07:35:44Z</time>
      </trkpt>
      <trkpt lat="45.44974" lon="5.91677">
        <ele>1654.09</ele>
        <time>2013-08-24T07:35:48Z</time>
      </trkpt>
      <trkpt lat="45.44976" lon="5.91677">
        <ele>1652.64</ele>
        <time>2013-08-24T07:35:52Z</time>
      </trkpt>
      <trkpt lat="45.44976" lon="5.91676">
        <ele>1651.68</ele>
        <time>2013-08-24T07:35:56Z</time>
      </trkpt>
      <trkpt lat="45.44977" lon="5.91675">
        <ele>1651.2</ele>
        <time>2013-08-24T07:36:00Z</time>
      </trkpt>
      <trkpt lat="45.44977" lon="5.91672">
        <ele>1649.76</ele>
        <time>2013-08-24T07:36:04Z</time>
      </trkpt>
      <trkpt lat="45.44976" lon="5.9167">
        <ele>1647.84</ele>
        <time>2013-08-24T07:36:08Z</time>
      </trkpt>
      <trkpt lat="45.44975" lon="5.91669">
        <ele>1645.91</ele>
        <time>2013-08-24T07:36:12Z</time>
      </trkpt>
      <trkpt lat="45.44973" lon="5.91667">
        <ele>1645.43</ele>
        <time>2013-08-24T07:36:16Z</time>
      </trkpt>
      <trkpt lat="45.44972" lon="5.91666">
        <ele>1644.47</ele>
        <time>2013-08-24T07:36:20Z</time>
      </trkpt>
      <trkpt lat="45.44971" lon="5.91665">
        <ele>1643.99</ele>
        <time>2013-08-24T07:36:24Z</time>
      </trkpt>
      <trkpt lat="45.44973" lon="5.91664">
        <ele>1643.03</ele>
        <time>2013-08-24T07:36:28Z</time>
      </trkpt>
      <trkpt lat="45.44974" lon="5.91662">
        <ele>1643.03</ele>
        <time>2013-08-24T07:36:32Z</time>
      </trkpt>
      <trkpt lat="45.44974" lon="5.9166">
        <ele>1642.55</ele>
        <time>2013-08-24T07:36:36Z</time>
      </trkpt>
      <trkpt lat="45.44976" lon="5.91658">
        <ele>1642.07</ele>
        <time>2013-08-24T07:36:40Z</time>
      </trkpt>
      <trkpt lat="45.44975" lon="5.91656">
        <ele>1640.63</ele>
        <time>2013-08-24T07:36:44Z</time>
      </trkpt>
      <trkpt lat="45.44973" lon="5.91654">
        <ele>1638.7</ele>
        <time>2013-08-24T07:36:48Z</time>
      </trkpt>
      <trkpt lat="45.44973" lon="5.91651">
        <ele>1637.26</ele>
        <time>2013-08-24T07:36:52Z</time>
      </trkpt>
      <trkpt lat="45.44974" lon="5.91648">
        <ele>1637.26</ele>
        <time>2013-08-24T07:36:56Z</time>
      </trkpt>
      <trkpt lat="45.44975" lon="5.91644">
        <ele>1636.78</ele>
        <time>2013-08-24T07:37:00Z</time>
      </trkpt>
      <trkpt lat="45.44976" lon="5.91643">
        <ele>1636.3</ele>
        <time>2013-08-24T07:37:04Z</time>
      </trkpt>
      <trkpt lat="45.4498" lon="5.91643">
        <ele>1636.78</ele>
        <time>2013-08-24T07:37:08Z</time>
      </trkpt>
      <trkpt lat="45.44981" lon="5.9164">
        <ele>1636.78</ele>
        <time>2013-08-24T07:37:12Z</time>
      </trkpt>
      <trkpt lat="45.44981" lon="5.91637">
        <ele>1636.78</ele>
        <time>2013-08-24T07:37:16Z</time>
      </trkpt>
      <trkpt lat="45.44982" lon="5.91638">
        <ele>1636.78</ele>
        <time>2013-08-24T07:37:20Z</time>
      </trkpt>
      <trkpt lat="45.44982" lon="5.91638">
        <ele>1636.3</ele>
        <time>2013-08-24T07:37:24Z</time>
      </trkpt>
      <trkpt lat="45.44982" lon="5.91639">
        <ele>1635.82</ele>
        <time>2013-08-24T07:37:28Z</time>
      </trkpt>
      <trkpt lat="45.44982" lon="5.91636">
        <ele>1635.34</ele>
        <time>2013-08-24T07:37:32Z</time>
      </trkpt>
      <trkpt lat="45.44982" lon="5.91635">
        <ele>1634.38</ele>
        <time>2013-08-24T07:37:36Z</time>
      </trkpt>
      <trkpt lat="45.44985" lon="5.91635">
        <ele>1632.46</ele>
        <time>2013-08-24T07:37:40Z</time>
      </trkpt>
      <trkpt lat="45.44986" lon="5.91635">
        <ele>1630.05</ele>
        <time>2013-08-24T07:37:44Z</time>
      </trkpt>
      <trkpt lat="45.44986" lon="5.91633">
        <ele>1628.13</ele>
        <time>2013-08-24T07:37:48Z</time>
      </trkpt>
      <trkpt lat="45.44987" lon="5.9163">
        <ele>1626.21</ele>
        <time>2013-08-24T07:37:52Z</time>
      </trkpt>
      <trkpt lat="45.44987" lon="5.91628">
        <ele>1625.25</ele>
        <time>2013-08-24T07:37:56Z</time>
      </trkpt>
      <trkpt lat="45.44986" lon="5.91625">
        <ele>1622.36</ele>
        <time>2013-08-24T07:38:00Z</time>
      </trkpt>
      <trkpt lat="45.44985" lon="5.91623">
        <ele>1621.4</ele>
        <time>2013-08-24T07:38:04Z</time>
      </trkpt>
      <trkpt lat="45.44985" lon="5.91622">
        <ele>1620.44</ele>
        <time>2013-08-24T07:38:08Z</time>
      </trkpt>
      <trkpt lat="45.44985" lon="5.9162">
        <ele>1619.48</ele>
        <time>2013-08-24T07:38:12Z</time>
      </trkpt>
      <trkpt lat="45.44985" lon="5.91619">
        <ele>1618.52</ele>
        <time>2013-08-24T07:38:16Z</time>
      </trkpt>
      <trkpt lat="45.44987" lon="5.91619">
        <ele>1617.07</ele>
        <time>2013-08-24T07:38:20Z</time>
      </trkpt>
      <trkpt lat="45.44987" lon="5.91616">
        <ele>1615.63</ele>
        <time>2013-08-24T07:38:24Z</time>
      </trkpt>
      <trkpt lat="45.44987" lon="5.91616">
        <ele>1613.71</ele>
        <time>2013-08-24T07:38:28Z</time>
      </trkpt>
      <trkpt lat="45.44988" lon="5.91614">
        <ele>1613.23</ele>
        <time>2013-08-24T07:38:32Z</time>
      </trkpt>
      <trkpt lat="45.44988" lon="5.91612">
        <ele>1612.27</ele>
        <time>2013-08-24T07:38:36Z</time>
      </trkpt>
      <trkpt lat="45.44988" lon="5.9161">
        <ele>1610.35</ele>
        <time>2013-08-24T07:38:40Z</time>
      </trkpt>
      <trkpt lat="45.44987" lon="5.91608">
        <ele>1609.38</ele>
        <time>2013-08-24T07:38:44Z</time>
      </trkpt>
      <trkpt lat="45.44987" lon="5.91606">
        <ele>1608.9</ele>
        <time>2013-08-24T07:38:48Z</time>
      </trkpt>
      <trkpt lat="45.44988" lon="5.91604">
        <ele>1608.9</ele>
        <time>2013-08-24T07:38:52Z</time>
      </trkpt>
      <trkpt lat="45.44989" lon="5.91602">
        <ele>1608.9</ele>
        <time>2013-08-24T07:38:56Z</time>
      </trkpt>
      <trkpt lat="45.44989" lon="5.91602">
        <ele>1608.9</ele>
        <time>2013-08-24T07:39:00Z</time>
      </trkpt>
      <trkpt lat="45.44989" lon="5.91603">
        <ele>1608.9</ele>
        <time>2013-08-24T07:39:04Z</time>
      </trkpt>
      <trkpt lat="45.44991" lon="5.91602">
        <ele>1608.42</ele>
        <time>2013-08-24T07:39:08Z</time>
      </trkpt>
      <trkpt lat="45.44991" lon="5.916">
        <ele>1608.9</ele>
        <time>2013-08-24T07:39:12Z</time>
      </trkpt>
      <trkpt lat="45.44991" lon="5.91599">
        <ele>1610.35</ele>
        <time>2013-08-24T07:39:16Z</time>
      </trkpt>
      <trkpt lat="45.4499" lon="5.91599">
        <ele>1609.86</ele>
        <time>2013-08-24T07:39:20Z</time>
      </trkpt>
      <trkpt lat="45.44991" lon="5.916">
        <ele>1610.35</ele>
        <time>2013-08-24T07:39:24Z</time>
      </trkpt>
      <trkpt lat="45.4499" lon="5.916">
        <ele>1609.86</ele>
        <time>2013-08-24T07:39:28Z</time>
      </trkpt>
      <trkpt lat="45.4499" lon="5.91599">
        <ele>1610.35</ele>
        <time>2013-08-24T07:39:32Z</time>
      </trkpt>
      <trkpt lat="45.44992" lon="5.91599">
        <ele>1609.86</ele>
        <time>2013-08-24T07:39:36Z</time>
      </trkpt>
      <trkpt lat="45.44994" lon="5.91599">
        <ele>1609.86</ele>
        <time>2013-08-24T07:39:40Z</time>
      </trkpt>
      <trkpt lat="45.44995" lon="5.91599">
        <ele>1609.38</ele>
        <time>2013-08-24T07:39:44Z</time>
      </trkpt>
      <trkpt lat="45.44995" lon="5.916">
        <ele>1609.38</ele>
        <time>2013-08-24T07:39:48Z</time>
      </trkpt>
      <trkpt lat="45.44996" lon="5.91599">
        <ele>1609.38</ele>
        <time>2013-08-24T07:39:52Z</time>
      </trkpt>
      <trkpt lat="45.44996" lon="5.916">
        <ele>1609.38</ele>
        <time>2013-08-24T07:39:56Z</time>
      </trkpt>
      <trkpt lat="45.44996" lon="5.91603">
        <ele>1609.38</ele>
        <time>2013-08-24T07:40:00Z</time>
      </trkpt>
      <trkpt lat="45.44996" lon="5.91605">
        <ele>1609.38</ele>
        <time>2013-08-24T07:40:04Z</time>
      </trkpt>
      <trkpt lat="45.44996" lon="5.91608">
        <ele>1610.35</ele>
        <time>2013-08-24T07:40:08Z</time>
      </trkpt>
      <trkpt lat="45.44996" lon="5.91608">
        <ele>1610.83</ele>
        <time>2013-08-24T07:40:12Z</time>
      </trkpt>
      <trkpt lat="45.44998" lon="5.9161">
        <ele>1611.31</ele>
        <time>2013-08-24T07:40:16Z</time>
      </trkpt>
      <trkpt lat="45.44999" lon="5.91613">
        <ele>1611.79</ele>
        <time>2013-08-24T07:40:20Z</time>
      </trkpt>
      <trkpt lat="45.44999" lon="5.91617">
        <ele>1611.79</ele>
        <time>2013-08-24T07:40:24Z</time>
      </trkpt>
      <trkpt lat="45.44998" lon="5.91619">
        <ele>1613.23</ele>
        <time>2013-08-24T07:40:28Z</time>
      </trkpt>
      <trkpt lat="45.44996" lon="5.91621">
        <ele>1614.19</ele>
        <time>2013-08-24T07:40:32Z</time>
      </trkpt>
      <trkpt lat="45.44996" lon="5.91617">
        <ele>1614.67</ele>
        <time>2013-08-24T07:40:36Z</time>
      </trkpt>
      <trkpt lat="45.44993" lon="5.91612">
        <ele>1614.67</ele>
        <time>2013-08-24T07:40:40Z</time>
      </trkpt>
      <trkpt lat="45.44993" lon="5.91612">
        <ele>1615.15</ele>
        <time>2013-08-24T07:40:44Z</time>
      </trkpt>
      <trkpt lat="45.44995" lon="5.91613">
        <ele>1615.63</ele>
        <time>2013-08-24T07:40:48Z</time>
      </trkpt>
      <trkpt lat="45.44997" lon="5.91617">
        <ele>1615.63</ele>
        <time>2013-08-24T07:40:52Z</time>
      </trkpt>
      <trkpt lat="45.44998" lon="5.91618">
        <ele>1615.15</ele>
        <time>2013-08-24T07:40:56Z</time>
      </trkpt>
      <trkpt lat="45.44998" lon="5.91618">
        <ele>1615.15</ele>
        <time>2013-08-24T07:41:00Z</time>
      </trkpt>
      <trkpt lat="45.44998" lon="5.91619">
        <ele>1616.11</ele>
        <time>2013-08-24T07:41:04Z</time>
      </trkpt>
      <trkpt lat="45.44997" lon="5.91619">
        <ele>1616.11</ele>
        <time>2013-08-24T07:41:08Z</time>
      </trkpt>
      <trkpt lat="45.44996" lon="5.9162">
        <ele>1616.11</ele>
        <time>2013-08-24T07:41:12Z</time>
      </trkpt>
      <trkpt lat="45.44995" lon="5.91619">
        <ele>1615.63</ele>
        <time>2013-08-24T07:41:16Z</time>
      </trkpt>
      <trkpt lat="45.44995" lon="5.91619">
        <ele>1615.15</ele>
        <time>2013-08-24T07:41:20Z</time>
      </trkpt>
      <trkpt lat="45.44995" lon="5.91619">
        <ele>1615.15</ele>
        <time>2013-08-24T07:41:24Z</time>
      </trkpt>
      <trkpt lat="45.44995" lon="5.91618">
        <ele>1614.67</ele>
        <time>2013-08-24T07:41:28Z</time>
      </trkpt>
      <trkpt lat="45.44996" lon="5.91618">
        <ele>1615.15</ele>
        <time>2013-08-24T07:41:32Z</time>
      </trkpt>
      <trkpt lat="45.44996" lon="5.91618">
        <ele>1615.15</ele>
        <time>2013-08-24T07:41:36Z</time>
      </trkpt>
      <trkpt lat="45.44996" lon="5.91618">
        <ele>1615.15</ele>
        <time>2013-08-24T07:41:40Z</time>
      </trkpt>
      <trkpt lat="45.44996" lon="5.91619">
        <ele>1615.15</ele>
        <time>2013-08-24T07:41:44Z</time>
      </trkpt>
      <trkpt lat="45.44998" lon="5.91623">
        <ele>1614.67</ele>
        <time>2013-08-24T07:41:48Z</time>
      </trkpt>
      <trkpt lat="45.45001" lon="5.91624">
        <ele>1614.67</ele>
        <time>2013-08-24T07:41:52Z</time>
      </trkpt>
      <trkpt lat="45.45002" lon="5.91626">
        <ele>1615.15</ele>
        <time>2013-08-24T07:41:56Z</time>
      </trkpt>
      <trkpt lat="45.45003" lon="5.91628">
        <ele>1615.15</ele>
        <time>2013-08-24T07:42:00Z</time>
      </trkpt>
      <trkpt lat="45.45005" lon="5.91632">
        <ele>1615.63</ele>
        <time>2013-08-24T07:42:04Z</time>
      </trkpt>
      <trkpt lat="45.45009" lon="5.91634">
        <ele>1616.59</ele>
        <time>2013-08-24T07:42:08Z</time>
      </trkpt>
      <trkpt lat="45.45013" lon="5.91636">
        <ele>1617.07</ele>
        <time>2013-08-24T07:42:12Z</time>
      </trkpt>
      <trkpt lat="45.45016" lon="5.91637">
        <ele>1616.59</ele>
        <time>2013-08-24T07:42:16Z</time>
      </trkpt>
      <trkpt lat="45.45017" lon="5.91638">
        <ele>1616.11</ele>
        <time>2013-08-24T07:42:20Z</time>
      </trkpt>
      <trkpt lat="45.45018" lon="5.91639">
        <ele>1616.11</ele>
        <time>2013-08-24T07:42:24Z</time>
      </trkpt>
      <trkpt lat="45.4502" lon="5.91639">
        <ele>1615.63</ele>
        <time>2013-08-24T07:42:28Z</time>
      </trkpt>
      <trkpt lat="45.45021" lon="5.9164">
        <ele>1615.15</ele>
        <time>2013-08-24T07:42:32Z</time>
      </trkpt>
      <trkpt lat="45.45023" lon="5.9164">
        <ele>1615.63</ele>
        <time>2013-08-24T07:42:36Z</time>
      </trkpt>
      <trkpt lat="45.45027" lon="5.91642">
        <ele>1616.59</ele>
        <time>2013-08-24T07:42:40Z</time>
      </trkpt>
      <trkpt lat="45.4503" lon="5.91644">
        <ele>1617.07</ele>
        <time>2013-08-24T07:42:44Z</time>
      </trkpt>
      <trkpt lat="45.45033" lon="5.91644">
        <ele>1618.04</ele>
        <time>2013-08-24T07:42:48Z</time>
      </trkpt>
      <trkpt lat="45.45036" lon="5.91646">
        <ele>1619</ele>
        <time>2013-08-24T07:42:52Z</time>
      </trkpt>
      <trkpt lat="45.45038" lon="5.91647">
        <ele>1619.48</ele>
        <time>2013-08-24T07:42:56Z</time>
      </trkpt>
      <trkpt lat="45.4504" lon="5.91647">
        <ele>1619.48</ele>
        <time>2013-08-24T07:43:00Z</time>
      </trkpt>
      <trkpt lat="45.45042" lon="5.91649">
        <ele>1619.96</ele>
        <time>2013-08-24T07:43:04Z</time>
      </trkpt>
      <trkpt lat="45.45044" lon="5.91651">
        <ele>1619.96</ele>
        <time>2013-08-24T07:43:08Z</time>
      </trkpt>
      <trkpt lat="45.45048" lon="5.91653">
        <ele>1619.96</ele>
        <time>2013-08-24T07:43:12Z</time>
      </trkpt>
      <trkpt lat="45.45052" lon="5.91656">
        <ele>1619</ele>
        <time>2013-08-24T07:43:16Z</time>
      </trkpt>
      <trkpt lat="45.45057" lon="5.9166">
        <ele>1617.56</ele>
        <time>2013-08-24T07:43:20Z</time>
      </trkpt>
      <trkpt lat="45.4506" lon="5.91663">
        <ele>1617.07</ele>
        <time>2013-08-24T07:43:24Z</time>
      </trkpt>
      <trkpt lat="45.45063" lon="5.91666">
        <ele>1617.07</ele>
        <time>2013-08-24T07:43:28Z</time>
      </trkpt>
      <trkpt lat="45.45065" lon="5.91667">
        <ele>1617.07</ele>
        <time>2013-08-24T07:43:32Z</time>
      </trkpt>
      <trkpt lat="45.45066" lon="5.91668">
        <ele>1617.07</ele>
        <time>2013-08-24T07:43:36Z</time>
      </trkpt>
      <trkpt lat="45.45068" lon="5.9167">
        <ele>1616.59</ele>
        <time>2013-08-24T07:43:40Z</time>
      </trkpt>
      <trkpt lat="45.4507" lon="5.91673">
        <ele>1616.11</ele>
        <time>2013-08-24T07:43:44Z</time>
      </trkpt>
      <trkpt lat="45.4507" lon="5.91676">
        <ele>1616.59</ele>
        <time>2013-08-24T07:43:48Z</time>
      </trkpt>
      <trkpt lat="45.45071" lon="5.91676">
        <ele>1617.07</ele>
        <time>2013-08-24T07:43:52Z</time>
      </trkpt>
      <trkpt lat="45.45072" lon="5.91676">
        <ele>1617.56</ele>
        <time>2013-08-24T07:43:56Z</time>
      </trkpt>
      <trkpt lat="45.45072" lon="5.91677">
        <ele>1617.07</ele>
        <time>2013-08-24T07:44:00Z</time>
      </trkpt>
      <trkpt lat="45.45073" lon="5.91678">
        <ele>1616.59</ele>
        <time>2013-08-24T07:44:04Z</time>
      </trkpt>
      <trkpt lat="45.45076" lon="5.9168">
        <ele>1615.63</ele>
        <time>2013-08-24T07:44:08Z</time>
      </trkpt>
      <trkpt lat="45.45078" lon="5.91683">
        <ele>1614.19</ele>
        <time>2013-08-24T07:44:12Z</time>
      </trkpt>
      <trkpt lat="45.4508" lon="5.91686">
        <ele>1613.23</ele>
        <time>2013-08-24T07:44:16Z</time>
      </trkpt>
      <trkpt lat="45.45081" lon="5.91687">
        <ele>1612.75</ele>
        <time>2013-08-24T07:44:20Z</time>
      </trkpt>
      <trkpt lat="45.45082" lon="5.91689">
        <ele>1612.75</ele>
        <time>2013-08-24T07:44:24Z</time>
      </trkpt>
      <trkpt lat="45.45084" lon="5.91696">
        <ele>1611.79</ele>
        <time>2013-08-24T07:44:28Z</time>
      </trkpt>
      <trkpt lat="45.45087" lon="5.91698">
        <ele>1612.75</ele>
        <time>2013-08-24T07:44:32Z</time>
      </trkpt>
      <trkpt lat="45.45092" lon="5.91701">
        <ele>1612.27</ele>
        <time>2013-08-24T07:44:36Z</time>
      </trkpt>
      <trkpt lat="45.45095" lon="5.91704">
        <ele>1612.27</ele>
        <time>2013-08-24T07:44:40Z</time>
      </trkpt>
      <trkpt lat="45.45097" lon="5.91706">
        <ele>1612.75</ele>
        <time>2013-08-24T07:44:44Z</time>
      </trkpt>
      <trkpt lat="45.45098" lon="5.91707">
        <ele>1613.23</ele>
        <time>2013-08-24T07:44:48Z</time>
      </trkpt>
      <trkpt lat="45.451" lon="5.91708">
        <ele>1613.23</ele>
        <time>2013-08-24T07:44:52Z</time>
      </trkpt>
      <trkpt lat="45.45102" lon="5.9171">
        <ele>1613.71</ele>
        <time>2013-08-24T07:44:56Z</time>
      </trkpt>
      <trkpt lat="45.45106" lon="5.91712">
        <ele>1613.71</ele>
        <time>2013-08-24T07:45:00Z</time>
      </trkpt>
      <trkpt lat="45.45109" lon="5.91713">
        <ele>1614.19</ele>
        <time>2013-08-24T07:45:04Z</time>
      </trkpt>
      <trkpt lat="45.45113" lon="5.91715">
        <ele>1614.67</ele>
        <time>2013-08-24T07:45:08Z</time>
      </trkpt>
      <trkpt lat="45.45117" lon="5.91719">
        <ele>1614.67</ele>
        <time>2013-08-24T07:45:12Z</time>
      </trkpt>
      <trkpt lat="45.45121" lon="5.91722">
        <ele>1615.15</ele>
        <time>2013-08-24T07:45:16Z</time>
      </trkpt>
      <trkpt lat="45.45126" lon="5.91724">
        <ele>1615.15</ele>
        <time>2013-08-24T07:45:20Z</time>
      </trkpt>
      <trkpt lat="45.45129" lon="5.91728">
        <ele>1615.63</ele>
        <time>2013-08-24T07:45:24Z</time>
      </trkpt>
      <trkpt lat="45.45132" lon="5.91731">
        <ele>1616.11</ele>
        <time>2013-08-24T07:45:28Z</time>
      </trkpt>
      <trkpt lat="45.45135" lon="5.91735">
        <ele>1616.11</ele>
        <time>2013-08-24T07:45:32Z</time>
      </trkpt>
      <trkpt lat="45.45138" lon="5.91738">
        <ele>1616.59</ele>
        <time>2013-08-24T07:45:36Z</time>
      </trkpt>
      <trkpt lat="45.45141" lon="5.91742">
        <ele>1616.11</ele>
        <time>2013-08-24T07:45:40Z</time>
      </trkpt>
      <trkpt lat="45.45143" lon="5.91746">
        <ele>1616.11</ele>
        <time>2013-08-24T07:45:44Z</time>
      </trkpt>
      <trkpt lat="45.45146" lon="5.91748">
        <ele>1617.07</ele>
        <time>2013-08-24T07:45:48Z</time>
      </trkpt>
      <trkpt lat="45.45148" lon="5.91751">
        <ele>1617.56</ele>
        <time>2013-08-24T07:45:52Z</time>
      </trkpt>
      <trkpt lat="45.45152" lon="5.91753">
        <ele>1618.52</ele>
        <time>2013-08-24T07:45:56Z</time>
      </trkpt>
      <trkpt lat="45.45154" lon="5.91754">
        <ele>1619</ele>
        <time>2013-08-24T07:46:00Z</time>
      </trkpt>
      <trkpt lat="45.45157" lon="5.91757">
        <ele>1619.48</ele>
        <time>2013-08-24T07:46:04Z</time>
      </trkpt>
      <trkpt lat="45.4516" lon="5.9176">
        <ele>1619.96</ele>
        <time>2013-08-24T07:46:08Z</time>
      </trkpt>
      <trkpt lat="45.45162" lon="5.91762">
        <ele>1620.44</ele>
        <time>2013-08-24T07:46:12Z</time>
      </trkpt>
      <trkpt lat="45.45165" lon="5.91765">
        <ele>1620.44</ele>
        <time>2013-08-24T07:46:16Z</time>
      </trkpt>
      <trkpt lat="45.45167" lon="5.91767">
        <ele>1620.44</ele>
        <time>2013-08-24T07:46:20Z</time>
      </trkpt>
      <trkpt lat="45.45168" lon="5.9177">
        <ele>1620.44</ele>
        <time>2013-08-24T07:46:24Z</time>
      </trkpt>
      <trkpt lat="45.45171" lon="5.9177">
        <ele>1620.44</ele>
        <time>2013-08-24T07:46:28Z</time>
      </trkpt>
      <trkpt lat="45.45174" lon="5.91772">
        <ele>1620.92</ele>
        <time>2013-08-24T07:46:32Z</time>
      </trkpt>
      <trkpt lat="45.45176" lon="5.91774">
        <ele>1621.4</ele>
        <time>2013-08-24T07:46:36Z</time>
      </trkpt>
      <trkpt lat="45.45179" lon="5.91777">
        <ele>1621.4</ele>
        <time>2013-08-24T07:46:40Z</time>
      </trkpt>
      <trkpt lat="45.45181" lon="5.9178">
        <ele>1620.92</ele>
        <time>2013-08-24T07:46:44Z</time>
      </trkpt>
      <trkpt lat="45.45182" lon="5.91783">
        <ele>1620.44</ele>
        <time>2013-08-24T07:46:48Z</time>
      </trkpt>
      <trkpt lat="45.45184" lon="5.91785">
        <ele>1620.44</ele>
        <time>2013-08-24T07:46:52Z</time>
      </trkpt>
      <trkpt lat="45.45186" lon="5.91786">
        <ele>1620.44</ele>
        <time>2013-08-24T07:46:56Z</time>
      </trkpt>
      <trkpt lat="45.45188" lon="5.91788">
        <ele>1620.92</ele>
        <time>2013-08-24T07:47:00Z</time>
      </trkpt>
      <trkpt lat="45.4519" lon="5.9179">
        <ele>1621.4</ele>
        <time>2013-08-24T07:47:04Z</time>
      </trkpt>
      <trkpt lat="45.45193" lon="5.91792">
        <ele>1622.36</ele>
        <time>2013-08-24T07:47:08Z</time>
      </trkpt>
      <trkpt lat="45.45195" lon="5.91794">
        <ele>1622.84</ele>
        <time>2013-08-24T07:47:12Z</time>
      </trkpt>
      <trkpt lat="45.45197" lon="5.91796">
        <ele>1622.84</ele>
        <time>2013-08-24T07:47:16Z</time>
      </trkpt>
      <trkpt lat="45.45199" lon="5.91799">
        <ele>1623.8</ele>
        <time>2013-08-24T07:47:20Z</time>
      </trkpt>
      <trkpt lat="45.45201" lon="5.91802">
        <ele>1623.8</ele>
        <time>2013-08-24T07:47:24Z</time>
      </trkpt>
      <trkpt lat="45.45203" lon="5.91805">
        <ele>1623.8</ele>
        <time>2013-08-24T07:47:28Z</time>
      </trkpt>
      <trkpt lat="45.45203" lon="5.91806">
        <ele>1624.28</ele>
        <time>2013-08-24T07:47:32Z</time>
      </trkpt>
      <trkpt lat="45.45204" lon="5.91808">
        <ele>1622.84</ele>
        <time>2013-08-24T07:47:36Z</time>
      </trkpt>
      <trkpt lat="45.45204" lon="5.91809">
        <ele>1622.84</ele>
        <time>2013-08-24T07:47:40Z</time>
      </trkpt>
      <trkpt lat="45.45206" lon="5.91812">
        <ele>1621.4</ele>
        <time>2013-08-24T07:47:44Z</time>
      </trkpt>
      <trkpt lat="45.45209" lon="5.91814">
        <ele>1621.4</ele>
        <time>2013-08-24T07:47:48Z</time>
      </trkpt>
      <trkpt lat="45.45212" lon="5.91817">
        <ele>1620.44</ele>
        <time>2013-08-24T07:47:52Z</time>
      </trkpt>
      <trkpt lat="45.45214" lon="5.91819">
        <ele>1620.92</ele>
        <time>2013-08-24T07:47:56Z</time>
      </trkpt>
      <trkpt lat="45.45217" lon="5.91821">
        <ele>1621.4</ele>
        <time>2013-08-24T07:48:00Z</time>
      </trkpt>
      <trkpt lat="45.4522" lon="5.91824">
        <ele>1621.88</ele>
        <time>2013-08-24T07:48:04Z</time>
      </trkpt>
      <trkpt lat="45.45222" lon="5.91826">
        <ele>1622.84</ele>
        <time>2013-08-24T07:48:08Z</time>
      </trkpt>
      <trkpt lat="45.45225" lon="5.91828">
        <ele>1623.8</ele>
        <time>2013-08-24T07:48:12Z</time>
      </trkpt>
      <trkpt lat="45.45227" lon="5.91832">
        <ele>1624.77</ele>
        <time>2013-08-24T07:48:16Z</time>
      </trkpt>
      <trkpt lat="45.45229" lon="5.91835">
        <ele>1624.77</ele>
        <time>2013-08-24T07:48:20Z</time>
      </trkpt>
      <trkpt lat="45.45231" lon="5.91838">
        <ele>1625.73</ele>
        <time>2013-08-24T07:48:24Z</time>
      </trkpt>
      <trkpt lat="45.45233" lon="5.91842">
        <ele>1626.21</ele>
        <time>2013-08-24T07:48:28Z</time>
      </trkpt>
      <trkpt lat="45.45234" lon="5.91845">
        <ele>1627.17</ele>
        <time>2013-08-24T07:48:32Z</time>
      </trkpt>
      <trkpt lat="45.45235" lon="5.91846">
        <ele>1627.65</ele>
        <time>2013-08-24T07:48:36Z</time>
      </trkpt>
      <trkpt lat="45.45238" lon="5.9185">
        <ele>1628.61</ele>
        <time>2013-08-24T07:48:40Z</time>
      </trkpt>
      <trkpt lat="45.4524" lon="5.91854">
        <ele>1629.57</ele>
        <time>2013-08-24T07:48:44Z</time>
      </trkpt>
      <trkpt lat="45.45241" lon="5.91859">
        <ele>1630.05</ele>
        <time>2013-08-24T07:48:48Z</time>
      </trkpt>
      <trkpt lat="45.45244" lon="5.91859">
        <ele>1631.01</ele>
        <time>2013-08-24T07:48:52Z</time>
      </trkpt>
      <trkpt lat="45.45246" lon="5.9186">
        <ele>1631.98</ele>
        <time>2013-08-24T07:48:56Z</time>
      </trkpt>
      <trkpt lat="45.45248" lon="5.91863">
        <ele>1632.94</ele>
        <time>2013-08-24T07:49:00Z</time>
      </trkpt>
      <trkpt lat="45.4525" lon="5.91865">
        <ele>1633.9</ele>
        <time>2013-08-24T07:49:04Z</time>
      </trkpt>
      <trkpt lat="45.45252" lon="5.91869">
        <ele>1634.86</ele>
        <time>2013-08-24T07:49:08Z</time>
      </trkpt>
      <trkpt lat="45.45255" lon="5.91872">
        <ele>1635.34</ele>
        <time>2013-08-24T07:49:12Z</time>
      </trkpt>
      <trkpt lat="45.45257" lon="5.91875">
        <ele>1635.82</ele>
        <time>2013-08-24T07:49:16Z</time>
      </trkpt>
      <trkpt lat="45.4526" lon="5.91878">
        <ele>1635.82</ele>
        <time>2013-08-24T07:49:20Z</time>
      </trkpt>
      <trkpt lat="45.45263" lon="5.9188">
        <ele>1635.82</ele>
        <time>2013-08-24T07:49:24Z</time>
      </trkpt>
      <trkpt lat="45.45265" lon="5.91881">
        <ele>1636.3</ele>
        <time>2013-08-24T07:49:28Z</time>
      </trkpt>
      <trkpt lat="45.45268" lon="5.91883">
        <ele>1636.3</ele>
        <time>2013-08-24T07:49:32Z</time>
      </trkpt>
      <trkpt lat="45.4527" lon="5.91885">
        <ele>1636.78</ele>
        <time>2013-08-24T07:49:36Z</time>
      </trkpt>
      <trkpt lat="45.45271" lon="5.91887">
        <ele>1637.26</ele>
        <time>2013-08-24T07:49:40Z</time>
      </trkpt>
      <trkpt lat="45.45273" lon="5.91888">
        <ele>1637.74</ele>
        <time>2013-08-24T07:49:44Z</time>
      </trkpt>
      <trkpt lat="45.45276" lon="5.9189">
        <ele>1638.22</ele>
        <time>2013-08-24T07:49:48Z</time>
      </trkpt>
      <trkpt lat="45.45278" lon="5.91892">
        <ele>1639.19</ele>
        <time>2013-08-24T07:49:52Z</time>
      </trkpt>
      <trkpt lat="45.4528" lon="5.91894">
        <ele>1640.15</ele>
        <time>2013-08-24T07:49:56Z</time>
      </trkpt>
      <trkpt lat="45.45282" lon="5.91896">
        <ele>1640.15</ele>
        <time>2013-08-24T07:50:00Z</time>
      </trkpt>
      <trkpt lat="45.45284" lon="5.91896">
        <ele>1640.15</ele>
        <time>2013-08-24T07:50:04Z</time>
      </trkpt>
      <trkpt lat="45.45284" lon="5.91896">
        <ele>1640.63</ele>
        <time>2013-08-24T07:50:08Z</time>
      </trkpt>
      <trkpt lat="45.45287" lon="5.91898">
        <ele>1640.15</ele>
        <time>2013-08-24T07:50:12Z</time>
      </trkpt>
      <trkpt lat="45.45288" lon="5.919">
        <ele>1640.15</ele>
        <time>2013-08-24T07:50:16Z</time>
      </trkpt>
      <trkpt lat="45.4529" lon="5.91901">
        <ele>1640.63</ele>
        <time>2013-08-24T07:50:20Z</time>
      </trkpt>
      <trkpt lat="45.45292" lon="5.91901">
        <ele>1641.59</ele>
        <time>2013-08-24T07:50:24Z</time>
      </trkpt>
      <trkpt lat="45.45294" lon="5.91903">
        <ele>1641.59</ele>
        <time>2013-08-24T07:50:28Z</time>
      </trkpt>
      <trkpt lat="45.45296" lon="5.91904">
        <ele>1641.59</ele>
        <time>2013-08-24T07:50:32Z</time>
      </trkpt>
      <trkpt lat="45.45297" lon="5.91904">
        <ele>1643.03</ele>
        <time>2013-08-24T07:50:36Z</time>
      </trkpt>
      <trkpt lat="45.45298" lon="5.91904">
        <ele>1644.95</ele>
        <time>2013-08-24T07:50:40Z</time>
      </trkpt>
      <trkpt lat="45.45299" lon="5.91905">
        <ele>1645.91</ele>
        <time>2013-08-24T07:50:44Z</time>
      </trkpt>
      <trkpt lat="45.453" lon="5.91906">
        <ele>1646.88</ele>
        <time>2013-08-24T07:50:48Z</time>
      </trkpt>
      <trkpt lat="45.45303" lon="5.91907">
        <ele>1646.88</ele>
        <time>2013-08-24T07:50:52Z</time>
      </trkpt>
      <trkpt lat="45.45306" lon="5.91909">
        <ele>1647.36</ele>
        <time>2013-08-24T07:50:56Z</time>
      </trkpt>
      <trkpt lat="45.45309" lon="5.91911">
        <ele>1647.36</ele>
        <time>2013-08-24T07:51:00Z</time>
      </trkpt>
      <trkpt lat="45.45311" lon="5.91912">
        <ele>1647.84</ele>
        <time>2013-08-24T07:51:04Z</time>
      </trkpt>
      <trkpt lat="45.45314" lon="5.91915">
        <ele>1648.32</ele>
        <time>2013-08-24T07:51:08Z</time>
      </trkpt>
      <trkpt lat="45.45315" lon="5.91918">
        <ele>1648.8</ele>
        <time>2013-08-24T07:51:12Z</time>
      </trkpt>
      <trkpt lat="45.45316" lon="5.91921">
        <ele>1648.8</ele>
        <time>2013-08-24T07:51:16Z</time>
      </trkpt>
      <trkpt lat="45.45319" lon="5.91923">
        <ele>1649.76</ele>
        <time>2013-08-24T07:51:20Z</time>
      </trkpt>
      <trkpt lat="45.45322" lon="5.91925">
        <ele>1650.24</ele>
        <time>2013-08-24T07:51:24Z</time>
      </trkpt>
      <trkpt lat="45.45324" lon="5.91926">
        <ele>1650.72</ele>
        <time>2013-08-24T07:51:28Z</time>
      </trkpt>
      <trkpt lat="45.45327" lon="5.91929">
        <ele>1651.68</ele>
        <time>2013-08-24T07:51:32Z</time>
      </trkpt>
      <trkpt lat="45.45328" lon="5.91932">
        <ele>1652.64</ele>
        <time>2013-08-24T07:51:36Z</time>
      </trkpt>
      <trkpt lat="45.45331" lon="5.91934">
        <ele>1653.6</ele>
        <time>2013-08-24T07:51:40Z</time>
      </trkpt>
      <trkpt lat="45.45332" lon="5.91936">
        <ele>1655.05</ele>
        <time>2013-08-24T07:51:44Z</time>
      </trkpt>
      <trkpt lat="45.45334" lon="5.91937">
        <ele>1656.01</ele>
        <time>2013-08-24T07:51:48Z</time>
      </trkpt>
      <trkpt lat="45.45335" lon="5.91937">
        <ele>1656.49</ele>
        <time>2013-08-24T07:51:52Z</time>
      </trkpt>
      <trkpt lat="45.45335" lon="5.91938">
        <ele>1656.97</ele>
        <time>2013-08-24T07:51:56Z</time>
      </trkpt>
      <trkpt lat="45.45336" lon="5.91937">
        <ele>1657.45</ele>
        <time>2013-08-24T07:52:00Z</time>
      </trkpt>
      <trkpt lat="45.45338" lon="5.91939">
        <ele>1657.93</ele>
        <time>2013-08-24T07:52:04Z</time>
      </trkpt>
      <trkpt lat="45.45339" lon="5.91941">
        <ele>1658.41</ele>
        <time>2013-08-24T07:52:08Z</time>
      </trkpt>
      <trkpt lat="45.45341" lon="5.91943">
        <ele>1658.41</ele>
        <time>2013-08-24T07:52:12Z</time>
      </trkpt>
      <trkpt lat="45.45343" lon="5.91944">
        <ele>1658.89</ele>
        <time>2013-08-24T07:52:16Z</time>
      </trkpt>
      <trkpt lat="45.45344" lon="5.91948">
        <ele>1658.89</ele>
        <time>2013-08-24T07:52:20Z</time>
      </trkpt>
      <trkpt lat="45.45347" lon="5.91948">
        <ele>1659.37</ele>
        <time>2013-08-24T07:52:24Z</time>
      </trkpt>
      <trkpt lat="45.4535" lon="5.9195">
        <ele>1660.33</ele>
        <time>2013-08-24T07:52:28Z</time>
      </trkpt>
      <trkpt lat="45.45352" lon="5.91952">
        <ele>1660.33</ele>
        <time>2013-08-24T07:52:32Z</time>
      </trkpt>
      <trkpt lat="45.45354" lon="5.91952">
        <ele>1661.3</ele>
        <time>2013-08-24T07:52:36Z</time>
      </trkpt>
      <trkpt lat="45.45356" lon="5.91952">
        <ele>1662.26</ele>
        <time>2013-08-24T07:52:40Z</time>
      </trkpt>
      <trkpt lat="45.45358" lon="5.91953">
        <ele>1663.22</ele>
        <time>2013-08-24T07:52:44Z</time>
      </trkpt>
      <trkpt lat="45.4536" lon="5.91951">
        <ele>1664.18</ele>
        <time>2013-08-24T07:52:48Z</time>
      </trkpt>
      <trkpt lat="45.45363" lon="5.91952">
        <ele>1664.18</ele>
        <time>2013-08-24T07:52:52Z</time>
      </trkpt>
      <trkpt lat="45.45365" lon="5.91954">
        <ele>1663.7</ele>
        <time>2013-08-24T07:52:56Z</time>
      </trkpt>
      <trkpt lat="45.45367" lon="5.91959">
        <ele>1662.74</ele>
        <time>2013-08-24T07:53:00Z</time>
      </trkpt>
      <trkpt lat="45.45368" lon="5.91962">
        <ele>1662.74</ele>
        <time>2013-08-24T07:53:04Z</time>
      </trkpt>
      <trkpt lat="45.45371" lon="5.91965">
        <ele>1663.22</ele>
        <time>2013-08-24T07:53:08Z</time>
      </trkpt>
      <trkpt lat="45.45374" lon="5.91967">
        <ele>1663.7</ele>
        <time>2013-08-24T07:53:12Z</time>
      </trkpt>
      <trkpt lat="45.45375" lon="5.91968">
        <ele>1664.66</ele>
        <time>2013-08-24T07:53:16Z</time>
      </trkpt>
      <trkpt lat="45.45376" lon="5.9197">
        <ele>1665.62</ele>
        <time>2013-08-24T07:53:20Z</time>
      </trkpt>
      <trkpt lat="45.45379" lon="5.91971">
        <ele>1666.1</ele>
        <time>2013-08-24T07:53:24Z</time>
      </trkpt>
      <trkpt lat="45.45382" lon="5.91972">
        <ele>1667.06</ele>
        <time>2013-08-24T07:53:28Z</time>
      </trkpt>
      <trkpt lat="45.45383" lon="5.91972">
        <ele>1667.54</ele>
        <time>2013-08-24T07:53:32Z</time>
      </trkpt>
      <trkpt lat="45.45385" lon="5.91972">
        <ele>1668.99</ele>
        <time>2013-08-24T07:53:36Z</time>
      </trkpt>
      <trkpt lat="45.45387" lon="5.91974">
        <ele>1668.99</ele>
        <time>2013-08-24T07:53:40Z</time>
      </trkpt>
      <trkpt lat="45.45387" lon="5.91979">
        <ele>1668.51</ele>
        <time>2013-08-24T07:53:44Z</time>
      </trkpt>
      <trkpt lat="45.45388" lon="5.91981">
        <ele>1668.99</ele>
        <time>2013-08-24T07:53:48Z</time>
      </trkpt>
      <trkpt lat="45.4539" lon="5.91982">
        <ele>1668.99</ele>
        <time>2013-08-24T07:53:52Z</time>
      </trkpt>
      <trkpt lat="45.45391" lon="5.91983">
        <ele>1669.95</ele>
        <time>2013-08-24T07:53:56Z</time>
      </trkpt>
      <trkpt lat="45.45392" lon="5.91984">
        <ele>1670.91</ele>
        <time>2013-08-24T07:54:00Z</time>
      </trkpt>
      <trkpt lat="45.45394" lon="5.91986">
        <ele>1671.39</ele>
        <time>2013-08-24T07:54:04Z</time>
      </trkpt>
      <trkpt lat="45.45396" lon="5.91988">
        <ele>1672.83</ele>
        <time>2013-08-24T07:54:08Z</time>
      </trkpt>
      <trkpt lat="45.45397" lon="5.9199">
        <ele>1674.27</ele>
        <time>2013-08-24T07:54:12Z</time>
      </trkpt>
      <trkpt lat="45.45398" lon="5.91994">
        <ele>1675.72</ele>
        <time>2013-08-24T07:54:16Z</time>
      </trkpt>
      <trkpt lat="45.454" lon="5.91995">
        <ele>1677.16</ele>
        <time>2013-08-24T07:54:20Z</time>
      </trkpt>
      <trkpt lat="45.45403" lon="5.91997">
        <ele>1677.64</ele>
        <time>2013-08-24T07:54:24Z</time>
      </trkpt>
      <trkpt lat="45.45404" lon="5.91999">
        <ele>1678.6</ele>
        <time>2013-08-24T07:54:28Z</time>
      </trkpt>
      <trkpt lat="45.45406" lon="5.92001">
        <ele>1679.56</ele>
        <time>2013-08-24T07:54:32Z</time>
      </trkpt>
      <trkpt lat="45.45407" lon="5.92003">
        <ele>1680.04</ele>
        <time>2013-08-24T07:54:36Z</time>
      </trkpt>
      <trkpt lat="45.45408" lon="5.92006">
        <ele>1680.52</ele>
        <time>2013-08-24T07:54:40Z</time>
      </trkpt>
      <trkpt lat="45.45409" lon="5.92005">
        <ele>1681.48</ele>
        <time>2013-08-24T07:54:44Z</time>
      </trkpt>
      <trkpt lat="45.45411" lon="5.92006">
        <ele>1681</ele>
        <time>2013-08-24T07:54:48Z</time>
      </trkpt>
      <trkpt lat="45.45411" lon="5.9201">
        <ele>1679.56</ele>
        <time>2013-08-24T07:54:52Z</time>
      </trkpt>
      <trkpt lat="45.45412" lon="5.92015">
        <ele>1678.12</ele>
        <time>2013-08-24T07:54:56Z</time>
      </trkpt>
      <trkpt lat="45.45413" lon="5.92017">
        <ele>1678.12</ele>
        <time>2013-08-24T07:55:00Z</time>
      </trkpt>
      <trkpt lat="45.45414" lon="5.92018">
        <ele>1677.64</ele>
        <time>2013-08-24T07:55:04Z</time>
      </trkpt>
      <trkpt lat="45.45414" lon="5.92018">
        <ele>1677.16</ele>
        <time>2013-08-24T07:55:08Z</time>
      </trkpt>
      <trkpt lat="45.45414" lon="5.92018">
        <ele>1678.6</ele>
        <time>2013-08-24T07:55:12Z</time>
      </trkpt>
      <trkpt lat="45.45414" lon="5.9202">
        <ele>1678.6</ele>
        <time>2013-08-24T07:55:16Z</time>
      </trkpt>
      <trkpt lat="45.45415" lon="5.92022">
        <ele>1678.12</ele>
        <time>2013-08-24T07:55:20Z</time>
      </trkpt>
      <trkpt lat="45.45415" lon="5.92022">
        <ele>1677.64</ele>
        <time>2013-08-24T07:55:24Z</time>
      </trkpt>
      <trkpt lat="45.45416" lon="5.92026">
        <ele>1677.64</ele>
        <time>2013-08-24T07:55:28Z</time>
      </trkpt>
      <trkpt lat="45.45417" lon="5.92028">
        <ele>1677.16</ele>
        <time>2013-08-24T07:55:32Z</time>
      </trkpt>
      <trkpt lat="45.45418" lon="5.92029">
        <ele>1677.16</ele>
        <time>2013-08-24T07:55:36Z</time>
      </trkpt>
      <trkpt lat="45.45419" lon="5.92029">
        <ele>1676.68</ele>
        <time>2013-08-24T07:55:40Z</time>
      </trkpt>
      <trkpt lat="45.45419" lon="5.92031">
        <ele>1674.75</ele>
        <time>2013-08-24T07:55:44Z</time>
      </trkpt>
      <trkpt lat="45.45419" lon="5.92035">
        <ele>1674.27</ele>
        <time>2013-08-24T07:55:48Z</time>
      </trkpt>
      <trkpt lat="45.45421" lon="5.92035">
        <ele>1673.79</ele>
        <time>2013-08-24T07:55:52Z</time>
      </trkpt>
      <trkpt lat="45.45422" lon="5.92036">
        <ele>1672.83</ele>
        <time>2013-08-24T07:55:56Z</time>
      </trkpt>
      <trkpt lat="45.45424" lon="5.9204">
        <ele>1672.83</ele>
        <time>2013-08-24T07:56:00Z</time>
      </trkpt>
      <trkpt lat="45.45427" lon="5.92044">
        <ele>1673.79</ele>
        <time>2013-08-24T07:56:04Z</time>
      </trkpt>
      <trkpt lat="45.45429" lon="5.92047">
        <ele>1674.27</ele>
        <time>2013-08-24T07:56:08Z</time>
      </trkpt>
      <trkpt lat="45.45431" lon="5.92049">
        <ele>1674.75</ele>
        <time>2013-08-24T07:56:12Z</time>
      </trkpt>
      <trkpt lat="45.45432" lon="5.9205">
        <ele>1674.75</ele>
        <time>2013-08-24T07:56:16Z</time>
      </trkpt>
      <trkpt lat="45.45434" lon="5.92051">
        <ele>1674.27</ele>
        <time>2013-08-24T07:56:20Z</time>
      </trkpt>
      <trkpt lat="45.45435" lon="5.92052">
        <ele>1674.75</ele>
        <time>2013-08-24T07:56:24Z</time>
      </trkpt>
      <trkpt lat="45.45438" lon="5.92052">
        <ele>1674.75</ele>
        <time>2013-08-24T07:56:28Z</time>
      </trkpt>
      <trkpt lat="45.45442" lon="5.92055">
        <ele>1674.75</ele>
        <time>2013-08-24T07:56:32Z</time>
      </trkpt>
      <trkpt lat="45.45444" lon="5.92056">
        <ele>1674.75</ele>
        <time>2013-08-24T07:56:36Z</time>
      </trkpt>
      <trkpt lat="45.45448" lon="5.92059">
        <ele>1675.72</ele>
        <time>2013-08-24T07:56:40Z</time>
      </trkpt>
      <trkpt lat="45.4545" lon="5.92061">
        <ele>1675.72</ele>
        <time>2013-08-24T07:56:44Z</time>
      </trkpt>
      <trkpt lat="45.45453" lon="5.92062">
        <ele>1676.2</ele>
        <time>2013-08-24T07:56:48Z</time>
      </trkpt>
      <trkpt lat="45.45456" lon="5.92061">
        <ele>1677.16</ele>
        <time>2013-08-24T07:56:52Z</time>
      </trkpt>
      <trkpt lat="45.45459" lon="5.92063">
        <ele>1677.64</ele>
        <time>2013-08-24T07:56:56Z</time>
      </trkpt>
      <trkpt lat="45.45459" lon="5.92064">
        <ele>1677.64</ele>
        <time>2013-08-24T07:57:00Z</time>
      </trkpt>
      <trkpt lat="45.45462" lon="5.92066">
        <ele>1677.16</ele>
        <time>2013-08-24T07:57:04Z</time>
      </trkpt>
      <trkpt lat="45.45465" lon="5.92069">
        <ele>1676.68</ele>
        <time>2013-08-24T07:57:08Z</time>
      </trkpt>
      <trkpt lat="45.45469" lon="5.92071">
        <ele>1676.68</ele>
        <time>2013-08-24T07:57:12Z</time>
      </trkpt>
      <trkpt lat="45.45472" lon="5.92075">
        <ele>1676.2</ele>
        <time>2013-08-24T07:57:16Z</time>
      </trkpt>
      <trkpt lat="45.45476" lon="5.92078">
        <ele>1676.2</ele>
        <time>2013-08-24T07:57:20Z</time>
      </trkpt>
      <trkpt lat="45.45477" lon="5.9208">
        <ele>1676.2</ele>
        <time>2013-08-24T07:57:24Z</time>
      </trkpt>
      <trkpt lat="45.4548" lon="5.92082">
        <ele>1675.72</ele>
        <time>2013-08-24T07:57:28Z</time>
      </trkpt>
      <trkpt lat="45.45483" lon="5.92084">
        <ele>1675.72</ele>
        <time>2013-08-24T07:57:32Z</time>
      </trkpt>
      <trkpt lat="45.45487" lon="5.92085">
        <ele>1675.72</ele>
        <time>2013-08-24T07:57:36Z</time>
      </trkpt>
      <trkpt lat="45.45491" lon="5.92087">
        <ele>1675.23</ele>
        <time>2013-08-24T07:57:40Z</time>
      </trkpt>
      <trkpt lat="45.45496" lon="5.92089">
        <ele>1675.72</ele>
        <time>2013-08-24T07:57:44Z</time>
      </trkpt>
      <trkpt lat="45.455" lon="5.9209">
        <ele>1676.2</ele>
        <time>2013-08-24T07:57:48Z</time>
      </trkpt>
      <trkpt lat="45.45504" lon="5.92089">
        <ele>1676.68</ele>
        <time>2013-08-24T07:57:52Z</time>
      </trkpt>
      <trkpt lat="45.45507" lon="5.9209">
        <ele>1676.68</ele>
        <time>2013-08-24T07:57:56Z</time>
      </trkpt>
      <trkpt lat="45.45512" lon="5.92092">
        <ele>1676.2</ele>
        <time>2013-08-24T07:58:00Z</time>
      </trkpt>
      <trkpt lat="45.45516" lon="5.92095">
        <ele>1676.2</ele>
        <time>2013-08-24T07:58:04Z</time>
      </trkpt>
      <trkpt lat="45.4552" lon="5.92097">
        <ele>1675.72</ele>
        <time>2013-08-24T07:58:08Z</time>
      </trkpt>
      <trkpt lat="45.45524" lon="5.92101">
        <ele>1675.23</ele>
        <time>2013-08-24T07:58:12Z</time>
      </trkpt>
      <trkpt lat="45.45528" lon="5.92104">
        <ele>1674.75</ele>
        <time>2013-08-24T07:58:16Z</time>
      </trkpt>
      <trkpt lat="45.45531" lon="5.92109">
        <ele>1673.31</ele>
        <time>2013-08-24T07:58:20Z</time>
      </trkpt>
      <trkpt lat="45.45535" lon="5.92117">
        <ele>1671.39</ele>
        <time>2013-08-24T07:58:24Z</time>
      </trkpt>
      <trkpt lat="45.45538" lon="5.9212">
        <ele>1669.95</ele>
        <time>2013-08-24T07:58:28Z</time>
      </trkpt>
      <trkpt lat="45.45541" lon="5.92122">
        <ele>1668.99</ele>
        <time>2013-08-24T07:58:32Z</time>
      </trkpt>
      <trkpt lat="45.45543" lon="5.92124">
        <ele>1668.51</ele>
        <time>2013-08-24T07:58:36Z</time>
      </trkpt>
      <trkpt lat="45.45545" lon="5.92127">
        <ele>1668.99</ele>
        <time>2013-08-24T07:58:40Z</time>
      </trkpt>
      <trkpt lat="45.45548" lon="5.9213">
        <ele>1668.51</ele>
        <time>2013-08-24T07:58:44Z</time>
      </trkpt>
      <trkpt lat="45.45551" lon="5.92133">
        <ele>1668.99</ele>
        <time>2013-08-24T07:58:48Z</time>
      </trkpt>
      <trkpt lat="45.45553" lon="5.92138">
        <ele>1669.95</ele>
        <time>2013-08-24T07:58:52Z</time>
      </trkpt>
      <trkpt lat="45.45555" lon="5.9214">
        <ele>1671.87</ele>
        <time>2013-08-24T07:58:56Z</time>
      </trkpt>
      <trkpt lat="45.45557" lon="5.92144">
        <ele>1672.83</ele>
        <time>2013-08-24T07:59:00Z</time>
      </trkpt>
      <trkpt lat="45.45558" lon="5.92146">
        <ele>1674.27</ele>
        <time>2013-08-24T07:59:04Z</time>
      </trkpt>
      <trkpt lat="45.45561" lon="5.92148">
        <ele>1675.23</ele>
        <time>2013-08-24T07:59:08Z</time>
      </trkpt>
      <trkpt lat="45.45563" lon="5.92149">
        <ele>1675.23</ele>
        <time>2013-08-24T07:59:12Z</time>
      </trkpt>
      <trkpt lat="45.45565" lon="5.92152">
        <ele>1675.72</ele>
        <time>2013-08-24T07:59:16Z</time>
      </trkpt>
      <trkpt lat="45.45567" lon="5.92156">
        <ele>1676.68</ele>
        <time>2013-08-24T07:59:20Z</time>
      </trkpt>
      <trkpt lat="45.45569" lon="5.92157">
        <ele>1677.64</ele>
        <time>2013-08-24T07:59:24Z</time>
      </trkpt>
      <trkpt lat="45.45571" lon="5.92159">
        <ele>1678.12</ele>
        <time>2013-08-24T07:59:28Z</time>
      </trkpt>
      <trkpt lat="45.45574" lon="5.9216">
        <ele>1679.08</ele>
        <time>2013-08-24T07:59:32Z</time>
      </trkpt>
      <trkpt lat="45.45575" lon="5.92162">
        <ele>1680.04</ele>
        <time>2013-08-24T07:59:36Z</time>
      </trkpt>
      <trkpt lat="45.45577" lon="5.92165">
        <ele>1680.52</ele>
        <time>2013-08-24T07:59:40Z</time>
      </trkpt>
      <trkpt lat="45.4558" lon="5.92167">
        <ele>1681.48</ele>
        <time>2013-08-24T07:59:44Z</time>
      </trkpt>
      <trkpt lat="45.45582" lon="5.92169">
        <ele>1681.96</ele>
        <time>2013-08-24T07:59:48Z</time>
      </trkpt>
      <trkpt lat="45.45585" lon="5.92169">
        <ele>1683.41</ele>
        <time>2013-08-24T07:59:52Z</time>
      </trkpt>
      <trkpt lat="45.45587" lon="5.92171">
        <ele>1683.89</ele>
        <time>2013-08-24T07:59:56Z</time>
      </trkpt>
      <trkpt lat="45.4559" lon="5.92174">
        <ele>1684.37</ele>
        <time>2013-08-24T08:00:00Z</time>
      </trkpt>
      <trkpt lat="45.45592" lon="5.92175">
        <ele>1684.85</ele>
        <time>2013-08-24T08:00:04Z</time>
      </trkpt>
      <trkpt lat="45.45593" lon="5.92176">
        <ele>1685.81</ele>
        <time>2013-08-24T08:00:08Z</time>
      </trkpt>
      <trkpt lat="45.45594" lon="5.92178">
        <ele>1685.81</ele>
        <time>2013-08-24T08:00:12Z</time>
      </trkpt>
      <trkpt lat="45.45594" lon="5.92178">
        <ele>1686.29</ele>
        <time>2013-08-24T08:00:16Z</time>
      </trkpt>
      <trkpt lat="45.45596" lon="5.92177">
        <ele>1685.81</ele>
        <time>2013-08-24T08:00:20Z</time>
      </trkpt>
      <trkpt lat="45.45599" lon="5.92178">
        <ele>1685.33</ele>
        <time>2013-08-24T08:00:24Z</time>
      </trkpt>
      <trkpt lat="45.45598" lon="5.92181">
        <ele>1684.85</ele>
        <time>2013-08-24T08:00:28Z</time>
      </trkpt>
      <trkpt lat="45.45598" lon="5.92182">
        <ele>1684.37</ele>
        <time>2013-08-24T08:00:32Z</time>
      </trkpt>
      <trkpt lat="45.456" lon="5.92182">
        <ele>1685.33</ele>
        <time>2013-08-24T08:00:36Z</time>
      </trkpt>
      <trkpt lat="45.45602" lon="5.92181">
        <ele>1685.81</ele>
        <time>2013-08-24T08:00:40Z</time>
      </trkpt>
      <trkpt lat="45.45604" lon="5.92182">
        <ele>1685.81</ele>
        <time>2013-08-24T08:00:44Z</time>
      </trkpt>
      <trkpt lat="45.45608" lon="5.92182">
        <ele>1686.29</ele>
        <time>2013-08-24T08:00:48Z</time>
      </trkpt>
      <trkpt lat="45.4561" lon="5.92182">
        <ele>1687.73</ele>
        <time>2013-08-24T08:00:52Z</time>
      </trkpt>
      <trkpt lat="45.45612" lon="5.92182">
        <ele>1688.69</ele>
        <time>2013-08-24T08:00:56Z</time>
      </trkpt>
      <trkpt lat="45.45614" lon="5.92182">
        <ele>1689.65</ele>
        <time>2013-08-24T08:01:00Z</time>
      </trkpt>
      <trkpt lat="45.45617" lon="5.92184">
        <ele>1690.62</ele>
        <time>2013-08-24T08:01:04Z</time>
      </trkpt>
      <trkpt lat="45.4562" lon="5.92185">
        <ele>1690.62</ele>
        <time>2013-08-24T08:01:08Z</time>
      </trkpt>
      <trkpt lat="45.45622" lon="5.92185">
        <ele>1691.1</ele>
        <time>2013-08-24T08:01:12Z</time>
      </trkpt>
      <trkpt lat="45.45624" lon="5.92186">
        <ele>1692.06</ele>
        <time>2013-08-24T08:01:16Z</time>
      </trkpt>
      <trkpt lat="45.45625" lon="5.92187">
        <ele>1692.54</ele>
        <time>2013-08-24T08:01:20Z</time>
      </trkpt>
      <trkpt lat="45.45627" lon="5.92189">
        <ele>1692.54</ele>
        <time>2013-08-24T08:01:24Z</time>
      </trkpt>
      <trkpt lat="45.45629" lon="5.9219">
        <ele>1693.02</ele>
        <time>2013-08-24T08:01:28Z</time>
      </trkpt>
      <trkpt lat="45.45631" lon="5.92191">
        <ele>1693.98</ele>
        <time>2013-08-24T08:01:32Z</time>
      </trkpt>
      <trkpt lat="45.45634" lon="5.92193">
        <ele>1694.94</ele>
        <time>2013-08-24T08:01:36Z</time>
      </trkpt>
      <trkpt lat="45.45637" lon="5.92194">
        <ele>1696.38</ele>
        <time>2013-08-24T08:01:40Z</time>
      </trkpt>
      <trkpt lat="45.45639" lon="5.92193">
        <ele>1696.86</ele>
        <time>2013-08-24T08:01:44Z</time>
      </trkpt>
      <trkpt lat="45.45642" lon="5.92194">
        <ele>1697.83</ele>
        <time>2013-08-24T08:01:48Z</time>
      </trkpt>
      <trkpt lat="45.45645" lon="5.92194">
        <ele>1698.31</ele>
        <time>2013-08-24T08:01:52Z</time>
      </trkpt>
      <trkpt lat="45.45647" lon="5.92194">
        <ele>1699.27</ele>
        <time>2013-08-24T08:01:56Z</time>
      </trkpt>
      <trkpt lat="45.45649" lon="5.92194">
        <ele>1700.23</ele>
        <time>2013-08-24T08:02:00Z</time>
      </trkpt>
      <trkpt lat="45.45651" lon="5.92194">
        <ele>1701.19</ele>
        <time>2013-08-24T08:02:04Z</time>
      </trkpt>
      <trkpt lat="45.45655" lon="5.92194">
        <ele>1702.15</ele>
        <time>2013-08-24T08:02:08Z</time>
      </trkpt>
      <trkpt lat="45.45659" lon="5.92193">
        <ele>1703.11</ele>
        <time>2013-08-24T08:02:12Z</time>
      </trkpt>
      <trkpt lat="45.45662" lon="5.92192">
        <ele>1704.07</ele>
        <time>2013-08-24T08:02:16Z</time>
      </trkpt>
      <trkpt lat="45.45666" lon="5.92191">
        <ele>1705.52</ele>
        <time>2013-08-24T08:02:20Z</time>
      </trkpt>
      <trkpt lat="45.45669" lon="5.92191">
        <ele>1706.48</ele>
        <time>2013-08-24T08:02:24Z</time>
      </trkpt>
      <trkpt lat="45.45672" lon="5.92191">
        <ele>1707.44</ele>
        <time>2013-08-24T08:02:28Z</time>
      </trkpt>
      <trkpt lat="45.45676" lon="5.92191">
        <ele>1708.4</ele>
        <time>2013-08-24T08:02:32Z</time>
      </trkpt>
      <trkpt lat="45.4568" lon="5.92192">
        <ele>1709.36</ele>
        <time>2013-08-24T08:02:36Z</time>
      </trkpt>
      <trkpt lat="45.45683" lon="5.92191">
        <ele>1709.84</ele>
        <time>2013-08-24T08:02:40Z</time>
      </trkpt>
      <trkpt lat="45.45686" lon="5.9219">
        <ele>1710.32</ele>
        <time>2013-08-24T08:02:44Z</time>
      </trkpt>
      <trkpt lat="45.45689" lon="5.92191">
        <ele>1711.28</ele>
        <time>2013-08-24T08:02:48Z</time>
      </trkpt>
      <trkpt lat="45.45691" lon="5.9219">
        <ele>1711.76</ele>
        <time>2013-08-24T08:02:52Z</time>
      </trkpt>
      <trkpt lat="45.45692" lon="5.9219">
        <ele>1712.25</ele>
        <time>2013-08-24T08:02:56Z</time>
      </trkpt>
      <trkpt lat="45.45694" lon="5.92189">
        <ele>1712.73</ele>
        <time>2013-08-24T08:03:00Z</time>
      </trkpt>
      <trkpt lat="45.45699" lon="5.92188">
        <ele>1714.17</ele>
        <time>2013-08-24T08:03:04Z</time>
      </trkpt>
      <trkpt lat="45.45702" lon="5.92187">
        <ele>1714.65</ele>
        <time>2013-08-24T08:03:08Z</time>
      </trkpt>
      <trkpt lat="45.45706" lon="5.92186">
        <ele>1715.13</ele>
        <time>2013-08-24T08:03:12Z</time>
      </trkpt>
      <trkpt lat="45.4571" lon="5.92187">
        <ele>1715.13</ele>
        <time>2013-08-24T08:03:16Z</time>
      </trkpt>
      <trkpt lat="45.45714" lon="5.92188">
        <ele>1715.13</ele>
        <time>2013-08-24T08:03:20Z</time>
      </trkpt>
      <trkpt lat="45.45716" lon="5.92188">
        <ele>1714.17</ele>
        <time>2013-08-24T08:03:24Z</time>
      </trkpt>
      <trkpt lat="45.45718" lon="5.92188">
        <ele>1713.21</ele>
        <time>2013-08-24T08:03:28Z</time>
      </trkpt>
      <trkpt lat="45.45721" lon="5.92188">
        <ele>1712.73</ele>
        <time>2013-08-24T08:03:32Z</time>
      </trkpt>
      <trkpt lat="45.45725" lon="5.92187">
        <ele>1711.76</ele>
        <time>2013-08-24T08:03:36Z</time>
      </trkpt>
      <trkpt lat="45.45729" lon="5.92187">
        <ele>1711.28</ele>
        <time>2013-08-24T08:03:40Z</time>
      </trkpt>
      <trkpt lat="45.45732" lon="5.92187">
        <ele>1710.32</ele>
        <time>2013-08-24T08:03:44Z</time>
      </trkpt>
      <trkpt lat="45.45735" lon="5.92187">
        <ele>1708.88</ele>
        <time>2013-08-24T08:03:48Z</time>
      </trkpt>
      <trkpt lat="45.4574" lon="5.92187">
        <ele>1708.4</ele>
        <time>2013-08-24T08:03:52Z</time>
      </trkpt>
      <trkpt lat="45.45745" lon="5.92187">
        <ele>1707.44</ele>
        <time>2013-08-24T08:03:56Z</time>
      </trkpt>
      <trkpt lat="45.45749" lon="5.92187">
        <ele>1706.48</ele>
        <time>2013-08-24T08:04:00Z</time>
      </trkpt>
      <trkpt lat="45.45754" lon="5.92187">
        <ele>1705.04</ele>
        <time>2013-08-24T08:04:04Z</time>
      </trkpt>
      <trkpt lat="45.45759" lon="5.92187">
        <ele>1704.07</ele>
        <time>2013-08-24T08:04:08Z</time>
      </trkpt>
      <trkpt lat="45.45763" lon="5.92187">
        <ele>1703.11</ele>
        <time>2013-08-24T08:04:12Z</time>
      </trkpt>
      <trkpt lat="45.45767" lon="5.92186">
        <ele>1703.11</ele>
        <time>2013-08-24T08:04:16Z</time>
      </trkpt>
      <trkpt lat="45.4577" lon="5.92186">
        <ele>1703.11</ele>
        <time>2013-08-24T08:04:20Z</time>
      </trkpt>
      <trkpt lat="45.45772" lon="5.92186">
        <ele>1703.11</ele>
        <time>2013-08-24T08:04:24Z</time>
      </trkpt>
      <trkpt lat="45.45776" lon="5.92185">
        <ele>1702.63</ele>
        <time>2013-08-24T08:04:28Z</time>
      </trkpt>
      <trkpt lat="45.45779" lon="5.92185">
        <ele>1702.15</ele>
        <time>2013-08-24T08:04:32Z</time>
      </trkpt>
      <trkpt lat="45.45781" lon="5.92185">
        <ele>1702.15</ele>
        <time>2013-08-24T08:04:36Z</time>
      </trkpt>
      <trkpt lat="45.45785" lon="5.92185">
        <ele>1702.63</ele>
        <time>2013-08-24T08:04:40Z</time>
      </trkpt>
      <trkpt lat="45.45787" lon="5.92184">
        <ele>1703.11</ele>
        <time>2013-08-24T08:04:44Z</time>
      </trkpt>
      <trkpt lat="45.45789" lon="5.92184">
        <ele>1703.11</ele>
        <time>2013-08-24T08:04:48Z</time>
      </trkpt>
      <trkpt lat="45.45793" lon="5.92185">
        <ele>1703.59</ele>
        <time>2013-08-24T08:04:52Z</time>
      </trkpt>
      <trkpt lat="45.45797" lon="5.92185">
        <ele>1703.59</ele>
        <time>2013-08-24T08:04:56Z</time>
      </trkpt>
      <trkpt lat="45.45799" lon="5.92184">
        <ele>1704.07</ele>
        <time>2013-08-24T08:05:00Z</time>
      </trkpt>
      <trkpt lat="45.45801" lon="5.92183">
        <ele>1704.55</ele>
        <time>2013-08-24T08:05:04Z</time>
      </trkpt>
      <trkpt lat="45.45804" lon="5.92182">
        <ele>1705.04</ele>
        <time>2013-08-24T08:05:08Z</time>
      </trkpt>
      <trkpt lat="45.45807" lon="5.92182">
        <ele>1705.52</ele>
        <time>2013-08-24T08:05:12Z</time>
      </trkpt>
      <trkpt lat="45.45811" lon="5.92183">
        <ele>1706</ele>
        <time>2013-08-24T08:05:16Z</time>
      </trkpt>
      <trkpt lat="45.45814" lon="5.92182">
        <ele>1706.48</ele>
        <time>2013-08-24T08:05:20Z</time>
      </trkpt>
      <trkpt lat="45.45816" lon="5.92181">
        <ele>1707.44</ele>
        <time>2013-08-24T08:05:24Z</time>
      </trkpt>
      <trkpt lat="45.45818" lon="5.9218">
        <ele>1708.4</ele>
        <time>2013-08-24T08:05:28Z</time>
      </trkpt>
      <trkpt lat="45.4582" lon="5.9218">
        <ele>1708.88</ele>
        <time>2013-08-24T08:05:32Z</time>
      </trkpt>
      <trkpt lat="45.45824" lon="5.9218">
        <ele>1708.4</ele>
        <time>2013-08-24T08:05:36Z</time>
      </trkpt>
      <trkpt lat="45.45827" lon="5.9218">
        <ele>1708.88</ele>
        <time>2013-08-24T08:05:40Z</time>
      </trkpt>
      <trkpt lat="45.4583" lon="5.92179">
        <ele>1709.36</ele>
        <time>2013-08-24T08:05:44Z</time>
      </trkpt>
      <trkpt lat="45.45833" lon="5.92178">
        <ele>1709.84</ele>
        <time>2013-08-24T08:05:48Z</time>
      </trkpt>
      <trkpt lat="45.45836" lon="5.92176">
        <ele>1710.32</ele>
        <time>2013-08-24T08:05:52Z</time>
      </trkpt>
      <trkpt lat="45.45836" lon="5.92175">
        <ele>1710.8</ele>
        <time>2013-08-24T08:05:56Z</time>
      </trkpt>
      <trkpt lat="45.45837" lon="5.92175">
        <ele>1710.8</ele>
        <time>2013-08-24T08:06:00Z</time>
      </trkpt>
      <trkpt lat="45.45838" lon="5.92175">
        <ele>1710.8</ele>
        <time>2013-08-24T08:06:04Z</time>
      </trkpt>
      <trkpt lat="45.45839" lon="5.92172">
        <ele>1710.8</ele>
        <time>2013-08-24T08:06:08Z</time>
      </trkpt>
      <trkpt lat="45.4584" lon="5.9217">
        <ele>1710.8</ele>
        <time>2013-08-24T08:06:12Z</time>
      </trkpt>
      <trkpt lat="45.45842" lon="5.9217">
        <ele>1710.32</ele>
        <time>2013-08-24T08:06:16Z</time>
      </trkpt>
      <trkpt lat="45.45845" lon="5.92169">
        <ele>1708.88</ele>
        <time>2013-08-24T08:06:20Z</time>
      </trkpt>
      <trkpt lat="45.45848" lon="5.92166">
        <ele>1708.88</ele>
        <time>2013-08-24T08:06:24Z</time>
      </trkpt>
      <trkpt lat="45.45852" lon="5.92166">
        <ele>1707.44</ele>
        <time>2013-08-24T08:06:28Z</time>
      </trkpt>
      <trkpt lat="45.45856" lon="5.92165">
        <ele>1707.92</ele>
        <time>2013-08-24T08:06:32Z</time>
      </trkpt>
      <trkpt lat="45.4586" lon="5.92163">
        <ele>1708.4</ele>
        <time>2013-08-24T08:06:36Z</time>
      </trkpt>
      <trkpt lat="45.45864" lon="5.92162">
        <ele>1708.4</ele>
        <time>2013-08-24T08:06:40Z</time>
      </trkpt>
      <trkpt lat="45.45868" lon="5.92161">
        <ele>1708.88</ele>
        <time>2013-08-24T08:06:44Z</time>
      </trkpt>
      <trkpt lat="45.45872" lon="5.92158">
        <ele>1708.88</ele>
        <time>2013-08-24T08:06:48Z</time>
      </trkpt>
      <trkpt lat="45.45878" lon="5.92156">
        <ele>1708.4</ele>
        <time>2013-08-24T08:06:52Z</time>
      </trkpt>
      <trkpt lat="45.45882" lon="5.92156">
        <ele>1708.4</ele>
        <time>2013-08-24T08:06:56Z</time>
      </trkpt>
      <trkpt lat="45.45889" lon="5.92155">
        <ele>1708.4</ele>
        <time>2013-08-24T08:07:00Z</time>
      </trkpt>
      <trkpt lat="45.45894" lon="5.92154">
        <ele>1710.32</ele>
        <time>2013-08-24T08:07:04Z</time>
      </trkpt>
      <trkpt lat="45.45896" lon="5.92157">
        <ele>1707.44</ele>
        <time>2013-08-24T08:07:08Z</time>
      </trkpt>
      <trkpt lat="45.45898" lon="5.92158">
        <ele>1704.55</ele>
        <time>2013-08-24T08:07:12Z</time>
      </trkpt>
      <trkpt lat="45.45899" lon="5.92159">
        <ele>1702.63</ele>
        <time>2013-08-24T08:07:16Z</time>
      </trkpt>
      <trkpt lat="45.459" lon="5.92159">
        <ele>1700.23</ele>
        <time>2013-08-24T08:07:20Z</time>
      </trkpt>
      <trkpt lat="45.45901" lon="5.9216">
        <ele>1698.31</ele>
        <time>2013-08-24T08:07:24Z</time>
      </trkpt>
      <trkpt lat="45.45901" lon="5.92159">
        <ele>1697.34</ele>
        <time>2013-08-24T08:07:28Z</time>
      </trkpt>
      <trkpt lat="45.45901" lon="5.92159">
        <ele>1697.34</ele>
        <time>2013-08-24T08:07:32Z</time>
      </trkpt>
      <trkpt lat="45.45901" lon="5.92158">
        <ele>1696.38</ele>
        <time>2013-08-24T08:07:36Z</time>
      </trkpt>
      <trkpt lat="45.45901" lon="5.92158">
        <ele>1696.38</ele>
        <time>2013-08-24T08:07:40Z</time>
      </trkpt>
      <trkpt lat="45.45901" lon="5.92158">
        <ele>1696.86</ele>
        <time>2013-08-24T08:07:44Z</time>
      </trkpt>
      <trkpt lat="45.45901" lon="5.92159">
        <ele>1695.9</ele>
        <time>2013-08-24T08:07:48Z</time>
      </trkpt>
      <trkpt lat="45.45901" lon="5.9216">
        <ele>1695.9</ele>
        <time>2013-08-24T08:07:52Z</time>
      </trkpt>
      <trkpt lat="45.45901" lon="5.92161">
        <ele>1695.42</ele>
        <time>2013-08-24T08:07:56Z</time>
      </trkpt>
      <trkpt lat="45.45901" lon="5.92161">
        <ele>1694.94</ele>
        <time>2013-08-24T08:08:00Z</time>
      </trkpt>
      <trkpt lat="45.45903" lon="5.92162">
        <ele>1695.9</ele>
        <time>2013-08-24T08:08:04Z</time>
      </trkpt>
      <trkpt lat="45.45905" lon="5.92165">
        <ele>1696.86</ele>
        <time>2013-08-24T08:08:08Z</time>
      </trkpt>
      <trkpt lat="45.45906" lon="5.92166">
        <ele>1697.83</ele>
        <time>2013-08-24T08:08:12Z</time>
      </trkpt>
      <trkpt lat="45.45908" lon="5.92168">
        <ele>1699.27</ele>
        <time>2013-08-24T08:08:16Z</time>
      </trkpt>
      <trkpt lat="45.4591" lon="5.92168">
        <ele>1700.23</ele>
        <time>2013-08-24T08:08:20Z</time>
      </trkpt>
      <trkpt lat="45.45913" lon="5.92169">
        <ele>1701.19</ele>
        <time>2013-08-24T08:08:24Z</time>
      </trkpt>
      <trkpt lat="45.45915" lon="5.9217">
        <ele>1701.19</ele>
        <time>2013-08-24T08:08:28Z</time>
      </trkpt>
      <trkpt lat="45.45918" lon="5.92169">
        <ele>1701.19</ele>
        <time>2013-08-24T08:08:32Z</time>
      </trkpt>
      <trkpt lat="45.45922" lon="5.92172">
        <ele>1701.19</ele>
        <time>2013-08-24T08:08:36Z</time>
      </trkpt>
      <trkpt lat="45.45926" lon="5.92174">
        <ele>1702.15</ele>
        <time>2013-08-24T08:08:40Z</time>
      </trkpt>
      <trkpt lat="45.45929" lon="5.92175">
        <ele>1703.11</ele>
        <time>2013-08-24T08:08:44Z</time>
      </trkpt>
      <trkpt lat="45.45933" lon="5.92176">
        <ele>1704.07</ele>
        <time>2013-08-24T08:08:48Z</time>
      </trkpt>
      <trkpt lat="45.45935" lon="5.92177">
        <ele>1705.04</ele>
        <time>2013-08-24T08:08:52Z</time>
      </trkpt>
      <trkpt lat="45.45938" lon="5.92178">
        <ele>1705.52</ele>
        <time>2013-08-24T08:08:56Z</time>
      </trkpt>
      <trkpt lat="45.4594" lon="5.9218">
        <ele>1706</ele>
        <time>2013-08-24T08:09:00Z</time>
      </trkpt>
      <trkpt lat="45.45942" lon="5.92179">
        <ele>1706.96</ele>
        <time>2013-08-24T08:09:04Z</time>
      </trkpt>
      <trkpt lat="45.45942" lon="5.92179">
        <ele>1706.96</ele>
        <time>2013-08-24T08:09:08Z</time>
      </trkpt>
      <trkpt lat="45.45943" lon="5.9218">
        <ele>1706.96</ele>
        <time>2013-08-24T08:09:12Z</time>
      </trkpt>
      <trkpt lat="45.45946" lon="5.9218">
        <ele>1706.96</ele>
        <time>2013-08-24T08:09:16Z</time>
      </trkpt>
      <trkpt lat="45.45951" lon="5.92181">
        <ele>1707.44</ele>
        <time>2013-08-24T08:09:20Z</time>
      </trkpt>
      <trkpt lat="45.45953" lon="5.92182">
        <ele>1707.92</ele>
        <time>2013-08-24T08:09:24Z</time>
      </trkpt>
      <trkpt lat="45.45954" lon="5.92183">
        <ele>1708.4</ele>
        <time>2013-08-24T08:09:28Z</time>
      </trkpt>
      <trkpt lat="45.45954" lon="5.92182">
        <ele>1708.88</ele>
        <time>2013-08-24T08:09:32Z</time>
      </trkpt>
      <trkpt lat="45.45954" lon="5.92183">
        <ele>1708.88</ele>
        <time>2013-08-24T08:09:36Z</time>
      </trkpt>
      <trkpt lat="45.45956" lon="5.92183">
        <ele>1708.4</ele>
        <time>2013-08-24T08:09:40Z</time>
      </trkpt>
      <trkpt lat="45.45958" lon="5.92185">
        <ele>1708.88</ele>
        <time>2013-08-24T08:09:44Z</time>
      </trkpt>
      <trkpt lat="45.4596" lon="5.92186">
        <ele>1708.88</ele>
        <time>2013-08-24T08:09:48Z</time>
      </trkpt>
      <trkpt lat="45.45962" lon="5.92186">
        <ele>1708.88</ele>
        <time>2013-08-24T08:09:52Z</time>
      </trkpt>
      <trkpt lat="45.45963" lon="5.92185">
        <ele>1708.88</ele>
        <time>2013-08-24T08:09:56Z</time>
      </trkpt>
      <trkpt lat="45.45962" lon="5.92185">
        <ele>1708.88</ele>
        <time>2013-08-24T08:10:00Z</time>
      </trkpt>
      <trkpt lat="45.45964" lon="5.92185">
        <ele>1708.4</ele>
        <time>2013-08-24T08:10:04Z</time>
      </trkpt>
      <trkpt lat="45.45967" lon="5.92187">
        <ele>1708.4</ele>
        <time>2013-08-24T08:10:08Z</time>
      </trkpt>
      <trkpt lat="45.45971" lon="5.92189">
        <ele>1708.88</ele>
        <time>2013-08-24T08:10:12Z</time>
      </trkpt>
      <trkpt lat="45.45974" lon="5.92189">
        <ele>1709.36</ele>
        <time>2013-08-24T08:10:16Z</time>
      </trkpt>
      <trkpt lat="45.45977" lon="5.9219">
        <ele>1710.32</ele>
        <time>2013-08-24T08:10:20Z</time>
      </trkpt>
      <trkpt lat="45.45978" lon="5.92191">
        <ele>1710.8</ele>
        <time>2013-08-24T08:10:24Z</time>
      </trkpt>
      <trkpt lat="45.4598" lon="5.92193">
        <ele>1711.28</ele>
        <time>2013-08-24T08:10:28Z</time>
      </trkpt>
      <trkpt lat="45.45983" lon="5.92194">
        <ele>1712.25</ele>
        <time>2013-08-24T08:10:32Z</time>
      </trkpt>
      <trkpt lat="45.45987" lon="5.92195">
        <ele>1711.76</ele>
        <time>2013-08-24T08:10:36Z</time>
      </trkpt>
      <trkpt lat="45.45991" lon="5.92196">
        <ele>1711.28</ele>
        <time>2013-08-24T08:10:40Z</time>
      </trkpt>
      <trkpt lat="45.45991" lon="5.92195">
        <ele>1711.76</ele>
        <time>2013-08-24T08:10:44Z</time>
      </trkpt>
      <trkpt lat="45.45993" lon="5.92197">
        <ele>1712.73</ele>
        <time>2013-08-24T08:10:48Z</time>
      </trkpt>
      <trkpt lat="45.45994" lon="5.92196">
        <ele>1712.25</ele>
        <time>2013-08-24T08:10:52Z</time>
      </trkpt>
      <trkpt lat="45.45996" lon="5.92197">
        <ele>1712.25</ele>
        <time>2013-08-24T08:10:56Z</time>
      </trkpt>
      <trkpt lat="45.45997" lon="5.922">
        <ele>1712.25</ele>
        <time>2013-08-24T08:11:00Z</time>
      </trkpt>
      <trkpt lat="45.45998" lon="5.922">
        <ele>1713.21</ele>
        <time>2013-08-24T08:11:04Z</time>
      </trkpt>
      <trkpt lat="45.45998" lon="5.922">
        <ele>1713.21</ele>
        <time>2013-08-24T08:11:08Z</time>
      </trkpt>
      <trkpt lat="45.45998" lon="5.922">
        <ele>1712.73</ele>
        <time>2013-08-24T08:11:12Z</time>
      </trkpt>
      <trkpt lat="45.45999" lon="5.92199">
        <ele>1712.73</ele>
        <time>2013-08-24T08:11:16Z</time>
      </trkpt>
      <trkpt lat="45.45999" lon="5.92201">
        <ele>1713.21</ele>
        <time>2013-08-24T08:11:20Z</time>
      </trkpt>
      <trkpt lat="45.46001" lon="5.92202">
        <ele>1713.69</ele>
        <time>2013-08-24T08:11:24Z</time>
      </trkpt>
      <trkpt lat="45.46002" lon="5.92202">
        <ele>1713.69</ele>
        <time>2013-08-24T08:11:28Z</time>
      </trkpt>
      <trkpt lat="45.46003" lon="5.92204">
        <ele>1714.65</ele>
        <time>2013-08-24T08:11:32Z</time>
      </trkpt>
      <trkpt lat="45.46003" lon="5.92206">
        <ele>1714.65</ele>
        <time>2013-08-24T08:11:36Z</time>
      </trkpt>
      <trkpt lat="45.46002" lon="5.92208">
        <ele>1715.13</ele>
        <time>2013-08-24T08:11:40Z</time>
      </trkpt>
      <trkpt lat="45.46001" lon="5.92209">
        <ele>1715.61</ele>
        <time>2013-08-24T08:11:44Z</time>
      </trkpt>
      <trkpt lat="45.46001" lon="5.92211">
        <ele>1717.05</ele>
        <time>2013-08-24T08:11:48Z</time>
      </trkpt>
      <trkpt lat="45.46001" lon="5.92213">
        <ele>1718.49</ele>
        <time>2013-08-24T08:11:52Z</time>
      </trkpt>
      <trkpt lat="45.46" lon="5.92215">
        <ele>1719.94</ele>
        <time>2013-08-24T08:11:56Z</time>
      </trkpt>
      <trkpt lat="45.46" lon="5.92215">
        <ele>1720.42</ele>
        <time>2013-08-24T08:12:00Z</time>
      </trkpt>
      <trkpt lat="45.46" lon="5.92215">
        <ele>1720.9</ele>
        <time>2013-08-24T08:12:04Z</time>
      </trkpt>
      <trkpt lat="45.46001" lon="5.92216">
        <ele>1720.9</ele>
        <time>2013-08-24T08:12:08Z</time>
      </trkpt>
      <trkpt lat="45.46" lon="5.92217">
        <ele>1720.9</ele>
        <time>2013-08-24T08:12:12Z</time>
      </trkpt>
      <trkpt lat="45.45999" lon="5.9222">
        <ele>1720.9</ele>
        <time>2013-08-24T08:12:16Z</time>
      </trkpt>
      <trkpt lat="45.46" lon="5.9222">
        <ele>1720.9</ele>
        <time>2013-08-24T08:12:20Z</time>
      </trkpt>
      <trkpt lat="45.45999" lon="5.92221">
        <ele>1721.38</ele>
        <time>2013-08-24T08:12:24Z</time>
      </trkpt>
      <trkpt lat="45.45999" lon="5.92223">
        <ele>1722.34</ele>
        <time>2013-08-24T08:12:28Z</time>
      </trkpt>
      <trkpt lat="45.45999" lon="5.92224">
        <ele>1723.78</ele>
        <time>2013-08-24T08:12:32Z</time>
      </trkpt>
      <trkpt lat="45.45999" lon="5.92226">
        <ele>1724.26</ele>
        <time>2013-08-24T08:12:36Z</time>
      </trkpt>
      <trkpt lat="45.46" lon="5.92227">
        <ele>1724.74</ele>
        <time>2013-08-24T08:12:40Z</time>
      </trkpt>
      <trkpt lat="45.46" lon="5.92229">
        <ele>1726.18</ele>
        <time>2013-08-24T08:12:44Z</time>
      </trkpt>
      <trkpt lat="45.46002" lon="5.92231">
        <ele>1727.15</ele>
        <time>2013-08-24T08:12:48Z</time>
      </trkpt>
      <trkpt lat="45.46003" lon="5.92232">
        <ele>1727.63</ele>
        <time>2013-08-24T08:12:52Z</time>
      </trkpt>
      <trkpt lat="45.46003" lon="5.92232">
        <ele>1728.11</ele>
        <time>2013-08-24T08:12:56Z</time>
      </trkpt>
      <trkpt lat="45.46004" lon="5.92233">
        <ele>1728.59</ele>
        <time>2013-08-24T08:13:00Z</time>
      </trkpt>
      <trkpt lat="45.46002" lon="5.92235">
        <ele>1729.07</ele>
        <time>2013-08-24T08:13:04Z</time>
      </trkpt>
      <trkpt lat="45.46" lon="5.92236">
        <ele>1730.03</ele>
        <time>2013-08-24T08:13:08Z</time>
      </trkpt>
      <trkpt lat="45.46" lon="5.92237">
        <ele>1730.99</ele>
        <time>2013-08-24T08:13:12Z</time>
      </trkpt>
      <trkpt lat="45.46" lon="5.92238">
        <ele>1731.47</ele>
        <time>2013-08-24T08:13:16Z</time>
      </trkpt>
      <trkpt lat="45.45999" lon="5.9224">
        <ele>1731.47</ele>
        <time>2013-08-24T08:13:20Z</time>
      </trkpt>
      <trkpt lat="45.45998" lon="5.92241">
        <ele>1731.95</ele>
        <time>2013-08-24T08:13:24Z</time>
      </trkpt>
      <trkpt lat="45.45997" lon="5.92241">
        <ele>1731.95</ele>
        <time>2013-08-24T08:13:28Z</time>
      </trkpt>
      <trkpt lat="45.45996" lon="5.92241">
        <ele>1732.43</ele>
        <time>2013-08-24T08:13:32Z</time>
      </trkpt>
      <trkpt lat="45.45995" lon="5.92241">
        <ele>1732.91</ele>
        <time>2013-08-24T08:13:36Z</time>
      </trkpt>
      <trkpt lat="45.45995" lon="5.92243">
        <ele>1732.91</ele>
        <time>2013-08-24T08:13:40Z</time>
      </trkpt>
      <trkpt lat="45.45997" lon="5.92244">
        <ele>1733.88</ele>
        <time>2013-08-24T08:13:44Z</time>
      </trkpt>
      <trkpt lat="45.45999" lon="5.92245">
        <ele>1735.32</ele>
        <time>2013-08-24T08:13:48Z</time>
      </trkpt>
      <trkpt lat="45.46" lon="5.92246">
        <ele>1735.8</ele>
        <time>2013-08-24T08:13:52Z</time>
      </trkpt>
      <trkpt lat="45.46001" lon="5.92248">
        <ele>1737.24</ele>
        <time>2013-08-24T08:13:56Z</time>
      </trkpt>
      <trkpt lat="45.46003" lon="5.9225">
        <ele>1738.2</ele>
        <time>2013-08-24T08:14:00Z</time>
      </trkpt>
      <trkpt lat="45.46004" lon="5.92251">
        <ele>1738.68</ele>
        <time>2013-08-24T08:14:04Z</time>
      </trkpt>
      <trkpt lat="45.46005" lon="5.92251">
        <ele>1739.16</ele>
        <time>2013-08-24T08:14:08Z</time>
      </trkpt>
      <trkpt lat="45.46006" lon="5.92251">
        <ele>1739.16</ele>
        <time>2013-08-24T08:14:12Z</time>
      </trkpt>
      <trkpt lat="45.46006" lon="5.92252">
        <ele>1738.68</ele>
        <time>2013-08-24T08:14:16Z</time>
      </trkpt>
      <trkpt lat="45.46006" lon="5.92252">
        <ele>1738.68</ele>
        <time>2013-08-24T08:14:20Z</time>
      </trkpt>
      <trkpt lat="45.46006" lon="5.92252">
        <ele>1738.2</ele>
        <time>2013-08-24T08:14:24Z</time>
      </trkpt>
      <trkpt lat="45.46007" lon="5.92252">
        <ele>1737.72</ele>
        <time>2013-08-24T08:14:28Z</time>
      </trkpt>
      <trkpt lat="45.46007" lon="5.92252">
        <ele>1737.24</ele>
        <time>2013-08-24T08:14:32Z</time>
      </trkpt>
      <trkpt lat="45.46007" lon="5.92252">
        <ele>1737.24</ele>
        <time>2013-08-24T08:14:36Z</time>
      </trkpt>
      <trkpt lat="45.46007" lon="5.92254">
        <ele>1738.2</ele>
        <time>2013-08-24T08:14:40Z</time>
      </trkpt>
      <trkpt lat="45.46007" lon="5.92254">
        <ele>1739.16</ele>
        <time>2013-08-24T08:14:44Z</time>
      </trkpt>
      <trkpt lat="45.46007" lon="5.92253">
        <ele>1740.12</ele>
        <time>2013-08-24T08:14:48Z</time>
      </trkpt>
      <trkpt lat="45.46006" lon="5.92252">
        <ele>1740.12</ele>
        <time>2013-08-24T08:14:52Z</time>
      </trkpt>
      <trkpt lat="45.46006" lon="5.92254">
        <ele>1740.12</ele>
        <time>2013-08-24T08:14:56Z</time>
      </trkpt>
      <trkpt lat="45.46006" lon="5.92257">
        <ele>1739.64</ele>
        <time>2013-08-24T08:15:00Z</time>
      </trkpt>
      <trkpt lat="45.46004" lon="5.92259">
        <ele>1739.64</ele>
        <time>2013-08-24T08:15:04Z</time>
      </trkpt>
      <trkpt lat="45.46003" lon="5.92261">
        <ele>1740.6</ele>
        <time>2013-08-24T08:15:08Z</time>
      </trkpt>
      <trkpt lat="45.46004" lon="5.92263">
        <ele>1742.05</ele>
        <time>2013-08-24T08:15:12Z</time>
      </trkpt>
      <trkpt lat="45.46006" lon="5.92263">
        <ele>1743.01</ele>
        <time>2013-08-24T08:15:16Z</time>
      </trkpt>
      <trkpt lat="45.46007" lon="5.92264">
        <ele>1744.93</ele>
        <time>2013-08-24T08:15:20Z</time>
      </trkpt>
      <trkpt lat="45.46009" lon="5.92266">
        <ele>1745.89</ele>
        <time>2013-08-24T08:15:24Z</time>
      </trkpt>
      <trkpt lat="45.46011" lon="5.92268">
        <ele>1747.33</ele>
        <time>2013-08-24T08:15:28Z</time>
      </trkpt>
      <trkpt lat="45.46012" lon="5.92269">
        <ele>1748.78</ele>
        <time>2013-08-24T08:15:32Z</time>
      </trkpt>
      <trkpt lat="45.46013" lon="5.92271">
        <ele>1749.74</ele>
        <time>2013-08-24T08:15:36Z</time>
      </trkpt>
      <trkpt lat="45.46014" lon="5.92272">
        <ele>1750.22</ele>
        <time>2013-08-24T08:15:40Z</time>
      </trkpt>
      <trkpt lat="45.46016" lon="5.92274">
        <ele>1751.18</ele>
        <time>2013-08-24T08:15:44Z</time>
      </trkpt>
      <trkpt lat="45.46016" lon="5.92275">
        <ele>1752.14</ele>
        <time>2013-08-24T08:15:48Z</time>
      </trkpt>
      <trkpt lat="45.46016" lon="5.92274">
        <ele>1752.62</ele>
        <time>2013-08-24T08:15:52Z</time>
      </trkpt>
      <trkpt lat="45.46016" lon="5.92274">
        <ele>1753.1</ele>
        <time>2013-08-24T08:15:56Z</time>
      </trkpt>
      <trkpt lat="45.46016" lon="5.92274">
        <ele>1753.1</ele>
        <time>2013-08-24T08:16:00Z</time>
      </trkpt>
      <trkpt lat="45.46015" lon="5.92274">
        <ele>1753.1</ele>
        <time>2013-08-24T08:16:04Z</time>
      </trkpt>
      <trkpt lat="45.46015" lon="5.92274">
        <ele>1753.58</ele>
        <time>2013-08-24T08:16:08Z</time>
      </trkpt>
      <trkpt lat="45.46015" lon="5.92274">
        <ele>1754.06</ele>
        <time>2013-08-24T08:16:12Z</time>
      </trkpt>
      <trkpt lat="45.46017" lon="5.92277">
        <ele>1753.58</ele>
        <time>2013-08-24T08:16:16Z</time>
      </trkpt>
      <trkpt lat="45.46019" lon="5.92279">
        <ele>1753.58</ele>
        <time>2013-08-24T08:16:20Z</time>
      </trkpt>
      <trkpt lat="45.4602" lon="5.92279">
        <ele>1754.54</ele>
        <time>2013-08-24T08:16:24Z</time>
      </trkpt>
      <trkpt lat="45.46021" lon="5.9228">
        <ele>1754.06</ele>
        <time>2013-08-24T08:16:28Z</time>
      </trkpt>
      <trkpt lat="45.46022" lon="5.92281">
        <ele>1754.06</ele>
        <time>2013-08-24T08:16:32Z</time>
      </trkpt>
      <trkpt lat="45.46021" lon="5.92283">
        <ele>1754.06</ele>
        <time>2013-08-24T08:16:36Z</time>
      </trkpt>
      <trkpt lat="45.46018" lon="5.92284">
        <ele>1754.06</ele>
        <time>2013-08-24T08:16:40Z</time>
      </trkpt>
      <trkpt lat="45.46016" lon="5.92286">
        <ele>1754.54</ele>
        <time>2013-08-24T08:16:44Z</time>
      </trkpt>
      <trkpt lat="45.46015" lon="5.92287">
        <ele>1754.54</ele>
        <time>2013-08-24T08:16:48Z</time>
      </trkpt>
      <trkpt lat="45.46014" lon="5.92289">
        <ele>1755.02</ele>
        <time>2013-08-24T08:16:52Z</time>
      </trkpt>
      <trkpt lat="45.46013" lon="5.92289">
        <ele>1755.99</ele>
        <time>2013-08-24T08:16:56Z</time>
      </trkpt>
      <trkpt lat="45.46011" lon="5.9229">
        <ele>1755.99</ele>
        <time>2013-08-24T08:17:00Z</time>
      </trkpt>
      <trkpt lat="45.46011" lon="5.92293">
        <ele>1756.47</ele>
        <time>2013-08-24T08:17:04Z</time>
      </trkpt>
      <trkpt lat="45.4601" lon="5.92293">
        <ele>1757.43</ele>
        <time>2013-08-24T08:17:08Z</time>
      </trkpt>
      <trkpt lat="45.4601" lon="5.92294">
        <ele>1758.39</ele>
        <time>2013-08-24T08:17:12Z</time>
      </trkpt>
      <trkpt lat="45.4601" lon="5.92293">
        <ele>1759.35</ele>
        <time>2013-08-24T08:17:16Z</time>
      </trkpt>
      <trkpt lat="45.4601" lon="5.92294">
        <ele>1760.31</ele>
        <time>2013-08-24T08:17:20Z</time>
      </trkpt>
      <trkpt lat="45.4601" lon="5.92295">
        <ele>1761.27</ele>
        <time>2013-08-24T08:17:24Z</time>
      </trkpt>
      <trkpt lat="45.4601" lon="5.92297">
        <ele>1761.27</ele>
        <time>2013-08-24T08:17:28Z</time>
      </trkpt>
      <trkpt lat="45.4601" lon="5.923">
        <ele>1762.23</ele>
        <time>2013-08-24T08:17:32Z</time>
      </trkpt>
      <trkpt lat="45.46009" lon="5.92302">
        <ele>1763.2</ele>
        <time>2013-08-24T08:17:36Z</time>
      </trkpt>
      <trkpt lat="45.4601" lon="5.92303">
        <ele>1765.12</ele>
        <time>2013-08-24T08:17:40Z</time>
      </trkpt>
      <trkpt lat="45.4601" lon="5.92303">
        <ele>1766.08</ele>
        <time>2013-08-24T08:17:44Z</time>
      </trkpt>
      <trkpt lat="45.46009" lon="5.92303">
        <ele>1767.04</ele>
        <time>2013-08-24T08:17:48Z</time>
      </trkpt>
      <trkpt lat="45.46009" lon="5.92304">
        <ele>1768</ele>
        <time>2013-08-24T08:17:52Z</time>
      </trkpt>
      <trkpt lat="45.46009" lon="5.92306">
        <ele>1768.96</ele>
        <time>2013-08-24T08:17:56Z</time>
      </trkpt>
      <trkpt lat="45.46007" lon="5.92308">
        <ele>1768.96</ele>
        <time>2013-08-24T08:18:00Z</time>
      </trkpt>
      <trkpt lat="45.46007" lon="5.9231">
        <ele>1769.44</ele>
        <time>2013-08-24T08:18:04Z</time>
      </trkpt>
      <trkpt lat="45.46007" lon="5.92311">
        <ele>1769.92</ele>
        <time>2013-08-24T08:18:08Z</time>
      </trkpt>
      <trkpt lat="45.46007" lon="5.92311">
        <ele>1770.41</ele>
        <time>2013-08-24T08:18:12Z</time>
      </trkpt>
      <trkpt lat="45.46005" lon="5.92311">
        <ele>1771.37</ele>
        <time>2013-08-24T08:18:16Z</time>
      </trkpt>
      <trkpt lat="45.46003" lon="5.9231">
        <ele>1771.85</ele>
        <time>2013-08-24T08:18:20Z</time>
      </trkpt>
      <trkpt lat="45.46003" lon="5.92311">
        <ele>1771.85</ele>
        <time>2013-08-24T08:18:24Z</time>
      </trkpt>
      <trkpt lat="45.46003" lon="5.9231">
        <ele>1771.85</ele>
        <time>2013-08-24T08:18:28Z</time>
      </trkpt>
      <trkpt lat="45.46003" lon="5.9231">
        <ele>1771.37</ele>
        <time>2013-08-24T08:18:32Z</time>
      </trkpt>
      <trkpt lat="45.46003" lon="5.9231">
        <ele>1771.37</ele>
        <time>2013-08-24T08:18:36Z</time>
      </trkpt>
      <trkpt lat="45.46003" lon="5.9231">
        <ele>1771.37</ele>
        <time>2013-08-24T08:18:40Z</time>
      </trkpt>
      <trkpt lat="45.46003" lon="5.9231">
        <ele>1771.37</ele>
        <time>2013-08-24T08:18:44Z</time>
      </trkpt>
      <trkpt lat="45.46003" lon="5.92309">
        <ele>1770.89</ele>
        <time>2013-08-24T08:18:48Z</time>
      </trkpt>
      <trkpt lat="45.46003" lon="5.92308">
        <ele>1770.41</ele>
        <time>2013-08-24T08:18:52Z</time>
      </trkpt>
      <trkpt lat="45.46002" lon="5.92309">
        <ele>1770.41</ele>
        <time>2013-08-24T08:18:56Z</time>
      </trkpt>
      <trkpt lat="45.46002" lon="5.92309">
        <ele>1770.89</ele>
        <time>2013-08-24T08:19:00Z</time>
      </trkpt>
      <trkpt lat="45.46002" lon="5.9231">
        <ele>1770.89</ele>
        <time>2013-08-24T08:19:04Z</time>
      </trkpt>
      <trkpt lat="45.46003" lon="5.92311">
        <ele>1770.41</ele>
        <time>2013-08-24T08:19:08Z</time>
      </trkpt>
      <trkpt lat="45.46003" lon="5.9231">
        <ele>1770.89</ele>
        <time>2013-08-24T08:19:12Z</time>
      </trkpt>
      <trkpt lat="45.46003" lon="5.92311">
        <ele>1772.33</ele>
        <time>2013-08-24T08:19:16Z</time>
      </trkpt>
      <trkpt lat="45.46002" lon="5.92311">
        <ele>1773.77</ele>
        <time>2013-08-24T08:19:20Z</time>
      </trkpt>
      <trkpt lat="45.46002" lon="5.92311">
        <ele>1774.73</ele>
        <time>2013-08-24T08:19:24Z</time>
      </trkpt>
      <trkpt lat="45.46003" lon="5.92312">
        <ele>1773.77</ele>
        <time>2013-08-24T08:19:28Z</time>
      </trkpt>
      <trkpt lat="45.46003" lon="5.92312">
        <ele>1774.25</ele>
        <time>2013-08-24T08:19:32Z</time>
      </trkpt>
      <trkpt lat="45.46003" lon="5.92313">
        <ele>1773.77</ele>
        <time>2013-08-24T08:19:36Z</time>
      </trkpt>
      <trkpt lat="45.46004" lon="5.92313">
        <ele>1773.77</ele>
        <time>2013-08-24T08:19:40Z</time>
      </trkpt>
      <trkpt lat="45.46003" lon="5.92314">
        <ele>1773.29</ele>
        <time>2013-08-24T08:19:44Z</time>
      </trkpt>
      <trkpt lat="45.46003" lon="5.92316">
        <ele>1772.81</ele>
        <time>2013-08-24T08:19:48Z</time>
      </trkpt>
      <trkpt lat="45.46003" lon="5.92316">
        <ele>1772.81</ele>
        <time>2013-08-24T08:19:52Z</time>
      </trkpt>
      <trkpt lat="45.46003" lon="5.92316">
        <ele>1772.33</ele>
        <time>2013-08-24T08:19:56Z</time>
      </trkpt>
      <trkpt lat="45.46003" lon="5.92317">
        <ele>1772.33</ele>
        <time>2013-08-24T08:20:00Z</time>
      </trkpt>
      <trkpt lat="45.46003" lon="5.92317">
        <ele>1772.81</ele>
        <time>2013-08-24T08:20:04Z</time>
      </trkpt>
      <trkpt lat="45.46003" lon="5.92317">
        <ele>1772.81</ele>
        <time>2013-08-24T08:20:08Z</time>
      </trkpt>
      <trkpt lat="45.46003" lon="5.92317">
        <ele>1773.29</ele>
        <time>2013-08-24T08:20:12Z</time>
      </trkpt>
      <trkpt lat="45.46003" lon="5.92316">
        <ele>1773.29</ele>
        <time>2013-08-24T08:20:16Z</time>
      </trkpt>
      <trkpt lat="45.46003" lon="5.92315">
        <ele>1773.77</ele>
        <time>2013-08-24T08:20:20Z</time>
      </trkpt>
      <trkpt lat="45.46002" lon="5.92314">
        <ele>1774.25</ele>
        <time>2013-08-24T08:20:24Z</time>
      </trkpt>
      <trkpt lat="45.46002" lon="5.92313">
        <ele>1774.73</ele>
        <time>2013-08-24T08:20:28Z</time>
      </trkpt>
      <trkpt lat="45.46002" lon="5.92312">
        <ele>1774.73</ele>
        <time>2013-08-24T08:20:32Z</time>
      </trkpt>
      <trkpt lat="45.46001" lon="5.92311">
        <ele>1775.69</ele>
        <time>2013-08-24T08:20:36Z</time>
      </trkpt>
      <trkpt lat="45.46" lon="5.92309">
        <ele>1776.65</ele>
        <time>2013-08-24T08:20:40Z</time>
      </trkpt>
      <trkpt lat="45.46001" lon="5.92308">
        <ele>1778.58</ele>
        <time>2013-08-24T08:20:44Z</time>
      </trkpt>
      <trkpt lat="45.46" lon="5.92307">
        <ele>1778.58</ele>
        <time>2013-08-24T08:20:48Z</time>
      </trkpt>
      <trkpt lat="45.45999" lon="5.92307">
        <ele>1778.58</ele>
        <time>2013-08-24T08:20:52Z</time>
      </trkpt>
      <trkpt lat="45.45999" lon="5.92307">
        <ele>1779.06</ele>
        <time>2013-08-24T08:20:56Z</time>
      </trkpt>
      <trkpt lat="45.45998" lon="5.92305">
        <ele>1780.02</ele>
        <time>2013-08-24T08:21:00Z</time>
      </trkpt>
      <trkpt lat="45.45997" lon="5.92307">
        <ele>1780.5</ele>
        <time>2013-08-24T08:21:04Z</time>
      </trkpt>
      <trkpt lat="45.45997" lon="5.92308">
        <ele>1781.94</ele>
        <time>2013-08-24T08:21:08Z</time>
      </trkpt>
      <trkpt lat="45.45998" lon="5.92309">
        <ele>1782.42</ele>
        <time>2013-08-24T08:21:12Z</time>
      </trkpt>
      <trkpt lat="45.45999" lon="5.9231">
        <ele>1783.38</ele>
        <time>2013-08-24T08:21:16Z</time>
      </trkpt>
      <trkpt lat="45.45997" lon="5.92312">
        <ele>1783.38</ele>
        <time>2013-08-24T08:21:20Z</time>
      </trkpt>
      <trkpt lat="45.45996" lon="5.92312">
        <ele>1784.34</ele>
        <time>2013-08-24T08:21:24Z</time>
      </trkpt>
      <trkpt lat="45.45996" lon="5.92314">
        <ele>1784.34</ele>
        <time>2013-08-24T08:21:28Z</time>
      </trkpt>
      <trkpt lat="45.45995" lon="5.92314">
        <ele>1784.34</ele>
        <time>2013-08-24T08:21:32Z</time>
      </trkpt>
      <trkpt lat="45.45995" lon="5.92316">
        <ele>1784.82</ele>
        <time>2013-08-24T08:21:36Z</time>
      </trkpt>
      <trkpt lat="45.45995" lon="5.92317">
        <ele>1784.82</ele>
        <time>2013-08-24T08:21:40Z</time>
      </trkpt>
      <trkpt lat="45.45995" lon="5.92319">
        <ele>1786.27</ele>
        <time>2013-08-24T08:21:44Z</time>
      </trkpt>
      <trkpt lat="45.45996" lon="5.9232">
        <ele>1787.23</ele>
        <time>2013-08-24T08:21:48Z</time>
      </trkpt>
      <trkpt lat="45.45996" lon="5.92323">
        <ele>1787.71</ele>
        <time>2013-08-24T08:21:52Z</time>
      </trkpt>
      <trkpt lat="45.45997" lon="5.92323">
        <ele>1788.19</ele>
        <time>2013-08-24T08:21:56Z</time>
      </trkpt>
      <trkpt lat="45.45997" lon="5.92323">
        <ele>1788.19</ele>
        <time>2013-08-24T08:22:00Z</time>
      </trkpt>
      <trkpt lat="45.45996" lon="5.92324">
        <ele>1787.71</ele>
        <time>2013-08-24T08:22:04Z</time>
      </trkpt>
      <trkpt lat="45.45996" lon="5.92325">
        <ele>1789.15</ele>
        <time>2013-08-24T08:22:08Z</time>
      </trkpt>
      <trkpt lat="45.45997" lon="5.92327">
        <ele>1791.55</ele>
        <time>2013-08-24T08:22:12Z</time>
      </trkpt>
      <trkpt lat="45.45996" lon="5.92328">
        <ele>1791.55</ele>
        <time>2013-08-24T08:22:16Z</time>
      </trkpt>
      <trkpt lat="45.45996" lon="5.92331">
        <ele>1791.55</ele>
        <time>2013-08-24T08:22:20Z</time>
      </trkpt>
      <trkpt lat="45.45996" lon="5.92332">
        <ele>1792.03</ele>
        <time>2013-08-24T08:22:24Z</time>
      </trkpt>
      <trkpt lat="45.45995" lon="5.92333">
        <ele>1793</ele>
        <time>2013-08-24T08:22:28Z</time>
      </trkpt>
      <trkpt lat="45.45995" lon="5.92334">
        <ele>1793.48</ele>
        <time>2013-08-24T08:22:32Z</time>
      </trkpt>
      <trkpt lat="45.45996" lon="5.92336">
        <ele>1794.44</ele>
        <time>2013-08-24T08:22:36Z</time>
      </trkpt>
      <trkpt lat="45.45996" lon="5.92336">
        <ele>1795.4</ele>
        <time>2013-08-24T08:22:40Z</time>
      </trkpt>
      <trkpt lat="45.45997" lon="5.92338">
        <ele>1796.36</ele>
        <time>2013-08-24T08:22:44Z</time>
      </trkpt>
      <trkpt lat="45.45996" lon="5.92337">
        <ele>1797.32</ele>
        <time>2013-08-24T08:22:48Z</time>
      </trkpt>
      <trkpt lat="45.45996" lon="5.92338">
        <ele>1798.28</ele>
        <time>2013-08-24T08:22:52Z</time>
      </trkpt>
      <trkpt lat="45.45996" lon="5.92338">
        <ele>1798.76</ele>
        <time>2013-08-24T08:22:56Z</time>
      </trkpt>
      <trkpt lat="45.45996" lon="5.92338">
        <ele>1799.24</ele>
        <time>2013-08-24T08:23:00Z</time>
      </trkpt>
      <trkpt lat="45.45996" lon="5.92338">
        <ele>1800.21</ele>
        <time>2013-08-24T08:23:04Z</time>
      </trkpt>
      <trkpt lat="45.45996" lon="5.92338">
        <ele>1801.17</ele>
        <time>2013-08-24T08:23:08Z</time>
      </trkpt>
      <trkpt lat="45.45995" lon="5.92339">
        <ele>1801.65</ele>
        <time>2013-08-24T08:23:12Z</time>
      </trkpt>
      <trkpt lat="45.45995" lon="5.92342">
        <ele>1803.57</ele>
        <time>2013-08-24T08:23:16Z</time>
      </trkpt>
      <trkpt lat="45.45995" lon="5.92342">
        <ele>1805.49</ele>
        <time>2013-08-24T08:23:20Z</time>
      </trkpt>
      <trkpt lat="45.45994" lon="5.92341">
        <ele>1807.42</ele>
        <time>2013-08-24T08:23:24Z</time>
      </trkpt>
      <trkpt lat="45.45992" lon="5.92339">
        <ele>1808.38</ele>
        <time>2013-08-24T08:23:28Z</time>
      </trkpt>
      <trkpt lat="45.4599" lon="5.92336">
        <ele>1808.38</ele>
        <time>2013-08-24T08:23:32Z</time>
      </trkpt>
      <trkpt lat="45.45989" lon="5.92337">
        <ele>1808.38</ele>
        <time>2013-08-24T08:23:36Z</time>
      </trkpt>
      <trkpt lat="45.45989" lon="5.92338">
        <ele>1808.86</ele>
        <time>2013-08-24T08:23:40Z</time>
      </trkpt>
      <trkpt lat="45.45989" lon="5.92339">
        <ele>1809.82</ele>
        <time>2013-08-24T08:23:44Z</time>
      </trkpt>
      <trkpt lat="45.4599" lon="5.9234">
        <ele>1810.78</ele>
        <time>2013-08-24T08:23:48Z</time>
      </trkpt>
      <trkpt lat="45.4599" lon="5.9234">
        <ele>1811.26</ele>
        <time>2013-08-24T08:23:52Z</time>
      </trkpt>
      <trkpt lat="45.4599" lon="5.92339">
        <ele>1811.74</ele>
        <time>2013-08-24T08:23:56Z</time>
      </trkpt>
      <trkpt lat="45.4599" lon="5.9234">
        <ele>1812.22</ele>
        <time>2013-08-24T08:24:00Z</time>
      </trkpt>
      <trkpt lat="45.45989" lon="5.92339">
        <ele>1812.22</ele>
        <time>2013-08-24T08:24:04Z</time>
      </trkpt>
      <trkpt lat="45.45989" lon="5.92339">
        <ele>1812.7</ele>
        <time>2013-08-24T08:24:08Z</time>
      </trkpt>
      <trkpt lat="45.45988" lon="5.92338">
        <ele>1813.18</ele>
        <time>2013-08-24T08:24:12Z</time>
      </trkpt>
      <trkpt lat="45.45988" lon="5.92337">
        <ele>1813.18</ele>
        <time>2013-08-24T08:24:16Z</time>
      </trkpt>
      <trkpt lat="45.45988" lon="5.92337">
        <ele>1813.66</ele>
        <time>2013-08-24T08:24:20Z</time>
      </trkpt>
      <trkpt lat="45.45988" lon="5.92338">
        <ele>1814.15</ele>
        <time>2013-08-24T08:24:24Z</time>
      </trkpt>
      <trkpt lat="45.45989" lon="5.9234">
        <ele>1815.11</ele>
        <time>2013-08-24T08:24:28Z</time>
      </trkpt>
      <trkpt lat="45.45989" lon="5.92341">
        <ele>1815.11</ele>
        <time>2013-08-24T08:24:32Z</time>
      </trkpt>
      <trkpt lat="45.45989" lon="5.92341">
        <ele>1815.11</ele>
        <time>2013-08-24T08:24:36Z</time>
      </trkpt>
      <trkpt lat="45.45989" lon="5.92342">
        <ele>1815.11</ele>
        <time>2013-08-24T08:24:40Z</time>
      </trkpt>
      <trkpt lat="45.4599" lon="5.92343">
        <ele>1815.11</ele>
        <time>2013-08-24T08:24:44Z</time>
      </trkpt>
      <trkpt lat="45.45991" lon="5.92345">
        <ele>1814.63</ele>
        <time>2013-08-24T08:24:48Z</time>
      </trkpt>
      <trkpt lat="45.45991" lon="5.92347">
        <ele>1814.15</ele>
        <time>2013-08-24T08:24:52Z</time>
      </trkpt>
      <trkpt lat="45.45992" lon="5.92347">
        <ele>1814.15</ele>
        <time>2013-08-24T08:24:56Z</time>
      </trkpt>
      <trkpt lat="45.45992" lon="5.92347">
        <ele>1814.15</ele>
        <time>2013-08-24T08:25:00Z</time>
      </trkpt>
      <trkpt lat="45.45992" lon="5.92348">
        <ele>1813.66</ele>
        <time>2013-08-24T08:25:04Z</time>
      </trkpt>
      <trkpt lat="45.45993" lon="5.9235">
        <ele>1814.15</ele>
        <time>2013-08-24T08:25:08Z</time>
      </trkpt>
      <trkpt lat="45.45994" lon="5.92352">
        <ele>1814.15</ele>
        <time>2013-08-24T08:25:12Z</time>
      </trkpt>
      <trkpt lat="45.45992" lon="5.92352">
        <ele>1814.15</ele>
        <time>2013-08-24T08:25:16Z</time>
      </trkpt>
      <trkpt lat="45.45991" lon="5.92351">
        <ele>1814.15</ele>
        <time>2013-08-24T08:25:20Z</time>
      </trkpt>
      <trkpt lat="45.4599" lon="5.92352">
        <ele>1815.11</ele>
        <time>2013-08-24T08:25:24Z</time>
      </trkpt>
      <trkpt lat="45.4599" lon="5.92353">
        <ele>1815.59</ele>
        <time>2013-08-24T08:25:28Z</time>
      </trkpt>
      <trkpt lat="45.45992" lon="5.92351">
        <ele>1815.59</ele>
        <time>2013-08-24T08:25:32Z</time>
      </trkpt>
      <trkpt lat="45.45994" lon="5.92351">
        <ele>1815.11</ele>
        <time>2013-08-24T08:25:36Z</time>
      </trkpt>
      <trkpt lat="45.45997" lon="5.9235">
        <ele>1814.63</ele>
        <time>2013-08-24T08:25:40Z</time>
      </trkpt>
      <trkpt lat="45.45999" lon="5.92349">
        <ele>1814.63</ele>
        <time>2013-08-24T08:25:44Z</time>
      </trkpt>
      <trkpt lat="45.46006" lon="5.92342">
        <ele>1814.15</ele>
        <time>2013-08-24T08:25:48Z</time>
      </trkpt>
      <trkpt lat="45.46014" lon="5.92337">
        <ele>1813.18</ele>
        <time>2013-08-24T08:25:52Z</time>
      </trkpt>
      <trkpt lat="45.4602" lon="5.92337">
        <ele>1812.7</ele>
        <time>2013-08-24T08:25:56Z</time>
      </trkpt>
      <trkpt lat="45.46026" lon="5.92338">
        <ele>1811.74</ele>
        <time>2013-08-24T08:26:00Z</time>
      </trkpt>
      <trkpt lat="45.46037" lon="5.92341">
        <ele>1812.22</ele>
        <time>2013-08-24T08:26:04Z</time>
      </trkpt>
      <trkpt lat="45.46049" lon="5.92339">
        <ele>1811.74</ele>
        <time>2013-08-24T08:26:08Z</time>
      </trkpt>
      <trkpt lat="45.46057" lon="5.92337">
        <ele>1811.74</ele>
        <time>2013-08-24T08:26:12Z</time>
      </trkpt>
      <trkpt lat="45.46062" lon="5.92335">
        <ele>1811.74</ele>
        <time>2013-08-24T08:26:16Z</time>
      </trkpt>
      <trkpt lat="45.46067" lon="5.92336">
        <ele>1812.22</ele>
        <time>2013-08-24T08:26:20Z</time>
      </trkpt>
      <trkpt lat="45.46073" lon="5.92337">
        <ele>1812.7</ele>
        <time>2013-08-24T08:26:24Z</time>
      </trkpt>
      <trkpt lat="45.46078" lon="5.92338">
        <ele>1812.7</ele>
        <time>2013-08-24T08:26:28Z</time>
      </trkpt>
      <trkpt lat="45.46084" lon="5.92337">
        <ele>1811.74</ele>
        <time>2013-08-24T08:26:32Z</time>
      </trkpt>
      <trkpt lat="45.46089" lon="5.9234">
        <ele>1811.74</ele>
        <time>2013-08-24T08:26:36Z</time>
      </trkpt>
      <trkpt lat="45.46093" lon="5.92343">
        <ele>1812.7</ele>
        <time>2013-08-24T08:26:40Z</time>
      </trkpt>
      <trkpt lat="45.46095" lon="5.92344">
        <ele>1813.66</ele>
        <time>2013-08-24T08:26:44Z</time>
      </trkpt>
      <trkpt lat="45.46096" lon="5.92345">
        <ele>1814.15</ele>
        <time>2013-08-24T08:26:48Z</time>
      </trkpt>
      <trkpt lat="45.46097" lon="5.92346">
        <ele>1814.15</ele>
        <time>2013-08-24T08:26:52Z</time>
      </trkpt>
      <trkpt lat="45.46098" lon="5.92346">
        <ele>1814.63</ele>
        <time>2013-08-24T08:26:56Z</time>
      </trkpt>
      <trkpt lat="45.46099" lon="5.92346">
        <ele>1814.15</ele>
        <time>2013-08-24T08:27:00Z</time>
      </trkpt>
      <trkpt lat="45.46098" lon="5.92346">
        <ele>1814.15</ele>
        <time>2013-08-24T08:27:04Z</time>
      </trkpt>
      <trkpt lat="45.46098" lon="5.92347">
        <ele>1814.15</ele>
        <time>2013-08-24T08:27:08Z</time>
      </trkpt>
      <trkpt lat="45.46097" lon="5.92348">
        <ele>1815.11</ele>
        <time>2013-08-24T08:27:12Z</time>
      </trkpt>
      <trkpt lat="45.46097" lon="5.92348">
        <ele>1816.07</ele>
        <time>2013-08-24T08:27:16Z</time>
      </trkpt>
      <trkpt lat="45.46097" lon="5.92349">
        <ele>1815.59</ele>
        <time>2013-08-24T08:27:20Z</time>
      </trkpt>
      <trkpt lat="45.46097" lon="5.9235">
        <ele>1815.11</ele>
        <time>2013-08-24T08:27:24Z</time>
      </trkpt>
      <trkpt lat="45.46096" lon="5.92348">
        <ele>1815.11</ele>
        <time>2013-08-24T08:27:28Z</time>
      </trkpt>
      <trkpt lat="45.46095" lon="5.92347">
        <ele>1814.63</ele>
        <time>2013-08-24T08:27:32Z</time>
      </trkpt>
      <trkpt lat="45.46096" lon="5.92347">
        <ele>1815.11</ele>
        <time>2013-08-24T08:27:36Z</time>
      </trkpt>
      <trkpt lat="45.46096" lon="5.92346">
        <ele>1815.11</ele>
        <time>2013-08-24T08:27:40Z</time>
      </trkpt>
      <trkpt lat="45.46095" lon="5.92345">
        <ele>1815.11</ele>
        <time>2013-08-24T08:27:44Z</time>
      </trkpt>
      <trkpt lat="45.46094" lon="5.92343">
        <ele>1816.55</ele>
        <time>2013-08-24T08:27:48Z</time>
      </trkpt>
      <trkpt lat="45.46091" lon="5.92342">
        <ele>1818.95</ele>
        <time>2013-08-24T08:27:52Z</time>
      </trkpt>
      <trkpt lat="45.46088" lon="5.9234">
        <ele>1820.87</ele>
        <time>2013-08-24T08:27:56Z</time>
      </trkpt>
      <trkpt lat="45.46086" lon="5.92339">
        <ele>1822.8</ele>
        <time>2013-08-24T08:28:00Z</time>
      </trkpt>
      <trkpt lat="45.46083" lon="5.92339">
        <ele>1824.24</ele>
        <time>2013-08-24T08:28:04Z</time>
      </trkpt>
      <trkpt lat="45.46079" lon="5.92339">
        <ele>1823.76</ele>
        <time>2013-08-24T08:28:08Z</time>
      </trkpt>
      <trkpt lat="45.46077" lon="5.92336">
        <ele>1823.76</ele>
        <time>2013-08-24T08:28:12Z</time>
      </trkpt>
      <trkpt lat="45.46076" lon="5.92333">
        <ele>1822.8</ele>
        <time>2013-08-24T08:28:16Z</time>
      </trkpt>
      <trkpt lat="45.46074" lon="5.92332">
        <ele>1822.32</ele>
        <time>2013-08-24T08:28:20Z</time>
      </trkpt>
      <trkpt lat="45.46073" lon="5.92331">
        <ele>1821.35</ele>
        <time>2013-08-24T08:28:24Z</time>
      </trkpt>
      <trkpt lat="45.46072" lon="5.92329">
        <ele>1820.87</ele>
        <time>2013-08-24T08:28:28Z</time>
      </trkpt>
      <trkpt lat="45.46071" lon="5.92327">
        <ele>1820.39</ele>
        <time>2013-08-24T08:28:32Z</time>
      </trkpt>
      <trkpt lat="45.46071" lon="5.92326">
        <ele>1819.43</ele>
        <time>2013-08-24T08:28:36Z</time>
      </trkpt>
      <trkpt lat="45.46071" lon="5.92326">
        <ele>1819.43</ele>
        <time>2013-08-24T08:28:40Z</time>
      </trkpt>
      <trkpt lat="45.4607" lon="5.92326">
        <ele>1819.43</ele>
        <time>2013-08-24T08:28:44Z</time>
      </trkpt>
      <trkpt lat="45.46069" lon="5.92328">
        <ele>1818.47</ele>
        <time>2013-08-24T08:28:48Z</time>
      </trkpt>
      <trkpt lat="45.46069" lon="5.92329">
        <ele>1817.99</ele>
        <time>2013-08-24T08:28:52Z</time>
      </trkpt>
      <trkpt lat="45.46069" lon="5.92328">
        <ele>1817.51</ele>
        <time>2013-08-24T08:28:56Z</time>
      </trkpt>
      <trkpt lat="45.46069" lon="5.92328">
        <ele>1817.03</ele>
        <time>2013-08-24T08:29:00Z</time>
      </trkpt>
      <trkpt lat="45.46067" lon="5.92328">
        <ele>1816.55</ele>
        <time>2013-08-24T08:29:04Z</time>
      </trkpt>
      <trkpt lat="45.46066" lon="5.92328">
        <ele>1817.03</ele>
        <time>2013-08-24T08:29:08Z</time>
      </trkpt>
      <trkpt lat="45.46065" lon="5.92327">
        <ele>1817.51</ele>
        <time>2013-08-24T08:29:12Z</time>
      </trkpt>
      <trkpt lat="45.46066" lon="5.92327">
        <ele>1817.51</ele>
        <time>2013-08-24T08:29:16Z</time>
      </trkpt>
      <trkpt lat="45.46069" lon="5.92329">
        <ele>1817.99</ele>
        <time>2013-08-24T08:29:20Z</time>
      </trkpt>
      <trkpt lat="45.46072" lon="5.9233">
        <ele>1818.47</ele>
        <time>2013-08-24T08:29:24Z</time>
      </trkpt>
      <trkpt lat="45.46076" lon="5.92332">
        <ele>1818.47</ele>
        <time>2013-08-24T08:29:28Z</time>
      </trkpt>
      <trkpt lat="45.4608" lon="5.92332">
        <ele>1818.47</ele>
        <time>2013-08-24T08:29:32Z</time>
      </trkpt>
      <trkpt lat="45.46083" lon="5.92331">
        <ele>1818.95</ele>
        <time>2013-08-24T08:29:36Z</time>
      </trkpt>
      <trkpt lat="45.46087" lon="5.92333">
        <ele>1819.43</ele>
        <time>2013-08-24T08:29:40Z</time>
      </trkpt>
      <trkpt lat="45.4609" lon="5.92335">
        <ele>1819.43</ele>
        <time>2013-08-24T08:29:44Z</time>
      </trkpt>
      <trkpt lat="45.46093" lon="5.92338">
        <ele>1819.43</ele>
        <time>2013-08-24T08:29:48Z</time>
      </trkpt>
      <trkpt lat="45.46095" lon="5.92341">
        <ele>1817.99</ele>
        <time>2013-08-24T08:29:52Z</time>
      </trkpt>
      <trkpt lat="45.46097" lon="5.92344">
        <ele>1816.55</ele>
        <time>2013-08-24T08:29:56Z</time>
      </trkpt>
      <trkpt lat="45.46098" lon="5.92345">
        <ele>1815.59</ele>
        <time>2013-08-24T08:30:00Z</time>
      </trkpt>
      <trkpt lat="45.46099" lon="5.92346">
        <ele>1815.59</ele>
        <time>2013-08-24T08:30:04Z</time>
      </trkpt>
      <trkpt lat="45.46098" lon="5.92345">
        <ele>1815.59</ele>
        <time>2013-08-24T08:30:08Z</time>
      </trkpt>
      <trkpt lat="45.46099" lon="5.92346">
        <ele>1814.15</ele>
        <time>2013-08-24T08:30:12Z</time>
      </trkpt>
      <trkpt lat="45.46101" lon="5.92347">
        <ele>1814.15</ele>
        <time>2013-08-24T08:30:16Z</time>
      </trkpt>
      <trkpt lat="45.46101" lon="5.92348">
        <ele>1813.18</ele>
        <time>2013-08-24T08:30:20Z</time>
      </trkpt>
      <trkpt lat="45.46102" lon="5.92348">
        <ele>1813.18</ele>
        <time>2013-08-24T08:30:24Z</time>
      </trkpt>
      <trkpt lat="45.46103" lon="5.92348">
        <ele>1813.18</ele>
        <time>2013-08-24T08:30:28Z</time>
      </trkpt>
      <trkpt lat="45.46103" lon="5.92347">
        <ele>1813.18</ele>
        <time>2013-08-24T08:30:32Z</time>
      </trkpt>
      <trkpt lat="45.46103" lon="5.92347">
        <ele>1812.7</ele>
        <time>2013-08-24T08:30:36Z</time>
      </trkpt>
      <trkpt lat="45.46103" lon="5.92348">
        <ele>1812.7</ele>
        <time>2013-08-24T08:30:40Z</time>
      </trkpt>
      <trkpt lat="45.46104" lon="5.92349">
        <ele>1812.22</ele>
        <time>2013-08-24T08:30:44Z</time>
      </trkpt>
      <trkpt lat="45.46104" lon="5.92349">
        <ele>1812.7</ele>
        <time>2013-08-24T08:30:48Z</time>
      </trkpt>
      <trkpt lat="45.46105" lon="5.9235">
        <ele>1812.7</ele>
        <time>2013-08-24T08:30:52Z</time>
      </trkpt>
      <trkpt lat="45.46105" lon="5.92352">
        <ele>1811.74</ele>
        <time>2013-08-24T08:30:56Z</time>
      </trkpt>
      <trkpt lat="45.46106" lon="5.92353">
        <ele>1811.74</ele>
        <time>2013-08-24T08:31:00Z</time>
      </trkpt>
      <trkpt lat="45.46107" lon="5.92354">
        <ele>1811.74</ele>
        <time>2013-08-24T08:31:04Z</time>
      </trkpt>
      <trkpt lat="45.46108" lon="5.92355">
        <ele>1812.22</ele>
        <time>2013-08-24T08:31:08Z</time>
      </trkpt>
      <trkpt lat="45.46108" lon="5.92353">
        <ele>1813.18</ele>
        <time>2013-08-24T08:31:12Z</time>
      </trkpt>
      <trkpt lat="45.46107" lon="5.92352">
        <ele>1813.66</ele>
        <time>2013-08-24T08:31:16Z</time>
      </trkpt>
      <trkpt lat="45.46107" lon="5.92352">
        <ele>1814.63</ele>
        <time>2013-08-24T08:31:20Z</time>
      </trkpt>
      <trkpt lat="45.46106" lon="5.92351">
        <ele>1815.59</ele>
        <time>2013-08-24T08:31:24Z</time>
      </trkpt>
      <trkpt lat="45.46102" lon="5.92348">
        <ele>1816.07</ele>
        <time>2013-08-24T08:31:28Z</time>
      </trkpt>
      <trkpt lat="45.46098" lon="5.92346">
        <ele>1816.07</ele>
        <time>2013-08-24T08:31:32Z</time>
      </trkpt>
      <trkpt lat="45.46094" lon="5.92344">
        <ele>1816.55</ele>
        <time>2013-08-24T08:31:36Z</time>
      </trkpt>
      <trkpt lat="45.4609" lon="5.92343">
        <ele>1817.03</ele>
        <time>2013-08-24T08:31:40Z</time>
      </trkpt>
      <trkpt lat="45.46087" lon="5.92343">
        <ele>1817.51</ele>
        <time>2013-08-24T08:31:44Z</time>
      </trkpt>
      <trkpt lat="45.46083" lon="5.92342">
        <ele>1817.03</ele>
        <time>2013-08-24T08:31:48Z</time>
      </trkpt>
      <trkpt lat="45.46079" lon="5.9234">
        <ele>1817.03</ele>
        <time>2013-08-24T08:31:52Z</time>
      </trkpt>
      <trkpt lat="45.46075" lon="5.92338">
        <ele>1817.51</ele>
        <time>2013-08-24T08:31:56Z</time>
      </trkpt>
      <trkpt lat="45.46071" lon="5.92339">
        <ele>1817.03</ele>
        <time>2013-08-24T08:32:00Z</time>
      </trkpt>
      <trkpt lat="45.46065" lon="5.9234">
        <ele>1816.07</ele>
        <time>2013-08-24T08:32:04Z</time>
      </trkpt>
      <trkpt lat="45.46059" lon="5.9234">
        <ele>1815.59</ele>
        <time>2013-08-24T08:32:08Z</time>
      </trkpt>
      <trkpt lat="45.46053" lon="5.92341">
        <ele>1815.11</ele>
        <time>2013-08-24T08:32:12Z</time>
      </trkpt>
      <trkpt lat="45.46048" lon="5.92342">
        <ele>1814.63</ele>
        <time>2013-08-24T08:32:16Z</time>
      </trkpt>
      <trkpt lat="45.46043" lon="5.92342">
        <ele>1814.15</ele>
        <time>2013-08-24T08:32:20Z</time>
      </trkpt>
      <trkpt lat="45.4604" lon="5.92343">
        <ele>1813.66</ele>
        <time>2013-08-24T08:32:24Z</time>
      </trkpt>
      <trkpt lat="45.46036" lon="5.92342">
        <ele>1813.66</ele>
        <time>2013-08-24T08:32:28Z</time>
      </trkpt>
      <trkpt lat="45.46033" lon="5.92343">
        <ele>1813.66</ele>
        <time>2013-08-24T08:32:32Z</time>
      </trkpt>
      <trkpt lat="45.46029" lon="5.92342">
        <ele>1814.15</ele>
        <time>2013-08-24T08:32:36Z</time>
      </trkpt>
      <trkpt lat="45.46025" lon="5.92344">
        <ele>1814.15</ele>
        <time>2013-08-24T08:32:40Z</time>
      </trkpt>
      <trkpt lat="45.4602" lon="5.92346">
        <ele>1814.15</ele>
        <time>2013-08-24T08:32:44Z</time>
      </trkpt>
      <trkpt lat="45.46016" lon="5.92347">
        <ele>1813.66</ele>
        <time>2013-08-24T08:32:48Z</time>
      </trkpt>
      <trkpt lat="45.46012" lon="5.92348">
        <ele>1813.66</ele>
        <time>2013-08-24T08:32:52Z</time>
      </trkpt>
      <trkpt lat="45.46009" lon="5.9235">
        <ele>1814.15</ele>
        <time>2013-08-24T08:32:56Z</time>
      </trkpt>
      <trkpt lat="45.46007" lon="5.92351">
        <ele>1814.63</ele>
        <time>2013-08-24T08:33:00Z</time>
      </trkpt>
      <trkpt lat="45.46005" lon="5.92353">
        <ele>1815.11</ele>
        <time>2013-08-24T08:33:04Z</time>
      </trkpt>
      <trkpt lat="45.46004" lon="5.92355">
        <ele>1816.07</ele>
        <time>2013-08-24T08:33:08Z</time>
      </trkpt>
      <trkpt lat="45.46002" lon="5.92356">
        <ele>1817.51</ele>
        <time>2013-08-24T08:33:12Z</time>
      </trkpt>
      <trkpt lat="45.46" lon="5.92357">
        <ele>1818.47</ele>
        <time>2013-08-24T08:33:16Z</time>
      </trkpt>
      <trkpt lat="45.45999" lon="5.92358">
        <ele>1819.91</ele>
        <time>2013-08-24T08:33:20Z</time>
      </trkpt>
      <trkpt lat="45.45998" lon="5.92357">
        <ele>1820.87</ele>
        <time>2013-08-24T08:33:24Z</time>
      </trkpt>
      <trkpt lat="45.45995" lon="5.92359">
        <ele>1821.84</ele>
        <time>2013-08-24T08:33:28Z</time>
      </trkpt>
      <trkpt lat="45.45993" lon="5.92361">
        <ele>1822.8</ele>
        <time>2013-08-24T08:33:32Z</time>
      </trkpt>
      <trkpt lat="45.45992" lon="5.92361">
        <ele>1823.76</ele>
        <time>2013-08-24T08:33:36Z</time>
      </trkpt>
      <trkpt lat="45.45991" lon="5.92362">
        <ele>1824.24</ele>
        <time>2013-08-24T08:33:40Z</time>
      </trkpt>
      <trkpt lat="45.45989" lon="5.92362">
        <ele>1825.2</ele>
        <time>2013-08-24T08:33:44Z</time>
      </trkpt>
      <trkpt lat="45.45987" lon="5.92362">
        <ele>1827.12</ele>
        <time>2013-08-24T08:33:48Z</time>
      </trkpt>
      <trkpt lat="45.45985" lon="5.92362">
        <ele>1828.08</ele>
        <time>2013-08-24T08:33:52Z</time>
      </trkpt>
      <trkpt lat="45.45983" lon="5.92363">
        <ele>1829.05</ele>
        <time>2013-08-24T08:33:56Z</time>
      </trkpt>
      <trkpt lat="45.45981" lon="5.92363">
        <ele>1830.01</ele>
        <time>2013-08-24T08:34:00Z</time>
      </trkpt>
      <trkpt lat="45.45979" lon="5.92364">
        <ele>1830.49</ele>
        <time>2013-08-24T08:34:04Z</time>
      </trkpt>
      <trkpt lat="45.45976" lon="5.92364">
        <ele>1830.49</ele>
        <time>2013-08-24T08:34:08Z</time>
      </trkpt>
      <trkpt lat="45.45975" lon="5.92365">
        <ele>1831.93</ele>
        <time>2013-08-24T08:34:12Z</time>
      </trkpt>
      <trkpt lat="45.45973" lon="5.92365">
        <ele>1832.41</ele>
        <time>2013-08-24T08:34:16Z</time>
      </trkpt>
      <trkpt lat="45.45971" lon="5.92366">
        <ele>1832.89</ele>
        <time>2013-08-24T08:34:20Z</time>
      </trkpt>
      <trkpt lat="45.45969" lon="5.92366">
        <ele>1833.37</ele>
        <time>2013-08-24T08:34:24Z</time>
      </trkpt>
      <trkpt lat="45.45968" lon="5.92365">
        <ele>1834.33</ele>
        <time>2013-08-24T08:34:28Z</time>
      </trkpt>
      <trkpt lat="45.45967" lon="5.92364">
        <ele>1835.29</ele>
        <time>2013-08-24T08:34:32Z</time>
      </trkpt>
      <trkpt lat="45.45965" lon="5.92363">
        <ele>1835.77</ele>
        <time>2013-08-24T08:34:36Z</time>
      </trkpt>
      <trkpt lat="45.45964" lon="5.92363">
        <ele>1835.77</ele>
        <time>2013-08-24T08:34:40Z</time>
      </trkpt>
      <trkpt lat="45.45964" lon="5.92363">
        <ele>1835.77</ele>
        <time>2013-08-24T08:34:44Z</time>
      </trkpt>
      <trkpt lat="45.45961" lon="5.92364">
        <ele>1836.26</ele>
        <time>2013-08-24T08:34:48Z</time>
      </trkpt>
      <trkpt lat="45.45958" lon="5.92364">
        <ele>1837.22</ele>
        <time>2013-08-24T08:34:52Z</time>
      </trkpt>
      <trkpt lat="45.45955" lon="5.92366">
        <ele>1838.18</ele>
        <time>2013-08-24T08:34:56Z</time>
      </trkpt>
      <trkpt lat="45.45949" lon="5.92367">
        <ele>1839.14</ele>
        <time>2013-08-24T08:35:00Z</time>
      </trkpt>
      <trkpt lat="45.45944" lon="5.92368">
        <ele>1839.62</ele>
        <time>2013-08-24T08:35:04Z</time>
      </trkpt>
      <trkpt lat="45.45939" lon="5.9237">
        <ele>1840.58</ele>
        <time>2013-08-24T08:35:08Z</time>
      </trkpt>
      <trkpt lat="45.45935" lon="5.92372">
        <ele>1841.54</ele>
        <time>2013-08-24T08:35:12Z</time>
      </trkpt>
      <trkpt lat="45.45933" lon="5.92373">
        <ele>1841.54</ele>
        <time>2013-08-24T08:35:16Z</time>
      </trkpt>
      <trkpt lat="45.45931" lon="5.92372">
        <ele>1842.02</ele>
        <time>2013-08-24T08:35:20Z</time>
      </trkpt>
      <trkpt lat="45.45931" lon="5.92371">
        <ele>1842.02</ele>
        <time>2013-08-24T08:35:24Z</time>
      </trkpt>
      <trkpt lat="45.4593" lon="5.9237">
        <ele>1842.5</ele>
        <time>2013-08-24T08:35:28Z</time>
      </trkpt>
      <trkpt lat="45.4593" lon="5.9237">
        <ele>1842.5</ele>
        <time>2013-08-24T08:35:32Z</time>
      </trkpt>
      <trkpt lat="45.45929" lon="5.9237">
        <ele>1842.5</ele>
        <time>2013-08-24T08:35:36Z</time>
      </trkpt>
      <trkpt lat="45.45929" lon="5.92369">
        <ele>1842.98</ele>
        <time>2013-08-24T08:35:40Z</time>
      </trkpt>
      <trkpt lat="45.45928" lon="5.92369">
        <ele>1843.47</ele>
        <time>2013-08-24T08:35:44Z</time>
      </trkpt>
      <trkpt lat="45.45928" lon="5.92369">
        <ele>1843.47</ele>
        <time>2013-08-24T08:35:48Z</time>
      </trkpt>
      <trkpt lat="45.45927" lon="5.9237">
        <ele>1842.98</ele>
        <time>2013-08-24T08:35:52Z</time>
      </trkpt>
      <trkpt lat="45.45927" lon="5.9237">
        <ele>1842.98</ele>
        <time>2013-08-24T08:35:56Z</time>
      </trkpt>
      <trkpt lat="45.45927" lon="5.92371">
        <ele>1842.02</ele>
        <time>2013-08-24T08:36:00Z</time>
      </trkpt>
      <trkpt lat="45.45927" lon="5.92372">
        <ele>1841.54</ele>
        <time>2013-08-24T08:36:04Z</time>
      </trkpt>
      <trkpt lat="45.45928" lon="5.92373">
        <ele>1841.06</ele>
        <time>2013-08-24T08:36:08Z</time>
      </trkpt>
      <trkpt lat="45.45928" lon="5.92374">
        <ele>1841.06</ele>
        <time>2013-08-24T08:36:12Z</time>
      </trkpt>
      <trkpt lat="45.45928" lon="5.92375">
        <ele>1840.58</ele>
        <time>2013-08-24T08:36:16Z</time>
      </trkpt>
      <trkpt lat="45.45927" lon="5.92374">
        <ele>1840.1</ele>
        <time>2013-08-24T08:36:20Z</time>
      </trkpt>
      <trkpt lat="45.45927" lon="5.92374">
        <ele>1840.1</ele>
        <time>2013-08-24T08:36:24Z</time>
      </trkpt>
      <trkpt lat="45.45927" lon="5.92373">
        <ele>1840.1</ele>
        <time>2013-08-24T08:36:28Z</time>
      </trkpt>
      <trkpt lat="45.45926" lon="5.92373">
        <ele>1840.58</ele>
        <time>2013-08-24T08:36:32Z</time>
      </trkpt>
      <trkpt lat="45.45926" lon="5.92372">
        <ele>1840.58</ele>
        <time>2013-08-24T08:36:36Z</time>
      </trkpt>
      <trkpt lat="45.45925" lon="5.92372">
        <ele>1840.58</ele>
        <time>2013-08-24T08:36:40Z</time>
      </trkpt>
      <trkpt lat="45.45926" lon="5.92372">
        <ele>1840.1</ele>
        <time>2013-08-24T08:36:44Z</time>
      </trkpt>
      <trkpt lat="45.45926" lon="5.92371">
        <ele>1840.1</ele>
        <time>2013-08-24T08:36:48Z</time>
      </trkpt>
      <trkpt lat="45.45926" lon="5.92372">
        <ele>1840.1</ele>
        <time>2013-08-24T08:36:52Z</time>
      </trkpt>
      <trkpt lat="45.45926" lon="5.92372">
        <ele>1839.14</ele>
        <time>2013-08-24T08:36:56Z</time>
      </trkpt>
      <trkpt lat="45.45925" lon="5.92374">
        <ele>1840.1</ele>
        <time>2013-08-24T08:37:00Z</time>
      </trkpt>
      <trkpt lat="45.45922" lon="5.92378">
        <ele>1842.02</ele>
        <time>2013-08-24T08:37:04Z</time>
      </trkpt>
      <trkpt lat="45.45922" lon="5.9238">
        <ele>1843.47</ele>
        <time>2013-08-24T08:37:08Z</time>
      </trkpt>
      <trkpt lat="45.4592" lon="5.92378">
        <ele>1844.43</ele>
        <time>2013-08-24T08:37:12Z</time>
      </trkpt>
      <trkpt lat="45.45918" lon="5.92382">
        <ele>1844.91</ele>
        <time>2013-08-24T08:37:16Z</time>
      </trkpt>
      <trkpt lat="45.45917" lon="5.92383">
        <ele>1845.39</ele>
        <time>2013-08-24T08:37:20Z</time>
      </trkpt>
      <trkpt lat="45.45915" lon="5.92384">
        <ele>1845.87</ele>
        <time>2013-08-24T08:37:24Z</time>
      </trkpt>
      <trkpt lat="45.45914" lon="5.92386">
        <ele>1846.83</ele>
        <time>2013-08-24T08:37:28Z</time>
      </trkpt>
      <trkpt lat="45.45912" lon="5.92386">
        <ele>1848.27</ele>
        <time>2013-08-24T08:37:32Z</time>
      </trkpt>
      <trkpt lat="45.4591" lon="5.92386">
        <ele>1849.71</ele>
        <time>2013-08-24T08:37:36Z</time>
      </trkpt>
      <trkpt lat="45.45908" lon="5.92387">
        <ele>1849.71</ele>
        <time>2013-08-24T08:37:40Z</time>
      </trkpt>
      <trkpt lat="45.45908" lon="5.92387">
        <ele>1851.16</ele>
        <time>2013-08-24T08:37:44Z</time>
      </trkpt>
      <trkpt lat="45.45907" lon="5.92387">
        <ele>1852.12</ele>
        <time>2013-08-24T08:37:48Z</time>
      </trkpt>
      <trkpt lat="45.45907" lon="5.92386">
        <ele>1853.08</ele>
        <time>2013-08-24T08:37:52Z</time>
      </trkpt>
      <trkpt lat="45.45906" lon="5.92386">
        <ele>1854.52</ele>
        <time>2013-08-24T08:37:56Z</time>
      </trkpt>
      <trkpt lat="45.45905" lon="5.92386">
        <ele>1855.48</ele>
        <time>2013-08-24T08:38:00Z</time>
      </trkpt>
      <trkpt lat="45.45903" lon="5.92387">
        <ele>1855.48</ele>
        <time>2013-08-24T08:38:04Z</time>
      </trkpt>
      <trkpt lat="45.45902" lon="5.92387">
        <ele>1855</ele>
        <time>2013-08-24T08:38:08Z</time>
      </trkpt>
      <trkpt lat="45.45901" lon="5.92387">
        <ele>1855.48</ele>
        <time>2013-08-24T08:38:12Z</time>
      </trkpt>
      <trkpt lat="45.45901" lon="5.92386">
        <ele>1856.92</ele>
        <time>2013-08-24T08:38:16Z</time>
      </trkpt>
      <trkpt lat="45.459" lon="5.92388">
        <ele>1857.89</ele>
        <time>2013-08-24T08:38:20Z</time>
      </trkpt>
      <trkpt lat="45.45901" lon="5.9239">
        <ele>1859.33</ele>
        <time>2013-08-24T08:38:24Z</time>
      </trkpt>
      <trkpt lat="45.459" lon="5.92392">
        <ele>1861.25</ele>
        <time>2013-08-24T08:38:28Z</time>
      </trkpt>
      <trkpt lat="45.45899" lon="5.92392">
        <ele>1862.21</ele>
        <time>2013-08-24T08:38:32Z</time>
      </trkpt>
      <trkpt lat="45.45898" lon="5.92393">
        <ele>1862.69</ele>
        <time>2013-08-24T08:38:36Z</time>
      </trkpt>
      <trkpt lat="45.45896" lon="5.92393">
        <ele>1863.17</ele>
        <time>2013-08-24T08:38:40Z</time>
      </trkpt>
      <trkpt lat="45.45895" lon="5.92394">
        <ele>1863.65</ele>
        <time>2013-08-24T08:38:44Z</time>
      </trkpt>
      <trkpt lat="45.45895" lon="5.92394">
        <ele>1864.13</ele>
        <time>2013-08-24T08:38:48Z</time>
      </trkpt>
      <trkpt lat="45.45895" lon="5.92394">
        <ele>1864.13</ele>
        <time>2013-08-24T08:38:52Z</time>
      </trkpt>
      <trkpt lat="45.45894" lon="5.92394">
        <ele>1864.61</ele>
        <time>2013-08-24T08:38:56Z</time>
      </trkpt>
      <trkpt lat="45.45894" lon="5.92394">
        <ele>1865.09</ele>
        <time>2013-08-24T08:39:00Z</time>
      </trkpt>
      <trkpt lat="45.45893" lon="5.92394">
        <ele>1865.58</ele>
        <time>2013-08-24T08:39:04Z</time>
      </trkpt>
      <trkpt lat="45.45892" lon="5.92396">
        <ele>1866.06</ele>
        <time>2013-08-24T08:39:08Z</time>
      </trkpt>
      <trkpt lat="45.45892" lon="5.92397">
        <ele>1866.06</ele>
        <time>2013-08-24T08:39:12Z</time>
      </trkpt>
      <trkpt lat="45.45891" lon="5.92398">
        <ele>1867.02</ele>
        <time>2013-08-24T08:39:16Z</time>
      </trkpt>
      <trkpt lat="45.45891" lon="5.92397">
        <ele>1867.02</ele>
        <time>2013-08-24T08:39:20Z</time>
      </trkpt>
      <trkpt lat="45.45891" lon="5.92398">
        <ele>1867.02</ele>
        <time>2013-08-24T08:39:24Z</time>
      </trkpt>
      <trkpt lat="45.4589" lon="5.92396">
        <ele>1866.54</ele>
        <time>2013-08-24T08:39:28Z</time>
      </trkpt>
      <trkpt lat="45.45889" lon="5.92397">
        <ele>1866.06</ele>
        <time>2013-08-24T08:39:32Z</time>
      </trkpt>
      <trkpt lat="45.45889" lon="5.92397">
        <ele>1866.54</ele>
        <time>2013-08-24T08:39:36Z</time>
      </trkpt>
      <trkpt lat="45.4589" lon="5.92399">
        <ele>1867.98</ele>
        <time>2013-08-24T08:39:40Z</time>
      </trkpt>
      <trkpt lat="45.4589" lon="5.924">
        <ele>1868.94</ele>
        <time>2013-08-24T08:39:44Z</time>
      </trkpt>
      <trkpt lat="45.45892" lon="5.92402">
        <ele>1870.86</ele>
        <time>2013-08-24T08:39:48Z</time>
      </trkpt>
      <trkpt lat="45.45892" lon="5.92403">
        <ele>1871.34</ele>
        <time>2013-08-24T08:39:52Z</time>
      </trkpt>
      <trkpt lat="45.45892" lon="5.92404">
        <ele>1871.82</ele>
        <time>2013-08-24T08:39:56Z</time>
      </trkpt>
      <trkpt lat="45.45893" lon="5.92406">
        <ele>1872.79</ele>
        <time>2013-08-24T08:40:00Z</time>
      </trkpt>
      <trkpt lat="45.45895" lon="5.92406">
        <ele>1873.27</ele>
        <time>2013-08-24T08:40:04Z</time>
      </trkpt>
      <trkpt lat="45.45898" lon="5.92409">
        <ele>1873.75</ele>
        <time>2013-08-24T08:40:08Z</time>
      </trkpt>
      <trkpt lat="45.459" lon="5.92412">
        <ele>1874.71</ele>
        <time>2013-08-24T08:40:12Z</time>
      </trkpt>
      <trkpt lat="45.45902" lon="5.92417">
        <ele>1875.67</ele>
        <time>2013-08-24T08:40:16Z</time>
      </trkpt>
      <trkpt lat="45.45904" lon="5.9242">
        <ele>1876.63</ele>
        <time>2013-08-24T08:40:20Z</time>
      </trkpt>
      <trkpt lat="45.45907" lon="5.92422">
        <ele>1879.03</ele>
        <time>2013-08-24T08:40:24Z</time>
      </trkpt>
      <trkpt lat="45.45911" lon="5.92422">
        <ele>1881.44</ele>
        <time>2013-08-24T08:40:28Z</time>
      </trkpt>
      <trkpt lat="45.45915" lon="5.92422">
        <ele>1882.4</ele>
        <time>2013-08-24T08:40:32Z</time>
      </trkpt>
      <trkpt lat="45.45917" lon="5.92423">
        <ele>1881.44</ele>
        <time>2013-08-24T08:40:36Z</time>
      </trkpt>
      <trkpt lat="45.45919" lon="5.92424">
        <ele>1880</ele>
        <time>2013-08-24T08:40:40Z</time>
      </trkpt>
      <trkpt lat="45.45919" lon="5.92424">
        <ele>1879.03</ele>
        <time>2013-08-24T08:40:44Z</time>
      </trkpt>
      <trkpt lat="45.4592" lon="5.92425">
        <ele>1878.07</ele>
        <time>2013-08-24T08:40:48Z</time>
      </trkpt>
      <trkpt lat="45.45921" lon="5.92425">
        <ele>1876.63</ele>
        <time>2013-08-24T08:40:52Z</time>
      </trkpt>
      <trkpt lat="45.45921" lon="5.92426">
        <ele>1875.67</ele>
        <time>2013-08-24T08:40:56Z</time>
      </trkpt>
      <trkpt lat="45.45921" lon="5.92426">
        <ele>1874.71</ele>
        <time>2013-08-24T08:41:00Z</time>
      </trkpt>
      <trkpt lat="45.45922" lon="5.92427">
        <ele>1874.71</ele>
        <time>2013-08-24T08:41:04Z</time>
      </trkpt>
      <trkpt lat="45.45926" lon="5.92426">
        <ele>1877.11</ele>
        <time>2013-08-24T08:41:08Z</time>
      </trkpt>
      <trkpt lat="45.45931" lon="5.92424">
        <ele>1880.48</ele>
        <time>2013-08-24T08:41:12Z</time>
      </trkpt>
      <trkpt lat="45.45935" lon="5.92422">
        <ele>1882.88</ele>
        <time>2013-08-24T08:41:16Z</time>
      </trkpt>
      <trkpt lat="45.45937" lon="5.9242">
        <ele>1884.8</ele>
        <time>2013-08-24T08:41:20Z</time>
      </trkpt>
      <trkpt lat="45.45937" lon="5.9242">
        <ele>1884.8</ele>
        <time>2013-08-24T08:41:24Z</time>
      </trkpt>
      <trkpt lat="45.45937" lon="5.92419">
        <ele>1885.28</ele>
        <time>2013-08-24T08:41:28Z</time>
      </trkpt>
      <trkpt lat="45.45935" lon="5.92421">
        <ele>1885.28</ele>
        <time>2013-08-24T08:41:32Z</time>
      </trkpt>
      <trkpt lat="45.45939" lon="5.92422">
        <ele>1886.24</ele>
        <time>2013-08-24T08:41:36Z</time>
      </trkpt>
      <trkpt lat="45.45945" lon="5.92425">
        <ele>1885.76</ele>
        <time>2013-08-24T08:41:40Z</time>
      </trkpt>
      <trkpt lat="45.4595" lon="5.92427">
        <ele>1885.28</ele>
        <time>2013-08-24T08:41:44Z</time>
      </trkpt>
      <trkpt lat="45.45954" lon="5.92432">
        <ele>1885.28</ele>
        <time>2013-08-24T08:41:48Z</time>
      </trkpt>
      <trkpt lat="45.45958" lon="5.92435">
        <ele>1885.76</ele>
        <time>2013-08-24T08:41:52Z</time>
      </trkpt>
      <trkpt lat="45.45962" lon="5.92439">
        <ele>1886.24</ele>
        <time>2013-08-24T08:41:56Z</time>
      </trkpt>
      <trkpt lat="45.45966" lon="5.92441">
        <ele>1886.72</ele>
        <time>2013-08-24T08:42:00Z</time>
      </trkpt>
      <trkpt lat="45.4597" lon="5.92443">
        <ele>1887.69</ele>
        <time>2013-08-24T08:42:04Z</time>
      </trkpt>
      <trkpt lat="45.45974" lon="5.92444">
        <ele>1888.65</ele>
        <time>2013-08-24T08:42:08Z</time>
      </trkpt>
      <trkpt lat="45.45978" lon="5.92443">
        <ele>1890.57</ele>
        <time>2013-08-24T08:42:12Z</time>
      </trkpt>
      <trkpt lat="45.45982" lon="5.92439">
        <ele>1892.49</ele>
        <time>2013-08-24T08:42:16Z</time>
      </trkpt>
      <trkpt lat="45.45985" lon="5.92437">
        <ele>1893.45</ele>
        <time>2013-08-24T08:42:20Z</time>
      </trkpt>
      <trkpt lat="45.45989" lon="5.92434">
        <ele>1893.93</ele>
        <time>2013-08-24T08:42:24Z</time>
      </trkpt>
      <trkpt lat="45.4599" lon="5.92431">
        <ele>1894.42</ele>
        <time>2013-08-24T08:42:28Z</time>
      </trkpt>
      <trkpt lat="45.45993" lon="5.9243">
        <ele>1894.42</ele>
        <time>2013-08-24T08:42:32Z</time>
      </trkpt>
      <trkpt lat="45.45997" lon="5.92426">
        <ele>1894.42</ele>
        <time>2013-08-24T08:42:36Z</time>
      </trkpt>
      <trkpt lat="45.46001" lon="5.92422">
        <ele>1894.42</ele>
        <time>2013-08-24T08:42:40Z</time>
      </trkpt>
      <trkpt lat="45.46004" lon="5.92421">
        <ele>1893.93</ele>
        <time>2013-08-24T08:42:44Z</time>
      </trkpt>
      <trkpt lat="45.46005" lon="5.92421">
        <ele>1893.45</ele>
        <time>2013-08-24T08:42:48Z</time>
      </trkpt>
      <trkpt lat="45.46006" lon="5.92422">
        <ele>1892.97</ele>
        <time>2013-08-24T08:42:52Z</time>
      </trkpt>
      <trkpt lat="45.46008" lon="5.92424">
        <ele>1891.05</ele>
        <time>2013-08-24T08:42:56Z</time>
      </trkpt>
      <trkpt lat="45.46008" lon="5.92425">
        <ele>1890.09</ele>
        <time>2013-08-24T08:43:00Z</time>
      </trkpt>
      <trkpt lat="45.4601" lon="5.92428">
        <ele>1890.09</ele>
        <time>2013-08-24T08:43:04Z</time>
      </trkpt>
      <trkpt lat="45.46011" lon="5.92432">
        <ele>1890.09</ele>
        <time>2013-08-24T08:43:08Z</time>
      </trkpt>
      <trkpt lat="45.46011" lon="5.92434">
        <ele>1890.09</ele>
        <time>2013-08-24T08:43:12Z</time>
      </trkpt>
      <trkpt lat="45.4601" lon="5.92437">
        <ele>1890.09</ele>
        <time>2013-08-24T08:43:16Z</time>
      </trkpt>
      <trkpt lat="45.46007" lon="5.9244">
        <ele>1891.05</ele>
        <time>2013-08-24T08:43:20Z</time>
      </trkpt>
      <trkpt lat="45.46006" lon="5.92443">
        <ele>1892.01</ele>
        <time>2013-08-24T08:43:24Z</time>
      </trkpt>
      <trkpt lat="45.46006" lon="5.92447">
        <ele>1893.45</ele>
        <time>2013-08-24T08:43:28Z</time>
      </trkpt>
      <trkpt lat="45.46007" lon="5.92452">
        <ele>1894.42</ele>
        <time>2013-08-24T08:43:32Z</time>
      </trkpt>
      <trkpt lat="45.46007" lon="5.92452">
        <ele>1895.38</ele>
        <time>2013-08-24T08:43:36Z</time>
      </trkpt>
      <trkpt lat="45.46007" lon="5.92454">
        <ele>1895.38</ele>
        <time>2013-08-24T08:43:40Z</time>
      </trkpt>
      <trkpt lat="45.46007" lon="5.92454">
        <ele>1895.38</ele>
        <time>2013-08-24T08:43:44Z</time>
      </trkpt>
      <trkpt lat="45.46007" lon="5.92454">
        <ele>1894.42</ele>
        <time>2013-08-24T08:43:48Z</time>
      </trkpt>
      <trkpt lat="45.46008" lon="5.92454">
        <ele>1894.42</ele>
        <time>2013-08-24T08:43:52Z</time>
      </trkpt>
      <trkpt lat="45.46008" lon="5.92455">
        <ele>1893.93</ele>
        <time>2013-08-24T08:43:56Z</time>
      </trkpt>
      <trkpt lat="45.46008" lon="5.92455">
        <ele>1893.45</ele>
        <time>2013-08-24T08:44:00Z</time>
      </trkpt>
      <trkpt lat="45.46009" lon="5.92456">
        <ele>1893.45</ele>
        <time>2013-08-24T08:44:04Z</time>
      </trkpt>
      <trkpt lat="45.46009" lon="5.92456">
        <ele>1892.97</ele>
        <time>2013-08-24T08:44:08Z</time>
      </trkpt>
      <trkpt lat="45.46009" lon="5.92456">
        <ele>1892.97</ele>
        <time>2013-08-24T08:44:12Z</time>
      </trkpt>
      <trkpt lat="45.46009" lon="5.92456">
        <ele>1892.49</ele>
        <time>2013-08-24T08:44:16Z</time>
      </trkpt>
      <trkpt lat="45.46008" lon="5.92456">
        <ele>1892.01</ele>
        <time>2013-08-24T08:44:20Z</time>
      </trkpt>
      <trkpt lat="45.46009" lon="5.92456">
        <ele>1892.01</ele>
        <time>2013-08-24T08:44:24Z</time>
      </trkpt>
      <trkpt lat="45.46011" lon="5.92452">
        <ele>1892.01</ele>
        <time>2013-08-24T08:44:28Z</time>
      </trkpt>
      <trkpt lat="45.46015" lon="5.92452">
        <ele>1892.97</ele>
        <time>2013-08-24T08:44:32Z</time>
      </trkpt>
      <trkpt lat="45.46018" lon="5.92448">
        <ele>1893.93</ele>
        <time>2013-08-24T08:44:36Z</time>
      </trkpt>
      <trkpt lat="45.46026" lon="5.92443">
        <ele>1895.38</ele>
        <time>2013-08-24T08:44:40Z</time>
      </trkpt>
      <trkpt lat="45.46037" lon="5.92439">
        <ele>1896.82</ele>
        <time>2013-08-24T08:44:44Z</time>
      </trkpt>
      <trkpt lat="45.46049" lon="5.92437">
        <ele>1898.26</ele>
        <time>2013-08-24T08:44:48Z</time>
      </trkpt>
      <trkpt lat="45.46054" lon="5.9244">
        <ele>1898.74</ele>
        <time>2013-08-24T08:44:52Z</time>
      </trkpt>
      <trkpt lat="45.46055" lon="5.92439">
        <ele>1898.26</ele>
        <time>2013-08-24T08:44:56Z</time>
      </trkpt>
      <trkpt lat="45.46057" lon="5.92438">
        <ele>1897.78</ele>
        <time>2013-08-24T08:45:00Z</time>
      </trkpt>
      <trkpt lat="45.46061" lon="5.92439">
        <ele>1896.34</ele>
        <time>2013-08-24T08:45:04Z</time>
      </trkpt>
      <trkpt lat="45.46065" lon="5.92442">
        <ele>1895.38</ele>
        <time>2013-08-24T08:45:08Z</time>
      </trkpt>
      <trkpt lat="45.4607" lon="5.92443">
        <ele>1895.86</ele>
        <time>2013-08-24T08:45:12Z</time>
      </trkpt>
      <trkpt lat="45.46076" lon="5.92441">
        <ele>1896.34</ele>
        <time>2013-08-24T08:45:16Z</time>
      </trkpt>
      <trkpt lat="45.4608" lon="5.92443">
        <ele>1896.34</ele>
        <time>2013-08-24T08:45:20Z</time>
      </trkpt>
      <trkpt lat="45.46085" lon="5.92446">
        <ele>1894.42</ele>
        <time>2013-08-24T08:45:24Z</time>
      </trkpt>
      <trkpt lat="45.46091" lon="5.92448">
        <ele>1892.97</ele>
        <time>2013-08-24T08:45:28Z</time>
      </trkpt>
      <trkpt lat="45.46097" lon="5.9245">
        <ele>1892.01</ele>
        <time>2013-08-24T08:45:32Z</time>
      </trkpt>
      <trkpt lat="45.46102" lon="5.92452">
        <ele>1890.57</ele>
        <time>2013-08-24T08:45:36Z</time>
      </trkpt>
      <trkpt lat="45.46108" lon="5.92454">
        <ele>1890.09</ele>
        <time>2013-08-24T08:45:40Z</time>
      </trkpt>
      <trkpt lat="45.46113" lon="5.92457">
        <ele>1890.09</ele>
        <time>2013-08-24T08:45:44Z</time>
      </trkpt>
      <trkpt lat="45.46119" lon="5.92458">
        <ele>1889.61</ele>
        <time>2013-08-24T08:45:48Z</time>
      </trkpt>
      <trkpt lat="45.46124" lon="5.9246">
        <ele>1890.09</ele>
        <time>2013-08-24T08:45:52Z</time>
      </trkpt>
      <trkpt lat="45.4613" lon="5.92461">
        <ele>1890.09</ele>
        <time>2013-08-24T08:45:56Z</time>
      </trkpt>
      <trkpt lat="45.46136" lon="5.92463">
        <ele>1890.09</ele>
        <time>2013-08-24T08:46:00Z</time>
      </trkpt>
      <trkpt lat="45.46142" lon="5.92467">
        <ele>1891.05</ele>
        <time>2013-08-24T08:46:04Z</time>
      </trkpt>
      <trkpt lat="45.46147" lon="5.92469">
        <ele>1892.49</ele>
        <time>2013-08-24T08:46:08Z</time>
      </trkpt>
      <trkpt lat="45.46152" lon="5.92471">
        <ele>1892.97</ele>
        <time>2013-08-24T08:46:12Z</time>
      </trkpt>
      <trkpt lat="45.46159" lon="5.92471">
        <ele>1893.45</ele>
        <time>2013-08-24T08:46:16Z</time>
      </trkpt>
      <trkpt lat="45.46164" lon="5.92473">
        <ele>1893.45</ele>
        <time>2013-08-24T08:46:20Z</time>
      </trkpt>
      <trkpt lat="45.4617" lon="5.92474">
        <ele>1893.45</ele>
        <time>2013-08-24T08:46:24Z</time>
      </trkpt>
      <trkpt lat="45.46175" lon="5.92473">
        <ele>1892.97</ele>
        <time>2013-08-24T08:46:28Z</time>
      </trkpt>
      <trkpt lat="45.46181" lon="5.92474">
        <ele>1892.01</ele>
        <time>2013-08-24T08:46:32Z</time>
      </trkpt>
      <trkpt lat="45.46188" lon="5.92475">
        <ele>1890.57</ele>
        <time>2013-08-24T08:46:36Z</time>
      </trkpt>
      <trkpt lat="45.46194" lon="5.92477">
        <ele>1889.13</ele>
        <time>2013-08-24T08:46:40Z</time>
      </trkpt>
      <trkpt lat="45.462" lon="5.92478">
        <ele>1888.17</ele>
        <time>2013-08-24T08:46:44Z</time>
      </trkpt>
      <trkpt lat="45.46206" lon="5.92479">
        <ele>1887.69</ele>
        <time>2013-08-24T08:46:48Z</time>
      </trkpt>
      <trkpt lat="45.46212" lon="5.92478">
        <ele>1887.21</ele>
        <time>2013-08-24T08:46:52Z</time>
      </trkpt>
      <trkpt lat="45.46219" lon="5.92478">
        <ele>1886.72</ele>
        <time>2013-08-24T08:46:56Z</time>
      </trkpt>
      <trkpt lat="45.46225" lon="5.9248">
        <ele>1886.24</ele>
        <time>2013-08-24T08:47:00Z</time>
      </trkpt>
      <trkpt lat="45.46231" lon="5.92481">
        <ele>1884.8</ele>
        <time>2013-08-24T08:47:04Z</time>
      </trkpt>
      <trkpt lat="45.46238" lon="5.9248">
        <ele>1883.84</ele>
        <time>2013-08-24T08:47:08Z</time>
      </trkpt>
      <trkpt lat="45.46245" lon="5.92482">
        <ele>1883.84</ele>
        <time>2013-08-24T08:47:12Z</time>
      </trkpt>
      <trkpt lat="45.46252" lon="5.92485">
        <ele>1883.84</ele>
        <time>2013-08-24T08:47:16Z</time>
      </trkpt>
      <trkpt lat="45.46258" lon="5.92489">
        <ele>1884.32</ele>
        <time>2013-08-24T08:47:20Z</time>
      </trkpt>
      <trkpt lat="45.46264" lon="5.92493">
        <ele>1884.32</ele>
        <time>2013-08-24T08:47:24Z</time>
      </trkpt>
      <trkpt lat="45.4627" lon="5.92496">
        <ele>1884.8</ele>
        <time>2013-08-24T08:47:28Z</time>
      </trkpt>
      <trkpt lat="45.46276" lon="5.92498">
        <ele>1885.28</ele>
        <time>2013-08-24T08:47:32Z</time>
      </trkpt>
      <trkpt lat="45.46282" lon="5.92501">
        <ele>1885.76</ele>
        <time>2013-08-24T08:47:36Z</time>
      </trkpt>
      <trkpt lat="45.46288" lon="5.92504">
        <ele>1885.76</ele>
        <time>2013-08-24T08:47:40Z</time>
      </trkpt>
      <trkpt lat="45.46294" lon="5.92508">
        <ele>1886.72</ele>
        <time>2013-08-24T08:47:44Z</time>
      </trkpt>
      <trkpt lat="45.46301" lon="5.92509">
        <ele>1887.21</ele>
        <time>2013-08-24T08:47:48Z</time>
      </trkpt>
      <trkpt lat="45.46307" lon="5.9251">
        <ele>1888.65</ele>
        <time>2013-08-24T08:47:52Z</time>
      </trkpt>
      <trkpt lat="45.46313" lon="5.92514">
        <ele>1888.65</ele>
        <time>2013-08-24T08:47:56Z</time>
      </trkpt>
      <trkpt lat="45.46319" lon="5.92517">
        <ele>1888.65</ele>
        <time>2013-08-24T08:48:00Z</time>
      </trkpt>
      <trkpt lat="45.46325" lon="5.9252">
        <ele>1888.65</ele>
        <time>2013-08-24T08:48:04Z</time>
      </trkpt>
      <trkpt lat="45.46331" lon="5.92522">
        <ele>1889.61</ele>
        <time>2013-08-24T08:48:08Z</time>
      </trkpt>
      <trkpt lat="45.46335" lon="5.92527">
        <ele>1890.57</ele>
        <time>2013-08-24T08:48:12Z</time>
      </trkpt>
      <trkpt lat="45.46339" lon="5.92532">
        <ele>1892.01</ele>
        <time>2013-08-24T08:48:16Z</time>
      </trkpt>
      <trkpt lat="45.46345" lon="5.92536">
        <ele>1892.49</ele>
        <time>2013-08-24T08:48:20Z</time>
      </trkpt>
      <trkpt lat="45.4635" lon="5.92541">
        <ele>1892.97</ele>
        <time>2013-08-24T08:48:24Z</time>
      </trkpt>
      <trkpt lat="45.46354" lon="5.92547">
        <ele>1893.45</ele>
        <time>2013-08-24T08:48:28Z</time>
      </trkpt>
      <trkpt lat="45.46358" lon="5.92554">
        <ele>1893.93</ele>
        <time>2013-08-24T08:48:32Z</time>
      </trkpt>
      <trkpt lat="45.46362" lon="5.92559">
        <ele>1894.42</ele>
        <time>2013-08-24T08:48:36Z</time>
      </trkpt>
      <trkpt lat="45.46366" lon="5.92564">
        <ele>1895.86</ele>
        <time>2013-08-24T08:48:40Z</time>
      </trkpt>
      <trkpt lat="45.46371" lon="5.92567">
        <ele>1896.82</ele>
        <time>2013-08-24T08:48:44Z</time>
      </trkpt>
      <trkpt lat="45.46375" lon="5.9257">
        <ele>1897.78</ele>
        <time>2013-08-24T08:48:48Z</time>
      </trkpt>
      <trkpt lat="45.4638" lon="5.9257">
        <ele>1899.22</ele>
        <time>2013-08-24T08:48:52Z</time>
      </trkpt>
      <trkpt lat="45.46381" lon="5.92571">
        <ele>1900.66</ele>
        <time>2013-08-24T08:48:56Z</time>
      </trkpt>
      <trkpt lat="45.46381" lon="5.92572">
        <ele>1901.63</ele>
        <time>2013-08-24T08:49:00Z</time>
      </trkpt>
      <trkpt lat="45.46381" lon="5.92572">
        <ele>1902.11</ele>
        <time>2013-08-24T08:49:04Z</time>
      </trkpt>
      <trkpt lat="45.46381" lon="5.92571">
        <ele>1902.59</ele>
        <time>2013-08-24T08:49:08Z</time>
      </trkpt>
      <trkpt lat="45.46381" lon="5.92572">
        <ele>1903.07</ele>
        <time>2013-08-24T08:49:12Z</time>
      </trkpt>
      <trkpt lat="45.46381" lon="5.92572">
        <ele>1902.59</ele>
        <time>2013-08-24T08:49:16Z</time>
      </trkpt>
      <trkpt lat="45.46381" lon="5.92572">
        <ele>1903.07</ele>
        <time>2013-08-24T08:49:20Z</time>
      </trkpt>
      <trkpt lat="45.46384" lon="5.92572">
        <ele>1903.55</ele>
        <time>2013-08-24T08:49:23Z</time>
      </trkpt>
      <trkpt lat="45.46388" lon="5.92571">
        <ele>1904.99</ele>
        <time>2013-08-24T08:49:28Z</time>
      </trkpt>
      <trkpt lat="45.46392" lon="5.92569">
        <ele>1906.91</ele>
        <time>2013-08-24T08:49:32Z</time>
      </trkpt>
      <trkpt lat="45.46395" lon="5.92568">
        <ele>1908.83</ele>
        <time>2013-08-24T08:49:36Z</time>
      </trkpt>
      <trkpt lat="45.46399" lon="5.92568">
        <ele>1910.28</ele>
        <time>2013-08-24T08:49:40Z</time>
      </trkpt>
      <trkpt lat="45.46404" lon="5.92567">
        <ele>1911.72</ele>
        <time>2013-08-24T08:49:44Z</time>
      </trkpt>
      <trkpt lat="45.46407" lon="5.92564">
        <ele>1913.16</ele>
        <time>2013-08-24T08:49:48Z</time>
      </trkpt>
      <trkpt lat="45.46408" lon="5.92559">
        <ele>1914.6</ele>
        <time>2013-08-24T08:49:52Z</time>
      </trkpt>
      <trkpt lat="45.46411" lon="5.92556">
        <ele>1916.04</ele>
        <time>2013-08-24T08:49:56Z</time>
      </trkpt>
      <trkpt lat="45.46415" lon="5.92553">
        <ele>1916.53</ele>
        <time>2013-08-24T08:50:00Z</time>
      </trkpt>
      <trkpt lat="45.46419" lon="5.9255">
        <ele>1917.49</ele>
        <time>2013-08-24T08:50:04Z</time>
      </trkpt>
      <trkpt lat="45.46421" lon="5.92548">
        <ele>1918.93</ele>
        <time>2013-08-24T08:50:08Z</time>
      </trkpt>
      <trkpt lat="45.46423" lon="5.92546">
        <ele>1919.41</ele>
        <time>2013-08-24T08:50:12Z</time>
      </trkpt>
      <trkpt lat="45.46425" lon="5.92543">
        <ele>1920.37</ele>
        <time>2013-08-24T08:50:16Z</time>
      </trkpt>
      <trkpt lat="45.46428" lon="5.9254">
        <ele>1921.33</ele>
        <time>2013-08-24T08:50:20Z</time>
      </trkpt>
      <trkpt lat="45.46431" lon="5.92538">
        <ele>1921.81</ele>
        <time>2013-08-24T08:50:23Z</time>
      </trkpt>
      <trkpt lat="45.46437" lon="5.92535">
        <ele>1922.77</ele>
        <time>2013-08-24T08:50:28Z</time>
      </trkpt>
      <trkpt lat="45.4644" lon="5.92534">
        <ele>1923.74</ele>
        <time>2013-08-24T08:50:32Z</time>
      </trkpt>
      <trkpt lat="45.46444" lon="5.92533">
        <ele>1924.22</ele>
        <time>2013-08-24T08:50:36Z</time>
      </trkpt>
      <trkpt lat="45.46448" lon="5.92531">
        <ele>1924.7</ele>
        <time>2013-08-24T08:50:40Z</time>
      </trkpt>
      <trkpt lat="45.46453" lon="5.92528">
        <ele>1924.7</ele>
        <time>2013-08-24T08:50:44Z</time>
      </trkpt>
      <trkpt lat="45.46457" lon="5.92524">
        <ele>1925.18</ele>
        <time>2013-08-24T08:50:48Z</time>
      </trkpt>
      <trkpt lat="45.46461" lon="5.92519">
        <ele>1925.66</ele>
        <time>2013-08-24T08:50:52Z</time>
      </trkpt>
      <trkpt lat="45.46464" lon="5.92516">
        <ele>1926.62</ele>
        <time>2013-08-24T08:50:56Z</time>
      </trkpt>
      <trkpt lat="45.46467" lon="5.92512">
        <ele>1927.58</ele>
        <time>2013-08-24T08:51:00Z</time>
      </trkpt>
      <trkpt lat="45.46469" lon="5.92509">
        <ele>1929.02</ele>
        <time>2013-08-24T08:51:04Z</time>
      </trkpt>
      <trkpt lat="45.46469" lon="5.92507">
        <ele>1929.98</ele>
        <time>2013-08-24T08:51:08Z</time>
      </trkpt>
      <trkpt lat="45.46469" lon="5.92507">
        <ele>1930.95</ele>
        <time>2013-08-24T08:51:12Z</time>
      </trkpt>
      <trkpt lat="45.46469" lon="5.92507">
        <ele>1930.95</ele>
        <time>2013-08-24T08:51:16Z</time>
      </trkpt>
      <trkpt lat="45.46469" lon="5.92507">
        <ele>1931.43</ele>
        <time>2013-08-24T08:51:20Z</time>
      </trkpt>
      <trkpt lat="45.46469" lon="5.92508">
        <ele>1931.43</ele>
        <time>2013-08-24T08:51:24Z</time>
      </trkpt>
      <trkpt lat="45.4647" lon="5.92508">
        <ele>1931.43</ele>
        <time>2013-08-24T08:51:28Z</time>
      </trkpt>
      <trkpt lat="45.4647" lon="5.92508">
        <ele>1932.39</ele>
        <time>2013-08-24T08:51:32Z</time>
      </trkpt>
      <trkpt lat="45.4647" lon="5.9251">
        <ele>1932.39</ele>
        <time>2013-08-24T08:51:36Z</time>
      </trkpt>
      <trkpt lat="45.46472" lon="5.92513">
        <ele>1931.43</ele>
        <time>2013-08-24T08:51:40Z</time>
      </trkpt>
      <trkpt lat="45.46475" lon="5.92512">
        <ele>1930.95</ele>
        <time>2013-08-24T08:51:44Z</time>
      </trkpt>
      <trkpt lat="45.46476" lon="5.92512">
        <ele>1929.98</ele>
        <time>2013-08-24T08:51:48Z</time>
      </trkpt>
      <trkpt lat="45.46476" lon="5.92512">
        <ele>1929.5</ele>
        <time>2013-08-24T08:51:52Z</time>
      </trkpt>
      <trkpt lat="45.46475" lon="5.92512">
        <ele>1929.02</ele>
        <time>2013-08-24T08:51:56Z</time>
      </trkpt>
      <trkpt lat="45.46475" lon="5.92512">
        <ele>1928.54</ele>
        <time>2013-08-24T08:52:00Z</time>
      </trkpt>
      <trkpt lat="45.46475" lon="5.92512">
        <ele>1928.06</ele>
        <time>2013-08-24T08:52:04Z</time>
      </trkpt>
      <trkpt lat="45.46475" lon="5.92512">
        <ele>1927.58</ele>
        <time>2013-08-24T08:52:08Z</time>
      </trkpt>
      <trkpt lat="45.46475" lon="5.92512">
        <ele>1927.58</ele>
        <time>2013-08-24T08:52:12Z</time>
      </trkpt>
      <trkpt lat="45.46475" lon="5.92512">
        <ele>1927.1</ele>
        <time>2013-08-24T08:52:16Z</time>
      </trkpt>
      <trkpt lat="45.46475" lon="5.92512">
        <ele>1926.62</ele>
        <time>2013-08-24T08:52:20Z</time>
      </trkpt>
      <trkpt lat="45.46475" lon="5.92512">
        <ele>1926.62</ele>
        <time>2013-08-24T08:52:24Z</time>
      </trkpt>
      <trkpt lat="45.46475" lon="5.92512">
        <ele>1926.62</ele>
        <time>2013-08-24T08:52:28Z</time>
      </trkpt>
      <trkpt lat="45.46475" lon="5.92512">
        <ele>1926.62</ele>
        <time>2013-08-24T08:52:32Z</time>
      </trkpt>
      <trkpt lat="45.46474" lon="5.9251">
        <ele>1926.62</ele>
        <time>2013-08-24T08:52:36Z</time>
      </trkpt>
      <trkpt lat="45.46471" lon="5.92509">
        <ele>1926.62</ele>
        <time>2013-08-24T08:52:40Z</time>
      </trkpt>
      <trkpt lat="45.46469" lon="5.92508">
        <ele>1927.1</ele>
        <time>2013-08-24T08:52:44Z</time>
      </trkpt>
      <trkpt lat="45.46468" lon="5.92507">
        <ele>1927.1</ele>
        <time>2013-08-24T08:52:48Z</time>
      </trkpt>
      <trkpt lat="45.46467" lon="5.92507">
        <ele>1927.58</ele>
        <time>2013-08-24T08:52:52Z</time>
      </trkpt>
      <trkpt lat="45.46467" lon="5.92507">
        <ele>1928.06</ele>
        <time>2013-08-24T08:52:56Z</time>
      </trkpt>
      <trkpt lat="45.46468" lon="5.92509">
        <ele>1928.54</ele>
        <time>2013-08-24T08:53:00Z</time>
      </trkpt>
      <trkpt lat="45.46469" lon="5.9251">
        <ele>1929.02</ele>
        <time>2013-08-24T08:53:04Z</time>
      </trkpt>
      <trkpt lat="45.46468" lon="5.92509">
        <ele>1929.5</ele>
        <time>2013-08-24T08:53:08Z</time>
      </trkpt>
      <trkpt lat="45.46468" lon="5.92508">
        <ele>1929.5</ele>
        <time>2013-08-24T08:53:12Z</time>
      </trkpt>
      <trkpt lat="45.46467" lon="5.92508">
        <ele>1929.98</ele>
        <time>2013-08-24T08:53:16Z</time>
      </trkpt>
      <trkpt lat="45.46468" lon="5.92508">
        <ele>1930.46</ele>
        <time>2013-08-24T08:53:20Z</time>
      </trkpt>
      <trkpt lat="45.46468" lon="5.92508">
        <ele>1930.46</ele>
        <time>2013-08-24T08:53:24Z</time>
      </trkpt>
      <trkpt lat="45.46468" lon="5.92509">
        <ele>1930.95</ele>
        <time>2013-08-24T08:53:28Z</time>
      </trkpt>
      <trkpt lat="45.46468" lon="5.92508">
        <ele>1930.95</ele>
        <time>2013-08-24T08:53:32Z</time>
      </trkpt>
      <trkpt lat="45.46468" lon="5.92507">
        <ele>1930.95</ele>
        <time>2013-08-24T08:53:36Z</time>
      </trkpt>
      <trkpt lat="45.46468" lon="5.92507">
        <ele>1929.98</ele>
        <time>2013-08-24T08:53:40Z</time>
      </trkpt>
      <trkpt lat="45.46468" lon="5.92506">
        <ele>1929.5</ele>
        <time>2013-08-24T08:53:44Z</time>
      </trkpt>
      <trkpt lat="45.46468" lon="5.92506">
        <ele>1929.02</ele>
        <time>2013-08-24T08:53:48Z</time>
      </trkpt>
      <trkpt lat="45.46468" lon="5.92507">
        <ele>1929.02</ele>
        <time>2013-08-24T08:53:52Z</time>
      </trkpt>
      <trkpt lat="45.46468" lon="5.92508">
        <ele>1929.5</ele>
        <time>2013-08-24T08:53:56Z</time>
      </trkpt>
      <trkpt lat="45.46468" lon="5.92507">
        <ele>1929.98</ele>
        <time>2013-08-24T08:54:00Z</time>
      </trkpt>
      <trkpt lat="45.46468" lon="5.92507">
        <ele>1930.46</ele>
        <time>2013-08-24T08:54:04Z</time>
      </trkpt>
      <trkpt lat="45.46468" lon="5.92507">
        <ele>1930.46</ele>
        <time>2013-08-24T08:54:08Z</time>
      </trkpt>
      <trkpt lat="45.46469" lon="5.92507">
        <ele>1930.46</ele>
        <time>2013-08-24T08:54:12Z</time>
      </trkpt>
      <trkpt lat="45.46469" lon="5.92507">
        <ele>1930.46</ele>
        <time>2013-08-24T08:54:16Z</time>
      </trkpt>
      <trkpt lat="45.46469" lon="5.92507">
        <ele>1929.98</ele>
        <time>2013-08-24T08:54:20Z</time>
      </trkpt>
      <trkpt lat="45.46469" lon="5.92507">
        <ele>1929.98</ele>
        <time>2013-08-24T08:54:24Z</time>
      </trkpt>
      <trkpt lat="45.46469" lon="5.92507">
        <ele>1930.46</ele>
        <time>2013-08-24T08:54:28Z</time>
      </trkpt>
      <trkpt lat="45.46468" lon="5.92507">
        <ele>1929.98</ele>
        <time>2013-08-24T08:54:32Z</time>
      </trkpt>
      <trkpt lat="45.46468" lon="5.92507">
        <ele>1929.98</ele>
        <time>2013-08-24T08:54:36Z</time>
      </trkpt>
      <trkpt lat="45.46468" lon="5.92506">
        <ele>1929.98</ele>
        <time>2013-08-24T08:54:40Z</time>
      </trkpt>
      <trkpt lat="45.46469" lon="5.92506">
        <ele>1930.46</ele>
        <time>2013-08-24T08:54:44Z</time>
      </trkpt>
      <trkpt lat="45.46469" lon="5.92506">
        <ele>1930.46</ele>
        <time>2013-08-24T08:54:48Z</time>
      </trkpt>
      <trkpt lat="45.46469" lon="5.92506">
        <ele>1930.46</ele>
        <time>2013-08-24T08:54:52Z</time>
      </trkpt>
      <trkpt lat="45.46468" lon="5.92506">
        <ele>1930.46</ele>
        <time>2013-08-24T08:54:56Z</time>
      </trkpt>
      <trkpt lat="45.46469" lon="5.92506">
        <ele>1930.46</ele>
        <time>2013-08-24T08:55:00Z</time>
      </trkpt>
      <trkpt lat="45.46468" lon="5.92506">
        <ele>1930.46</ele>
        <time>2013-08-24T08:55:04Z</time>
      </trkpt>
      <trkpt lat="45.46468" lon="5.92506">
        <ele>1930.46</ele>
        <time>2013-08-24T08:55:08Z</time>
      </trkpt>
      <trkpt lat="45.46469" lon="5.92506">
        <ele>1930.46</ele>
        <time>2013-08-24T08:55:12Z</time>
      </trkpt>
      <trkpt lat="45.46469" lon="5.92506">
        <ele>1930.46</ele>
        <time>2013-08-24T08:55:16Z</time>
      </trkpt>
      <trkpt lat="45.46468" lon="5.92506">
        <ele>1930.46</ele>
        <time>2013-08-24T08:55:20Z</time>
      </trkpt>
      <trkpt lat="45.46468" lon="5.92506">
        <ele>1929.98</ele>
        <time>2013-08-24T08:55:24Z</time>
      </trkpt>
      <trkpt lat="45.46468" lon="5.92506">
        <ele>1929.98</ele>
        <time>2013-08-24T08:55:28Z</time>
      </trkpt>
      <trkpt lat="45.46468" lon="5.92506">
        <ele>1929.5</ele>
        <time>2013-08-24T08:55:32Z</time>
      </trkpt>
      <trkpt lat="45.46468" lon="5.92506">
        <ele>1929.5</ele>
        <time>2013-08-24T08:55:36Z</time>
      </trkpt>
      <trkpt lat="45.46468" lon="5.92506">
        <ele>1929.5</ele>
        <time>2013-08-24T08:55:40Z</time>
      </trkpt>
      <trkpt lat="45.46468" lon="5.92506">
        <ele>1929.98</ele>
        <time>2013-08-24T08:55:44Z</time>
      </trkpt>
      <trkpt lat="45.46468" lon="5.92507">
        <ele>1929.5</ele>
        <time>2013-08-24T08:55:48Z</time>
      </trkpt>
      <trkpt lat="45.46468" lon="5.92507">
        <ele>1929.5</ele>
        <time>2013-08-24T08:55:52Z</time>
      </trkpt>
      <trkpt lat="45.46468" lon="5.92507">
        <ele>1929.5</ele>
        <time>2013-08-24T08:55:56Z</time>
      </trkpt>
      <trkpt lat="45.46468" lon="5.92507">
        <ele>1929.5</ele>
        <time>2013-08-24T08:56:00Z</time>
      </trkpt>
      <trkpt lat="45.46468" lon="5.92507">
        <ele>1929.5</ele>
        <time>2013-08-24T08:56:04Z</time>
      </trkpt>
      <trkpt lat="45.46468" lon="5.92508">
        <ele>1929.98</ele>
        <time>2013-08-24T08:56:08Z</time>
      </trkpt>
      <trkpt lat="45.46468" lon="5.92508">
        <ele>1929.98</ele>
        <time>2013-08-24T08:56:12Z</time>
      </trkpt>
      <trkpt lat="45.46468" lon="5.92507">
        <ele>1929.98</ele>
        <time>2013-08-24T08:56:16Z</time>
      </trkpt>
      <trkpt lat="45.46468" lon="5.92507">
        <ele>1930.46</ele>
        <time>2013-08-24T08:56:20Z</time>
      </trkpt>
      <trkpt lat="45.46468" lon="5.92507">
        <ele>1929.98</ele>
        <time>2013-08-24T08:56:24Z</time>
      </trkpt>
      <trkpt lat="45.46468" lon="5.92507">
        <ele>1929.98</ele>
        <time>2013-08-24T08:56:28Z</time>
      </trkpt>
      <trkpt lat="45.46468" lon="5.92507">
        <ele>1929.98</ele>
        <time>2013-08-24T08:56:32Z</time>
      </trkpt>
      <trkpt lat="45.46468" lon="5.92507">
        <ele>1929.5</ele>
        <time>2013-08-24T08:56:36Z</time>
      </trkpt>
      <trkpt lat="45.46468" lon="5.92507">
        <ele>1929.5</ele>
        <time>2013-08-24T08:56:40Z</time>
      </trkpt>
      <trkpt lat="45.46468" lon="5.92507">
        <ele>1929.5</ele>
        <time>2013-08-24T08:56:44Z</time>
      </trkpt>
      <trkpt lat="45.46468" lon="5.92507">
        <ele>1929.5</ele>
        <time>2013-08-24T08:56:48Z</time>
      </trkpt>
      <trkpt lat="45.46468" lon="5.92507">
        <ele>1929.5</ele>
        <time>2013-08-24T08:56:52Z</time>
      </trkpt>
      <trkpt lat="45.46468" lon="5.92507">
        <ele>1929.02</ele>
        <time>2013-08-24T08:56:56Z</time>
      </trkpt>
      <trkpt lat="45.46468" lon="5.92507">
        <ele>1928.54</ele>
        <time>2013-08-24T08:57:00Z</time>
      </trkpt>
      <trkpt lat="45.46468" lon="5.92507">
        <ele>1928.54</ele>
        <time>2013-08-24T08:57:04Z</time>
      </trkpt>
      <trkpt lat="45.46468" lon="5.92507">
        <ele>1928.54</ele>
        <time>2013-08-24T08:57:08Z</time>
      </trkpt>
      <trkpt lat="45.46468" lon="5.92507">
        <ele>1928.06</ele>
        <time>2013-08-24T08:57:12Z</time>
      </trkpt>
      <trkpt lat="45.46468" lon="5.92507">
        <ele>1928.06</ele>
        <time>2013-08-24T08:57:16Z</time>
      </trkpt>
      <trkpt lat="45.46467" lon="5.92507">
        <ele>1928.54</ele>
        <time>2013-08-24T08:57:20Z</time>
      </trkpt>
      <trkpt lat="45.46468" lon="5.92507">
        <ele>1929.02</ele>
        <time>2013-08-24T08:57:24Z</time>
      </trkpt>
      <trkpt lat="45.46468" lon="5.92507">
        <ele>1929.5</ele>
        <time>2013-08-24T08:57:28Z</time>
      </trkpt>
      <trkpt lat="45.46468" lon="5.92507">
        <ele>1929.5</ele>
        <time>2013-08-24T08:57:32Z</time>
      </trkpt>
      <trkpt lat="45.46468" lon="5.92507">
        <ele>1929.98</ele>
        <time>2013-08-24T08:57:36Z</time>
      </trkpt>
      <trkpt lat="45.46468" lon="5.92507">
        <ele>1929.5</ele>
        <time>2013-08-24T08:57:40Z</time>
      </trkpt>
      <trkpt lat="45.46467" lon="5.92507">
        <ele>1929.5</ele>
        <time>2013-08-24T08:57:44Z</time>
      </trkpt>
      <trkpt lat="45.46468" lon="5.92507">
        <ele>1929.02</ele>
        <time>2013-08-24T08:57:48Z</time>
      </trkpt>
      <trkpt lat="45.46468" lon="5.92507">
        <ele>1929.02</ele>
        <time>2013-08-24T08:57:52Z</time>
      </trkpt>
      <trkpt lat="45.46468" lon="5.92507">
        <ele>1928.54</ele>
        <time>2013-08-24T08:57:56Z</time>
      </trkpt>
      <trkpt lat="45.46468" lon="5.92507">
        <ele>1929.02</ele>
        <time>2013-08-24T08:58:00Z</time>
      </trkpt>
      <trkpt lat="45.46468" lon="5.92507">
        <ele>1929.02</ele>
        <time>2013-08-24T08:58:04Z</time>
      </trkpt>
      <trkpt lat="45.46468" lon="5.92507">
        <ele>1929.5</ele>
        <time>2013-08-24T08:58:08Z</time>
      </trkpt>
      <trkpt lat="45.46468" lon="5.92507">
        <ele>1929.98</ele>
        <time>2013-08-24T08:58:12Z</time>
      </trkpt>
      <trkpt lat="45.46468" lon="5.92507">
        <ele>1929.98</ele>
        <time>2013-08-24T08:58:16Z</time>
      </trkpt>
      <trkpt lat="45.46468" lon="5.92507">
        <ele>1930.46</ele>
        <time>2013-08-24T08:58:20Z</time>
      </trkpt>
      <trkpt lat="45.46468" lon="5.92507">
        <ele>1929.98</ele>
        <time>2013-08-24T08:58:24Z</time>
      </trkpt>
      <trkpt lat="45.46468" lon="5.92506">
        <ele>1929.98</ele>
        <time>2013-08-24T08:58:28Z</time>
      </trkpt>
      <trkpt lat="45.46468" lon="5.92506">
        <ele>1929.98</ele>
        <time>2013-08-24T08:58:32Z</time>
      </trkpt>
      <trkpt lat="45.46468" lon="5.92506">
        <ele>1929.98</ele>
        <time>2013-08-24T08:58:36Z</time>
      </trkpt>
      <trkpt lat="45.46468" lon="5.92506">
        <ele>1929.98</ele>
        <time>2013-08-24T08:58:40Z</time>
      </trkpt>
      <trkpt lat="45.46468" lon="5.92506">
        <ele>1929.98</ele>
        <time>2013-08-24T08:58:44Z</time>
      </trkpt>
      <trkpt lat="45.46468" lon="5.92506">
        <ele>1930.46</ele>
        <time>2013-08-24T08:58:48Z</time>
      </trkpt>
      <trkpt lat="45.46468" lon="5.92507">
        <ele>1930.46</ele>
        <time>2013-08-24T08:58:52Z</time>
      </trkpt>
      <trkpt lat="45.46468" lon="5.92507">
        <ele>1930.46</ele>
        <time>2013-08-24T08:58:56Z</time>
      </trkpt>
      <trkpt lat="45.46468" lon="5.92508">
        <ele>1929.98</ele>
        <time>2013-08-24T08:59:00Z</time>
      </trkpt>
      <trkpt lat="45.46468" lon="5.92507">
        <ele>1929.5</ele>
        <time>2013-08-24T08:59:04Z</time>
      </trkpt>
      <trkpt lat="45.46468" lon="5.92508">
        <ele>1929.5</ele>
        <time>2013-08-24T08:59:08Z</time>
      </trkpt>
      <trkpt lat="45.46468" lon="5.92508">
        <ele>1929.5</ele>
        <time>2013-08-24T08:59:12Z</time>
      </trkpt>
      <trkpt lat="45.46467" lon="5.92508">
        <ele>1929.02</ele>
        <time>2013-08-24T08:59:16Z</time>
      </trkpt>
      <trkpt lat="45.46468" lon="5.92509">
        <ele>1929.02</ele>
        <time>2013-08-24T08:59:20Z</time>
      </trkpt>
      <trkpt lat="45.46469" lon="5.92508">
        <ele>1929.02</ele>
        <time>2013-08-24T08:59:24Z</time>
      </trkpt>
      <trkpt lat="45.46469" lon="5.92507">
        <ele>1929.5</ele>
        <time>2013-08-24T08:59:28Z</time>
      </trkpt>
      <trkpt lat="45.46469" lon="5.92507">
        <ele>1929.5</ele>
        <time>2013-08-24T08:59:32Z</time>
      </trkpt>
      <trkpt lat="45.46469" lon="5.92508">
        <ele>1929.5</ele>
        <time>2013-08-24T08:59:36Z</time>
      </trkpt>
      <trkpt lat="45.46468" lon="5.9251">
        <ele>1929.5</ele>
        <time>2013-08-24T08:59:40Z</time>
      </trkpt>
      <trkpt lat="45.46468" lon="5.9251">
        <ele>1929.5</ele>
        <time>2013-08-24T08:59:44Z</time>
      </trkpt>
      <trkpt lat="45.46468" lon="5.9251">
        <ele>1929.5</ele>
        <time>2013-08-24T08:59:48Z</time>
      </trkpt>
      <trkpt lat="45.46467" lon="5.9251">
        <ele>1929.5</ele>
        <time>2013-08-24T08:59:52Z</time>
      </trkpt>
      <trkpt lat="45.46467" lon="5.92512">
        <ele>1929.5</ele>
        <time>2013-08-24T08:59:56Z</time>
      </trkpt>
      <trkpt lat="45.46466" lon="5.92515">
        <ele>1928.54</ele>
        <time>2013-08-24T09:00:00Z</time>
      </trkpt>
      <trkpt lat="45.46464" lon="5.92517">
        <ele>1927.58</ele>
        <time>2013-08-24T09:00:04Z</time>
      </trkpt>
      <trkpt lat="45.46461" lon="5.92521">
        <ele>1926.62</ele>
        <time>2013-08-24T09:00:08Z</time>
      </trkpt>
      <trkpt lat="45.46458" lon="5.92525">
        <ele>1926.14</ele>
        <time>2013-08-24T09:00:12Z</time>
      </trkpt>
      <trkpt lat="45.46456" lon="5.92529">
        <ele>1925.66</ele>
        <time>2013-08-24T09:00:16Z</time>
      </trkpt>
      <trkpt lat="45.46452" lon="5.92532">
        <ele>1925.18</ele>
        <time>2013-08-24T09:00:20Z</time>
      </trkpt>
      <trkpt lat="45.46451" lon="5.92532">
        <ele>1925.66</ele>
        <time>2013-08-24T09:00:24Z</time>
      </trkpt>
      <trkpt lat="45.46451" lon="5.92532">
        <ele>1926.14</ele>
        <time>2013-08-24T09:00:28Z</time>
      </trkpt>
      <trkpt lat="45.4645" lon="5.92533">
        <ele>1926.14</ele>
        <time>2013-08-24T09:00:32Z</time>
      </trkpt>
      <trkpt lat="45.46447" lon="5.92533">
        <ele>1925.66</ele>
        <time>2013-08-24T09:00:36Z</time>
      </trkpt>
      <trkpt lat="45.46443" lon="5.92535">
        <ele>1925.18</ele>
        <time>2013-08-24T09:00:40Z</time>
      </trkpt>
      <trkpt lat="45.4644" lon="5.92534">
        <ele>1924.22</ele>
        <time>2013-08-24T09:00:44Z</time>
      </trkpt>
      <trkpt lat="45.46437" lon="5.92535">
        <ele>1923.25</ele>
        <time>2013-08-24T09:00:48Z</time>
      </trkpt>
      <trkpt lat="45.46433" lon="5.92536">
        <ele>1922.29</ele>
        <time>2013-08-24T09:00:52Z</time>
      </trkpt>
      <trkpt lat="45.4643" lon="5.92539">
        <ele>1921.33</ele>
        <time>2013-08-24T09:00:56Z</time>
      </trkpt>
      <trkpt lat="45.46426" lon="5.92543">
        <ele>1921.33</ele>
        <time>2013-08-24T09:01:00Z</time>
      </trkpt>
      <trkpt lat="45.46421" lon="5.92542">
        <ele>1919.41</ele>
        <time>2013-08-24T09:01:05Z</time>
      </trkpt>
      <trkpt lat="45.46416" lon="5.92541">
        <ele>1918.93</ele>
        <time>2013-08-24T09:01:09Z</time>
      </trkpt>
      <trkpt lat="45.46412" lon="5.92541">
        <ele>1919.41</ele>
        <time>2013-08-24T09:01:13Z</time>
      </trkpt>
      <trkpt lat="45.46411" lon="5.92545">
        <ele>1918.45</ele>
        <time>2013-08-24T09:01:17Z</time>
      </trkpt>
      <trkpt lat="45.46414" lon="5.92551">
        <ele>1918.45</ele>
        <time>2013-08-24T09:01:21Z</time>
      </trkpt>
      <trkpt lat="45.46412" lon="5.92557">
        <ele>1918.45</ele>
        <time>2013-08-24T09:01:25Z</time>
      </trkpt>
      <trkpt lat="45.4641" lon="5.92559">
        <ele>1917.01</ele>
        <time>2013-08-24T09:01:29Z</time>
      </trkpt>
      <trkpt lat="45.4641" lon="5.92563">
        <ele>1915.56</ele>
        <time>2013-08-24T09:01:33Z</time>
      </trkpt>
      <trkpt lat="45.46409" lon="5.92566">
        <ele>1915.08</ele>
        <time>2013-08-24T09:01:37Z</time>
      </trkpt>
      <trkpt lat="45.46406" lon="5.92566">
        <ele>1913.16</ele>
        <time>2013-08-24T09:01:41Z</time>
      </trkpt>
      <trkpt lat="45.46403" lon="5.92569">
        <ele>1912.2</ele>
        <time>2013-08-24T09:01:45Z</time>
      </trkpt>
      <trkpt lat="45.464" lon="5.92568">
        <ele>1910.28</ele>
        <time>2013-08-24T09:01:49Z</time>
      </trkpt>
      <trkpt lat="45.46397" lon="5.92568">
        <ele>1909.32</ele>
        <time>2013-08-24T09:01:53Z</time>
      </trkpt>
      <trkpt lat="45.46395" lon="5.92568">
        <ele>1908.35</ele>
        <time>2013-08-24T09:01:57Z</time>
      </trkpt>
      <trkpt lat="45.46394" lon="5.92568">
        <ele>1907.39</ele>
        <time>2013-08-24T09:02:01Z</time>
      </trkpt>
      <trkpt lat="45.46391" lon="5.92571">
        <ele>1906.43</ele>
        <time>2013-08-24T09:02:05Z</time>
      </trkpt>
      <trkpt lat="45.46388" lon="5.9257">
        <ele>1904.99</ele>
        <time>2013-08-24T09:02:09Z</time>
      </trkpt>
      <trkpt lat="45.46385" lon="5.92571">
        <ele>1904.03</ele>
        <time>2013-08-24T09:02:13Z</time>
      </trkpt>
      <trkpt lat="45.46382" lon="5.92572">
        <ele>1901.63</ele>
        <time>2013-08-24T09:02:17Z</time>
      </trkpt>
      <trkpt lat="45.46379" lon="5.92572">
        <ele>1900.66</ele>
        <time>2013-08-24T09:02:21Z</time>
      </trkpt>
      <trkpt lat="45.46379" lon="5.92572">
        <ele>1900.66</ele>
        <time>2013-08-24T09:02:25Z</time>
      </trkpt>
      <trkpt lat="45.46378" lon="5.92571">
        <ele>1899.7</ele>
        <time>2013-08-24T09:02:29Z</time>
      </trkpt>
      <trkpt lat="45.46375" lon="5.92569">
        <ele>1898.26</ele>
        <time>2013-08-24T09:02:33Z</time>
      </trkpt>
      <trkpt lat="45.46371" lon="5.92565">
        <ele>1897.3</ele>
        <time>2013-08-24T09:02:37Z</time>
      </trkpt>
      <trkpt lat="45.46366" lon="5.92563">
        <ele>1896.82</ele>
        <time>2013-08-24T09:02:41Z</time>
      </trkpt>
      <trkpt lat="45.46361" lon="5.9256">
        <ele>1895.86</ele>
        <time>2013-08-24T09:02:45Z</time>
      </trkpt>
      <trkpt lat="45.46357" lon="5.92555">
        <ele>1894.42</ele>
        <time>2013-08-24T09:02:49Z</time>
      </trkpt>
      <trkpt lat="45.46354" lon="5.92549">
        <ele>1893.45</ele>
        <time>2013-08-24T09:02:53Z</time>
      </trkpt>
      <trkpt lat="45.46351" lon="5.92543">
        <ele>1893.45</ele>
        <time>2013-08-24T09:02:57Z</time>
      </trkpt>
      <trkpt lat="45.46346" lon="5.9254">
        <ele>1893.45</ele>
        <time>2013-08-24T09:03:01Z</time>
      </trkpt>
      <trkpt lat="45.46342" lon="5.92535">
        <ele>1892.97</ele>
        <time>2013-08-24T09:03:05Z</time>
      </trkpt>
      <trkpt lat="45.46337" lon="5.9253">
        <ele>1892.01</ele>
        <time>2013-08-24T09:03:09Z</time>
      </trkpt>
      <trkpt lat="45.46333" lon="5.92525">
        <ele>1891.53</ele>
        <time>2013-08-24T09:03:13Z</time>
      </trkpt>
      <trkpt lat="45.46328" lon="5.92524">
        <ele>1891.53</ele>
        <time>2013-08-24T09:03:17Z</time>
      </trkpt>
      <trkpt lat="45.46323" lon="5.92522">
        <ele>1890.57</ele>
        <time>2013-08-24T09:03:21Z</time>
      </trkpt>
      <trkpt lat="45.46318" lon="5.92518">
        <ele>1889.61</ele>
        <time>2013-08-24T09:03:25Z</time>
      </trkpt>
      <trkpt lat="45.46313" lon="5.92515">
        <ele>1890.09</ele>
        <time>2013-08-24T09:03:29Z</time>
      </trkpt>
      <trkpt lat="45.4631" lon="5.92511">
        <ele>1890.57</ele>
        <time>2013-08-24T09:03:33Z</time>
      </trkpt>
      <trkpt lat="45.46304" lon="5.92512">
        <ele>1891.53</ele>
        <time>2013-08-24T09:03:37Z</time>
      </trkpt>
      <trkpt lat="45.463" lon="5.92512">
        <ele>1890.57</ele>
        <time>2013-08-24T09:03:41Z</time>
      </trkpt>
      <trkpt lat="45.46295" lon="5.9251">
        <ele>1889.61</ele>
        <time>2013-08-24T09:03:45Z</time>
      </trkpt>
      <trkpt lat="45.46291" lon="5.92508">
        <ele>1889.61</ele>
        <time>2013-08-24T09:03:49Z</time>
      </trkpt>
      <trkpt lat="45.46288" lon="5.92504">
        <ele>1889.13</ele>
        <time>2013-08-24T09:03:53Z</time>
      </trkpt>
      <trkpt lat="45.46281" lon="5.92503">
        <ele>1889.13</ele>
        <time>2013-08-24T09:03:57Z</time>
      </trkpt>
      <trkpt lat="45.46277" lon="5.92501">
        <ele>1887.69</ele>
        <time>2013-08-24T09:04:01Z</time>
      </trkpt>
      <trkpt lat="45.46272" lon="5.92498">
        <ele>1887.21</ele>
        <time>2013-08-24T09:04:05Z</time>
      </trkpt>
      <trkpt lat="45.46267" lon="5.92496">
        <ele>1886.72</ele>
        <time>2013-08-24T09:04:09Z</time>
      </trkpt>
      <trkpt lat="45.46262" lon="5.92494">
        <ele>1886.72</ele>
        <time>2013-08-24T09:04:13Z</time>
      </trkpt>
      <trkpt lat="45.46257" lon="5.92492">
        <ele>1886.24</ele>
        <time>2013-08-24T09:04:17Z</time>
      </trkpt>
      <trkpt lat="45.46252" lon="5.92488">
        <ele>1887.69</ele>
        <time>2013-08-24T09:04:21Z</time>
      </trkpt>
      <trkpt lat="45.46247" lon="5.92486">
        <ele>1888.17</ele>
        <time>2013-08-24T09:04:25Z</time>
      </trkpt>
      <trkpt lat="45.46242" lon="5.92484">
        <ele>1888.65</ele>
        <time>2013-08-24T09:04:29Z</time>
      </trkpt>
      <trkpt lat="45.46236" lon="5.92482">
        <ele>1889.13</ele>
        <time>2013-08-24T09:04:33Z</time>
      </trkpt>
      <trkpt lat="45.46231" lon="5.92482">
        <ele>1890.09</ele>
        <time>2013-08-24T09:04:37Z</time>
      </trkpt>
      <trkpt lat="45.46226" lon="5.92482">
        <ele>1890.57</ele>
        <time>2013-08-24T09:04:41Z</time>
      </trkpt>
      <trkpt lat="45.46221" lon="5.92479">
        <ele>1891.53</ele>
        <time>2013-08-24T09:04:45Z</time>
      </trkpt>
      <trkpt lat="45.46218" lon="5.92479">
        <ele>1891.53</ele>
        <time>2013-08-24T09:04:49Z</time>
      </trkpt>
      <trkpt lat="45.46214" lon="5.9248">
        <ele>1891.05</ele>
        <time>2013-08-24T09:04:53Z</time>
      </trkpt>
      <trkpt lat="45.46212" lon="5.92481">
        <ele>1891.05</ele>
        <time>2013-08-24T09:04:57Z</time>
      </trkpt>
      <trkpt lat="45.46213" lon="5.9248">
        <ele>1890.57</ele>
        <time>2013-08-24T09:05:01Z</time>
      </trkpt>
      <trkpt lat="45.46209" lon="5.9248">
        <ele>1890.57</ele>
        <time>2013-08-24T09:05:05Z</time>
      </trkpt>
      <trkpt lat="45.46205" lon="5.92479">
        <ele>1890.57</ele>
        <time>2013-08-24T09:05:09Z</time>
      </trkpt>
      <trkpt lat="45.46201" lon="5.92478">
        <ele>1890.57</ele>
        <time>2013-08-24T09:05:13Z</time>
      </trkpt>
      <trkpt lat="45.46196" lon="5.92477">
        <ele>1891.05</ele>
        <time>2013-08-24T09:05:17Z</time>
      </trkpt>
      <trkpt lat="45.46191" lon="5.92474">
        <ele>1891.53</ele>
        <time>2013-08-24T09:05:21Z</time>
      </trkpt>
      <trkpt lat="45.46187" lon="5.92473">
        <ele>1891.53</ele>
        <time>2013-08-24T09:05:25Z</time>
      </trkpt>
      <trkpt lat="45.46183" lon="5.92472">
        <ele>1892.01</ele>
        <time>2013-08-24T09:05:29Z</time>
      </trkpt>
      <trkpt lat="45.46179" lon="5.92474">
        <ele>1892.01</ele>
        <time>2013-08-24T09:05:33Z</time>
      </trkpt>
      <trkpt lat="45.46174" lon="5.92474">
        <ele>1892.49</ele>
        <time>2013-08-24T09:05:37Z</time>
      </trkpt>
      <trkpt lat="45.46169" lon="5.92474">
        <ele>1892.49</ele>
        <time>2013-08-24T09:05:41Z</time>
      </trkpt>
      <trkpt lat="45.46164" lon="5.92473">
        <ele>1892.97</ele>
        <time>2013-08-24T09:05:45Z</time>
      </trkpt>
      <trkpt lat="45.4616" lon="5.92473">
        <ele>1893.45</ele>
        <time>2013-08-24T09:05:49Z</time>
      </trkpt>
      <trkpt lat="45.46155" lon="5.92472">
        <ele>1893.45</ele>
        <time>2013-08-24T09:05:53Z</time>
      </trkpt>
      <trkpt lat="45.46151" lon="5.9247">
        <ele>1892.97</ele>
        <time>2013-08-24T09:05:57Z</time>
      </trkpt>
      <trkpt lat="45.46146" lon="5.92469">
        <ele>1892.49</ele>
        <time>2013-08-24T09:06:01Z</time>
      </trkpt>
      <trkpt lat="45.46141" lon="5.92466">
        <ele>1892.01</ele>
        <time>2013-08-24T09:06:05Z</time>
      </trkpt>
      <trkpt lat="45.46136" lon="5.92464">
        <ele>1892.01</ele>
        <time>2013-08-24T09:06:09Z</time>
      </trkpt>
      <trkpt lat="45.46131" lon="5.92462">
        <ele>1891.53</ele>
        <time>2013-08-24T09:06:13Z</time>
      </trkpt>
      <trkpt lat="45.46126" lon="5.92459">
        <ele>1892.01</ele>
        <time>2013-08-24T09:06:17Z</time>
      </trkpt>
      <trkpt lat="45.46121" lon="5.92458">
        <ele>1891.53</ele>
        <time>2013-08-24T09:06:21Z</time>
      </trkpt>
      <trkpt lat="45.46118" lon="5.92457">
        <ele>1891.53</ele>
        <time>2013-08-24T09:06:25Z</time>
      </trkpt>
      <trkpt lat="45.46114" lon="5.92458">
        <ele>1891.05</ele>
        <time>2013-08-24T09:06:29Z</time>
      </trkpt>
      <trkpt lat="45.46109" lon="5.9246">
        <ele>1890.09</ele>
        <time>2013-08-24T09:06:33Z</time>
      </trkpt>
      <trkpt lat="45.46105" lon="5.92462">
        <ele>1889.13</ele>
        <time>2013-08-24T09:06:37Z</time>
      </trkpt>
      <trkpt lat="45.46101" lon="5.92465">
        <ele>1888.65</ele>
        <time>2013-08-24T09:06:41Z</time>
      </trkpt>
      <trkpt lat="45.46097" lon="5.92469">
        <ele>1888.65</ele>
        <time>2013-08-24T09:06:45Z</time>
      </trkpt>
      <trkpt lat="45.46093" lon="5.92471">
        <ele>1888.17</ele>
        <time>2013-08-24T09:06:49Z</time>
      </trkpt>
      <trkpt lat="45.4609" lon="5.92474">
        <ele>1888.17</ele>
        <time>2013-08-24T09:06:53Z</time>
      </trkpt>
      <trkpt lat="45.46087" lon="5.92478">
        <ele>1887.69</ele>
        <time>2013-08-24T09:06:57Z</time>
      </trkpt>
      <trkpt lat="45.46084" lon="5.9248">
        <ele>1887.69</ele>
        <time>2013-08-24T09:07:01Z</time>
      </trkpt>
      <trkpt lat="45.46083" lon="5.92482">
        <ele>1886.72</ele>
        <time>2013-08-24T09:07:05Z</time>
      </trkpt>
      <trkpt lat="45.4608" lon="5.92486">
        <ele>1886.24</ele>
        <time>2013-08-24T09:07:09Z</time>
      </trkpt>
      <trkpt lat="45.46077" lon="5.9249">
        <ele>1886.72</ele>
        <time>2013-08-24T09:07:13Z</time>
      </trkpt>
      <trkpt lat="45.46074" lon="5.92494">
        <ele>1887.69</ele>
        <time>2013-08-24T09:07:17Z</time>
      </trkpt>
      <trkpt lat="45.46071" lon="5.92497">
        <ele>1888.65</ele>
        <time>2013-08-24T09:07:21Z</time>
      </trkpt>
      <trkpt lat="45.46069" lon="5.925">
        <ele>1890.09</ele>
        <time>2013-08-24T09:07:25Z</time>
      </trkpt>
      <trkpt lat="45.46066" lon="5.92502">
        <ele>1890.09</ele>
        <time>2013-08-24T09:07:29Z</time>
      </trkpt>
      <trkpt lat="45.46064" lon="5.92505">
        <ele>1889.61</ele>
        <time>2013-08-24T09:07:33Z</time>
      </trkpt>
      <trkpt lat="45.4606" lon="5.92506">
        <ele>1889.13</ele>
        <time>2013-08-24T09:07:37Z</time>
      </trkpt>
      <trkpt lat="45.46056" lon="5.92508">
        <ele>1888.65</ele>
        <time>2013-08-24T09:07:41Z</time>
      </trkpt>
      <trkpt lat="45.46051" lon="5.92508">
        <ele>1888.65</ele>
        <time>2013-08-24T09:07:45Z</time>
      </trkpt>
      <trkpt lat="45.46048" lon="5.92506">
        <ele>1889.13</ele>
        <time>2013-08-24T09:07:49Z</time>
      </trkpt>
      <trkpt lat="45.46045" lon="5.92502">
        <ele>1889.61</ele>
        <time>2013-08-24T09:07:53Z</time>
      </trkpt>
      <trkpt lat="45.46043" lon="5.92497">
        <ele>1890.09</ele>
        <time>2013-08-24T09:07:57Z</time>
      </trkpt>
      <trkpt lat="45.46043" lon="5.92492">
        <ele>1890.09</ele>
        <time>2013-08-24T09:08:01Z</time>
      </trkpt>
      <trkpt lat="45.46043" lon="5.92486">
        <ele>1890.09</ele>
        <time>2013-08-24T09:08:05Z</time>
      </trkpt>
      <trkpt lat="45.46041" lon="5.92483">
        <ele>1888.65</ele>
        <time>2013-08-24T09:08:09Z</time>
      </trkpt>
      <trkpt lat="45.46038" lon="5.9248">
        <ele>1888.17</ele>
        <time>2013-08-24T09:08:13Z</time>
      </trkpt>
      <trkpt lat="45.46034" lon="5.92479">
        <ele>1887.21</ele>
        <time>2013-08-24T09:08:17Z</time>
      </trkpt>
      <trkpt lat="45.46029" lon="5.92477">
        <ele>1886.24</ele>
        <time>2013-08-24T09:08:21Z</time>
      </trkpt>
      <trkpt lat="45.46024" lon="5.92476">
        <ele>1886.24</ele>
        <time>2013-08-24T09:08:25Z</time>
      </trkpt>
      <trkpt lat="45.46018" lon="5.92474">
        <ele>1887.21</ele>
        <time>2013-08-24T09:08:29Z</time>
      </trkpt>
      <trkpt lat="45.46013" lon="5.92473">
        <ele>1887.21</ele>
        <time>2013-08-24T09:08:33Z</time>
      </trkpt>
      <trkpt lat="45.46008" lon="5.92472">
        <ele>1887.69</ele>
        <time>2013-08-24T09:08:37Z</time>
      </trkpt>
      <trkpt lat="45.46003" lon="5.92471">
        <ele>1888.65</ele>
        <time>2013-08-24T09:08:41Z</time>
      </trkpt>
      <trkpt lat="45.45998" lon="5.9247">
        <ele>1888.65</ele>
        <time>2013-08-24T09:08:45Z</time>
      </trkpt>
      <trkpt lat="45.45993" lon="5.92471">
        <ele>1889.61</ele>
        <time>2013-08-24T09:08:49Z</time>
      </trkpt>
      <trkpt lat="45.45989" lon="5.92471">
        <ele>1890.09</ele>
        <time>2013-08-24T09:08:53Z</time>
      </trkpt>
      <trkpt lat="45.45984" lon="5.92471">
        <ele>1889.61</ele>
        <time>2013-08-24T09:08:57Z</time>
      </trkpt>
      <trkpt lat="45.45979" lon="5.92471">
        <ele>1889.13</ele>
        <time>2013-08-24T09:09:01Z</time>
      </trkpt>
      <trkpt lat="45.45974" lon="5.92472">
        <ele>1889.13</ele>
        <time>2013-08-24T09:09:05Z</time>
      </trkpt>
      <trkpt lat="45.45968" lon="5.92472">
        <ele>1889.13</ele>
        <time>2013-08-24T09:09:09Z</time>
      </trkpt>
      <trkpt lat="45.45963" lon="5.92474">
        <ele>1889.61</ele>
        <time>2013-08-24T09:09:13Z</time>
      </trkpt>
      <trkpt lat="45.45958" lon="5.92475">
        <ele>1890.09</ele>
        <time>2013-08-24T09:09:17Z</time>
      </trkpt>
      <trkpt lat="45.45955" lon="5.92476">
        <ele>1890.09</ele>
        <time>2013-08-24T09:09:21Z</time>
      </trkpt>
      <trkpt lat="45.45951" lon="5.92478">
        <ele>1890.09</ele>
        <time>2013-08-24T09:09:25Z</time>
      </trkpt>
      <trkpt lat="45.45946" lon="5.92477">
        <ele>1889.61</ele>
        <time>2013-08-24T09:09:29Z</time>
      </trkpt>
      <trkpt lat="45.45941" lon="5.92475">
        <ele>1890.09</ele>
        <time>2013-08-24T09:09:33Z</time>
      </trkpt>
      <trkpt lat="45.45938" lon="5.92472">
        <ele>1890.57</ele>
        <time>2013-08-24T09:09:37Z</time>
      </trkpt>
      <trkpt lat="45.45935" lon="5.92467">
        <ele>1890.57</ele>
        <time>2013-08-24T09:09:41Z</time>
      </trkpt>
      <trkpt lat="45.45931" lon="5.92463">
        <ele>1890.09</ele>
        <time>2013-08-24T09:09:45Z</time>
      </trkpt>
      <trkpt lat="45.45928" lon="5.9246">
        <ele>1889.13</ele>
        <time>2013-08-24T09:09:49Z</time>
      </trkpt>
      <trkpt lat="45.45925" lon="5.92458">
        <ele>1889.61</ele>
        <time>2013-08-24T09:09:53Z</time>
      </trkpt>
      <trkpt lat="45.45924" lon="5.92456">
        <ele>1889.13</ele>
        <time>2013-08-24T09:09:57Z</time>
      </trkpt>
      <trkpt lat="45.45923" lon="5.92456">
        <ele>1889.61</ele>
        <time>2013-08-24T09:10:01Z</time>
      </trkpt>
      <trkpt lat="45.45922" lon="5.92456">
        <ele>1890.09</ele>
        <time>2013-08-24T09:10:05Z</time>
      </trkpt>
      <trkpt lat="45.45921" lon="5.92454">
        <ele>1889.13</ele>
        <time>2013-08-24T09:10:09Z</time>
      </trkpt>
      <trkpt lat="45.4592" lon="5.92453">
        <ele>1888.17</ele>
        <time>2013-08-24T09:10:13Z</time>
      </trkpt>
      <trkpt lat="45.45919" lon="5.92449">
        <ele>1887.69</ele>
        <time>2013-08-24T09:10:17Z</time>
      </trkpt>
      <trkpt lat="45.45919" lon="5.92448">
        <ele>1886.72</ele>
        <time>2013-08-24T09:10:21Z</time>
      </trkpt>
      <trkpt lat="45.45917" lon="5.92445">
        <ele>1885.76</ele>
        <time>2013-08-24T09:10:25Z</time>
      </trkpt>
      <trkpt lat="45.45914" lon="5.92443">
        <ele>1885.28</ele>
        <time>2013-08-24T09:10:29Z</time>
      </trkpt>
      <trkpt lat="45.45912" lon="5.92443">
        <ele>1884.32</ele>
        <time>2013-08-24T09:10:33Z</time>
      </trkpt>
      <trkpt lat="45.45912" lon="5.92442">
        <ele>1885.28</ele>
        <time>2013-08-24T09:10:37Z</time>
      </trkpt>
      <trkpt lat="45.45912" lon="5.92442">
        <ele>1885.28</ele>
        <time>2013-08-24T09:10:41Z</time>
      </trkpt>
      <trkpt lat="45.45911" lon="5.9244">
        <ele>1885.28</ele>
        <time>2013-08-24T09:10:45Z</time>
      </trkpt>
      <trkpt lat="45.45911" lon="5.92441">
        <ele>1885.76</ele>
        <time>2013-08-24T09:10:49Z</time>
      </trkpt>
      <trkpt lat="45.45912" lon="5.92441">
        <ele>1885.28</ele>
        <time>2013-08-24T09:10:53Z</time>
      </trkpt>
      <trkpt lat="45.45912" lon="5.92441">
        <ele>1885.28</ele>
        <time>2013-08-24T09:10:57Z</time>
      </trkpt>
      <trkpt lat="45.45911" lon="5.9244">
        <ele>1884.8</ele>
        <time>2013-08-24T09:11:01Z</time>
      </trkpt>
      <trkpt lat="45.45912" lon="5.9244">
        <ele>1884.32</ele>
        <time>2013-08-24T09:11:05Z</time>
      </trkpt>
      <trkpt lat="45.45912" lon="5.92441">
        <ele>1884.32</ele>
        <time>2013-08-24T09:11:09Z</time>
      </trkpt>
      <trkpt lat="45.45912" lon="5.92439">
        <ele>1884.32</ele>
        <time>2013-08-24T09:11:13Z</time>
      </trkpt>
      <trkpt lat="45.45908" lon="5.92436">
        <ele>1884.8</ele>
        <time>2013-08-24T09:11:17Z</time>
      </trkpt>
      <trkpt lat="45.45905" lon="5.92435">
        <ele>1885.28</ele>
        <time>2013-08-24T09:11:21Z</time>
      </trkpt>
      <trkpt lat="45.45904" lon="5.92436">
        <ele>1885.28</ele>
        <time>2013-08-24T09:11:25Z</time>
      </trkpt>
      <trkpt lat="45.45904" lon="5.92436">
        <ele>1885.28</ele>
        <time>2013-08-24T09:11:29Z</time>
      </trkpt>
      <trkpt lat="45.45903" lon="5.92437">
        <ele>1885.28</ele>
        <time>2013-08-24T09:11:33Z</time>
      </trkpt>
      <trkpt lat="45.45903" lon="5.92439">
        <ele>1885.28</ele>
        <time>2013-08-24T09:11:37Z</time>
      </trkpt>
      <trkpt lat="45.45904" lon="5.92439">
        <ele>1885.28</ele>
        <time>2013-08-24T09:11:41Z</time>
      </trkpt>
      <trkpt lat="45.45904" lon="5.9244">
        <ele>1885.28</ele>
        <time>2013-08-24T09:11:45Z</time>
      </trkpt>
      <trkpt lat="45.45904" lon="5.9244">
        <ele>1885.28</ele>
        <time>2013-08-24T09:11:49Z</time>
      </trkpt>
      <trkpt lat="45.45903" lon="5.92439">
        <ele>1885.76</ele>
        <time>2013-08-24T09:11:53Z</time>
      </trkpt>
      <trkpt lat="45.45903" lon="5.92439">
        <ele>1885.76</ele>
        <time>2013-08-24T09:11:57Z</time>
      </trkpt>
      <trkpt lat="45.45902" lon="5.9244">
        <ele>1885.76</ele>
        <time>2013-08-24T09:12:01Z</time>
      </trkpt>
      <trkpt lat="45.45902" lon="5.9244">
        <ele>1885.76</ele>
        <time>2013-08-24T09:12:05Z</time>
      </trkpt>
      <trkpt lat="45.45902" lon="5.9244">
        <ele>1885.76</ele>
        <time>2013-08-24T09:12:09Z</time>
      </trkpt>
      <trkpt lat="45.45901" lon="5.92441">
        <ele>1885.76</ele>
        <time>2013-08-24T09:12:13Z</time>
      </trkpt>
      <trkpt lat="45.45902" lon="5.92442">
        <ele>1885.28</ele>
        <time>2013-08-24T09:12:17Z</time>
      </trkpt>
      <trkpt lat="45.45902" lon="5.92441">
        <ele>1886.24</ele>
        <time>2013-08-24T09:12:21Z</time>
      </trkpt>
      <trkpt lat="45.45903" lon="5.92441">
        <ele>1885.28</ele>
        <time>2013-08-24T09:12:25Z</time>
      </trkpt>
      <trkpt lat="45.45902" lon="5.92442">
        <ele>1883.84</ele>
        <time>2013-08-24T09:12:29Z</time>
      </trkpt>
      <trkpt lat="45.45901" lon="5.92443">
        <ele>1882.88</ele>
        <time>2013-08-24T09:12:33Z</time>
      </trkpt>
      <trkpt lat="45.45902" lon="5.92442">
        <ele>1883.36</ele>
        <time>2013-08-24T09:12:37Z</time>
      </trkpt>
      <trkpt lat="45.459" lon="5.92442">
        <ele>1882.88</ele>
        <time>2013-08-24T09:12:41Z</time>
      </trkpt>
      <trkpt lat="45.459" lon="5.92442">
        <ele>1881.92</ele>
        <time>2013-08-24T09:12:45Z</time>
      </trkpt>
      <trkpt lat="45.45901" lon="5.92443">
        <ele>1881.44</ele>
        <time>2013-08-24T09:12:49Z</time>
      </trkpt>
      <trkpt lat="45.45903" lon="5.92444">
        <ele>1880.96</ele>
        <time>2013-08-24T09:12:53Z</time>
      </trkpt>
      <trkpt lat="45.45903" lon="5.92445">
        <ele>1880.96</ele>
        <time>2013-08-24T09:12:57Z</time>
      </trkpt>
      <trkpt lat="45.45904" lon="5.92444">
        <ele>1881.92</ele>
        <time>2013-08-24T09:13:01Z</time>
      </trkpt>
      <trkpt lat="45.45904" lon="5.92444">
        <ele>1882.4</ele>
        <time>2013-08-24T09:13:05Z</time>
      </trkpt>
      <trkpt lat="45.45904" lon="5.92445">
        <ele>1883.36</ele>
        <time>2013-08-24T09:13:09Z</time>
      </trkpt>
      <trkpt lat="45.45904" lon="5.92445">
        <ele>1883.36</ele>
        <time>2013-08-24T09:13:13Z</time>
      </trkpt>
      <trkpt lat="45.45903" lon="5.92444">
        <ele>1882.88</ele>
        <time>2013-08-24T09:13:17Z</time>
      </trkpt>
      <trkpt lat="45.45901" lon="5.92444">
        <ele>1882.4</ele>
        <time>2013-08-24T09:13:21Z</time>
      </trkpt>
      <trkpt lat="45.45901" lon="5.92444">
        <ele>1881.44</ele>
        <time>2013-08-24T09:13:25Z</time>
      </trkpt>
      <trkpt lat="45.459" lon="5.92444">
        <ele>1881.44</ele>
        <time>2013-08-24T09:13:29Z</time>
      </trkpt>
      <trkpt lat="45.459" lon="5.92444">
        <ele>1881.92</ele>
        <time>2013-08-24T09:13:33Z</time>
      </trkpt>
      <trkpt lat="45.459" lon="5.92445">
        <ele>1881.92</ele>
        <time>2013-08-24T09:13:37Z</time>
      </trkpt>
      <trkpt lat="45.45899" lon="5.92445">
        <ele>1881.44</ele>
        <time>2013-08-24T09:13:41Z</time>
      </trkpt>
      <trkpt lat="45.45899" lon="5.92445">
        <ele>1881.44</ele>
        <time>2013-08-24T09:13:45Z</time>
      </trkpt>
      <trkpt lat="45.45898" lon="5.92445">
        <ele>1881.44</ele>
        <time>2013-08-24T09:13:49Z</time>
      </trkpt>
      <trkpt lat="45.45898" lon="5.92445">
        <ele>1881.44</ele>
        <time>2013-08-24T09:13:53Z</time>
      </trkpt>
      <trkpt lat="45.45898" lon="5.92446">
        <ele>1880.96</ele>
        <time>2013-08-24T09:13:57Z</time>
      </trkpt>
      <trkpt lat="45.45899" lon="5.92446">
        <ele>1880.96</ele>
        <time>2013-08-24T09:14:01Z</time>
      </trkpt>
      <trkpt lat="45.45901" lon="5.92445">
        <ele>1881.44</ele>
        <time>2013-08-24T09:14:05Z</time>
      </trkpt>
      <trkpt lat="45.45902" lon="5.92445">
        <ele>1882.4</ele>
        <time>2013-08-24T09:14:09Z</time>
      </trkpt>
      <trkpt lat="45.45902" lon="5.92445">
        <ele>1883.36</ele>
        <time>2013-08-24T09:14:13Z</time>
      </trkpt>
      <trkpt lat="45.45902" lon="5.92446">
        <ele>1883.84</ele>
        <time>2013-08-24T09:14:17Z</time>
      </trkpt>
      <trkpt lat="45.45903" lon="5.92447">
        <ele>1884.8</ele>
        <time>2013-08-24T09:14:21Z</time>
      </trkpt>
      <trkpt lat="45.45904" lon="5.92447">
        <ele>1884.8</ele>
        <time>2013-08-24T09:14:25Z</time>
      </trkpt>
      <trkpt lat="45.45904" lon="5.92447">
        <ele>1884.8</ele>
        <time>2013-08-24T09:14:29Z</time>
      </trkpt>
      <trkpt lat="45.45904" lon="5.92446">
        <ele>1884.8</ele>
        <time>2013-08-24T09:14:33Z</time>
      </trkpt>
      <trkpt lat="45.45903" lon="5.92446">
        <ele>1884.8</ele>
        <time>2013-08-24T09:14:37Z</time>
      </trkpt>
      <trkpt lat="45.45902" lon="5.92446">
        <ele>1885.28</ele>
        <time>2013-08-24T09:14:41Z</time>
      </trkpt>
      <trkpt lat="45.45902" lon="5.92447">
        <ele>1885.76</ele>
        <time>2013-08-24T09:14:45Z</time>
      </trkpt>
      <trkpt lat="45.45902" lon="5.92446">
        <ele>1885.76</ele>
        <time>2013-08-24T09:14:49Z</time>
      </trkpt>
      <trkpt lat="45.45901" lon="5.92446">
        <ele>1885.28</ele>
        <time>2013-08-24T09:14:53Z</time>
      </trkpt>
      <trkpt lat="45.45901" lon="5.92446">
        <ele>1885.76</ele>
        <time>2013-08-24T09:14:57Z</time>
      </trkpt>
      <trkpt lat="45.459" lon="5.92446">
        <ele>1884.32</ele>
        <time>2013-08-24T09:15:01Z</time>
      </trkpt>
      <trkpt lat="45.45899" lon="5.92447">
        <ele>1883.84</ele>
        <time>2013-08-24T09:15:05Z</time>
      </trkpt>
      <trkpt lat="45.459" lon="5.92447">
        <ele>1883.36</ele>
        <time>2013-08-24T09:15:09Z</time>
      </trkpt>
      <trkpt lat="45.45899" lon="5.92446">
        <ele>1882.88</ele>
        <time>2013-08-24T09:15:13Z</time>
      </trkpt>
      <trkpt lat="45.45899" lon="5.92446">
        <ele>1883.36</ele>
        <time>2013-08-24T09:15:17Z</time>
      </trkpt>
      <trkpt lat="45.45899" lon="5.92446">
        <ele>1883.36</ele>
        <time>2013-08-24T09:15:21Z</time>
      </trkpt>
      <trkpt lat="45.45899" lon="5.92446">
        <ele>1883.84</ele>
        <time>2013-08-24T09:15:25Z</time>
      </trkpt>
      <trkpt lat="45.45898" lon="5.92447">
        <ele>1884.32</ele>
        <time>2013-08-24T09:15:29Z</time>
      </trkpt>
      <trkpt lat="45.45898" lon="5.92446">
        <ele>1883.84</ele>
        <time>2013-08-24T09:15:33Z</time>
      </trkpt>
      <trkpt lat="45.45899" lon="5.92445">
        <ele>1883.36</ele>
        <time>2013-08-24T09:15:37Z</time>
      </trkpt>
      <trkpt lat="45.45899" lon="5.92444">
        <ele>1883.36</ele>
        <time>2013-08-24T09:15:41Z</time>
      </trkpt>
      <trkpt lat="45.459" lon="5.92442">
        <ele>1883.36</ele>
        <time>2013-08-24T09:15:45Z</time>
      </trkpt>
      <trkpt lat="45.45902" lon="5.92441">
        <ele>1884.32</ele>
        <time>2013-08-24T09:15:49Z</time>
      </trkpt>
      <trkpt lat="45.45902" lon="5.92439">
        <ele>1886.24</ele>
        <time>2013-08-24T09:15:53Z</time>
      </trkpt>
      <trkpt lat="45.45902" lon="5.92438">
        <ele>1887.21</ele>
        <time>2013-08-24T09:15:57Z</time>
      </trkpt>
      <trkpt lat="45.45901" lon="5.92436">
        <ele>1886.72</ele>
        <time>2013-08-24T09:16:01Z</time>
      </trkpt>
      <trkpt lat="45.459" lon="5.92434">
        <ele>1886.72</ele>
        <time>2013-08-24T09:16:05Z</time>
      </trkpt>
      <trkpt lat="45.459" lon="5.92434">
        <ele>1886.72</ele>
        <time>2013-08-24T09:16:09Z</time>
      </trkpt>
      <trkpt lat="45.459" lon="5.92435">
        <ele>1886.72</ele>
        <time>2013-08-24T09:16:13Z</time>
      </trkpt>
      <trkpt lat="45.459" lon="5.92435">
        <ele>1886.72</ele>
        <time>2013-08-24T09:16:17Z</time>
      </trkpt>
      <trkpt lat="45.459" lon="5.92434">
        <ele>1886.72</ele>
        <time>2013-08-24T09:16:21Z</time>
      </trkpt>
      <trkpt lat="45.45899" lon="5.92434">
        <ele>1886.72</ele>
        <time>2013-08-24T09:16:25Z</time>
      </trkpt>
      <trkpt lat="45.45897" lon="5.92432">
        <ele>1886.24</ele>
        <time>2013-08-24T09:16:29Z</time>
      </trkpt>
      <trkpt lat="45.45899" lon="5.92431">
        <ele>1885.76</ele>
        <time>2013-08-24T09:16:33Z</time>
      </trkpt>
      <trkpt lat="45.45901" lon="5.92432">
        <ele>1885.76</ele>
        <time>2013-08-24T09:16:37Z</time>
      </trkpt>
      <trkpt lat="45.459" lon="5.92431">
        <ele>1886.24</ele>
        <time>2013-08-24T09:16:41Z</time>
      </trkpt>
      <trkpt lat="45.45899" lon="5.92432">
        <ele>1886.24</ele>
        <time>2013-08-24T09:16:45Z</time>
      </trkpt>
      <trkpt lat="45.45899" lon="5.92432">
        <ele>1886.24</ele>
        <time>2013-08-24T09:16:49Z</time>
      </trkpt>
      <trkpt lat="45.45899" lon="5.92432">
        <ele>1886.72</ele>
        <time>2013-08-24T09:16:53Z</time>
      </trkpt>
      <trkpt lat="45.45899" lon="5.92433">
        <ele>1886.72</ele>
        <time>2013-08-24T09:16:57Z</time>
      </trkpt>
      <trkpt lat="45.45899" lon="5.92433">
        <ele>1886.72</ele>
        <time>2013-08-24T09:17:01Z</time>
      </trkpt>
      <trkpt lat="45.45899" lon="5.92432">
        <ele>1887.69</ele>
        <time>2013-08-24T09:17:05Z</time>
      </trkpt>
      <trkpt lat="45.45898" lon="5.92432">
        <ele>1887.69</ele>
        <time>2013-08-24T09:17:09Z</time>
      </trkpt>
      <trkpt lat="45.45898" lon="5.9243">
        <ele>1887.69</ele>
        <time>2013-08-24T09:17:13Z</time>
      </trkpt>
      <trkpt lat="45.45896" lon="5.9243">
        <ele>1886.24</ele>
        <time>2013-08-24T09:17:17Z</time>
      </trkpt>
      <trkpt lat="45.45892" lon="5.92428">
        <ele>1885.28</ele>
        <time>2013-08-24T09:17:21Z</time>
      </trkpt>
      <trkpt lat="45.45887" lon="5.92426">
        <ele>1884.8</ele>
        <time>2013-08-24T09:17:25Z</time>
      </trkpt>
      <trkpt lat="45.45883" lon="5.92425">
        <ele>1883.84</ele>
        <time>2013-08-24T09:17:29Z</time>
      </trkpt>
      <trkpt lat="45.45881" lon="5.92426">
        <ele>1882.88</ele>
        <time>2013-08-24T09:17:33Z</time>
      </trkpt>
      <trkpt lat="45.45878" lon="5.92428">
        <ele>1882.4</ele>
        <time>2013-08-24T09:17:37Z</time>
      </trkpt>
      <trkpt lat="45.45875" lon="5.92426">
        <ele>1882.88</ele>
        <time>2013-08-24T09:17:41Z</time>
      </trkpt>
      <trkpt lat="45.45872" lon="5.92425">
        <ele>1882.88</ele>
        <time>2013-08-24T09:17:45Z</time>
      </trkpt>
      <trkpt lat="45.45867" lon="5.92422">
        <ele>1882.88</ele>
        <time>2013-08-24T09:17:49Z</time>
      </trkpt>
      <trkpt lat="45.45862" lon="5.92419">
        <ele>1882.88</ele>
        <time>2013-08-24T09:17:53Z</time>
      </trkpt>
      <trkpt lat="45.45857" lon="5.92414">
        <ele>1882.4</ele>
        <time>2013-08-24T09:17:57Z</time>
      </trkpt>
      <trkpt lat="45.45852" lon="5.92411">
        <ele>1881.44</ele>
        <time>2013-08-24T09:18:01Z</time>
      </trkpt>
      <trkpt lat="45.45848" lon="5.92409">
        <ele>1880.96</ele>
        <time>2013-08-24T09:18:05Z</time>
      </trkpt>
      <trkpt lat="45.45847" lon="5.92408">
        <ele>1880</ele>
        <time>2013-08-24T09:18:09Z</time>
      </trkpt>
      <trkpt lat="45.45847" lon="5.92408">
        <ele>1880</ele>
        <time>2013-08-24T09:18:13Z</time>
      </trkpt>
      <trkpt lat="45.45847" lon="5.92408">
        <ele>1880</ele>
        <time>2013-08-24T09:18:17Z</time>
      </trkpt>
      <trkpt lat="45.45846" lon="5.92408">
        <ele>1879.51</ele>
        <time>2013-08-24T09:18:21Z</time>
      </trkpt>
      <trkpt lat="45.45846" lon="5.92408">
        <ele>1879.03</ele>
        <time>2013-08-24T09:18:25Z</time>
      </trkpt>
      <trkpt lat="45.45846" lon="5.92408">
        <ele>1879.03</ele>
        <time>2013-08-24T09:18:29Z</time>
      </trkpt>
      <trkpt lat="45.45846" lon="5.92408">
        <ele>1879.51</ele>
        <time>2013-08-24T09:18:33Z</time>
      </trkpt>
      <trkpt lat="45.45843" lon="5.92406">
        <ele>1880.96</ele>
        <time>2013-08-24T09:18:37Z</time>
      </trkpt>
      <trkpt lat="45.45838" lon="5.92403">
        <ele>1881.44</ele>
        <time>2013-08-24T09:18:41Z</time>
      </trkpt>
      <trkpt lat="45.45834" lon="5.92399">
        <ele>1882.4</ele>
        <time>2013-08-24T09:18:45Z</time>
      </trkpt>
      <trkpt lat="45.45831" lon="5.92396">
        <ele>1883.36</ele>
        <time>2013-08-24T09:18:49Z</time>
      </trkpt>
      <trkpt lat="45.45827" lon="5.92392">
        <ele>1884.32</ele>
        <time>2013-08-24T09:18:53Z</time>
      </trkpt>
      <trkpt lat="45.45823" lon="5.92389">
        <ele>1884.8</ele>
        <time>2013-08-24T09:18:57Z</time>
      </trkpt>
      <trkpt lat="45.45819" lon="5.92384">
        <ele>1885.28</ele>
        <time>2013-08-24T09:19:01Z</time>
      </trkpt>
      <trkpt lat="45.45815" lon="5.92379">
        <ele>1885.76</ele>
        <time>2013-08-24T09:19:05Z</time>
      </trkpt>
      <trkpt lat="45.45813" lon="5.92375">
        <ele>1886.24</ele>
        <time>2013-08-24T09:19:09Z</time>
      </trkpt>
      <trkpt lat="45.4581" lon="5.9237">
        <ele>1885.76</ele>
        <time>2013-08-24T09:19:13Z</time>
      </trkpt>
      <trkpt lat="45.45807" lon="5.92366">
        <ele>1886.72</ele>
        <time>2013-08-24T09:19:17Z</time>
      </trkpt>
      <trkpt lat="45.45804" lon="5.92364">
        <ele>1887.21</ele>
        <time>2013-08-24T09:19:21Z</time>
      </trkpt>
      <trkpt lat="45.45801" lon="5.92363">
        <ele>1887.21</ele>
        <time>2013-08-24T09:19:25Z</time>
      </trkpt>
      <trkpt lat="45.45797" lon="5.92364">
        <ele>1886.24</ele>
        <time>2013-08-24T09:19:29Z</time>
      </trkpt>
      <trkpt lat="45.45792" lon="5.92364">
        <ele>1886.72</ele>
        <time>2013-08-24T09:19:33Z</time>
      </trkpt>
      <trkpt lat="45.45789" lon="5.92364">
        <ele>1887.69</ele>
        <time>2013-08-24T09:19:37Z</time>
      </trkpt>
      <trkpt lat="45.45785" lon="5.92364">
        <ele>1888.65</ele>
        <time>2013-08-24T09:19:41Z</time>
      </trkpt>
      <trkpt lat="45.45779" lon="5.92362">
        <ele>1888.17</ele>
        <time>2013-08-24T09:19:45Z</time>
      </trkpt>
      <trkpt lat="45.45775" lon="5.92359">
        <ele>1886.72</ele>
        <time>2013-08-24T09:19:49Z</time>
      </trkpt>
      <trkpt lat="45.45771" lon="5.9236">
        <ele>1885.28</ele>
        <time>2013-08-24T09:19:53Z</time>
      </trkpt>
      <trkpt lat="45.45768" lon="5.92359">
        <ele>1885.28</ele>
        <time>2013-08-24T09:19:57Z</time>
      </trkpt>
      <trkpt lat="45.45766" lon="5.9236">
        <ele>1885.28</ele>
        <time>2013-08-24T09:20:01Z</time>
      </trkpt>
      <trkpt lat="45.45763" lon="5.92359">
        <ele>1885.76</ele>
        <time>2013-08-24T09:20:05Z</time>
      </trkpt>
      <trkpt lat="45.45762" lon="5.92357">
        <ele>1887.21</ele>
        <time>2013-08-24T09:20:09Z</time>
      </trkpt>
      <trkpt lat="45.4576" lon="5.92358">
        <ele>1888.17</ele>
        <time>2013-08-24T09:20:13Z</time>
      </trkpt>
      <trkpt lat="45.45758" lon="5.92358">
        <ele>1887.21</ele>
        <time>2013-08-24T09:20:17Z</time>
      </trkpt>
      <trkpt lat="45.45756" lon="5.92356">
        <ele>1887.69</ele>
        <time>2013-08-24T09:20:21Z</time>
      </trkpt>
      <trkpt lat="45.45755" lon="5.92354">
        <ele>1887.21</ele>
        <time>2013-08-24T09:20:25Z</time>
      </trkpt>
      <trkpt lat="45.45753" lon="5.92354">
        <ele>1886.72</ele>
        <time>2013-08-24T09:20:29Z</time>
      </trkpt>
      <trkpt lat="45.45751" lon="5.92355">
        <ele>1885.76</ele>
        <time>2013-08-24T09:20:33Z</time>
      </trkpt>
      <trkpt lat="45.4575" lon="5.92353">
        <ele>1885.28</ele>
        <time>2013-08-24T09:20:37Z</time>
      </trkpt>
      <trkpt lat="45.45747" lon="5.92353">
        <ele>1885.28</ele>
        <time>2013-08-24T09:20:41Z</time>
      </trkpt>
      <trkpt lat="45.45745" lon="5.92354">
        <ele>1884.8</ele>
        <time>2013-08-24T09:20:45Z</time>
      </trkpt>
      <trkpt lat="45.45743" lon="5.92354">
        <ele>1884.32</ele>
        <time>2013-08-24T09:20:49Z</time>
      </trkpt>
      <trkpt lat="45.45742" lon="5.92353">
        <ele>1883.84</ele>
        <time>2013-08-24T09:20:53Z</time>
      </trkpt>
      <trkpt lat="45.45741" lon="5.92352">
        <ele>1883.36</ele>
        <time>2013-08-24T09:20:57Z</time>
      </trkpt>
      <trkpt lat="45.45741" lon="5.9235">
        <ele>1883.36</ele>
        <time>2013-08-24T09:21:01Z</time>
      </trkpt>
      <trkpt lat="45.4574" lon="5.9235">
        <ele>1882.88</ele>
        <time>2013-08-24T09:21:05Z</time>
      </trkpt>
      <trkpt lat="45.45741" lon="5.92353">
        <ele>1882.88</ele>
        <time>2013-08-24T09:21:09Z</time>
      </trkpt>
      <trkpt lat="45.4574" lon="5.92353">
        <ele>1882.4</ele>
        <time>2013-08-24T09:21:13Z</time>
      </trkpt>
      <trkpt lat="45.45739" lon="5.92354">
        <ele>1882.4</ele>
        <time>2013-08-24T09:21:17Z</time>
      </trkpt>
      <trkpt lat="45.45739" lon="5.92354">
        <ele>1882.88</ele>
        <time>2013-08-24T09:21:21Z</time>
      </trkpt>
      <trkpt lat="45.45739" lon="5.92353">
        <ele>1882.88</ele>
        <time>2013-08-24T09:21:25Z</time>
      </trkpt>
      <trkpt lat="45.45738" lon="5.92352">
        <ele>1882.88</ele>
        <time>2013-08-24T09:21:29Z</time>
      </trkpt>
      <trkpt lat="45.45739" lon="5.92352">
        <ele>1882.4</ele>
        <time>2013-08-24T09:21:33Z</time>
      </trkpt>
      <trkpt lat="45.45738" lon="5.92352">
        <ele>1882.4</ele>
        <time>2013-08-24T09:21:37Z</time>
      </trkpt>
      <trkpt lat="45.45736" lon="5.92353">
        <ele>1882.4</ele>
        <time>2013-08-24T09:21:41Z</time>
      </trkpt>
      <trkpt lat="45.45737" lon="5.92353">
        <ele>1882.88</ele>
        <time>2013-08-24T09:21:45Z</time>
      </trkpt>
      <trkpt lat="45.45737" lon="5.92354">
        <ele>1882.4</ele>
        <time>2013-08-24T09:21:49Z</time>
      </trkpt>
      <trkpt lat="45.45738" lon="5.92357">
        <ele>1881.44</ele>
        <time>2013-08-24T09:21:53Z</time>
      </trkpt>
      <trkpt lat="45.45737" lon="5.92359">
        <ele>1880.48</ele>
        <time>2013-08-24T09:21:57Z</time>
      </trkpt>
      <trkpt lat="45.45736" lon="5.92359">
        <ele>1880.48</ele>
        <time>2013-08-24T09:22:01Z</time>
      </trkpt>
      <trkpt lat="45.45735" lon="5.92357">
        <ele>1880.48</ele>
        <time>2013-08-24T09:22:05Z</time>
      </trkpt>
      <trkpt lat="45.45733" lon="5.92357">
        <ele>1880</ele>
        <time>2013-08-24T09:22:09Z</time>
      </trkpt>
      <trkpt lat="45.45733" lon="5.92357">
        <ele>1880</ele>
        <time>2013-08-24T09:22:13Z</time>
      </trkpt>
      <trkpt lat="45.45732" lon="5.92357">
        <ele>1879.51</ele>
        <time>2013-08-24T09:22:17Z</time>
      </trkpt>
      <trkpt lat="45.45731" lon="5.92357">
        <ele>1877.11</ele>
        <time>2013-08-24T09:22:21Z</time>
      </trkpt>
      <trkpt lat="45.45729" lon="5.92355">
        <ele>1877.59</ele>
        <time>2013-08-24T09:22:25Z</time>
      </trkpt>
      <trkpt lat="45.45728" lon="5.92354">
        <ele>1877.59</ele>
        <time>2013-08-24T09:22:29Z</time>
      </trkpt>
      <trkpt lat="45.45728" lon="5.92354">
        <ele>1878.07</ele>
        <time>2013-08-24T09:22:33Z</time>
      </trkpt>
      <trkpt lat="45.45726" lon="5.92353">
        <ele>1878.07</ele>
        <time>2013-08-24T09:22:37Z</time>
      </trkpt>
      <trkpt lat="45.45725" lon="5.92354">
        <ele>1877.59</ele>
        <time>2013-08-24T09:22:41Z</time>
      </trkpt>
      <trkpt lat="45.45724" lon="5.92353">
        <ele>1876.63</ele>
        <time>2013-08-24T09:22:45Z</time>
      </trkpt>
      <trkpt lat="45.45723" lon="5.92354">
        <ele>1876.15</ele>
        <time>2013-08-24T09:22:49Z</time>
      </trkpt>
      <trkpt lat="45.45721" lon="5.92355">
        <ele>1876.15</ele>
        <time>2013-08-24T09:22:53Z</time>
      </trkpt>
      <trkpt lat="45.4572" lon="5.92357">
        <ele>1875.67</ele>
        <time>2013-08-24T09:22:57Z</time>
      </trkpt>
      <trkpt lat="45.45717" lon="5.92359">
        <ele>1875.19</ele>
        <time>2013-08-24T09:23:01Z</time>
      </trkpt>
      <trkpt lat="45.45714" lon="5.92359">
        <ele>1875.19</ele>
        <time>2013-08-24T09:23:05Z</time>
      </trkpt>
      <trkpt lat="45.45711" lon="5.9236">
        <ele>1873.75</ele>
        <time>2013-08-24T09:23:09Z</time>
      </trkpt>
      <trkpt lat="45.45708" lon="5.92362">
        <ele>1872.3</ele>
        <time>2013-08-24T09:23:13Z</time>
      </trkpt>
      <trkpt lat="45.45705" lon="5.92365">
        <ele>1870.38</ele>
        <time>2013-08-24T09:23:17Z</time>
      </trkpt>
      <trkpt lat="45.45703" lon="5.92365">
        <ele>1869.42</ele>
        <time>2013-08-24T09:23:21Z</time>
      </trkpt>
      <trkpt lat="45.457" lon="5.92368">
        <ele>1867.98</ele>
        <time>2013-08-24T09:23:25Z</time>
      </trkpt>
      <trkpt lat="45.45697" lon="5.92371">
        <ele>1866.54</ele>
        <time>2013-08-24T09:23:29Z</time>
      </trkpt>
      <trkpt lat="45.45693" lon="5.92372">
        <ele>1865.09</ele>
        <time>2013-08-24T09:23:33Z</time>
      </trkpt>
      <trkpt lat="45.45691" lon="5.92375">
        <ele>1863.65</ele>
        <time>2013-08-24T09:23:37Z</time>
      </trkpt>
      <trkpt lat="45.45688" lon="5.92377">
        <ele>1863.17</ele>
        <time>2013-08-24T09:23:41Z</time>
      </trkpt>
      <trkpt lat="45.45685" lon="5.92378">
        <ele>1862.21</ele>
        <time>2013-08-24T09:23:45Z</time>
      </trkpt>
      <trkpt lat="45.45683" lon="5.92379">
        <ele>1861.73</ele>
        <time>2013-08-24T09:23:49Z</time>
      </trkpt>
      <trkpt lat="45.4568" lon="5.92382">
        <ele>1860.77</ele>
        <time>2013-08-24T09:23:53Z</time>
      </trkpt>
      <trkpt lat="45.45677" lon="5.92383">
        <ele>1860.29</ele>
        <time>2013-08-24T09:23:57Z</time>
      </trkpt>
      <trkpt lat="45.45674" lon="5.92385">
        <ele>1859.33</ele>
        <time>2013-08-24T09:24:01Z</time>
      </trkpt>
      <trkpt lat="45.45669" lon="5.92387">
        <ele>1857.89</ele>
        <time>2013-08-24T09:24:05Z</time>
      </trkpt>
      <trkpt lat="45.45664" lon="5.92388">
        <ele>1857.4</ele>
        <time>2013-08-24T09:24:09Z</time>
      </trkpt>
      <trkpt lat="45.45658" lon="5.92389">
        <ele>1857.89</ele>
        <time>2013-08-24T09:24:13Z</time>
      </trkpt>
      <trkpt lat="45.45655" lon="5.92388">
        <ele>1858.85</ele>
        <time>2013-08-24T09:24:17Z</time>
      </trkpt>
      <trkpt lat="45.45653" lon="5.92388">
        <ele>1859.81</ele>
        <time>2013-08-24T09:24:21Z</time>
      </trkpt>
      <trkpt lat="45.45649" lon="5.9239">
        <ele>1859.81</ele>
        <time>2013-08-24T09:24:25Z</time>
      </trkpt>
      <trkpt lat="45.45644" lon="5.9239">
        <ele>1859.81</ele>
        <time>2013-08-24T09:24:29Z</time>
      </trkpt>
      <trkpt lat="45.4564" lon="5.92387">
        <ele>1860.29</ele>
        <time>2013-08-24T09:24:33Z</time>
      </trkpt>
      <trkpt lat="45.45636" lon="5.92385">
        <ele>1860.77</ele>
        <time>2013-08-24T09:24:37Z</time>
      </trkpt>
      <trkpt lat="45.45633" lon="5.92382">
        <ele>1861.25</ele>
        <time>2013-08-24T09:24:41Z</time>
      </trkpt>
      <trkpt lat="45.45631" lon="5.92382">
        <ele>1861.73</ele>
        <time>2013-08-24T09:24:45Z</time>
      </trkpt>
      <trkpt lat="45.45629" lon="5.92379">
        <ele>1860.77</ele>
        <time>2013-08-24T09:24:49Z</time>
      </trkpt>
      <trkpt lat="45.45627" lon="5.92379">
        <ele>1859.81</ele>
        <time>2013-08-24T09:24:53Z</time>
      </trkpt>
      <trkpt lat="45.45624" lon="5.92379">
        <ele>1858.85</ele>
        <time>2013-08-24T09:24:57Z</time>
      </trkpt>
      <trkpt lat="45.45622" lon="5.92379">
        <ele>1858.37</ele>
        <time>2013-08-24T09:25:01Z</time>
      </trkpt>
      <trkpt lat="45.45619" lon="5.92378">
        <ele>1858.85</ele>
        <time>2013-08-24T09:25:05Z</time>
      </trkpt>
      <trkpt lat="45.45615" lon="5.92377">
        <ele>1858.85</ele>
        <time>2013-08-24T09:25:09Z</time>
      </trkpt>
      <trkpt lat="45.45613" lon="5.92376">
        <ele>1858.37</ele>
        <time>2013-08-24T09:25:13Z</time>
      </trkpt>
      <trkpt lat="45.45611" lon="5.92376">
        <ele>1858.37</ele>
        <time>2013-08-24T09:25:17Z</time>
      </trkpt>
      <trkpt lat="45.45608" lon="5.92374">
        <ele>1857.89</ele>
        <time>2013-08-24T09:25:21Z</time>
      </trkpt>
      <trkpt lat="45.45606" lon="5.92373">
        <ele>1857.89</ele>
        <time>2013-08-24T09:25:25Z</time>
      </trkpt>
      <trkpt lat="45.45603" lon="5.92372">
        <ele>1857.4</ele>
        <time>2013-08-24T09:25:29Z</time>
      </trkpt>
      <trkpt lat="45.45601" lon="5.92373">
        <ele>1855.96</ele>
        <time>2013-08-24T09:25:33Z</time>
      </trkpt>
      <trkpt lat="45.45598" lon="5.92375">
        <ele>1855</ele>
        <time>2013-08-24T09:25:37Z</time>
      </trkpt>
      <trkpt lat="45.45596" lon="5.92376">
        <ele>1853.56</ele>
        <time>2013-08-24T09:25:41Z</time>
      </trkpt>
      <trkpt lat="45.45594" lon="5.92377">
        <ele>1852.12</ele>
        <time>2013-08-24T09:25:45Z</time>
      </trkpt>
      <trkpt lat="45.45592" lon="5.92376">
        <ele>1852.12</ele>
        <time>2013-08-24T09:25:49Z</time>
      </trkpt>
      <trkpt lat="45.4559" lon="5.92377">
        <ele>1851.16</ele>
        <time>2013-08-24T09:25:53Z</time>
      </trkpt>
      <trkpt lat="45.45587" lon="5.92378">
        <ele>1851.64</ele>
        <time>2013-08-24T09:25:57Z</time>
      </trkpt>
      <trkpt lat="45.45584" lon="5.92376">
        <ele>1850.68</ele>
        <time>2013-08-24T09:26:01Z</time>
      </trkpt>
      <trkpt lat="45.45581" lon="5.92375">
        <ele>1850.19</ele>
        <time>2013-08-24T09:26:05Z</time>
      </trkpt>
      <trkpt lat="45.45578" lon="5.92374">
        <ele>1849.71</ele>
        <time>2013-08-24T09:26:09Z</time>
      </trkpt>
      <trkpt lat="45.45575" lon="5.92372">
        <ele>1850.19</ele>
        <time>2013-08-24T09:26:13Z</time>
      </trkpt>
      <trkpt lat="45.45572" lon="5.92371">
        <ele>1850.68</ele>
        <time>2013-08-24T09:26:17Z</time>
      </trkpt>
      <trkpt lat="45.45569" lon="5.92368">
        <ele>1851.16</ele>
        <time>2013-08-24T09:26:21Z</time>
      </trkpt>
      <trkpt lat="45.45565" lon="5.92365">
        <ele>1851.64</ele>
        <time>2013-08-24T09:26:25Z</time>
      </trkpt>
      <trkpt lat="45.45561" lon="5.92362">
        <ele>1852.6</ele>
        <time>2013-08-24T09:26:29Z</time>
      </trkpt>
      <trkpt lat="45.45557" lon="5.9236">
        <ele>1853.08</ele>
        <time>2013-08-24T09:26:33Z</time>
      </trkpt>
      <trkpt lat="45.45553" lon="5.92359">
        <ele>1851.64</ele>
        <time>2013-08-24T09:26:37Z</time>
      </trkpt>
      <trkpt lat="45.45549" lon="5.92359">
        <ele>1850.19</ele>
        <time>2013-08-24T09:26:41Z</time>
      </trkpt>
      <trkpt lat="45.45545" lon="5.92356">
        <ele>1848.75</ele>
        <time>2013-08-24T09:26:45Z</time>
      </trkpt>
      <trkpt lat="45.45542" lon="5.92353">
        <ele>1848.75</ele>
        <time>2013-08-24T09:26:49Z</time>
      </trkpt>
      <trkpt lat="45.45538" lon="5.92351">
        <ele>1847.79</ele>
        <time>2013-08-24T09:26:53Z</time>
      </trkpt>
      <trkpt lat="45.45535" lon="5.92348">
        <ele>1847.31</ele>
        <time>2013-08-24T09:26:57Z</time>
      </trkpt>
      <trkpt lat="45.45532" lon="5.92345">
        <ele>1847.79</ele>
        <time>2013-08-24T09:27:01Z</time>
      </trkpt>
      <trkpt lat="45.45529" lon="5.92343">
        <ele>1848.27</ele>
        <time>2013-08-24T09:27:05Z</time>
      </trkpt>
      <trkpt lat="45.45526" lon="5.92341">
        <ele>1848.27</ele>
        <time>2013-08-24T09:27:09Z</time>
      </trkpt>
      <trkpt lat="45.45523" lon="5.9234">
        <ele>1848.27</ele>
        <time>2013-08-24T09:27:13Z</time>
      </trkpt>
      <trkpt lat="45.45518" lon="5.92336">
        <ele>1847.79</ele>
        <time>2013-08-24T09:27:17Z</time>
      </trkpt>
      <trkpt lat="45.45517" lon="5.92336">
        <ele>1847.31</ele>
        <time>2013-08-24T09:27:21Z</time>
      </trkpt>
      <trkpt lat="45.45515" lon="5.92334">
        <ele>1846.83</ele>
        <time>2013-08-24T09:27:25Z</time>
      </trkpt>
      <trkpt lat="45.45511" lon="5.92331">
        <ele>1847.31</ele>
        <time>2013-08-24T09:27:29Z</time>
      </trkpt>
      <trkpt lat="45.45509" lon="5.92327">
        <ele>1848.75</ele>
        <time>2013-08-24T09:27:33Z</time>
      </trkpt>
      <trkpt lat="45.45507" lon="5.92325">
        <ele>1849.71</ele>
        <time>2013-08-24T09:27:37Z</time>
      </trkpt>
      <trkpt lat="45.45504" lon="5.92324">
        <ele>1850.68</ele>
        <time>2013-08-24T09:27:41Z</time>
      </trkpt>
      <trkpt lat="45.45501" lon="5.92322">
        <ele>1851.16</ele>
        <time>2013-08-24T09:27:45Z</time>
      </trkpt>
      <trkpt lat="45.45499" lon="5.92319">
        <ele>1851.64</ele>
        <time>2013-08-24T09:27:49Z</time>
      </trkpt>
      <trkpt lat="45.45496" lon="5.92317">
        <ele>1851.16</ele>
        <time>2013-08-24T09:27:53Z</time>
      </trkpt>
      <trkpt lat="45.45494" lon="5.92314">
        <ele>1850.68</ele>
        <time>2013-08-24T09:27:57Z</time>
      </trkpt>
      <trkpt lat="45.45494" lon="5.92313">
        <ele>1850.68</ele>
        <time>2013-08-24T09:28:01Z</time>
      </trkpt>
      <trkpt lat="45.45493" lon="5.92314">
        <ele>1851.64</ele>
        <time>2013-08-24T09:28:05Z</time>
      </trkpt>
      <trkpt lat="45.45492" lon="5.92314">
        <ele>1852.12</ele>
        <time>2013-08-24T09:28:09Z</time>
      </trkpt>
      <trkpt lat="45.45491" lon="5.92313">
        <ele>1852.12</ele>
        <time>2013-08-24T09:28:13Z</time>
      </trkpt>
      <trkpt lat="45.4549" lon="5.92313">
        <ele>1852.12</ele>
        <time>2013-08-24T09:28:17Z</time>
      </trkpt>
      <trkpt lat="45.4549" lon="5.92312">
        <ele>1851.64</ele>
        <time>2013-08-24T09:28:21Z</time>
      </trkpt>
      <trkpt lat="45.45489" lon="5.92312">
        <ele>1851.64</ele>
        <time>2013-08-24T09:28:25Z</time>
      </trkpt>
      <trkpt lat="45.45489" lon="5.92312">
        <ele>1851.64</ele>
        <time>2013-08-24T09:28:29Z</time>
      </trkpt>
      <trkpt lat="45.45488" lon="5.92311">
        <ele>1852.12</ele>
        <time>2013-08-24T09:28:33Z</time>
      </trkpt>
      <trkpt lat="45.45488" lon="5.92311">
        <ele>1852.12</ele>
        <time>2013-08-24T09:28:37Z</time>
      </trkpt>
      <trkpt lat="45.45488" lon="5.9231">
        <ele>1852.12</ele>
        <time>2013-08-24T09:28:41Z</time>
      </trkpt>
      <trkpt lat="45.45487" lon="5.9231">
        <ele>1851.64</ele>
        <time>2013-08-24T09:28:45Z</time>
      </trkpt>
      <trkpt lat="45.45486" lon="5.9231">
        <ele>1851.64</ele>
        <time>2013-08-24T09:28:49Z</time>
      </trkpt>
      <trkpt lat="45.45486" lon="5.92309">
        <ele>1851.16</ele>
        <time>2013-08-24T09:28:53Z</time>
      </trkpt>
      <trkpt lat="45.45485" lon="5.92309">
        <ele>1850.68</ele>
        <time>2013-08-24T09:28:57Z</time>
      </trkpt>
      <trkpt lat="45.45485" lon="5.92308">
        <ele>1850.19</ele>
        <time>2013-08-24T09:29:01Z</time>
      </trkpt>
      <trkpt lat="45.45485" lon="5.92309">
        <ele>1849.71</ele>
        <time>2013-08-24T09:29:05Z</time>
      </trkpt>
      <trkpt lat="45.45485" lon="5.92308">
        <ele>1849.23</ele>
        <time>2013-08-24T09:29:09Z</time>
      </trkpt>
      <trkpt lat="45.45484" lon="5.92306">
        <ele>1848.75</ele>
        <time>2013-08-24T09:29:13Z</time>
      </trkpt>
      <trkpt lat="45.45485" lon="5.92306">
        <ele>1847.79</ele>
        <time>2013-08-24T09:29:17Z</time>
      </trkpt>
      <trkpt lat="45.45483" lon="5.92308">
        <ele>1845.87</ele>
        <time>2013-08-24T09:29:21Z</time>
      </trkpt>
      <trkpt lat="45.45484" lon="5.92309">
        <ele>1844.91</ele>
        <time>2013-08-24T09:29:25Z</time>
      </trkpt>
      <trkpt lat="45.45484" lon="5.92309">
        <ele>1843.95</ele>
        <time>2013-08-24T09:29:29Z</time>
      </trkpt>
      <trkpt lat="45.45485" lon="5.92309">
        <ele>1843.95</ele>
        <time>2013-08-24T09:29:33Z</time>
      </trkpt>
      <trkpt lat="45.45485" lon="5.92307">
        <ele>1842.98</ele>
        <time>2013-08-24T09:29:37Z</time>
      </trkpt>
      <trkpt lat="45.45484" lon="5.92306">
        <ele>1843.47</ele>
        <time>2013-08-24T09:29:41Z</time>
      </trkpt>
      <trkpt lat="45.45483" lon="5.92305">
        <ele>1844.43</ele>
        <time>2013-08-24T09:29:45Z</time>
      </trkpt>
      <trkpt lat="45.45481" lon="5.92304">
        <ele>1845.39</ele>
        <time>2013-08-24T09:29:49Z</time>
      </trkpt>
      <trkpt lat="45.45481" lon="5.92301">
        <ele>1845.39</ele>
        <time>2013-08-24T09:29:53Z</time>
      </trkpt>
      <trkpt lat="45.45481" lon="5.923">
        <ele>1847.79</ele>
        <time>2013-08-24T09:29:57Z</time>
      </trkpt>
      <trkpt lat="45.45479" lon="5.92299">
        <ele>1847.79</ele>
        <time>2013-08-24T09:30:01Z</time>
      </trkpt>
      <trkpt lat="45.45478" lon="5.92299">
        <ele>1847.79</ele>
        <time>2013-08-24T09:30:05Z</time>
      </trkpt>
      <trkpt lat="45.45476" lon="5.92298">
        <ele>1848.75</ele>
        <time>2013-08-24T09:30:09Z</time>
      </trkpt>
      <trkpt lat="45.45474" lon="5.92296">
        <ele>1847.79</ele>
        <time>2013-08-24T09:30:13Z</time>
      </trkpt>
      <trkpt lat="45.45475" lon="5.92294">
        <ele>1847.31</ele>
        <time>2013-08-24T09:30:17Z</time>
      </trkpt>
      <trkpt lat="45.45475" lon="5.92293">
        <ele>1847.79</ele>
        <time>2013-08-24T09:30:21Z</time>
      </trkpt>
      <trkpt lat="45.45475" lon="5.92289">
        <ele>1849.23</ele>
        <time>2013-08-24T09:30:25Z</time>
      </trkpt>
      <trkpt lat="45.45475" lon="5.92287">
        <ele>1850.68</ele>
        <time>2013-08-24T09:30:29Z</time>
      </trkpt>
      <trkpt lat="45.45475" lon="5.92285">
        <ele>1851.64</ele>
        <time>2013-08-24T09:30:33Z</time>
      </trkpt>
      <trkpt lat="45.45476" lon="5.92282">
        <ele>1852.12</ele>
        <time>2013-08-24T09:30:37Z</time>
      </trkpt>
      <trkpt lat="45.45476" lon="5.9228">
        <ele>1852.6</ele>
        <time>2013-08-24T09:30:41Z</time>
      </trkpt>
      <trkpt lat="45.45474" lon="5.92278">
        <ele>1852.12</ele>
        <time>2013-08-24T09:30:45Z</time>
      </trkpt>
      <trkpt lat="45.45474" lon="5.92276">
        <ele>1852.6</ele>
        <time>2013-08-24T09:30:49Z</time>
      </trkpt>
      <trkpt lat="45.45474" lon="5.92274">
        <ele>1853.08</ele>
        <time>2013-08-24T09:30:53Z</time>
      </trkpt>
      <trkpt lat="45.45473" lon="5.92271">
        <ele>1854.52</ele>
        <time>2013-08-24T09:30:57Z</time>
      </trkpt>
      <trkpt lat="45.45473" lon="5.92267">
        <ele>1855.48</ele>
        <time>2013-08-24T09:31:01Z</time>
      </trkpt>
      <trkpt lat="45.45472" lon="5.92265">
        <ele>1856.92</ele>
        <time>2013-08-24T09:31:05Z</time>
      </trkpt>
      <trkpt lat="45.45471" lon="5.92262">
        <ele>1857.4</ele>
        <time>2013-08-24T09:31:09Z</time>
      </trkpt>
      <trkpt lat="45.45469" lon="5.92259">
        <ele>1858.85</ele>
        <time>2013-08-24T09:31:13Z</time>
      </trkpt>
      <trkpt lat="45.45466" lon="5.92259">
        <ele>1859.81</ele>
        <time>2013-08-24T09:31:17Z</time>
      </trkpt>
      <trkpt lat="45.45463" lon="5.9226">
        <ele>1859.81</ele>
        <time>2013-08-24T09:31:21Z</time>
      </trkpt>
      <trkpt lat="45.4546" lon="5.92262">
        <ele>1859.81</ele>
        <time>2013-08-24T09:31:25Z</time>
      </trkpt>
      <trkpt lat="45.45457" lon="5.92262">
        <ele>1859.81</ele>
        <time>2013-08-24T09:31:29Z</time>
      </trkpt>
      <trkpt lat="45.45453" lon="5.92262">
        <ele>1859.81</ele>
        <time>2013-08-24T09:31:33Z</time>
      </trkpt>
      <trkpt lat="45.45449" lon="5.92262">
        <ele>1860.77</ele>
        <time>2013-08-24T09:31:37Z</time>
      </trkpt>
      <trkpt lat="45.45446" lon="5.92261">
        <ele>1860.77</ele>
        <time>2013-08-24T09:31:41Z</time>
      </trkpt>
      <trkpt lat="45.45445" lon="5.92258">
        <ele>1860.29</ele>
        <time>2013-08-24T09:31:45Z</time>
      </trkpt>
      <trkpt lat="45.45444" lon="5.92255">
        <ele>1859.33</ele>
        <time>2013-08-24T09:31:49Z</time>
      </trkpt>
      <trkpt lat="45.45441" lon="5.92253">
        <ele>1858.85</ele>
        <time>2013-08-24T09:31:52Z</time>
      </trkpt>
      <trkpt lat="45.45435" lon="5.9225">
        <ele>1859.33</ele>
        <time>2013-08-24T09:31:57Z</time>
      </trkpt>
      <trkpt lat="45.45432" lon="5.92248">
        <ele>1860.77</ele>
        <time>2013-08-24T09:32:01Z</time>
      </trkpt>
      <trkpt lat="45.45428" lon="5.92245">
        <ele>1861.25</ele>
        <time>2013-08-24T09:32:05Z</time>
      </trkpt>
      <trkpt lat="45.45423" lon="5.92245">
        <ele>1860.77</ele>
        <time>2013-08-24T09:32:09Z</time>
      </trkpt>
      <trkpt lat="45.45419" lon="5.92247">
        <ele>1860.77</ele>
        <time>2013-08-24T09:32:13Z</time>
      </trkpt>
      <trkpt lat="45.45415" lon="5.92248">
        <ele>1861.25</ele>
        <time>2013-08-24T09:32:17Z</time>
      </trkpt>
      <trkpt lat="45.45412" lon="5.92249">
        <ele>1862.21</ele>
        <time>2013-08-24T09:32:21Z</time>
      </trkpt>
      <trkpt lat="45.45408" lon="5.92251">
        <ele>1862.21</ele>
        <time>2013-08-24T09:32:25Z</time>
      </trkpt>
      <trkpt lat="45.45405" lon="5.9225">
        <ele>1863.65</ele>
        <time>2013-08-24T09:32:29Z</time>
      </trkpt>
      <trkpt lat="45.45402" lon="5.92247">
        <ele>1864.13</ele>
        <time>2013-08-24T09:32:33Z</time>
      </trkpt>
      <trkpt lat="45.45398" lon="5.92245">
        <ele>1863.65</ele>
        <time>2013-08-24T09:32:37Z</time>
      </trkpt>
      <trkpt lat="45.45395" lon="5.92243">
        <ele>1863.65</ele>
        <time>2013-08-24T09:32:41Z</time>
      </trkpt>
      <trkpt lat="45.45391" lon="5.9224">
        <ele>1864.13</ele>
        <time>2013-08-24T09:32:45Z</time>
      </trkpt>
      <trkpt lat="45.45387" lon="5.92236">
        <ele>1864.13</ele>
        <time>2013-08-24T09:32:49Z</time>
      </trkpt>
      <trkpt lat="45.45384" lon="5.92236">
        <ele>1864.61</ele>
        <time>2013-08-24T09:32:53Z</time>
      </trkpt>
      <trkpt lat="45.45381" lon="5.92235">
        <ele>1864.61</ele>
        <time>2013-08-24T09:32:57Z</time>
      </trkpt>
      <trkpt lat="45.45377" lon="5.92233">
        <ele>1863.65</ele>
        <time>2013-08-24T09:33:01Z</time>
      </trkpt>
      <trkpt lat="45.45373" lon="5.92232">
        <ele>1863.17</ele>
        <time>2013-08-24T09:33:05Z</time>
      </trkpt>
      <trkpt lat="45.4537" lon="5.92231">
        <ele>1862.21</ele>
        <time>2013-08-24T09:33:09Z</time>
      </trkpt>
      <trkpt lat="45.45367" lon="5.92231">
        <ele>1861.25</ele>
        <time>2013-08-24T09:33:13Z</time>
      </trkpt>
      <trkpt lat="45.45363" lon="5.92231">
        <ele>1860.77</ele>
        <time>2013-08-24T09:33:17Z</time>
      </trkpt>
      <trkpt lat="45.45359" lon="5.9223">
        <ele>1859.33</ele>
        <time>2013-08-24T09:33:21Z</time>
      </trkpt>
      <trkpt lat="45.45354" lon="5.92227">
        <ele>1857.89</ele>
        <time>2013-08-24T09:33:25Z</time>
      </trkpt>
      <trkpt lat="45.45349" lon="5.92224">
        <ele>1856.92</ele>
        <time>2013-08-24T09:33:29Z</time>
      </trkpt>
      <trkpt lat="45.45345" lon="5.92222">
        <ele>1856.92</ele>
        <time>2013-08-24T09:33:33Z</time>
      </trkpt>
      <trkpt lat="45.45344" lon="5.9222">
        <ele>1857.4</ele>
        <time>2013-08-24T09:33:37Z</time>
      </trkpt>
      <trkpt lat="45.45342" lon="5.92217">
        <ele>1857.89</ele>
        <time>2013-08-24T09:33:41Z</time>
      </trkpt>
      <trkpt lat="45.45339" lon="5.92211">
        <ele>1857.4</ele>
        <time>2013-08-24T09:33:45Z</time>
      </trkpt>
      <trkpt lat="45.45336" lon="5.92206">
        <ele>1856.92</ele>
        <time>2013-08-24T09:33:49Z</time>
      </trkpt>
      <trkpt lat="45.45332" lon="5.92202">
        <ele>1856.44</ele>
        <time>2013-08-24T09:33:53Z</time>
      </trkpt>
      <trkpt lat="45.45328" lon="5.922">
        <ele>1855.96</ele>
        <time>2013-08-24T09:33:57Z</time>
      </trkpt>
      <trkpt lat="45.45324" lon="5.92199">
        <ele>1855.48</ele>
        <time>2013-08-24T09:34:01Z</time>
      </trkpt>
      <trkpt lat="45.4532" lon="5.92197">
        <ele>1855.48</ele>
        <time>2013-08-24T09:34:05Z</time>
      </trkpt>
      <trkpt lat="45.45317" lon="5.92192">
        <ele>1855</ele>
        <time>2013-08-24T09:34:09Z</time>
      </trkpt>
      <trkpt lat="45.45312" lon="5.9219">
        <ele>1854.52</ele>
        <time>2013-08-24T09:34:13Z</time>
      </trkpt>
      <trkpt lat="45.45308" lon="5.92188">
        <ele>1854.52</ele>
        <time>2013-08-24T09:34:17Z</time>
      </trkpt>
      <trkpt lat="45.45304" lon="5.92183">
        <ele>1854.52</ele>
        <time>2013-08-24T09:34:21Z</time>
      </trkpt>
      <trkpt lat="45.453" lon="5.92179">
        <ele>1854.04</ele>
        <time>2013-08-24T09:34:25Z</time>
      </trkpt>
      <trkpt lat="45.45297" lon="5.92176">
        <ele>1854.04</ele>
        <time>2013-08-24T09:34:29Z</time>
      </trkpt>
      <trkpt lat="45.45296" lon="5.92174">
        <ele>1854.04</ele>
        <time>2013-08-24T09:34:33Z</time>
      </trkpt>
      <trkpt lat="45.45294" lon="5.92173">
        <ele>1854.04</ele>
        <time>2013-08-24T09:34:37Z</time>
      </trkpt>
      <trkpt lat="45.45294" lon="5.92172">
        <ele>1854.04</ele>
        <time>2013-08-24T09:34:41Z</time>
      </trkpt>
      <trkpt lat="45.45293" lon="5.92171">
        <ele>1853.08</ele>
        <time>2013-08-24T09:34:45Z</time>
      </trkpt>
      <trkpt lat="45.45293" lon="5.92171">
        <ele>1853.08</ele>
        <time>2013-08-24T09:34:49Z</time>
      </trkpt>
      <trkpt lat="45.45291" lon="5.92171">
        <ele>1853.08</ele>
        <time>2013-08-24T09:34:53Z</time>
      </trkpt>
      <trkpt lat="45.4529" lon="5.9217">
        <ele>1852.6</ele>
        <time>2013-08-24T09:34:57Z</time>
      </trkpt>
      <trkpt lat="45.45287" lon="5.9217">
        <ele>1852.6</ele>
        <time>2013-08-24T09:35:01Z</time>
      </trkpt>
      <trkpt lat="45.45283" lon="5.92169">
        <ele>1852.6</ele>
        <time>2013-08-24T09:35:05Z</time>
      </trkpt>
      <trkpt lat="45.45279" lon="5.92167">
        <ele>1852.6</ele>
        <time>2013-08-24T09:35:09Z</time>
      </trkpt>
      <trkpt lat="45.45274" lon="5.92166">
        <ele>1851.64</ele>
        <time>2013-08-24T09:35:13Z</time>
      </trkpt>
      <trkpt lat="45.45269" lon="5.92163">
        <ele>1850.68</ele>
        <time>2013-08-24T09:35:17Z</time>
      </trkpt>
      <trkpt lat="45.45266" lon="5.92162">
        <ele>1850.19</ele>
        <time>2013-08-24T09:35:21Z</time>
      </trkpt>
      <trkpt lat="45.45263" lon="5.92159">
        <ele>1850.19</ele>
        <time>2013-08-24T09:35:25Z</time>
      </trkpt>
      <trkpt lat="45.4526" lon="5.92156">
        <ele>1850.19</ele>
        <time>2013-08-24T09:35:29Z</time>
      </trkpt>
      <trkpt lat="45.45256" lon="5.92155">
        <ele>1849.71</ele>
        <time>2013-08-24T09:35:33Z</time>
      </trkpt>
      <trkpt lat="45.45252" lon="5.92156">
        <ele>1850.19</ele>
        <time>2013-08-24T09:35:37Z</time>
      </trkpt>
      <trkpt lat="45.45249" lon="5.92155">
        <ele>1850.19</ele>
        <time>2013-08-24T09:35:41Z</time>
      </trkpt>
      <trkpt lat="45.45248" lon="5.92152">
        <ele>1849.71</ele>
        <time>2013-08-24T09:35:45Z</time>
      </trkpt>
      <trkpt lat="45.45245" lon="5.92149">
        <ele>1849.23</ele>
        <time>2013-08-24T09:35:49Z</time>
      </trkpt>
      <trkpt lat="45.4524" lon="5.92146">
        <ele>1848.75</ele>
        <time>2013-08-24T09:35:53Z</time>
      </trkpt>
      <trkpt lat="45.45239" lon="5.92142">
        <ele>1848.27</ele>
        <time>2013-08-24T09:35:57Z</time>
      </trkpt>
      <trkpt lat="45.45236" lon="5.9214">
        <ele>1848.75</ele>
        <time>2013-08-24T09:36:01Z</time>
      </trkpt>
      <trkpt lat="45.45233" lon="5.92137">
        <ele>1849.71</ele>
        <time>2013-08-24T09:36:05Z</time>
      </trkpt>
      <trkpt lat="45.45231" lon="5.92133">
        <ele>1850.68</ele>
        <time>2013-08-24T09:36:09Z</time>
      </trkpt>
      <trkpt lat="45.45231" lon="5.92128">
        <ele>1851.16</ele>
        <time>2013-08-24T09:36:13Z</time>
      </trkpt>
      <trkpt lat="45.45229" lon="5.92124">
        <ele>1851.64</ele>
        <time>2013-08-24T09:36:17Z</time>
      </trkpt>
      <trkpt lat="45.45228" lon="5.9212">
        <ele>1852.12</ele>
        <time>2013-08-24T09:36:21Z</time>
      </trkpt>
      <trkpt lat="45.45227" lon="5.92115">
        <ele>1852.12</ele>
        <time>2013-08-24T09:36:25Z</time>
      </trkpt>
      <trkpt lat="45.45227" lon="5.92108">
        <ele>1852.6</ele>
        <time>2013-08-24T09:36:29Z</time>
      </trkpt>
      <trkpt lat="45.45227" lon="5.92102">
        <ele>1854.04</ele>
        <time>2013-08-24T09:36:33Z</time>
      </trkpt>
      <trkpt lat="45.45226" lon="5.92099">
        <ele>1855.48</ele>
        <time>2013-08-24T09:36:37Z</time>
      </trkpt>
      <trkpt lat="45.45223" lon="5.92094">
        <ele>1856.92</ele>
        <time>2013-08-24T09:36:41Z</time>
      </trkpt>
      <trkpt lat="45.4522" lon="5.92088">
        <ele>1857.4</ele>
        <time>2013-08-24T09:36:45Z</time>
      </trkpt>
      <trkpt lat="45.45217" lon="5.92083">
        <ele>1859.33</ele>
        <time>2013-08-24T09:36:49Z</time>
      </trkpt>
      <trkpt lat="45.45215" lon="5.92077">
        <ele>1860.29</ele>
        <time>2013-08-24T09:36:53Z</time>
      </trkpt>
      <trkpt lat="45.45214" lon="5.9207">
        <ele>1860.77</ele>
        <time>2013-08-24T09:36:57Z</time>
      </trkpt>
      <trkpt lat="45.45211" lon="5.92063">
        <ele>1860.77</ele>
        <time>2013-08-24T09:37:01Z</time>
      </trkpt>
      <trkpt lat="45.45209" lon="5.92057">
        <ele>1860.29</ele>
        <time>2013-08-24T09:37:05Z</time>
      </trkpt>
      <trkpt lat="45.45206" lon="5.92054">
        <ele>1858.85</ele>
        <time>2013-08-24T09:37:09Z</time>
      </trkpt>
      <trkpt lat="45.45205" lon="5.92051">
        <ele>1858.37</ele>
        <time>2013-08-24T09:37:13Z</time>
      </trkpt>
      <trkpt lat="45.45204" lon="5.92049">
        <ele>1857.4</ele>
        <time>2013-08-24T09:37:17Z</time>
      </trkpt>
      <trkpt lat="45.45203" lon="5.92046">
        <ele>1856.92</ele>
        <time>2013-08-24T09:37:21Z</time>
      </trkpt>
      <trkpt lat="45.45202" lon="5.92046">
        <ele>1856.92</ele>
        <time>2013-08-24T09:37:25Z</time>
      </trkpt>
      <trkpt lat="45.45201" lon="5.92046">
        <ele>1856.92</ele>
        <time>2013-08-24T09:37:29Z</time>
      </trkpt>
      <trkpt lat="45.45199" lon="5.92046">
        <ele>1856.44</ele>
        <time>2013-08-24T09:37:33Z</time>
      </trkpt>
      <trkpt lat="45.45196" lon="5.92048">
        <ele>1856.44</ele>
        <time>2013-08-24T09:37:37Z</time>
      </trkpt>
      <trkpt lat="45.45194" lon="5.92051">
        <ele>1856.92</ele>
        <time>2013-08-24T09:37:41Z</time>
      </trkpt>
      <trkpt lat="45.4519" lon="5.92052">
        <ele>1856.92</ele>
        <time>2013-08-24T09:37:45Z</time>
      </trkpt>
      <trkpt lat="45.45187" lon="5.92054">
        <ele>1857.4</ele>
        <time>2013-08-24T09:37:49Z</time>
      </trkpt>
      <trkpt lat="45.45183" lon="5.92058">
        <ele>1856.44</ele>
        <time>2013-08-24T09:37:53Z</time>
      </trkpt>
      <trkpt lat="45.45182" lon="5.92061">
        <ele>1855.96</ele>
        <time>2013-08-24T09:37:57Z</time>
      </trkpt>
      <trkpt lat="45.45179" lon="5.92065">
        <ele>1855.48</ele>
        <time>2013-08-24T09:38:01Z</time>
      </trkpt>
      <trkpt lat="45.45177" lon="5.92068">
        <ele>1855</ele>
        <time>2013-08-24T09:38:05Z</time>
      </trkpt>
      <trkpt lat="45.45175" lon="5.92069">
        <ele>1854.52</ele>
        <time>2013-08-24T09:38:09Z</time>
      </trkpt>
      <trkpt lat="45.45174" lon="5.92069">
        <ele>1853.08</ele>
        <time>2013-08-24T09:38:13Z</time>
      </trkpt>
      <trkpt lat="45.45171" lon="5.9207">
        <ele>1852.6</ele>
        <time>2013-08-24T09:38:17Z</time>
      </trkpt>
      <trkpt lat="45.45169" lon="5.92072">
        <ele>1852.6</ele>
        <time>2013-08-24T09:38:21Z</time>
      </trkpt>
      <trkpt lat="45.45168" lon="5.92073">
        <ele>1852.6</ele>
        <time>2013-08-24T09:38:25Z</time>
      </trkpt>
      <trkpt lat="45.45165" lon="5.92072">
        <ele>1851.16</ele>
        <time>2013-08-24T09:38:29Z</time>
      </trkpt>
      <trkpt lat="45.45164" lon="5.9207">
        <ele>1849.71</ele>
        <time>2013-08-24T09:38:33Z</time>
      </trkpt>
      <trkpt lat="45.45163" lon="5.92069">
        <ele>1848.27</ele>
        <time>2013-08-24T09:38:37Z</time>
      </trkpt>
      <trkpt lat="45.45162" lon="5.92068">
        <ele>1847.79</ele>
        <time>2013-08-24T09:38:41Z</time>
      </trkpt>
      <trkpt lat="45.45161" lon="5.92067">
        <ele>1846.83</ele>
        <time>2013-08-24T09:38:45Z</time>
      </trkpt>
      <trkpt lat="45.4516" lon="5.92064">
        <ele>1846.35</ele>
        <time>2013-08-24T09:38:49Z</time>
      </trkpt>
      <trkpt lat="45.45159" lon="5.92063">
        <ele>1844.91</ele>
        <time>2013-08-24T09:38:53Z</time>
      </trkpt>
      <trkpt lat="45.45157" lon="5.92062">
        <ele>1843.47</ele>
        <time>2013-08-24T09:38:57Z</time>
      </trkpt>
      <trkpt lat="45.45156" lon="5.92058">
        <ele>1842.98</ele>
        <time>2013-08-24T09:39:01Z</time>
      </trkpt>
      <trkpt lat="45.45153" lon="5.92058">
        <ele>1842.02</ele>
        <time>2013-08-24T09:39:05Z</time>
      </trkpt>
      <trkpt lat="45.45153" lon="5.92058">
        <ele>1840.58</ele>
        <time>2013-08-24T09:39:09Z</time>
      </trkpt>
      <trkpt lat="45.45152" lon="5.92057">
        <ele>1838.66</ele>
        <time>2013-08-24T09:39:13Z</time>
      </trkpt>
      <trkpt lat="45.4515" lon="5.92058">
        <ele>1835.77</ele>
        <time>2013-08-24T09:39:17Z</time>
      </trkpt>
      <trkpt lat="45.45148" lon="5.92058">
        <ele>1832.89</ele>
        <time>2013-08-24T09:39:21Z</time>
      </trkpt>
      <trkpt lat="45.45149" lon="5.92059">
        <ele>1830.49</ele>
        <time>2013-08-24T09:39:25Z</time>
      </trkpt>
      <trkpt lat="45.45149" lon="5.92058">
        <ele>1829.53</ele>
        <time>2013-08-24T09:39:29Z</time>
      </trkpt>
      <trkpt lat="45.4515" lon="5.92055">
        <ele>1828.56</ele>
        <time>2013-08-24T09:39:33Z</time>
      </trkpt>
      <trkpt lat="45.4515" lon="5.92051">
        <ele>1828.08</ele>
        <time>2013-08-24T09:39:37Z</time>
      </trkpt>
      <trkpt lat="45.45149" lon="5.92049">
        <ele>1828.08</ele>
        <time>2013-08-24T09:39:41Z</time>
      </trkpt>
      <trkpt lat="45.45148" lon="5.92047">
        <ele>1827.12</ele>
        <time>2013-08-24T09:39:45Z</time>
      </trkpt>
      <trkpt lat="45.45146" lon="5.92045">
        <ele>1826.64</ele>
        <time>2013-08-24T09:39:49Z</time>
      </trkpt>
      <trkpt lat="45.45144" lon="5.92042">
        <ele>1826.16</ele>
        <time>2013-08-24T09:39:53Z</time>
      </trkpt>
      <trkpt lat="45.45141" lon="5.92042">
        <ele>1823.28</ele>
        <time>2013-08-24T09:39:57Z</time>
      </trkpt>
      <trkpt lat="45.45138" lon="5.92041">
        <ele>1820.87</ele>
        <time>2013-08-24T09:40:01Z</time>
      </trkpt>
      <trkpt lat="45.45136" lon="5.92038">
        <ele>1818.95</ele>
        <time>2013-08-24T09:40:05Z</time>
      </trkpt>
      <trkpt lat="45.45132" lon="5.92038">
        <ele>1817.51</ele>
        <time>2013-08-24T09:40:09Z</time>
      </trkpt>
      <trkpt lat="45.45131" lon="5.92036">
        <ele>1816.07</ele>
        <time>2013-08-24T09:40:13Z</time>
      </trkpt>
      <trkpt lat="45.4513" lon="5.92035">
        <ele>1815.59</ele>
        <time>2013-08-24T09:40:17Z</time>
      </trkpt>
      <trkpt lat="45.45129" lon="5.92034">
        <ele>1815.11</ele>
        <time>2013-08-24T09:40:21Z</time>
      </trkpt>
      <trkpt lat="45.45128" lon="5.92032">
        <ele>1814.63</ele>
        <time>2013-08-24T09:40:25Z</time>
      </trkpt>
      <trkpt lat="45.45126" lon="5.9203">
        <ele>1813.66</ele>
        <time>2013-08-24T09:40:29Z</time>
      </trkpt>
      <trkpt lat="45.45124" lon="5.92028">
        <ele>1813.18</ele>
        <time>2013-08-24T09:40:33Z</time>
      </trkpt>
      <trkpt lat="45.45123" lon="5.92028">
        <ele>1812.22</ele>
        <time>2013-08-24T09:40:37Z</time>
      </trkpt>
      <trkpt lat="45.45122" lon="5.92027">
        <ele>1811.74</ele>
        <time>2013-08-24T09:40:41Z</time>
      </trkpt>
      <trkpt lat="45.45121" lon="5.92024">
        <ele>1811.26</ele>
        <time>2013-08-24T09:40:45Z</time>
      </trkpt>
      <trkpt lat="45.45119" lon="5.92022">
        <ele>1810.78</ele>
        <time>2013-08-24T09:40:49Z</time>
      </trkpt>
      <trkpt lat="45.45119" lon="5.92021">
        <ele>1809.82</ele>
        <time>2013-08-24T09:40:53Z</time>
      </trkpt>
      <trkpt lat="45.4512" lon="5.92018">
        <ele>1809.82</ele>
        <time>2013-08-24T09:40:57Z</time>
      </trkpt>
      <trkpt lat="45.45119" lon="5.92014">
        <ele>1809.82</ele>
        <time>2013-08-24T09:41:01Z</time>
      </trkpt>
      <trkpt lat="45.4512" lon="5.92011">
        <ele>1809.82</ele>
        <time>2013-08-24T09:41:05Z</time>
      </trkpt>
      <trkpt lat="45.45119" lon="5.92006">
        <ele>1809.34</ele>
        <time>2013-08-24T09:41:09Z</time>
      </trkpt>
      <trkpt lat="45.45117" lon="5.92003">
        <ele>1808.38</ele>
        <time>2013-08-24T09:41:13Z</time>
      </trkpt>
      <trkpt lat="45.45117" lon="5.92">
        <ele>1807.42</ele>
        <time>2013-08-24T09:41:17Z</time>
      </trkpt>
      <trkpt lat="45.45115" lon="5.91995">
        <ele>1806.45</ele>
        <time>2013-08-24T09:41:21Z</time>
      </trkpt>
      <trkpt lat="45.45115" lon="5.91992">
        <ele>1805.49</ele>
        <time>2013-08-24T09:41:25Z</time>
      </trkpt>
      <trkpt lat="45.45113" lon="5.91989">
        <ele>1804.53</ele>
        <time>2013-08-24T09:41:29Z</time>
      </trkpt>
      <trkpt lat="45.45113" lon="5.91987">
        <ele>1803.57</ele>
        <time>2013-08-24T09:41:33Z</time>
      </trkpt>
      <trkpt lat="45.45116" lon="5.91987">
        <ele>1802.13</ele>
        <time>2013-08-24T09:41:37Z</time>
      </trkpt>
      <trkpt lat="45.45117" lon="5.91991">
        <ele>1799.73</ele>
        <time>2013-08-24T09:41:41Z</time>
      </trkpt>
      <trkpt lat="45.45117" lon="5.91988">
        <ele>1798.76</ele>
        <time>2013-08-24T09:41:45Z</time>
      </trkpt>
      <trkpt lat="45.45116" lon="5.91987">
        <ele>1798.28</ele>
        <time>2013-08-24T09:41:49Z</time>
      </trkpt>
      <trkpt lat="45.45116" lon="5.91985">
        <ele>1797.32</ele>
        <time>2013-08-24T09:41:53Z</time>
      </trkpt>
      <trkpt lat="45.45119" lon="5.91986">
        <ele>1796.36</ele>
        <time>2013-08-24T09:41:57Z</time>
      </trkpt>
      <trkpt lat="45.4512" lon="5.91987">
        <ele>1795.4</ele>
        <time>2013-08-24T09:42:01Z</time>
      </trkpt>
      <trkpt lat="45.4512" lon="5.91986">
        <ele>1794.44</ele>
        <time>2013-08-24T09:42:05Z</time>
      </trkpt>
      <trkpt lat="45.45122" lon="5.91987">
        <ele>1793.96</ele>
        <time>2013-08-24T09:42:09Z</time>
      </trkpt>
      <trkpt lat="45.45122" lon="5.91985">
        <ele>1793.48</ele>
        <time>2013-08-24T09:42:13Z</time>
      </trkpt>
      <trkpt lat="45.45122" lon="5.91984">
        <ele>1793</ele>
        <time>2013-08-24T09:42:17Z</time>
      </trkpt>
      <trkpt lat="45.45122" lon="5.91982">
        <ele>1792.52</ele>
        <time>2013-08-24T09:42:21Z</time>
      </trkpt>
      <trkpt lat="45.45123" lon="5.9198">
        <ele>1792.03</ele>
        <time>2013-08-24T09:42:25Z</time>
      </trkpt>
      <trkpt lat="45.45122" lon="5.91978">
        <ele>1791.55</ele>
        <time>2013-08-24T09:42:29Z</time>
      </trkpt>
      <trkpt lat="45.45122" lon="5.91975">
        <ele>1791.07</ele>
        <time>2013-08-24T09:42:33Z</time>
      </trkpt>
      <trkpt lat="45.45122" lon="5.91972">
        <ele>1790.11</ele>
        <time>2013-08-24T09:42:37Z</time>
      </trkpt>
      <trkpt lat="45.4512" lon="5.91971">
        <ele>1789.63</ele>
        <time>2013-08-24T09:42:41Z</time>
      </trkpt>
      <trkpt lat="45.4512" lon="5.91969">
        <ele>1789.15</ele>
        <time>2013-08-24T09:42:45Z</time>
      </trkpt>
      <trkpt lat="45.4512" lon="5.91967">
        <ele>1788.67</ele>
        <time>2013-08-24T09:42:49Z</time>
      </trkpt>
      <trkpt lat="45.4512" lon="5.91967">
        <ele>1787.23</ele>
        <time>2013-08-24T09:42:53Z</time>
      </trkpt>
      <trkpt lat="45.4512" lon="5.91966">
        <ele>1786.75</ele>
        <time>2013-08-24T09:42:57Z</time>
      </trkpt>
      <trkpt lat="45.45122" lon="5.91966">
        <ele>1784.82</ele>
        <time>2013-08-24T09:43:01Z</time>
      </trkpt>
      <trkpt lat="45.45123" lon="5.91965">
        <ele>1783.38</ele>
        <time>2013-08-24T09:43:05Z</time>
      </trkpt>
      <trkpt lat="45.45123" lon="5.91966">
        <ele>1781.46</ele>
        <time>2013-08-24T09:43:09Z</time>
      </trkpt>
      <trkpt lat="45.45124" lon="5.91965">
        <ele>1780.5</ele>
        <time>2013-08-24T09:43:13Z</time>
      </trkpt>
      <trkpt lat="45.45124" lon="5.91964">
        <ele>1780.02</ele>
        <time>2013-08-24T09:43:17Z</time>
      </trkpt>
      <trkpt lat="45.45125" lon="5.91962">
        <ele>1778.1</ele>
        <time>2013-08-24T09:43:21Z</time>
      </trkpt>
      <trkpt lat="45.45126" lon="5.91962">
        <ele>1776.17</ele>
        <time>2013-08-24T09:43:25Z</time>
      </trkpt>
      <trkpt lat="45.45127" lon="5.91962">
        <ele>1776.17</ele>
        <time>2013-08-24T09:43:29Z</time>
      </trkpt>
      <trkpt lat="45.45129" lon="5.91961">
        <ele>1776.17</ele>
        <time>2013-08-24T09:43:33Z</time>
      </trkpt>
      <trkpt lat="45.45129" lon="5.9196">
        <ele>1775.69</ele>
        <time>2013-08-24T09:43:37Z</time>
      </trkpt>
      <trkpt lat="45.45131" lon="5.9196">
        <ele>1774.73</ele>
        <time>2013-08-24T09:43:41Z</time>
      </trkpt>
      <trkpt lat="45.45132" lon="5.91958">
        <ele>1773.77</ele>
        <time>2013-08-24T09:43:45Z</time>
      </trkpt>
      <trkpt lat="45.45134" lon="5.91956">
        <ele>1773.77</ele>
        <time>2013-08-24T09:43:49Z</time>
      </trkpt>
      <trkpt lat="45.45136" lon="5.91957">
        <ele>1773.77</ele>
        <time>2013-08-24T09:43:53Z</time>
      </trkpt>
      <trkpt lat="45.45136" lon="5.91957">
        <ele>1775.21</ele>
        <time>2013-08-24T09:43:57Z</time>
      </trkpt>
      <trkpt lat="45.45138" lon="5.91959">
        <ele>1775.69</ele>
        <time>2013-08-24T09:44:01Z</time>
      </trkpt>
      <trkpt lat="45.45138" lon="5.91959">
        <ele>1776.17</ele>
        <time>2013-08-24T09:44:05Z</time>
      </trkpt>
      <trkpt lat="45.45137" lon="5.91957">
        <ele>1775.69</ele>
        <time>2013-08-24T09:44:09Z</time>
      </trkpt>
      <trkpt lat="45.45137" lon="5.91955">
        <ele>1775.69</ele>
        <time>2013-08-24T09:44:13Z</time>
      </trkpt>
      <trkpt lat="45.45137" lon="5.91953">
        <ele>1775.21</ele>
        <time>2013-08-24T09:44:17Z</time>
      </trkpt>
      <trkpt lat="45.45137" lon="5.9195">
        <ele>1774.25</ele>
        <time>2013-08-24T09:44:21Z</time>
      </trkpt>
      <trkpt lat="45.45137" lon="5.91949">
        <ele>1774.25</ele>
        <time>2013-08-24T09:44:25Z</time>
      </trkpt>
      <trkpt lat="45.45137" lon="5.9195">
        <ele>1773.77</ele>
        <time>2013-08-24T09:44:29Z</time>
      </trkpt>
      <trkpt lat="45.45137" lon="5.91948">
        <ele>1773.77</ele>
        <time>2013-08-24T09:44:33Z</time>
      </trkpt>
      <trkpt lat="45.45138" lon="5.91948">
        <ele>1774.25</ele>
        <time>2013-08-24T09:44:37Z</time>
      </trkpt>
      <trkpt lat="45.45138" lon="5.91944">
        <ele>1774.25</ele>
        <time>2013-08-24T09:44:41Z</time>
      </trkpt>
      <trkpt lat="45.45138" lon="5.91943">
        <ele>1773.77</ele>
        <time>2013-08-24T09:44:45Z</time>
      </trkpt>
      <trkpt lat="45.45138" lon="5.91941">
        <ele>1773.29</ele>
        <time>2013-08-24T09:44:49Z</time>
      </trkpt>
      <trkpt lat="45.45139" lon="5.91938">
        <ele>1770.89</ele>
        <time>2013-08-24T09:44:53Z</time>
      </trkpt>
      <trkpt lat="45.45139" lon="5.91935">
        <ele>1770.41</ele>
        <time>2013-08-24T09:44:57Z</time>
      </trkpt>
      <trkpt lat="45.4514" lon="5.91931">
        <ele>1768.96</ele>
        <time>2013-08-24T09:45:01Z</time>
      </trkpt>
      <trkpt lat="45.45141" lon="5.91929">
        <ele>1767.04</ele>
        <time>2013-08-24T09:45:05Z</time>
      </trkpt>
      <trkpt lat="45.45141" lon="5.91927">
        <ele>1766.08</ele>
        <time>2013-08-24T09:45:09Z</time>
      </trkpt>
      <trkpt lat="45.45141" lon="5.91925">
        <ele>1764.64</ele>
        <time>2013-08-24T09:45:13Z</time>
      </trkpt>
      <trkpt lat="45.45142" lon="5.91921">
        <ele>1764.16</ele>
        <time>2013-08-24T09:45:17Z</time>
      </trkpt>
      <trkpt lat="45.4514" lon="5.91918">
        <ele>1761.75</ele>
        <time>2013-08-24T09:45:21Z</time>
      </trkpt>
      <trkpt lat="45.45139" lon="5.91916">
        <ele>1760.31</ele>
        <time>2013-08-24T09:45:25Z</time>
      </trkpt>
      <trkpt lat="45.45138" lon="5.91914">
        <ele>1759.35</ele>
        <time>2013-08-24T09:45:29Z</time>
      </trkpt>
      <trkpt lat="45.45138" lon="5.91914">
        <ele>1758.87</ele>
        <time>2013-08-24T09:45:33Z</time>
      </trkpt>
      <trkpt lat="45.45138" lon="5.91912">
        <ele>1757.91</ele>
        <time>2013-08-24T09:45:37Z</time>
      </trkpt>
      <trkpt lat="45.45137" lon="5.9191">
        <ele>1756.95</ele>
        <time>2013-08-24T09:45:41Z</time>
      </trkpt>
      <trkpt lat="45.45137" lon="5.9191">
        <ele>1755.5</ele>
        <time>2013-08-24T09:45:45Z</time>
      </trkpt>
      <trkpt lat="45.45137" lon="5.9191">
        <ele>1754.54</ele>
        <time>2013-08-24T09:45:49Z</time>
      </trkpt>
      <trkpt lat="45.4514" lon="5.91906">
        <ele>1753.1</ele>
        <time>2013-08-24T09:45:53Z</time>
      </trkpt>
      <trkpt lat="45.45141" lon="5.91905">
        <ele>1750.22</ele>
        <time>2013-08-24T09:45:57Z</time>
      </trkpt>
      <trkpt lat="45.45142" lon="5.91905">
        <ele>1748.78</ele>
        <time>2013-08-24T09:46:01Z</time>
      </trkpt>
      <trkpt lat="45.45142" lon="5.91905">
        <ele>1747.33</ele>
        <time>2013-08-24T09:46:05Z</time>
      </trkpt>
      <trkpt lat="45.45144" lon="5.91904">
        <ele>1746.37</ele>
        <time>2013-08-24T09:46:09Z</time>
      </trkpt>
      <trkpt lat="45.45144" lon="5.91902">
        <ele>1746.85</ele>
        <time>2013-08-24T09:46:13Z</time>
      </trkpt>
      <trkpt lat="45.45144" lon="5.91899">
        <ele>1746.85</ele>
        <time>2013-08-24T09:46:17Z</time>
      </trkpt>
      <trkpt lat="45.45144" lon="5.91895">
        <ele>1746.37</ele>
        <time>2013-08-24T09:46:21Z</time>
      </trkpt>
      <trkpt lat="45.45145" lon="5.91893">
        <ele>1745.89</ele>
        <time>2013-08-24T09:46:25Z</time>
      </trkpt>
      <trkpt lat="45.45145" lon="5.91891">
        <ele>1745.89</ele>
        <time>2013-08-24T09:46:29Z</time>
      </trkpt>
      <trkpt lat="45.45145" lon="5.91889">
        <ele>1744.93</ele>
        <time>2013-08-24T09:46:33Z</time>
      </trkpt>
      <trkpt lat="45.45146" lon="5.91888">
        <ele>1743.97</ele>
        <time>2013-08-24T09:46:37Z</time>
      </trkpt>
      <trkpt lat="45.45146" lon="5.91888">
        <ele>1743.49</ele>
        <time>2013-08-24T09:46:41Z</time>
      </trkpt>
      <trkpt lat="45.45145" lon="5.91888">
        <ele>1742.53</ele>
        <time>2013-08-24T09:46:45Z</time>
      </trkpt>
      <trkpt lat="45.45144" lon="5.91887">
        <ele>1742.05</ele>
        <time>2013-08-24T09:46:49Z</time>
      </trkpt>
      <trkpt lat="45.45144" lon="5.91883">
        <ele>1742.05</ele>
        <time>2013-08-24T09:46:53Z</time>
      </trkpt>
      <trkpt lat="45.45145" lon="5.91881">
        <ele>1741.57</ele>
        <time>2013-08-24T09:46:57Z</time>
      </trkpt>
      <trkpt lat="45.45145" lon="5.91881">
        <ele>1741.57</ele>
        <time>2013-08-24T09:47:01Z</time>
      </trkpt>
      <trkpt lat="45.45145" lon="5.91879">
        <ele>1742.53</ele>
        <time>2013-08-24T09:47:05Z</time>
      </trkpt>
      <trkpt lat="45.45144" lon="5.91874">
        <ele>1740.12</ele>
        <time>2013-08-24T09:47:09Z</time>
      </trkpt>
      <trkpt lat="45.45142" lon="5.91873">
        <ele>1737.72</ele>
        <time>2013-08-24T09:47:13Z</time>
      </trkpt>
      <trkpt lat="45.45141" lon="5.91873">
        <ele>1735.8</ele>
        <time>2013-08-24T09:47:17Z</time>
      </trkpt>
      <trkpt lat="45.45137" lon="5.91872">
        <ele>1733.88</ele>
        <time>2013-08-24T09:47:21Z</time>
      </trkpt>
      <trkpt lat="45.45134" lon="5.91869">
        <ele>1732.43</ele>
        <time>2013-08-24T09:47:25Z</time>
      </trkpt>
      <trkpt lat="45.45132" lon="5.91866">
        <ele>1732.91</ele>
        <time>2013-08-24T09:47:29Z</time>
      </trkpt>
      <trkpt lat="45.4513" lon="5.91864">
        <ele>1734.36</ele>
        <time>2013-08-24T09:47:33Z</time>
      </trkpt>
      <trkpt lat="45.45126" lon="5.91862">
        <ele>1735.32</ele>
        <time>2013-08-24T09:47:37Z</time>
      </trkpt>
      <trkpt lat="45.45124" lon="5.91859">
        <ele>1736.28</ele>
        <time>2013-08-24T09:47:41Z</time>
      </trkpt>
      <trkpt lat="45.45122" lon="5.91855">
        <ele>1737.72</ele>
        <time>2013-08-24T09:47:45Z</time>
      </trkpt>
      <trkpt lat="45.45118" lon="5.91853">
        <ele>1737.72</ele>
        <time>2013-08-24T09:47:49Z</time>
      </trkpt>
      <trkpt lat="45.45114" lon="5.9185">
        <ele>1736.76</ele>
        <time>2013-08-24T09:47:53Z</time>
      </trkpt>
      <trkpt lat="45.45109" lon="5.91848">
        <ele>1736.28</ele>
        <time>2013-08-24T09:47:57Z</time>
      </trkpt>
      <trkpt lat="45.45106" lon="5.91845">
        <ele>1736.76</ele>
        <time>2013-08-24T09:48:01Z</time>
      </trkpt>
      <trkpt lat="45.45102" lon="5.91843">
        <ele>1736.28</ele>
        <time>2013-08-24T09:48:05Z</time>
      </trkpt>
      <trkpt lat="45.45098" lon="5.91841">
        <ele>1736.76</ele>
        <time>2013-08-24T09:48:09Z</time>
      </trkpt>
      <trkpt lat="45.45093" lon="5.91837">
        <ele>1736.76</ele>
        <time>2013-08-24T09:48:13Z</time>
      </trkpt>
      <trkpt lat="45.45087" lon="5.91836">
        <ele>1735.32</ele>
        <time>2013-08-24T09:48:17Z</time>
      </trkpt>
      <trkpt lat="45.45081" lon="5.91835">
        <ele>1734.36</ele>
        <time>2013-08-24T09:48:21Z</time>
      </trkpt>
      <trkpt lat="45.45076" lon="5.91833">
        <ele>1734.36</ele>
        <time>2013-08-24T09:48:25Z</time>
      </trkpt>
      <trkpt lat="45.45071" lon="5.9183">
        <ele>1734.84</ele>
        <time>2013-08-24T09:48:29Z</time>
      </trkpt>
      <trkpt lat="45.45066" lon="5.91829">
        <ele>1734.36</ele>
        <time>2013-08-24T09:48:33Z</time>
      </trkpt>
      <trkpt lat="45.45061" lon="5.91828">
        <ele>1733.88</ele>
        <time>2013-08-24T09:48:37Z</time>
      </trkpt>
      <trkpt lat="45.45057" lon="5.91827">
        <ele>1733.88</ele>
        <time>2013-08-24T09:48:41Z</time>
      </trkpt>
      <trkpt lat="45.45055" lon="5.91822">
        <ele>1732.91</ele>
        <time>2013-08-24T09:48:44Z</time>
      </trkpt>
      <trkpt lat="45.45051" lon="5.91816">
        <ele>1733.88</ele>
        <time>2013-08-24T09:48:49Z</time>
      </trkpt>
      <trkpt lat="45.45047" lon="5.91816">
        <ele>1735.32</ele>
        <time>2013-08-24T09:48:53Z</time>
      </trkpt>
      <trkpt lat="45.45044" lon="5.91814">
        <ele>1735.8</ele>
        <time>2013-08-24T09:48:57Z</time>
      </trkpt>
      <trkpt lat="45.45041" lon="5.91811">
        <ele>1736.28</ele>
        <time>2013-08-24T09:49:01Z</time>
      </trkpt>
      <trkpt lat="45.45038" lon="5.91806">
        <ele>1737.24</ele>
        <time>2013-08-24T09:49:05Z</time>
      </trkpt>
      <trkpt lat="45.45037" lon="5.91802">
        <ele>1739.16</ele>
        <time>2013-08-24T09:49:08Z</time>
      </trkpt>
      <trkpt lat="45.45035" lon="5.91795">
        <ele>1742.05</ele>
        <time>2013-08-24T09:49:13Z</time>
      </trkpt>
      <trkpt lat="45.45036" lon="5.91791">
        <ele>1744.45</ele>
        <time>2013-08-24T09:49:17Z</time>
      </trkpt>
      <trkpt lat="45.45034" lon="5.91787">
        <ele>1746.37</ele>
        <time>2013-08-24T09:49:21Z</time>
      </trkpt>
      <trkpt lat="45.45033" lon="5.91781">
        <ele>1748.29</ele>
        <time>2013-08-24T09:49:25Z</time>
      </trkpt>
      <trkpt lat="45.4503" lon="5.91771">
        <ele>1748.78</ele>
        <time>2013-08-24T09:49:29Z</time>
      </trkpt>
      <trkpt lat="45.45024" lon="5.91766">
        <ele>1747.81</ele>
        <time>2013-08-24T09:49:33Z</time>
      </trkpt>
      <trkpt lat="45.45023" lon="5.91763">
        <ele>1746.85</ele>
        <time>2013-08-24T09:49:37Z</time>
      </trkpt>
      <trkpt lat="45.4502" lon="5.9176">
        <ele>1746.37</ele>
        <time>2013-08-24T09:49:41Z</time>
      </trkpt>
      <trkpt lat="45.45013" lon="5.91758">
        <ele>1743.01</ele>
        <time>2013-08-24T09:49:45Z</time>
      </trkpt>
      <trkpt lat="45.45006" lon="5.91756">
        <ele>1739.64</ele>
        <time>2013-08-24T09:49:49Z</time>
      </trkpt>
      <trkpt lat="45.45002" lon="5.91757">
        <ele>1736.76</ele>
        <time>2013-08-24T09:49:53Z</time>
      </trkpt>
      <trkpt lat="45.44998" lon="5.91758">
        <ele>1735.32</ele>
        <time>2013-08-24T09:49:57Z</time>
      </trkpt>
      <trkpt lat="45.44991" lon="5.91762">
        <ele>1731.95</ele>
        <time>2013-08-24T09:50:01Z</time>
      </trkpt>
      <trkpt lat="45.44987" lon="5.91767">
        <ele>1729.07</ele>
        <time>2013-08-24T09:50:05Z</time>
      </trkpt>
      <trkpt lat="45.44983" lon="5.91774">
        <ele>1726.18</ele>
        <time>2013-08-24T09:50:09Z</time>
      </trkpt>
      <trkpt lat="45.44981" lon="5.9178">
        <ele>1724.74</ele>
        <time>2013-08-24T09:50:13Z</time>
      </trkpt>
      <trkpt lat="45.44979" lon="5.91786">
        <ele>1723.3</ele>
        <time>2013-08-24T09:50:17Z</time>
      </trkpt>
      <trkpt lat="45.44977" lon="5.91791">
        <ele>1723.3</ele>
        <time>2013-08-24T09:50:21Z</time>
      </trkpt>
      <trkpt lat="45.44976" lon="5.9179">
        <ele>1722.82</ele>
        <time>2013-08-24T09:50:25Z</time>
      </trkpt>
      <trkpt lat="45.44975" lon="5.91792">
        <ele>1722.82</ele>
        <time>2013-08-24T09:50:29Z</time>
      </trkpt>
      <trkpt lat="45.44973" lon="5.9179">
        <ele>1722.82</ele>
        <time>2013-08-24T09:50:33Z</time>
      </trkpt>
      <trkpt lat="45.44972" lon="5.91789">
        <ele>1723.3</ele>
        <time>2013-08-24T09:50:37Z</time>
      </trkpt>
      <trkpt lat="45.44969" lon="5.91789">
        <ele>1722.82</ele>
        <time>2013-08-24T09:50:41Z</time>
      </trkpt>
      <trkpt lat="45.44965" lon="5.91789">
        <ele>1720.9</ele>
        <time>2013-08-24T09:50:45Z</time>
      </trkpt>
      <trkpt lat="45.44964" lon="5.91789">
        <ele>1719.46</ele>
        <time>2013-08-24T09:50:49Z</time>
      </trkpt>
      <trkpt lat="45.44964" lon="5.9179">
        <ele>1716.57</ele>
        <time>2013-08-24T09:50:53Z</time>
      </trkpt>
      <trkpt lat="45.44964" lon="5.91789">
        <ele>1714.65</ele>
        <time>2013-08-24T09:50:57Z</time>
      </trkpt>
      <trkpt lat="45.44964" lon="5.91789">
        <ele>1712.73</ele>
        <time>2013-08-24T09:51:01Z</time>
      </trkpt>
      <trkpt lat="45.44965" lon="5.91787">
        <ele>1711.28</ele>
        <time>2013-08-24T09:51:05Z</time>
      </trkpt>
      <trkpt lat="45.44966" lon="5.91784">
        <ele>1710.32</ele>
        <time>2013-08-24T09:51:09Z</time>
      </trkpt>
      <trkpt lat="45.44968" lon="5.91784">
        <ele>1708.88</ele>
        <time>2013-08-24T09:51:13Z</time>
      </trkpt>
      <trkpt lat="45.44969" lon="5.91784">
        <ele>1706.48</ele>
        <time>2013-08-24T09:51:17Z</time>
      </trkpt>
      <trkpt lat="45.4497" lon="5.9178">
        <ele>1705.04</ele>
        <time>2013-08-24T09:51:21Z</time>
      </trkpt>
      <trkpt lat="45.44973" lon="5.91776">
        <ele>1704.07</ele>
        <time>2013-08-24T09:51:25Z</time>
      </trkpt>
      <trkpt lat="45.44977" lon="5.91776">
        <ele>1703.59</ele>
        <time>2013-08-24T09:51:29Z</time>
      </trkpt>
      <trkpt lat="45.44978" lon="5.91777">
        <ele>1702.63</ele>
        <time>2013-08-24T09:51:33Z</time>
      </trkpt>
      <trkpt lat="45.44976" lon="5.9178">
        <ele>1701.19</ele>
        <time>2013-08-24T09:51:37Z</time>
      </trkpt>
      <trkpt lat="45.44975" lon="5.91781">
        <ele>1700.23</ele>
        <time>2013-08-24T09:51:41Z</time>
      </trkpt>
      <trkpt lat="45.44972" lon="5.91784">
        <ele>1699.27</ele>
        <time>2013-08-24T09:51:45Z</time>
      </trkpt>
      <trkpt lat="45.44971" lon="5.91786">
        <ele>1698.31</ele>
        <time>2013-08-24T09:51:49Z</time>
      </trkpt>
      <trkpt lat="45.44965" lon="5.91785">
        <ele>1697.34</ele>
        <time>2013-08-24T09:51:53Z</time>
      </trkpt>
      <trkpt lat="45.44946" lon="5.91695">
        <ele>1699.75</ele>
        <time>2013-08-24T09:53:50Z</time>
      </trkpt>
      <trkpt lat="45.44959" lon="5.91697">
        <ele>1708.88</ele>
        <time>2013-08-24T09:53:54Z</time>
      </trkpt>
      <trkpt lat="45.44969" lon="5.91698">
        <ele>1718.01</ele>
        <time>2013-08-24T09:53:58Z</time>
      </trkpt>
      <trkpt lat="45.44973" lon="5.91699">
        <ele>1723.3</ele>
        <time>2013-08-24T09:54:02Z</time>
      </trkpt>
      <trkpt lat="45.44976" lon="5.91699">
        <ele>1728.59</ele>
        <time>2013-08-24T09:54:06Z</time>
      </trkpt>
      <trkpt lat="45.44977" lon="5.91697">
        <ele>1733.88</ele>
        <time>2013-08-24T09:54:10Z</time>
      </trkpt>
      <trkpt lat="45.44974" lon="5.91695">
        <ele>1738.68</ele>
        <time>2013-08-24T09:54:14Z</time>
      </trkpt>
      <trkpt lat="45.44975" lon="5.91697">
        <ele>1741.57</ele>
        <time>2013-08-24T09:54:18Z</time>
      </trkpt>
      <trkpt lat="45.44974" lon="5.91701">
        <ele>1743.49</ele>
        <time>2013-08-24T09:54:22Z</time>
      </trkpt>
      <trkpt lat="45.4497" lon="5.91703">
        <ele>1745.89</ele>
        <time>2013-08-24T09:54:26Z</time>
      </trkpt>
      <trkpt lat="45.44968" lon="5.91704">
        <ele>1747.33</ele>
        <time>2013-08-24T09:54:30Z</time>
      </trkpt>
      <trkpt lat="45.44965" lon="5.91705">
        <ele>1748.29</ele>
        <time>2013-08-24T09:54:34Z</time>
      </trkpt>
      <trkpt lat="45.44962" lon="5.91706">
        <ele>1749.74</ele>
        <time>2013-08-24T09:54:38Z</time>
      </trkpt>
      <trkpt lat="45.44956" lon="5.91709">
        <ele>1752.14</ele>
        <time>2013-08-24T09:54:42Z</time>
      </trkpt>
      <trkpt lat="45.44952" lon="5.9171">
        <ele>1752.62</ele>
        <time>2013-08-24T09:54:46Z</time>
      </trkpt>
      <trkpt lat="45.4495" lon="5.91712">
        <ele>1753.58</ele>
        <time>2013-08-24T09:54:50Z</time>
      </trkpt>
      <trkpt lat="45.44946" lon="5.91714">
        <ele>1754.54</ele>
        <time>2013-08-24T09:54:54Z</time>
      </trkpt>
      <trkpt lat="45.44951" lon="5.91709">
        <ele>1760.31</ele>
        <time>2013-08-24T09:54:58Z</time>
      </trkpt>
      <trkpt lat="45.44951" lon="5.91705">
        <ele>1761.75</ele>
        <time>2013-08-24T09:55:02Z</time>
      </trkpt>
      <trkpt lat="45.44949" lon="5.91701">
        <ele>1761.75</ele>
        <time>2013-08-24T09:55:05Z</time>
      </trkpt>
      <trkpt lat="45.44945" lon="5.91684">
        <ele>1762.23</ele>
        <time>2013-08-24T09:55:14Z</time>
      </trkpt>
      <trkpt lat="45.44943" lon="5.91679">
        <ele>1762.71</ele>
        <time>2013-08-24T09:55:18Z</time>
      </trkpt>
      <trkpt lat="45.4494" lon="5.91681">
        <ele>1764.16</ele>
        <time>2013-08-24T09:55:22Z</time>
      </trkpt>
      <trkpt lat="45.44934" lon="5.91687">
        <ele>1766.08</ele>
        <time>2013-08-24T09:55:26Z</time>
      </trkpt>
      <trkpt lat="45.44933" lon="5.91687">
        <ele>1767.52</ele>
        <time>2013-08-24T09:55:30Z</time>
      </trkpt>
      <trkpt lat="45.44933" lon="5.91688">
        <ele>1768.48</ele>
        <time>2013-08-24T09:55:34Z</time>
      </trkpt>
      <trkpt lat="45.44934" lon="5.91687">
        <ele>1768.96</ele>
        <time>2013-08-24T09:55:38Z</time>
      </trkpt>
      <trkpt lat="45.44933" lon="5.91687">
        <ele>1769.92</ele>
        <time>2013-08-24T09:55:42Z</time>
      </trkpt>
      <trkpt lat="45.44933" lon="5.91689">
        <ele>1770.89</ele>
        <time>2013-08-24T09:55:46Z</time>
      </trkpt>
      <trkpt lat="45.44935" lon="5.91691">
        <ele>1770.89</ele>
        <time>2013-08-24T09:55:50Z</time>
      </trkpt>
      <trkpt lat="45.44939" lon="5.91692">
        <ele>1770.89</ele>
        <time>2013-08-24T09:55:54Z</time>
      </trkpt>
      <trkpt lat="45.44942" lon="5.91692">
        <ele>1770.89</ele>
        <time>2013-08-24T09:55:58Z</time>
      </trkpt>
      <trkpt lat="45.44945" lon="5.91696">
        <ele>1770.41</ele>
        <time>2013-08-24T09:56:02Z</time>
      </trkpt>
      <trkpt lat="45.44946" lon="5.91699">
        <ele>1770.41</ele>
        <time>2013-08-24T09:56:06Z</time>
      </trkpt>
      <trkpt lat="45.44948" lon="5.91699">
        <ele>1771.37</ele>
        <time>2013-08-24T09:56:10Z</time>
      </trkpt>
      <trkpt lat="45.44952" lon="5.91706">
        <ele>1770.41</ele>
        <time>2013-08-24T09:56:14Z</time>
      </trkpt>
      <trkpt lat="45.4495" lon="5.91703">
        <ele>1768</ele>
        <time>2013-08-24T09:56:18Z</time>
      </trkpt>
      <trkpt lat="45.44948" lon="5.91701">
        <ele>1767.04</ele>
        <time>2013-08-24T09:56:22Z</time>
      </trkpt>
      <trkpt lat="45.44947" lon="5.91704">
        <ele>1766.08</ele>
        <time>2013-08-24T09:56:26Z</time>
      </trkpt>
      <trkpt lat="45.44945" lon="5.91703">
        <ele>1768</ele>
        <time>2013-08-24T09:56:30Z</time>
      </trkpt>
      <trkpt lat="45.44945" lon="5.91706">
        <ele>1767.04</ele>
        <time>2013-08-24T09:56:34Z</time>
      </trkpt>
      <trkpt lat="45.44945" lon="5.91704">
        <ele>1767.04</ele>
        <time>2013-08-24T09:56:38Z</time>
      </trkpt>
      <trkpt lat="45.44944" lon="5.91704">
        <ele>1767.52</ele>
        <time>2013-08-24T09:56:42Z</time>
      </trkpt>
      <trkpt lat="45.44945" lon="5.91706">
        <ele>1767.52</ele>
        <time>2013-08-24T09:56:46Z</time>
      </trkpt>
      <trkpt lat="45.44946" lon="5.91708">
        <ele>1767.52</ele>
        <time>2013-08-24T09:56:50Z</time>
      </trkpt>
      <trkpt lat="45.44946" lon="5.9171">
        <ele>1767.52</ele>
        <time>2013-08-24T09:56:54Z</time>
      </trkpt>
      <trkpt lat="45.44947" lon="5.91712">
        <ele>1767.52</ele>
        <time>2013-08-24T09:56:58Z</time>
      </trkpt>
      <trkpt lat="45.44946" lon="5.91712">
        <ele>1767.52</ele>
        <time>2013-08-24T09:57:02Z</time>
      </trkpt>
      <trkpt lat="45.44998" lon="5.91723">
        <ele>1753.1</ele>
        <time>2013-08-24T09:57:22Z</time>
      </trkpt>
      <trkpt lat="45.44999" lon="5.91716">
        <ele>1742.53</ele>
        <time>2013-08-24T09:57:26Z</time>
      </trkpt>
      <trkpt lat="45.45001" lon="5.91718">
        <ele>1728.59</ele>
        <time>2013-08-24T09:57:30Z</time>
      </trkpt>
      <trkpt lat="45.44998" lon="5.91723">
        <ele>1713.69</ele>
        <time>2013-08-24T09:57:34Z</time>
      </trkpt>
      <trkpt lat="45.45" lon="5.91724">
        <ele>1706.48</ele>
        <time>2013-08-24T09:57:38Z</time>
      </trkpt>
      <trkpt lat="45.45002" lon="5.91723">
        <ele>1704.07</ele>
        <time>2013-08-24T09:57:42Z</time>
      </trkpt>
      <trkpt lat="45.45003" lon="5.91729">
        <ele>1695.9</ele>
        <time>2013-08-24T09:57:46Z</time>
      </trkpt>
      <trkpt lat="45.45003" lon="5.91727">
        <ele>1692.06</ele>
        <time>2013-08-24T09:57:50Z</time>
      </trkpt>
      <trkpt lat="45.45003" lon="5.91728">
        <ele>1685.81</ele>
        <time>2013-08-24T09:57:54Z</time>
      </trkpt>
      <trkpt lat="45.45002" lon="5.9173">
        <ele>1683.41</ele>
        <time>2013-08-24T09:57:58Z</time>
      </trkpt>
      <trkpt lat="45.45001" lon="5.91729">
        <ele>1681</ele>
        <time>2013-08-24T09:58:02Z</time>
      </trkpt>
      <trkpt lat="45.45001" lon="5.9173">
        <ele>1678.6</ele>
        <time>2013-08-24T09:58:06Z</time>
      </trkpt>
      <trkpt lat="45.45" lon="5.91728">
        <ele>1676.2</ele>
        <time>2013-08-24T09:58:10Z</time>
      </trkpt>
      <trkpt lat="45.44999" lon="5.91726">
        <ele>1676.68</ele>
        <time>2013-08-24T09:58:14Z</time>
      </trkpt>
      <trkpt lat="45.44997" lon="5.91723">
        <ele>1676.68</ele>
        <time>2013-08-24T09:58:18Z</time>
      </trkpt>
      <trkpt lat="45.44996" lon="5.91721">
        <ele>1675.72</ele>
        <time>2013-08-24T09:58:22Z</time>
      </trkpt>
      <trkpt lat="45.44993" lon="5.91719">
        <ele>1673.31</ele>
        <time>2013-08-24T09:58:26Z</time>
      </trkpt>
      <trkpt lat="45.4499" lon="5.9172">
        <ele>1670.91</ele>
        <time>2013-08-24T09:58:30Z</time>
      </trkpt>
      <trkpt lat="45.44988" lon="5.91719">
        <ele>1668.99</ele>
        <time>2013-08-24T09:58:34Z</time>
      </trkpt>
      <trkpt lat="45.44987" lon="5.91716">
        <ele>1668.02</ele>
        <time>2013-08-24T09:58:38Z</time>
      </trkpt>
      <trkpt lat="45.44985" lon="5.91716">
        <ele>1667.06</ele>
        <time>2013-08-24T09:58:42Z</time>
      </trkpt>
      <trkpt lat="45.44981" lon="5.91715">
        <ele>1665.14</ele>
        <time>2013-08-24T09:58:46Z</time>
      </trkpt>
      <trkpt lat="45.44982" lon="5.91715">
        <ele>1663.22</ele>
        <time>2013-08-24T09:58:50Z</time>
      </trkpt>
      <trkpt lat="45.44982" lon="5.91711">
        <ele>1661.78</ele>
        <time>2013-08-24T09:58:54Z</time>
      </trkpt>
      <trkpt lat="45.44981" lon="5.91709">
        <ele>1660.81</ele>
        <time>2013-08-24T09:58:58Z</time>
      </trkpt>
      <trkpt lat="45.4498" lon="5.91708">
        <ele>1661.3</ele>
        <time>2013-08-24T09:59:02Z</time>
      </trkpt>
      <trkpt lat="45.44981" lon="5.91709">
        <ele>1661.3</ele>
        <time>2013-08-24T09:59:06Z</time>
      </trkpt>
      <trkpt lat="45.4498" lon="5.91708">
        <ele>1660.81</ele>
        <time>2013-08-24T09:59:10Z</time>
      </trkpt>
      <trkpt lat="45.4498" lon="5.91705">
        <ele>1660.33</ele>
        <time>2013-08-24T09:59:14Z</time>
      </trkpt>
      <trkpt lat="45.4498" lon="5.91699">
        <ele>1659.37</ele>
        <time>2013-08-24T09:59:18Z</time>
      </trkpt>
      <trkpt lat="45.44979" lon="5.91697">
        <ele>1657.93</ele>
        <time>2013-08-24T09:59:22Z</time>
      </trkpt>
      <trkpt lat="45.44979" lon="5.91697">
        <ele>1657.93</ele>
        <time>2013-08-24T09:59:26Z</time>
      </trkpt>
      <trkpt lat="45.4498" lon="5.91698">
        <ele>1655.05</ele>
        <time>2013-08-24T09:59:30Z</time>
      </trkpt>
      <trkpt lat="45.4498" lon="5.91696">
        <ele>1654.57</ele>
        <time>2013-08-24T09:59:34Z</time>
      </trkpt>
      <trkpt lat="45.44981" lon="5.91693">
        <ele>1654.09</ele>
        <time>2013-08-24T09:59:38Z</time>
      </trkpt>
      <trkpt lat="45.44981" lon="5.91691">
        <ele>1653.6</ele>
        <time>2013-08-24T09:59:42Z</time>
      </trkpt>
      <trkpt lat="45.4498" lon="5.91689">
        <ele>1652.64</ele>
        <time>2013-08-24T09:59:46Z</time>
      </trkpt>
      <trkpt lat="45.44978" lon="5.91689">
        <ele>1651.2</ele>
        <time>2013-08-24T09:59:50Z</time>
      </trkpt>
      <trkpt lat="45.44978" lon="5.91686">
        <ele>1649.76</ele>
        <time>2013-08-24T09:59:54Z</time>
      </trkpt>
      <trkpt lat="45.44979" lon="5.91687">
        <ele>1647.84</ele>
        <time>2013-08-24T09:59:58Z</time>
      </trkpt>
      <trkpt lat="45.44979" lon="5.91684">
        <ele>1645.43</ele>
        <time>2013-08-24T10:00:02Z</time>
      </trkpt>
      <trkpt lat="45.44978" lon="5.91682">
        <ele>1644.47</ele>
        <time>2013-08-24T10:00:06Z</time>
      </trkpt>
      <trkpt lat="45.44976" lon="5.91681">
        <ele>1643.99</ele>
        <time>2013-08-24T10:00:10Z</time>
      </trkpt>
      <trkpt lat="45.44976" lon="5.91679">
        <ele>1643.99</ele>
        <time>2013-08-24T10:00:14Z</time>
      </trkpt>
      <trkpt lat="45.44976" lon="5.91675">
        <ele>1643.99</ele>
        <time>2013-08-24T10:00:18Z</time>
      </trkpt>
      <trkpt lat="45.44975" lon="5.91672">
        <ele>1643.03</ele>
        <time>2013-08-24T10:00:22Z</time>
      </trkpt>
      <trkpt lat="45.44976" lon="5.91669">
        <ele>1641.59</ele>
        <time>2013-08-24T10:00:26Z</time>
      </trkpt>
      <trkpt lat="45.44976" lon="5.91667">
        <ele>1641.11</ele>
        <time>2013-08-24T10:00:30Z</time>
      </trkpt>
      <trkpt lat="45.44976" lon="5.91662">
        <ele>1639.67</ele>
        <time>2013-08-24T10:00:34Z</time>
      </trkpt>
      <trkpt lat="45.44976" lon="5.91659">
        <ele>1639.19</ele>
        <time>2013-08-24T10:00:38Z</time>
      </trkpt>
      <trkpt lat="45.44975" lon="5.91657">
        <ele>1638.22</ele>
        <time>2013-08-24T10:00:42Z</time>
      </trkpt>
      <trkpt lat="45.44975" lon="5.91654">
        <ele>1637.26</ele>
        <time>2013-08-24T10:00:46Z</time>
      </trkpt>
      <trkpt lat="45.44976" lon="5.91653">
        <ele>1635.82</ele>
        <time>2013-08-24T10:00:50Z</time>
      </trkpt>
      <trkpt lat="45.44977" lon="5.91652">
        <ele>1634.38</ele>
        <time>2013-08-24T10:00:54Z</time>
      </trkpt>
      <trkpt lat="45.44981" lon="5.9165">
        <ele>1632.94</ele>
        <time>2013-08-24T10:00:58Z</time>
      </trkpt>
      <trkpt lat="45.44984" lon="5.91646">
        <ele>1631.01</ele>
        <time>2013-08-24T10:01:02Z</time>
      </trkpt>
      <trkpt lat="45.44986" lon="5.91645">
        <ele>1629.09</ele>
        <time>2013-08-24T10:01:06Z</time>
      </trkpt>
      <trkpt lat="45.44986" lon="5.91643">
        <ele>1628.13</ele>
        <time>2013-08-24T10:01:10Z</time>
      </trkpt>
      <trkpt lat="45.44986" lon="5.9164">
        <ele>1628.61</ele>
        <time>2013-08-24T10:01:14Z</time>
      </trkpt>
      <trkpt lat="45.44986" lon="5.91636">
        <ele>1628.61</ele>
        <time>2013-08-24T10:01:18Z</time>
      </trkpt>
      <trkpt lat="45.44983" lon="5.91634">
        <ele>1628.61</ele>
        <time>2013-08-24T10:01:22Z</time>
      </trkpt>
      <trkpt lat="45.44981" lon="5.91631">
        <ele>1628.13</ele>
        <time>2013-08-24T10:01:26Z</time>
      </trkpt>
      <trkpt lat="45.44979" lon="5.91628">
        <ele>1626.69</ele>
        <time>2013-08-24T10:01:30Z</time>
      </trkpt>
      <trkpt lat="45.44976" lon="5.91627">
        <ele>1625.73</ele>
        <time>2013-08-24T10:01:34Z</time>
      </trkpt>
      <trkpt lat="45.44975" lon="5.91625">
        <ele>1624.28</ele>
        <time>2013-08-24T10:01:38Z</time>
      </trkpt>
      <trkpt lat="45.44972" lon="5.91624">
        <ele>1622.84</ele>
        <time>2013-08-24T10:01:42Z</time>
      </trkpt>
      <trkpt lat="45.44971" lon="5.91625">
        <ele>1620.92</ele>
        <time>2013-08-24T10:01:46Z</time>
      </trkpt>
      <trkpt lat="45.44971" lon="5.91621">
        <ele>1618.52</ele>
        <time>2013-08-24T10:01:50Z</time>
      </trkpt>
      <trkpt lat="45.44972" lon="5.91618">
        <ele>1617.07</ele>
        <time>2013-08-24T10:01:54Z</time>
      </trkpt>
      <trkpt lat="45.44973" lon="5.91616">
        <ele>1614.19</ele>
        <time>2013-08-24T10:01:58Z</time>
      </trkpt>
      <trkpt lat="45.44974" lon="5.91612">
        <ele>1611.79</ele>
        <time>2013-08-24T10:02:02Z</time>
      </trkpt>
      <trkpt lat="45.44977" lon="5.91609">
        <ele>1610.83</ele>
        <time>2013-08-24T10:02:06Z</time>
      </trkpt>
      <trkpt lat="45.44979" lon="5.91607">
        <ele>1610.35</ele>
        <time>2013-08-24T10:02:10Z</time>
      </trkpt>
      <trkpt lat="45.44982" lon="5.91604">
        <ele>1607.94</ele>
        <time>2013-08-24T10:02:14Z</time>
      </trkpt>
      <trkpt lat="45.44987" lon="5.91598">
        <ele>1607.46</ele>
        <time>2013-08-24T10:02:18Z</time>
      </trkpt>
      <trkpt lat="45.4499" lon="5.91595">
        <ele>1606.02</ele>
        <time>2013-08-24T10:02:22Z</time>
      </trkpt>
      <trkpt lat="45.44992" lon="5.91592">
        <ele>1605.06</ele>
        <time>2013-08-24T10:02:26Z</time>
      </trkpt>
      <trkpt lat="45.44994" lon="5.91588">
        <ele>1602.66</ele>
        <time>2013-08-24T10:02:30Z</time>
      </trkpt>
      <trkpt lat="45.44997" lon="5.91586">
        <ele>1600.73</ele>
        <time>2013-08-24T10:02:34Z</time>
      </trkpt>
      <trkpt lat="45.44999" lon="5.91582">
        <ele>1598.81</ele>
        <time>2013-08-24T10:02:38Z</time>
      </trkpt>
      <trkpt lat="45.45" lon="5.91576">
        <ele>1596.89</ele>
        <time>2013-08-24T10:02:43Z</time>
      </trkpt>
      <trkpt lat="45.45001" lon="5.91574">
        <ele>1596.89</ele>
        <time>2013-08-24T10:02:47Z</time>
      </trkpt>
      <trkpt lat="45.45003" lon="5.9157">
        <ele>1597.37</ele>
        <time>2013-08-24T10:02:51Z</time>
      </trkpt>
      <trkpt lat="45.45004" lon="5.91567">
        <ele>1597.85</ele>
        <time>2013-08-24T10:02:55Z</time>
      </trkpt>
      <trkpt lat="45.45004" lon="5.91564">
        <ele>1598.33</ele>
        <time>2013-08-24T10:02:59Z</time>
      </trkpt>
      <trkpt lat="45.45004" lon="5.91561">
        <ele>1597.85</ele>
        <time>2013-08-24T10:03:03Z</time>
      </trkpt>
      <trkpt lat="45.45005" lon="5.91559">
        <ele>1598.33</ele>
        <time>2013-08-24T10:03:07Z</time>
      </trkpt>
      <trkpt lat="45.45007" lon="5.91554">
        <ele>1597.85</ele>
        <time>2013-08-24T10:03:11Z</time>
      </trkpt>
      <trkpt lat="45.45008" lon="5.91551">
        <ele>1595.93</ele>
        <time>2013-08-24T10:03:15Z</time>
      </trkpt>
      <trkpt lat="45.45007" lon="5.9155">
        <ele>1594</ele>
        <time>2013-08-24T10:03:19Z</time>
      </trkpt>
      <trkpt lat="45.45006" lon="5.91547">
        <ele>1593.52</ele>
        <time>2013-08-24T10:03:23Z</time>
      </trkpt>
      <trkpt lat="45.45006" lon="5.91544">
        <ele>1593.04</ele>
        <time>2013-08-24T10:03:27Z</time>
      </trkpt>
      <trkpt lat="45.45006" lon="5.9154">
        <ele>1593.04</ele>
        <time>2013-08-24T10:03:31Z</time>
      </trkpt>
      <trkpt lat="45.45006" lon="5.91538">
        <ele>1593.52</ele>
        <time>2013-08-24T10:03:35Z</time>
      </trkpt>
      <trkpt lat="45.45008" lon="5.91536">
        <ele>1594.48</ele>
        <time>2013-08-24T10:03:39Z</time>
      </trkpt>
      <trkpt lat="45.45011" lon="5.91532">
        <ele>1594.96</ele>
        <time>2013-08-24T10:03:43Z</time>
      </trkpt>
      <trkpt lat="45.45014" lon="5.91528">
        <ele>1594</ele>
        <time>2013-08-24T10:03:47Z</time>
      </trkpt>
      <trkpt lat="45.45014" lon="5.91523">
        <ele>1592.56</ele>
        <time>2013-08-24T10:03:51Z</time>
      </trkpt>
      <trkpt lat="45.45015" lon="5.9152">
        <ele>1591.12</ele>
        <time>2013-08-24T10:03:55Z</time>
      </trkpt>
      <trkpt lat="45.45016" lon="5.91517">
        <ele>1590.16</ele>
        <time>2013-08-24T10:03:59Z</time>
      </trkpt>
      <trkpt lat="45.45016" lon="5.91515">
        <ele>1589.2</ele>
        <time>2013-08-24T10:04:03Z</time>
      </trkpt>
      <trkpt lat="45.45017" lon="5.91512">
        <ele>1589.2</ele>
        <time>2013-08-24T10:04:07Z</time>
      </trkpt>
      <trkpt lat="45.45019" lon="5.9151">
        <ele>1589.2</ele>
        <time>2013-08-24T10:04:11Z</time>
      </trkpt>
      <trkpt lat="45.45021" lon="5.9151">
        <ele>1589.2</ele>
        <time>2013-08-24T10:04:15Z</time>
      </trkpt>
      <trkpt lat="45.45023" lon="5.91507">
        <ele>1588.24</ele>
        <time>2013-08-24T10:04:19Z</time>
      </trkpt>
      <trkpt lat="45.45024" lon="5.91504">
        <ele>1587.27</ele>
        <time>2013-08-24T10:04:23Z</time>
      </trkpt>
      <trkpt lat="45.45026" lon="5.915">
        <ele>1586.31</ele>
        <time>2013-08-24T10:04:27Z</time>
      </trkpt>
      <trkpt lat="45.45031" lon="5.91489">
        <ele>1584.39</ele>
        <time>2013-08-24T10:04:31Z</time>
      </trkpt>
      <trkpt lat="45.4503" lon="5.91487">
        <ele>1581.99</ele>
        <time>2013-08-24T10:04:35Z</time>
      </trkpt>
      <trkpt lat="45.45031" lon="5.91485">
        <ele>1581.51</ele>
        <time>2013-08-24T10:04:39Z</time>
      </trkpt>
      <trkpt lat="45.45031" lon="5.91484">
        <ele>1580.06</ele>
        <time>2013-08-24T10:04:43Z</time>
      </trkpt>
      <trkpt lat="45.45032" lon="5.91483">
        <ele>1579.58</ele>
        <time>2013-08-24T10:04:47Z</time>
      </trkpt>
      <trkpt lat="45.45034" lon="5.91481">
        <ele>1578.62</ele>
        <time>2013-08-24T10:04:51Z</time>
      </trkpt>
      <trkpt lat="45.45035" lon="5.91479">
        <ele>1578.14</ele>
        <time>2013-08-24T10:04:55Z</time>
      </trkpt>
      <trkpt lat="45.45037" lon="5.91475">
        <ele>1577.18</ele>
        <time>2013-08-24T10:04:59Z</time>
      </trkpt>
      <trkpt lat="45.45038" lon="5.91472">
        <ele>1576.22</ele>
        <time>2013-08-24T10:05:03Z</time>
      </trkpt>
      <trkpt lat="45.45038" lon="5.91468">
        <ele>1575.26</ele>
        <time>2013-08-24T10:05:07Z</time>
      </trkpt>
      <trkpt lat="45.45038" lon="5.91466">
        <ele>1573.33</ele>
        <time>2013-08-24T10:05:11Z</time>
      </trkpt>
      <trkpt lat="45.45038" lon="5.91466">
        <ele>1573.82</ele>
        <time>2013-08-24T10:05:15Z</time>
      </trkpt>
      <trkpt lat="45.4504" lon="5.91466">
        <ele>1573.82</ele>
        <time>2013-08-24T10:05:19Z</time>
      </trkpt>
      <trkpt lat="45.45041" lon="5.91464">
        <ele>1574.3</ele>
        <time>2013-08-24T10:05:23Z</time>
      </trkpt>
      <trkpt lat="45.45045" lon="5.91454">
        <ele>1574.3</ele>
        <time>2013-08-24T10:05:27Z</time>
      </trkpt>
      <trkpt lat="45.45045" lon="5.9145">
        <ele>1574.3</ele>
        <time>2013-08-24T10:05:31Z</time>
      </trkpt>
      <trkpt lat="45.45044" lon="5.9145">
        <ele>1573.33</ele>
        <time>2013-08-24T10:05:35Z</time>
      </trkpt>
      <trkpt lat="45.45044" lon="5.9145">
        <ele>1573.33</ele>
        <time>2013-08-24T10:05:39Z</time>
      </trkpt>
      <trkpt lat="45.45044" lon="5.91447">
        <ele>1572.85</ele>
        <time>2013-08-24T10:05:43Z</time>
      </trkpt>
      <trkpt lat="45.45045" lon="5.91446">
        <ele>1573.33</ele>
        <time>2013-08-24T10:05:47Z</time>
      </trkpt>
      <trkpt lat="45.45047" lon="5.91444">
        <ele>1572.85</ele>
        <time>2013-08-24T10:05:51Z</time>
      </trkpt>
      <trkpt lat="45.45049" lon="5.91444">
        <ele>1573.33</ele>
        <time>2013-08-24T10:05:55Z</time>
      </trkpt>
      <trkpt lat="45.4505" lon="5.91444">
        <ele>1572.85</ele>
        <time>2013-08-24T10:05:59Z</time>
      </trkpt>
      <trkpt lat="45.45051" lon="5.91442">
        <ele>1572.85</ele>
        <time>2013-08-24T10:06:03Z</time>
      </trkpt>
      <trkpt lat="45.45052" lon="5.9144">
        <ele>1572.37</ele>
        <time>2013-08-24T10:06:07Z</time>
      </trkpt>
      <trkpt lat="45.45052" lon="5.91437">
        <ele>1572.37</ele>
        <time>2013-08-24T10:06:11Z</time>
      </trkpt>
      <trkpt lat="45.45052" lon="5.91437">
        <ele>1572.37</ele>
        <time>2013-08-24T10:06:15Z</time>
      </trkpt>
      <trkpt lat="45.45053" lon="5.91436">
        <ele>1572.37</ele>
        <time>2013-08-24T10:06:19Z</time>
      </trkpt>
      <trkpt lat="45.45055" lon="5.91435">
        <ele>1571.41</ele>
        <time>2013-08-24T10:06:23Z</time>
      </trkpt>
      <trkpt lat="45.45056" lon="5.91434">
        <ele>1571.41</ele>
        <time>2013-08-24T10:06:27Z</time>
      </trkpt>
      <trkpt lat="45.45059" lon="5.91432">
        <ele>1570.93</ele>
        <time>2013-08-24T10:06:31Z</time>
      </trkpt>
      <trkpt lat="45.4506" lon="5.91429">
        <ele>1570.45</ele>
        <time>2013-08-24T10:06:35Z</time>
      </trkpt>
      <trkpt lat="45.45062" lon="5.91425">
        <ele>1569.97</ele>
        <time>2013-08-24T10:06:39Z</time>
      </trkpt>
      <trkpt lat="45.45063" lon="5.91423">
        <ele>1569.97</ele>
        <time>2013-08-24T10:06:43Z</time>
      </trkpt>
      <trkpt lat="45.45065" lon="5.9142">
        <ele>1568.05</ele>
        <time>2013-08-24T10:06:47Z</time>
      </trkpt>
      <trkpt lat="45.45066" lon="5.91419">
        <ele>1567.57</ele>
        <time>2013-08-24T10:06:51Z</time>
      </trkpt>
      <trkpt lat="45.45067" lon="5.91418">
        <ele>1567.09</ele>
        <time>2013-08-24T10:06:55Z</time>
      </trkpt>
      <trkpt lat="45.45068" lon="5.91417">
        <ele>1566.61</ele>
        <time>2013-08-24T10:06:59Z</time>
      </trkpt>
      <trkpt lat="45.4507" lon="5.91416">
        <ele>1566.12</ele>
        <time>2013-08-24T10:07:03Z</time>
      </trkpt>
      <trkpt lat="45.45074" lon="5.91415">
        <ele>1564.68</ele>
        <time>2013-08-24T10:07:07Z</time>
      </trkpt>
      <trkpt lat="45.45076" lon="5.9141">
        <ele>1563.24</ele>
        <time>2013-08-24T10:07:11Z</time>
      </trkpt>
      <trkpt lat="45.45076" lon="5.91408">
        <ele>1562.76</ele>
        <time>2013-08-24T10:07:15Z</time>
      </trkpt>
      <trkpt lat="45.45078" lon="5.91408">
        <ele>1561.8</ele>
        <time>2013-08-24T10:07:19Z</time>
      </trkpt>
      <trkpt lat="45.45079" lon="5.91406">
        <ele>1560.84</ele>
        <time>2013-08-24T10:07:23Z</time>
      </trkpt>
      <trkpt lat="45.45079" lon="5.91405">
        <ele>1559.4</ele>
        <time>2013-08-24T10:07:27Z</time>
      </trkpt>
      <trkpt lat="45.45081" lon="5.91404">
        <ele>1558.92</ele>
        <time>2013-08-24T10:07:31Z</time>
      </trkpt>
      <trkpt lat="45.45083" lon="5.91401">
        <ele>1557.95</ele>
        <time>2013-08-24T10:07:35Z</time>
      </trkpt>
      <trkpt lat="45.45084" lon="5.91399">
        <ele>1557.47</ele>
        <time>2013-08-24T10:07:39Z</time>
      </trkpt>
      <trkpt lat="45.45084" lon="5.91397">
        <ele>1556.99</ele>
        <time>2013-08-24T10:07:43Z</time>
      </trkpt>
      <trkpt lat="45.45085" lon="5.91397">
        <ele>1557.47</ele>
        <time>2013-08-24T10:07:47Z</time>
      </trkpt>
      <trkpt lat="45.45086" lon="5.91397">
        <ele>1556.99</ele>
        <time>2013-08-24T10:07:51Z</time>
      </trkpt>
      <trkpt lat="45.45088" lon="5.91393">
        <ele>1553.15</ele>
        <time>2013-08-24T10:07:55Z</time>
      </trkpt>
      <trkpt lat="45.45089" lon="5.9139">
        <ele>1548.34</ele>
        <time>2013-08-24T10:07:59Z</time>
      </trkpt>
      <trkpt lat="45.45092" lon="5.91384">
        <ele>1544.01</ele>
        <time>2013-08-24T10:08:03Z</time>
      </trkpt>
      <trkpt lat="45.45095" lon="5.91378">
        <ele>1540.17</ele>
        <time>2013-08-24T10:08:07Z</time>
      </trkpt>
      <trkpt lat="45.45098" lon="5.91374">
        <ele>1535.36</ele>
        <time>2013-08-24T10:08:11Z</time>
      </trkpt>
      <trkpt lat="45.45099" lon="5.91371">
        <ele>1532</ele>
        <time>2013-08-24T10:08:14Z</time>
      </trkpt>
      <trkpt lat="45.45102" lon="5.91364">
        <ele>1529.59</ele>
        <time>2013-08-24T10:08:19Z</time>
      </trkpt>
      <trkpt lat="45.45102" lon="5.91359">
        <ele>1526.71</ele>
        <time>2013-08-24T10:08:23Z</time>
      </trkpt>
      <trkpt lat="45.45102" lon="5.91356">
        <ele>1524.31</ele>
        <time>2013-08-24T10:08:27Z</time>
      </trkpt>
      <trkpt lat="45.45102" lon="5.9135">
        <ele>1521.9</ele>
        <time>2013-08-24T10:08:31Z</time>
      </trkpt>
      <trkpt lat="45.45102" lon="5.91349">
        <ele>1518.06</ele>
        <time>2013-08-24T10:08:35Z</time>
      </trkpt>
      <trkpt lat="45.45104" lon="5.91345">
        <ele>1514.69</ele>
        <time>2013-08-24T10:08:39Z</time>
      </trkpt>
      <trkpt lat="45.45104" lon="5.91342">
        <ele>1512.77</ele>
        <time>2013-08-24T10:08:43Z</time>
      </trkpt>
      <trkpt lat="45.45105" lon="5.91341">
        <ele>1510.85</ele>
        <time>2013-08-24T10:08:47Z</time>
      </trkpt>
      <trkpt lat="45.45107" lon="5.91341">
        <ele>1509.41</ele>
        <time>2013-08-24T10:08:51Z</time>
      </trkpt>
      <trkpt lat="45.45109" lon="5.91341">
        <ele>1508.45</ele>
        <time>2013-08-24T10:08:55Z</time>
      </trkpt>
      <trkpt lat="45.45112" lon="5.91341">
        <ele>1507.97</ele>
        <time>2013-08-24T10:08:59Z</time>
      </trkpt>
      <trkpt lat="45.45114" lon="5.91339">
        <ele>1508.45</ele>
        <time>2013-08-24T10:09:03Z</time>
      </trkpt>
      <trkpt lat="45.45118" lon="5.91338">
        <ele>1508.45</ele>
        <time>2013-08-24T10:09:07Z</time>
      </trkpt>
      <trkpt lat="45.45121" lon="5.91336">
        <ele>1507.97</ele>
        <time>2013-08-24T10:09:11Z</time>
      </trkpt>
      <trkpt lat="45.45123" lon="5.91334">
        <ele>1507.48</ele>
        <time>2013-08-24T10:09:15Z</time>
      </trkpt>
      <trkpt lat="45.45127" lon="5.91333">
        <ele>1507</ele>
        <time>2013-08-24T10:09:19Z</time>
      </trkpt>
      <trkpt lat="45.45131" lon="5.91332">
        <ele>1505.08</ele>
        <time>2013-08-24T10:09:23Z</time>
      </trkpt>
      <trkpt lat="45.45135" lon="5.9133">
        <ele>1502.2</ele>
        <time>2013-08-24T10:09:27Z</time>
      </trkpt>
      <trkpt lat="45.45138" lon="5.91329">
        <ele>1499.79</ele>
        <time>2013-08-24T10:09:31Z</time>
      </trkpt>
      <trkpt lat="45.45142" lon="5.9133">
        <ele>1497.87</ele>
        <time>2013-08-24T10:09:35Z</time>
      </trkpt>
      <trkpt lat="45.45143" lon="5.9133">
        <ele>1497.39</ele>
        <time>2013-08-24T10:09:39Z</time>
      </trkpt>
      <trkpt lat="45.45145" lon="5.91329">
        <ele>1496.91</ele>
        <time>2013-08-24T10:09:43Z</time>
      </trkpt>
      <trkpt lat="45.45145" lon="5.91328">
        <ele>1495.47</ele>
        <time>2013-08-24T10:09:47Z</time>
      </trkpt>
      <trkpt lat="45.45145" lon="5.91328">
        <ele>1494.51</ele>
        <time>2013-08-24T10:09:51Z</time>
      </trkpt>
      <trkpt lat="45.45147" lon="5.91329">
        <ele>1492.58</ele>
        <time>2013-08-24T10:09:55Z</time>
      </trkpt>
      <trkpt lat="45.45147" lon="5.91328">
        <ele>1489.7</ele>
        <time>2013-08-24T10:09:59Z</time>
      </trkpt>
      <trkpt lat="45.45149" lon="5.91328">
        <ele>1489.7</ele>
        <time>2013-08-24T10:10:03Z</time>
      </trkpt>
      <trkpt lat="45.4515" lon="5.91327">
        <ele>1488.74</ele>
        <time>2013-08-24T10:10:07Z</time>
      </trkpt>
      <trkpt lat="45.45151" lon="5.91326">
        <ele>1488.26</ele>
        <time>2013-08-24T10:10:11Z</time>
      </trkpt>
      <trkpt lat="45.45153" lon="5.91324">
        <ele>1488.26</ele>
        <time>2013-08-24T10:10:15Z</time>
      </trkpt>
      <trkpt lat="45.45157" lon="5.91323">
        <ele>1487.3</ele>
        <time>2013-08-24T10:10:19Z</time>
      </trkpt>
      <trkpt lat="45.45159" lon="5.91321">
        <ele>1486.82</ele>
        <time>2013-08-24T10:10:23Z</time>
      </trkpt>
      <trkpt lat="45.45163" lon="5.91319">
        <ele>1485.85</ele>
        <time>2013-08-24T10:10:27Z</time>
      </trkpt>
      <trkpt lat="45.45167" lon="5.91318">
        <ele>1483.93</ele>
        <time>2013-08-24T10:10:31Z</time>
      </trkpt>
      <trkpt lat="45.45171" lon="5.91317">
        <ele>1482.49</ele>
        <time>2013-08-24T10:10:35Z</time>
      </trkpt>
      <trkpt lat="45.45173" lon="5.91318">
        <ele>1481.05</ele>
        <time>2013-08-24T10:10:39Z</time>
      </trkpt>
      <trkpt lat="45.45175" lon="5.91317">
        <ele>1479.13</ele>
        <time>2013-08-24T10:10:43Z</time>
      </trkpt>
      <trkpt lat="45.45177" lon="5.91316">
        <ele>1478.16</ele>
        <time>2013-08-24T10:10:47Z</time>
      </trkpt>
      <trkpt lat="45.4518" lon="5.91314">
        <ele>1475.28</ele>
        <time>2013-08-24T10:10:51Z</time>
      </trkpt>
      <trkpt lat="45.45181" lon="5.91314">
        <ele>1472.88</ele>
        <time>2013-08-24T10:10:55Z</time>
      </trkpt>
      <trkpt lat="45.45182" lon="5.91312">
        <ele>1470.47</ele>
        <time>2013-08-24T10:10:59Z</time>
      </trkpt>
      <trkpt lat="45.45184" lon="5.9131">
        <ele>1470.47</ele>
        <time>2013-08-24T10:11:03Z</time>
      </trkpt>
      <trkpt lat="45.45187" lon="5.91309">
        <ele>1470.47</ele>
        <time>2013-08-24T10:11:07Z</time>
      </trkpt>
      <trkpt lat="45.4519" lon="5.91309">
        <ele>1469.99</ele>
        <time>2013-08-24T10:11:11Z</time>
      </trkpt>
      <trkpt lat="45.45193" lon="5.91306">
        <ele>1468.07</ele>
        <time>2013-08-24T10:11:15Z</time>
      </trkpt>
      <trkpt lat="45.45195" lon="5.91301">
        <ele>1467.11</ele>
        <time>2013-08-24T10:11:19Z</time>
      </trkpt>
      <trkpt lat="45.45198" lon="5.91299">
        <ele>1466.15</ele>
        <time>2013-08-24T10:11:23Z</time>
      </trkpt>
      <trkpt lat="45.45202" lon="5.91296">
        <ele>1465.67</ele>
        <time>2013-08-24T10:11:27Z</time>
      </trkpt>
      <trkpt lat="45.45204" lon="5.91296">
        <ele>1465.19</ele>
        <time>2013-08-24T10:11:31Z</time>
      </trkpt>
      <trkpt lat="45.45206" lon="5.91297">
        <ele>1464.23</ele>
        <time>2013-08-24T10:11:35Z</time>
      </trkpt>
      <trkpt lat="45.45208" lon="5.913">
        <ele>1463.74</ele>
        <time>2013-08-24T10:11:39Z</time>
      </trkpt>
      <trkpt lat="45.45209" lon="5.913">
        <ele>1464.71</ele>
        <time>2013-08-24T10:11:43Z</time>
      </trkpt>
      <trkpt lat="45.45211" lon="5.913">
        <ele>1465.19</ele>
        <time>2013-08-24T10:11:47Z</time>
      </trkpt>
      <trkpt lat="45.45214" lon="5.913">
        <ele>1464.71</ele>
        <time>2013-08-24T10:11:51Z</time>
      </trkpt>
      <trkpt lat="45.45218" lon="5.91297">
        <ele>1461.82</ele>
        <time>2013-08-24T10:11:55Z</time>
      </trkpt>
      <trkpt lat="45.4522" lon="5.91294">
        <ele>1460.86</ele>
        <time>2013-08-24T10:11:59Z</time>
      </trkpt>
      <trkpt lat="45.45221" lon="5.9129">
        <ele>1458.94</ele>
        <time>2013-08-24T10:12:03Z</time>
      </trkpt>
      <trkpt lat="45.45221" lon="5.91287">
        <ele>1457.02</ele>
        <time>2013-08-24T10:12:07Z</time>
      </trkpt>
      <trkpt lat="45.45222" lon="5.9128">
        <ele>1455.09</ele>
        <time>2013-08-24T10:12:11Z</time>
      </trkpt>
      <trkpt lat="45.45222" lon="5.91277">
        <ele>1455.09</ele>
        <time>2013-08-24T10:12:15Z</time>
      </trkpt>
      <trkpt lat="45.45222" lon="5.91271">
        <ele>1454.13</ele>
        <time>2013-08-24T10:12:19Z</time>
      </trkpt>
      <trkpt lat="45.45222" lon="5.91266">
        <ele>1453.65</ele>
        <time>2013-08-24T10:12:23Z</time>
      </trkpt>
      <trkpt lat="45.45222" lon="5.91259">
        <ele>1452.21</ele>
        <time>2013-08-24T10:12:27Z</time>
      </trkpt>
      <trkpt lat="45.4522" lon="5.91254">
        <ele>1450.77</ele>
        <time>2013-08-24T10:12:31Z</time>
      </trkpt>
      <trkpt lat="45.45218" lon="5.9125">
        <ele>1450.29</ele>
        <time>2013-08-24T10:12:35Z</time>
      </trkpt>
      <trkpt lat="45.45217" lon="5.91244">
        <ele>1449.32</ele>
        <time>2013-08-24T10:12:39Z</time>
      </trkpt>
      <trkpt lat="45.45216" lon="5.91238">
        <ele>1447.4</ele>
        <time>2013-08-24T10:12:43Z</time>
      </trkpt>
      <trkpt lat="45.45215" lon="5.91232">
        <ele>1446.44</ele>
        <time>2013-08-24T10:12:47Z</time>
      </trkpt>
      <trkpt lat="45.45213" lon="5.91226">
        <ele>1445.48</ele>
        <time>2013-08-24T10:12:51Z</time>
      </trkpt>
      <trkpt lat="45.45212" lon="5.9122">
        <ele>1445.48</ele>
        <time>2013-08-24T10:12:55Z</time>
      </trkpt>
      <trkpt lat="45.45212" lon="5.91213">
        <ele>1445.96</ele>
        <time>2013-08-24T10:12:59Z</time>
      </trkpt>
      <trkpt lat="45.4521" lon="5.91209">
        <ele>1446.44</ele>
        <time>2013-08-24T10:13:03Z</time>
      </trkpt>
      <trkpt lat="45.45208" lon="5.91204">
        <ele>1446.44</ele>
        <time>2013-08-24T10:13:07Z</time>
      </trkpt>
      <trkpt lat="45.45205" lon="5.91201">
        <ele>1446.44</ele>
        <time>2013-08-24T10:13:11Z</time>
      </trkpt>
      <trkpt lat="45.45202" lon="5.91197">
        <ele>1445</ele>
        <time>2013-08-24T10:13:15Z</time>
      </trkpt>
      <trkpt lat="45.45199" lon="5.9119">
        <ele>1444.04</ele>
        <time>2013-08-24T10:13:19Z</time>
      </trkpt>
      <trkpt lat="45.45198" lon="5.91185">
        <ele>1443.08</ele>
        <time>2013-08-24T10:13:23Z</time>
      </trkpt>
      <trkpt lat="45.45194" lon="5.9118">
        <ele>1440.67</ele>
        <time>2013-08-24T10:13:27Z</time>
      </trkpt>
      <trkpt lat="45.4519" lon="5.91176">
        <ele>1438.75</ele>
        <time>2013-08-24T10:13:31Z</time>
      </trkpt>
      <trkpt lat="45.45188" lon="5.91171">
        <ele>1438.27</ele>
        <time>2013-08-24T10:13:35Z</time>
      </trkpt>
      <trkpt lat="45.45186" lon="5.9117">
        <ele>1437.79</ele>
        <time>2013-08-24T10:13:39Z</time>
      </trkpt>
      <trkpt lat="45.45185" lon="5.91169">
        <ele>1437.79</ele>
        <time>2013-08-24T10:13:43Z</time>
      </trkpt>
      <trkpt lat="45.45182" lon="5.91166">
        <ele>1436.83</ele>
        <time>2013-08-24T10:13:47Z</time>
      </trkpt>
      <trkpt lat="45.4518" lon="5.91164">
        <ele>1436.83</ele>
        <time>2013-08-24T10:13:51Z</time>
      </trkpt>
      <trkpt lat="45.45177" lon="5.91163">
        <ele>1436.35</ele>
        <time>2013-08-24T10:13:55Z</time>
      </trkpt>
      <trkpt lat="45.45176" lon="5.9116">
        <ele>1433.94</ele>
        <time>2013-08-24T10:13:59Z</time>
      </trkpt>
      <trkpt lat="45.45175" lon="5.91157">
        <ele>1431.06</ele>
        <time>2013-08-24T10:14:03Z</time>
      </trkpt>
      <trkpt lat="45.45175" lon="5.91152">
        <ele>1430.1</ele>
        <time>2013-08-24T10:14:07Z</time>
      </trkpt>
      <trkpt lat="45.45172" lon="5.91148">
        <ele>1428.18</ele>
        <time>2013-08-24T10:14:11Z</time>
      </trkpt>
      <trkpt lat="45.45171" lon="5.91143">
        <ele>1425.29</ele>
        <time>2013-08-24T10:14:15Z</time>
      </trkpt>
      <trkpt lat="45.45169" lon="5.91137">
        <ele>1423.85</ele>
        <time>2013-08-24T10:14:19Z</time>
      </trkpt>
      <trkpt lat="45.45169" lon="5.91132">
        <ele>1423.37</ele>
        <time>2013-08-24T10:14:23Z</time>
      </trkpt>
      <trkpt lat="45.45167" lon="5.91128">
        <ele>1422.89</ele>
        <time>2013-08-24T10:14:27Z</time>
      </trkpt>
      <trkpt lat="45.45167" lon="5.91123">
        <ele>1422.89</ele>
        <time>2013-08-24T10:14:31Z</time>
      </trkpt>
      <trkpt lat="45.45168" lon="5.91118">
        <ele>1423.37</ele>
        <time>2013-08-24T10:14:35Z</time>
      </trkpt>
      <trkpt lat="45.45163" lon="5.91113">
        <ele>1422.89</ele>
        <time>2013-08-24T10:14:39Z</time>
      </trkpt>
      <trkpt lat="45.45157" lon="5.91106">
        <ele>1421.45</ele>
        <time>2013-08-24T10:14:43Z</time>
      </trkpt>
      <trkpt lat="45.45154" lon="5.911">
        <ele>1419.04</ele>
        <time>2013-08-24T10:14:47Z</time>
      </trkpt>
      <trkpt lat="45.45152" lon="5.91094">
        <ele>1417.12</ele>
        <time>2013-08-24T10:14:51Z</time>
      </trkpt>
      <trkpt lat="45.45149" lon="5.91089">
        <ele>1415.68</ele>
        <time>2013-08-24T10:14:55Z</time>
      </trkpt>
      <trkpt lat="45.45147" lon="5.91086">
        <ele>1414.72</ele>
        <time>2013-08-24T10:14:59Z</time>
      </trkpt>
      <trkpt lat="45.45145" lon="5.91082">
        <ele>1413.76</ele>
        <time>2013-08-24T10:15:03Z</time>
      </trkpt>
      <trkpt lat="45.45147" lon="5.91076">
        <ele>1414.24</ele>
        <time>2013-08-24T10:15:07Z</time>
      </trkpt>
      <trkpt lat="45.45145" lon="5.91072">
        <ele>1414.24</ele>
        <time>2013-08-24T10:15:11Z</time>
      </trkpt>
      <trkpt lat="45.45145" lon="5.91068">
        <ele>1413.28</ele>
        <time>2013-08-24T10:15:15Z</time>
      </trkpt>
      <trkpt lat="45.45143" lon="5.91063">
        <ele>1413.28</ele>
        <time>2013-08-24T10:15:19Z</time>
      </trkpt>
      <trkpt lat="45.45143" lon="5.91059">
        <ele>1413.28</ele>
        <time>2013-08-24T10:15:23Z</time>
      </trkpt>
      <trkpt lat="45.4514" lon="5.91054">
        <ele>1413.28</ele>
        <time>2013-08-24T10:15:27Z</time>
      </trkpt>
      <trkpt lat="45.45139" lon="5.91052">
        <ele>1413.76</ele>
        <time>2013-08-24T10:15:31Z</time>
      </trkpt>
      <trkpt lat="45.45136" lon="5.91047">
        <ele>1413.28</ele>
        <time>2013-08-24T10:15:35Z</time>
      </trkpt>
      <trkpt lat="45.45134" lon="5.91043">
        <ele>1411.83</ele>
        <time>2013-08-24T10:15:39Z</time>
      </trkpt>
      <trkpt lat="45.45135" lon="5.91033">
        <ele>1409.43</ele>
        <time>2013-08-24T10:15:43Z</time>
      </trkpt>
      <trkpt lat="45.45133" lon="5.91029">
        <ele>1407.51</ele>
        <time>2013-08-24T10:15:47Z</time>
      </trkpt>
      <trkpt lat="45.45132" lon="5.91026">
        <ele>1407.03</ele>
        <time>2013-08-24T10:15:51Z</time>
      </trkpt>
      <trkpt lat="45.45132" lon="5.9102">
        <ele>1406.55</ele>
        <time>2013-08-24T10:15:55Z</time>
      </trkpt>
      <trkpt lat="45.45129" lon="5.91017">
        <ele>1406.07</ele>
        <time>2013-08-24T10:15:59Z</time>
      </trkpt>
      <trkpt lat="45.45127" lon="5.91016">
        <ele>1406.07</ele>
        <time>2013-08-24T10:16:03Z</time>
      </trkpt>
      <trkpt lat="45.45126" lon="5.91012">
        <ele>1407.03</ele>
        <time>2013-08-24T10:16:07Z</time>
      </trkpt>
      <trkpt lat="45.45125" lon="5.91012">
        <ele>1407.99</ele>
        <time>2013-08-24T10:16:11Z</time>
      </trkpt>
      <trkpt lat="45.45122" lon="5.91006">
        <ele>1408.47</ele>
        <time>2013-08-24T10:16:15Z</time>
      </trkpt>
      <trkpt lat="45.45121" lon="5.91001">
        <ele>1409.43</ele>
        <time>2013-08-24T10:16:19Z</time>
      </trkpt>
      <trkpt lat="45.45116" lon="5.90997">
        <ele>1408.95</ele>
        <time>2013-08-24T10:16:23Z</time>
      </trkpt>
      <trkpt lat="45.45112" lon="5.90985">
        <ele>1406.07</ele>
        <time>2013-08-24T10:16:27Z</time>
      </trkpt>
      <trkpt lat="45.45107" lon="5.90981">
        <ele>1403.18</ele>
        <time>2013-08-24T10:16:31Z</time>
      </trkpt>
      <trkpt lat="45.45105" lon="5.90979">
        <ele>1402.22</ele>
        <time>2013-08-24T10:16:35Z</time>
      </trkpt>
      <trkpt lat="45.45103" lon="5.90976">
        <ele>1400.3</ele>
        <time>2013-08-24T10:16:39Z</time>
      </trkpt>
      <trkpt lat="45.45098" lon="5.90973">
        <ele>1397.89</ele>
        <time>2013-08-24T10:16:43Z</time>
      </trkpt>
      <trkpt lat="45.45095" lon="5.9097">
        <ele>1397.41</ele>
        <time>2013-08-24T10:16:47Z</time>
      </trkpt>
      <trkpt lat="45.45093" lon="5.90967">
        <ele>1397.41</ele>
        <time>2013-08-24T10:16:51Z</time>
      </trkpt>
      <trkpt lat="45.45089" lon="5.90962">
        <ele>1395.97</ele>
        <time>2013-08-24T10:16:55Z</time>
      </trkpt>
      <trkpt lat="45.45087" lon="5.9096">
        <ele>1395.49</ele>
        <time>2013-08-24T10:16:59Z</time>
      </trkpt>
      <trkpt lat="45.45084" lon="5.90957">
        <ele>1395.49</ele>
        <time>2013-08-24T10:17:03Z</time>
      </trkpt>
      <trkpt lat="45.45082" lon="5.90954">
        <ele>1395.01</ele>
        <time>2013-08-24T10:17:07Z</time>
      </trkpt>
      <trkpt lat="45.45079" lon="5.90953">
        <ele>1395.49</ele>
        <time>2013-08-24T10:17:11Z</time>
      </trkpt>
      <trkpt lat="45.45074" lon="5.90949">
        <ele>1395.49</ele>
        <time>2013-08-24T10:17:15Z</time>
      </trkpt>
      <trkpt lat="45.45069" lon="5.90946">
        <ele>1394.53</ele>
        <time>2013-08-24T10:17:19Z</time>
      </trkpt>
      <trkpt lat="45.45062" lon="5.90942">
        <ele>1393.09</ele>
        <time>2013-08-24T10:17:23Z</time>
      </trkpt>
      <trkpt lat="45.45059" lon="5.9094">
        <ele>1393.09</ele>
        <time>2013-08-24T10:17:27Z</time>
      </trkpt>
      <trkpt lat="45.45056" lon="5.90937">
        <ele>1392.61</ele>
        <time>2013-08-24T10:17:31Z</time>
      </trkpt>
      <trkpt lat="45.4505" lon="5.90933">
        <ele>1391.65</ele>
        <time>2013-08-24T10:17:35Z</time>
      </trkpt>
      <trkpt lat="45.45046" lon="5.90931">
        <ele>1392.13</ele>
        <time>2013-08-24T10:17:39Z</time>
      </trkpt>
      <trkpt lat="45.45042" lon="5.90931">
        <ele>1393.09</ele>
        <time>2013-08-24T10:17:43Z</time>
      </trkpt>
      <trkpt lat="45.4503" lon="5.90923">
        <ele>1389.72</ele>
        <time>2013-08-24T10:17:47Z</time>
      </trkpt>
      <trkpt lat="45.45025" lon="5.90923">
        <ele>1388.28</ele>
        <time>2013-08-24T10:17:51Z</time>
      </trkpt>
      <trkpt lat="45.4502" lon="5.90922">
        <ele>1388.76</ele>
        <time>2013-08-24T10:17:55Z</time>
      </trkpt>
      <trkpt lat="45.45016" lon="5.90921">
        <ele>1388.76</ele>
        <time>2013-08-24T10:17:59Z</time>
      </trkpt>
      <trkpt lat="45.45012" lon="5.9092">
        <ele>1389.72</ele>
        <time>2013-08-24T10:18:03Z</time>
      </trkpt>
      <trkpt lat="45.45008" lon="5.9092">
        <ele>1391.17</ele>
        <time>2013-08-24T10:18:07Z</time>
      </trkpt>
      <trkpt lat="45.45005" lon="5.90918">
        <ele>1392.61</ele>
        <time>2013-08-24T10:18:11Z</time>
      </trkpt>
      <trkpt lat="45.45003" lon="5.90917">
        <ele>1393.57</ele>
        <time>2013-08-24T10:18:15Z</time>
      </trkpt>
      <trkpt lat="45.44999" lon="5.90915">
        <ele>1395.97</ele>
        <time>2013-08-24T10:18:19Z</time>
      </trkpt>
      <trkpt lat="45.44996" lon="5.90913">
        <ele>1399.34</ele>
        <time>2013-08-24T10:18:23Z</time>
      </trkpt>
      <trkpt lat="45.44995" lon="5.9091">
        <ele>1402.7</ele>
        <time>2013-08-24T10:18:27Z</time>
      </trkpt>
      <trkpt lat="45.44992" lon="5.90906">
        <ele>1406.07</ele>
        <time>2013-08-24T10:18:31Z</time>
      </trkpt>
      <trkpt lat="45.44989" lon="5.90903">
        <ele>1409.43</ele>
        <time>2013-08-24T10:18:35Z</time>
      </trkpt>
      <trkpt lat="45.44986" lon="5.90902">
        <ele>1412.79</ele>
        <time>2013-08-24T10:18:39Z</time>
      </trkpt>
      <trkpt lat="45.44984" lon="5.90898">
        <ele>1415.68</ele>
        <time>2013-08-24T10:18:43Z</time>
      </trkpt>
      <trkpt lat="45.44981" lon="5.90894">
        <ele>1420</ele>
        <time>2013-08-24T10:18:47Z</time>
      </trkpt>
      <trkpt lat="45.44978" lon="5.90892">
        <ele>1420.49</ele>
        <time>2013-08-24T10:18:51Z</time>
      </trkpt>
      <trkpt lat="45.44975" lon="5.9089">
        <ele>1421.45</ele>
        <time>2013-08-24T10:18:55Z</time>
      </trkpt>
      <trkpt lat="45.44972" lon="5.90887">
        <ele>1424.33</ele>
        <time>2013-08-24T10:18:59Z</time>
      </trkpt>
      <trkpt lat="45.44967" lon="5.90886">
        <ele>1425.29</ele>
        <time>2013-08-24T10:19:03Z</time>
      </trkpt>
      <trkpt lat="45.44964" lon="5.90886">
        <ele>1422.41</ele>
        <time>2013-08-24T10:19:07Z</time>
      </trkpt>
      <trkpt lat="45.44959" lon="5.90885">
        <ele>1419.04</ele>
        <time>2013-08-24T10:19:11Z</time>
      </trkpt>
      <trkpt lat="45.44956" lon="5.90884">
        <ele>1417.12</ele>
        <time>2013-08-24T10:19:15Z</time>
      </trkpt>
      <trkpt lat="45.44954" lon="5.90884">
        <ele>1416.16</ele>
        <time>2013-08-24T10:19:19Z</time>
      </trkpt>
      <trkpt lat="45.44951" lon="5.90885">
        <ele>1415.2</ele>
        <time>2013-08-24T10:19:23Z</time>
      </trkpt>
      <trkpt lat="45.44948" lon="5.90884">
        <ele>1414.24</ele>
        <time>2013-08-24T10:19:27Z</time>
      </trkpt>
      <trkpt lat="45.44945" lon="5.90884">
        <ele>1414.24</ele>
        <time>2013-08-24T10:19:31Z</time>
      </trkpt>
      <trkpt lat="45.44941" lon="5.9088">
        <ele>1413.76</ele>
        <time>2013-08-24T10:19:35Z</time>
      </trkpt>
      <trkpt lat="45.44938" lon="5.9088">
        <ele>1412.31</ele>
        <time>2013-08-24T10:19:39Z</time>
      </trkpt>
      <trkpt lat="45.44935" lon="5.90877">
        <ele>1412.79</ele>
        <time>2013-08-24T10:19:43Z</time>
      </trkpt>
      <trkpt lat="45.44931" lon="5.90876">
        <ele>1415.2</ele>
        <time>2013-08-24T10:19:47Z</time>
      </trkpt>
      <trkpt lat="45.44928" lon="5.90875">
        <ele>1415.68</ele>
        <time>2013-08-24T10:19:51Z</time>
      </trkpt>
      <trkpt lat="45.44925" lon="5.90872">
        <ele>1416.16</ele>
        <time>2013-08-24T10:19:55Z</time>
      </trkpt>
      <trkpt lat="45.44922" lon="5.9087">
        <ele>1416.64</ele>
        <time>2013-08-24T10:19:59Z</time>
      </trkpt>
      <trkpt lat="45.44919" lon="5.90869">
        <ele>1416.16</ele>
        <time>2013-08-24T10:20:03Z</time>
      </trkpt>
      <trkpt lat="45.44917" lon="5.90868">
        <ele>1417.6</ele>
        <time>2013-08-24T10:20:07Z</time>
      </trkpt>
      <trkpt lat="45.44915" lon="5.90866">
        <ele>1418.56</ele>
        <time>2013-08-24T10:20:11Z</time>
      </trkpt>
      <trkpt lat="45.4491" lon="5.90863">
        <ele>1420.97</ele>
        <time>2013-08-24T10:20:15Z</time>
      </trkpt>
      <trkpt lat="45.44907" lon="5.90859">
        <ele>1421.93</ele>
        <time>2013-08-24T10:20:19Z</time>
      </trkpt>
      <trkpt lat="45.44905" lon="5.90854">
        <ele>1424.33</ele>
        <time>2013-08-24T10:20:23Z</time>
      </trkpt>
      <trkpt lat="45.44901" lon="5.90849">
        <ele>1427.7</ele>
        <time>2013-08-24T10:20:27Z</time>
      </trkpt>
      <trkpt lat="45.44897" lon="5.90844">
        <ele>1432.98</ele>
        <time>2013-08-24T10:20:31Z</time>
      </trkpt>
      <trkpt lat="45.44894" lon="5.90838">
        <ele>1438.75</ele>
        <time>2013-08-24T10:20:35Z</time>
      </trkpt>
      <trkpt lat="45.4489" lon="5.90833">
        <ele>1443.56</ele>
        <time>2013-08-24T10:20:39Z</time>
      </trkpt>
      <trkpt lat="45.44886" lon="5.90827">
        <ele>1448.84</ele>
        <time>2013-08-24T10:20:43Z</time>
      </trkpt>
      <trkpt lat="45.44884" lon="5.90822">
        <ele>1452.69</ele>
        <time>2013-08-24T10:20:47Z</time>
      </trkpt>
      <trkpt lat="45.4488" lon="5.90818">
        <ele>1454.61</ele>
        <time>2013-08-24T10:20:51Z</time>
      </trkpt>
      <trkpt lat="45.44875" lon="5.90813">
        <ele>1458.46</ele>
        <time>2013-08-24T10:20:55Z</time>
      </trkpt>
      <trkpt lat="45.44872" lon="5.90809">
        <ele>1463.26</ele>
        <time>2013-08-24T10:20:59Z</time>
      </trkpt>
      <trkpt lat="45.4487" lon="5.90805">
        <ele>1467.59</ele>
        <time>2013-08-24T10:21:03Z</time>
      </trkpt>
      <trkpt lat="45.44862" lon="5.90801">
        <ele>1468.55</ele>
        <time>2013-08-24T10:21:07Z</time>
      </trkpt>
      <trkpt lat="45.44857" lon="5.90796">
        <ele>1468.07</ele>
        <time>2013-08-24T10:21:11Z</time>
      </trkpt>
      <trkpt lat="45.44851" lon="5.90793">
        <ele>1468.07</ele>
        <time>2013-08-24T10:21:15Z</time>
      </trkpt>
      <trkpt lat="45.44848" lon="5.9079">
        <ele>1469.99</ele>
        <time>2013-08-24T10:21:19Z</time>
      </trkpt>
      <trkpt lat="45.44845" lon="5.90788">
        <ele>1473.36</ele>
        <time>2013-08-24T10:21:23Z</time>
      </trkpt>
      <trkpt lat="45.44845" lon="5.90788">
        <ele>1473.36</ele>
        <time>2013-08-24T10:21:27Z</time>
      </trkpt>
      <trkpt lat="45.44848" lon="5.90782">
        <ele>1474.8</ele>
        <time>2013-08-24T10:21:31Z</time>
      </trkpt>
      <trkpt lat="45.44853" lon="5.90774">
        <ele>1473.36</ele>
        <time>2013-08-24T10:21:35Z</time>
      </trkpt>
      <trkpt lat="45.44847" lon="5.90776">
        <ele>1464.23</ele>
        <time>2013-08-24T10:21:39Z</time>
      </trkpt>
      <trkpt lat="45.44842" lon="5.90782">
        <ele>1459.42</ele>
        <time>2013-08-24T10:21:43Z</time>
      </trkpt>
      <trkpt lat="45.44839" lon="5.90786">
        <ele>1458.94</ele>
        <time>2013-08-24T10:21:47Z</time>
      </trkpt>
      <trkpt lat="45.44837" lon="5.90789">
        <ele>1457.98</ele>
        <time>2013-08-24T10:21:51Z</time>
      </trkpt>
      <trkpt lat="45.44836" lon="5.9079">
        <ele>1456.53</ele>
        <time>2013-08-24T10:21:55Z</time>
      </trkpt>
      <trkpt lat="45.44833" lon="5.90791">
        <ele>1454.61</ele>
        <time>2013-08-24T10:21:59Z</time>
      </trkpt>
      <trkpt lat="45.44829" lon="5.90792">
        <ele>1450.77</ele>
        <time>2013-08-24T10:22:03Z</time>
      </trkpt>
      <trkpt lat="45.44825" lon="5.90794">
        <ele>1446.92</ele>
        <time>2013-08-24T10:22:07Z</time>
      </trkpt>
      <trkpt lat="45.44819" lon="5.90795">
        <ele>1442.11</ele>
        <time>2013-08-24T10:22:11Z</time>
      </trkpt>
      <trkpt lat="45.44815" lon="5.90792">
        <ele>1437.79</ele>
        <time>2013-08-24T10:22:15Z</time>
      </trkpt>
      <trkpt lat="45.44811" lon="5.9079">
        <ele>1435.87</ele>
        <time>2013-08-24T10:22:19Z</time>
      </trkpt>
      <trkpt lat="45.44807" lon="5.90787">
        <ele>1435.39</ele>
        <time>2013-08-24T10:22:23Z</time>
      </trkpt>
      <trkpt lat="45.44803" lon="5.90786">
        <ele>1434.91</ele>
        <time>2013-08-24T10:22:27Z</time>
      </trkpt>
      <trkpt lat="45.44799" lon="5.90785">
        <ele>1434.42</ele>
        <time>2013-08-24T10:22:31Z</time>
      </trkpt>
      <trkpt lat="45.44793" lon="5.90783">
        <ele>1431.54</ele>
        <time>2013-08-24T10:22:35Z</time>
      </trkpt>
      <trkpt lat="45.44788" lon="5.90782">
        <ele>1429.14</ele>
        <time>2013-08-24T10:22:39Z</time>
      </trkpt>
      <trkpt lat="45.44786" lon="5.9078">
        <ele>1428.18</ele>
        <time>2013-08-24T10:22:43Z</time>
      </trkpt>
      <trkpt lat="45.44783" lon="5.90776">
        <ele>1430.1</ele>
        <time>2013-08-24T10:22:47Z</time>
      </trkpt>
      <trkpt lat="45.44781" lon="5.90774">
        <ele>1431.54</ele>
        <time>2013-08-24T10:22:51Z</time>
      </trkpt>
      <trkpt lat="45.44779" lon="5.90771">
        <ele>1428.66</ele>
        <time>2013-08-24T10:22:55Z</time>
      </trkpt>
      <trkpt lat="45.44777" lon="5.90766">
        <ele>1431.06</ele>
        <time>2013-08-24T10:22:59Z</time>
      </trkpt>
      <trkpt lat="45.44775" lon="5.90762">
        <ele>1429.14</ele>
        <time>2013-08-24T10:23:03Z</time>
      </trkpt>
      <trkpt lat="45.44773" lon="5.90758">
        <ele>1420.97</ele>
        <time>2013-08-24T10:23:07Z</time>
      </trkpt>
      <trkpt lat="45.44768" lon="5.90759">
        <ele>1406.07</ele>
        <time>2013-08-24T10:23:11Z</time>
      </trkpt>
      <trkpt lat="45.44763" lon="5.90758">
        <ele>1392.13</ele>
        <time>2013-08-24T10:23:15Z</time>
      </trkpt>
      <trkpt lat="45.4476" lon="5.90754">
        <ele>1384.44</ele>
        <time>2013-08-24T10:23:19Z</time>
      </trkpt>
      <trkpt lat="45.44757" lon="5.90759">
        <ele>1370.02</ele>
        <time>2013-08-24T10:23:23Z</time>
      </trkpt>
      <trkpt lat="45.44756" lon="5.90763">
        <ele>1356.56</ele>
        <time>2013-08-24T10:23:27Z</time>
      </trkpt>
      <trkpt lat="45.44752" lon="5.90768">
        <ele>1342.14</ele>
        <time>2013-08-24T10:23:31Z</time>
      </trkpt>
      <trkpt lat="45.44751" lon="5.90766">
        <ele>1336.85</ele>
        <time>2013-08-24T10:23:35Z</time>
      </trkpt>
      <trkpt lat="45.44749" lon="5.90766">
        <ele>1328.2</ele>
        <time>2013-08-24T10:23:39Z</time>
      </trkpt>
      <trkpt lat="45.44748" lon="5.90762">
        <ele>1321.47</ele>
        <time>2013-08-24T10:23:43Z</time>
      </trkpt>
      <trkpt lat="45.44747" lon="5.90757">
        <ele>1317.14</ele>
        <time>2013-08-24T10:23:47Z</time>
      </trkpt>
      <trkpt lat="45.44744" lon="5.90752">
        <ele>1312.82</ele>
        <time>2013-08-24T10:23:51Z</time>
      </trkpt>
      <trkpt lat="45.4474" lon="5.90753">
        <ele>1303.2</ele>
        <time>2013-08-24T10:23:55Z</time>
      </trkpt>
      <trkpt lat="45.44739" lon="5.90755">
        <ele>1292.63</ele>
        <time>2013-08-24T10:23:59Z</time>
      </trkpt>
      <trkpt lat="45.44739" lon="5.90756">
        <ele>1287.34</ele>
        <time>2013-08-24T10:24:03Z</time>
      </trkpt>
      <trkpt lat="45.44738" lon="5.90754">
        <ele>1283.98</ele>
        <time>2013-08-24T10:24:07Z</time>
      </trkpt>
      <trkpt lat="45.44736" lon="5.90749">
        <ele>1280.61</ele>
        <time>2013-08-24T10:24:11Z</time>
      </trkpt>
      <trkpt lat="45.44734" lon="5.90742">
        <ele>1277.73</ele>
        <time>2013-08-24T10:24:15Z</time>
      </trkpt>
      <trkpt lat="45.44734" lon="5.90736">
        <ele>1274.85</ele>
        <time>2013-08-24T10:24:19Z</time>
      </trkpt>
      <trkpt lat="45.44734" lon="5.90729">
        <ele>1271.96</ele>
        <time>2013-08-24T10:24:23Z</time>
      </trkpt>
      <trkpt lat="45.44734" lon="5.90723">
        <ele>1269.08</ele>
        <time>2013-08-24T10:24:27Z</time>
      </trkpt>
      <trkpt lat="45.44735" lon="5.90716">
        <ele>1267.64</ele>
        <time>2013-08-24T10:24:31Z</time>
      </trkpt>
      <trkpt lat="45.44736" lon="5.90709">
        <ele>1266.19</ele>
        <time>2013-08-24T10:24:35Z</time>
      </trkpt>
      <trkpt lat="45.44738" lon="5.90704">
        <ele>1264.75</ele>
        <time>2013-08-24T10:24:39Z</time>
      </trkpt>
      <trkpt lat="45.44738" lon="5.90698">
        <ele>1263.31</ele>
        <time>2013-08-24T10:24:43Z</time>
      </trkpt>
      <trkpt lat="45.44738" lon="5.90692">
        <ele>1262.83</ele>
        <time>2013-08-24T10:24:47Z</time>
      </trkpt>
      <trkpt lat="45.44741" lon="5.90684">
        <ele>1261.39</ele>
        <time>2013-08-24T10:24:51Z</time>
      </trkpt>
      <trkpt lat="45.44743" lon="5.90675">
        <ele>1258.5</ele>
        <time>2013-08-24T10:24:55Z</time>
      </trkpt>
      <trkpt lat="45.44744" lon="5.90666">
        <ele>1256.58</ele>
        <time>2013-08-24T10:24:59Z</time>
      </trkpt>
      <trkpt lat="45.44745" lon="5.90658">
        <ele>1255.14</ele>
        <time>2013-08-24T10:25:03Z</time>
      </trkpt>
      <trkpt lat="45.44746" lon="5.90651">
        <ele>1254.18</ele>
        <time>2013-08-24T10:25:07Z</time>
      </trkpt>
      <trkpt lat="45.44748" lon="5.90643">
        <ele>1253.22</ele>
        <time>2013-08-24T10:25:11Z</time>
      </trkpt>
      <trkpt lat="45.44748" lon="5.90635">
        <ele>1251.29</ele>
        <time>2013-08-24T10:25:15Z</time>
      </trkpt>
      <trkpt lat="45.44749" lon="5.90627">
        <ele>1250.33</ele>
        <time>2013-08-24T10:25:19Z</time>
      </trkpt>
      <trkpt lat="45.4475" lon="5.9062">
        <ele>1248.89</ele>
        <time>2013-08-24T10:25:23Z</time>
      </trkpt>
      <trkpt lat="45.4475" lon="5.90615">
        <ele>1248.89</ele>
        <time>2013-08-24T10:25:27Z</time>
      </trkpt>
      <trkpt lat="45.4475" lon="5.90609">
        <ele>1248.89</ele>
        <time>2013-08-24T10:25:31Z</time>
      </trkpt>
      <trkpt lat="45.44751" lon="5.90603">
        <ele>1248.89</ele>
        <time>2013-08-24T10:25:35Z</time>
      </trkpt>
      <trkpt lat="45.44752" lon="5.90595">
        <ele>1247.93</ele>
        <time>2013-08-24T10:25:39Z</time>
      </trkpt>
      <trkpt lat="45.44754" lon="5.90589">
        <ele>1247.93</ele>
        <time>2013-08-24T10:25:43Z</time>
      </trkpt>
      <trkpt lat="45.44755" lon="5.90583">
        <ele>1247.93</ele>
        <time>2013-08-24T10:25:47Z</time>
      </trkpt>
      <trkpt lat="45.44755" lon="5.90576">
        <ele>1246.49</ele>
        <time>2013-08-24T10:25:51Z</time>
      </trkpt>
      <trkpt lat="45.44755" lon="5.90571">
        <ele>1245.53</ele>
        <time>2013-08-24T10:25:55Z</time>
      </trkpt>
      <trkpt lat="45.44755" lon="5.90568">
        <ele>1245.04</ele>
        <time>2013-08-24T10:25:59Z</time>
      </trkpt>
      <trkpt lat="45.44755" lon="5.90564">
        <ele>1245.04</ele>
        <time>2013-08-24T10:26:03Z</time>
      </trkpt>
      <trkpt lat="45.44757" lon="5.90559">
        <ele>1243.12</ele>
        <time>2013-08-24T10:26:07Z</time>
      </trkpt>
      <trkpt lat="45.44758" lon="5.90554">
        <ele>1240.72</ele>
        <time>2013-08-24T10:26:11Z</time>
      </trkpt>
      <trkpt lat="45.4476" lon="5.90548">
        <ele>1240.24</ele>
        <time>2013-08-24T10:26:15Z</time>
      </trkpt>
      <trkpt lat="45.4476" lon="5.90544">
        <ele>1240.24</ele>
        <time>2013-08-24T10:26:19Z</time>
      </trkpt>
      <trkpt lat="45.44762" lon="5.90538">
        <ele>1240.24</ele>
        <time>2013-08-24T10:26:23Z</time>
      </trkpt>
      <trkpt lat="45.44764" lon="5.90532">
        <ele>1239.76</ele>
        <time>2013-08-24T10:26:27Z</time>
      </trkpt>
      <trkpt lat="45.44767" lon="5.90528">
        <ele>1239.28</ele>
        <time>2013-08-24T10:26:31Z</time>
      </trkpt>
      <trkpt lat="45.44771" lon="5.90523">
        <ele>1237.83</ele>
        <time>2013-08-24T10:26:35Z</time>
      </trkpt>
      <trkpt lat="45.44774" lon="5.90517">
        <ele>1237.35</ele>
        <time>2013-08-24T10:26:39Z</time>
      </trkpt>
      <trkpt lat="45.44777" lon="5.90511">
        <ele>1237.83</ele>
        <time>2013-08-24T10:26:43Z</time>
      </trkpt>
      <trkpt lat="45.44781" lon="5.90505">
        <ele>1237.35</ele>
        <time>2013-08-24T10:26:47Z</time>
      </trkpt>
      <trkpt lat="45.44785" lon="5.90501">
        <ele>1236.87</ele>
        <time>2013-08-24T10:26:51Z</time>
      </trkpt>
      <trkpt lat="45.44786" lon="5.90496">
        <ele>1235.91</ele>
        <time>2013-08-24T10:26:55Z</time>
      </trkpt>
      <trkpt lat="45.44786" lon="5.90491">
        <ele>1233.03</ele>
        <time>2013-08-24T10:26:59Z</time>
      </trkpt>
      <trkpt lat="45.44785" lon="5.90488">
        <ele>1228.22</ele>
        <time>2013-08-24T10:27:03Z</time>
      </trkpt>
      <trkpt lat="45.44782" lon="5.90488">
        <ele>1224.86</ele>
        <time>2013-08-24T10:27:07Z</time>
      </trkpt>
      <trkpt lat="45.44779" lon="5.90488">
        <ele>1223.9</ele>
        <time>2013-08-24T10:27:11Z</time>
      </trkpt>
      <trkpt lat="45.44776" lon="5.90488">
        <ele>1222.93</ele>
        <time>2013-08-24T10:27:15Z</time>
      </trkpt>
      <trkpt lat="45.44772" lon="5.90489">
        <ele>1220.53</ele>
        <time>2013-08-24T10:27:19Z</time>
      </trkpt>
      <trkpt lat="45.44768" lon="5.9049">
        <ele>1219.09</ele>
        <time>2013-08-24T10:27:23Z</time>
      </trkpt>
      <trkpt lat="45.44764" lon="5.90491">
        <ele>1216.21</ele>
        <time>2013-08-24T10:27:27Z</time>
      </trkpt>
      <trkpt lat="45.44759" lon="5.90492">
        <ele>1214.28</ele>
        <time>2013-08-24T10:27:31Z</time>
      </trkpt>
      <trkpt lat="45.44754" lon="5.90492">
        <ele>1213.32</ele>
        <time>2013-08-24T10:27:35Z</time>
      </trkpt>
      <trkpt lat="45.4475" lon="5.90491">
        <ele>1211.88</ele>
        <time>2013-08-24T10:27:39Z</time>
      </trkpt>
      <trkpt lat="45.44745" lon="5.90492">
        <ele>1210.92</ele>
        <time>2013-08-24T10:27:43Z</time>
      </trkpt>
      <trkpt lat="45.44741" lon="5.90492">
        <ele>1210.44</ele>
        <time>2013-08-24T10:27:47Z</time>
      </trkpt>
      <trkpt lat="45.44735" lon="5.90493">
        <ele>1209</ele>
        <time>2013-08-24T10:27:51Z</time>
      </trkpt>
      <trkpt lat="45.4473" lon="5.90494">
        <ele>1208.03</ele>
        <time>2013-08-24T10:27:55Z</time>
      </trkpt>
      <trkpt lat="45.44727" lon="5.90494">
        <ele>1207.55</ele>
        <time>2013-08-24T10:27:59Z</time>
      </trkpt>
      <trkpt lat="45.44723" lon="5.90495">
        <ele>1208.51</ele>
        <time>2013-08-24T10:28:03Z</time>
      </trkpt>
      <trkpt lat="45.44718" lon="5.90496">
        <ele>1209.48</ele>
        <time>2013-08-24T10:28:07Z</time>
      </trkpt>
      <trkpt lat="45.44713" lon="5.90495">
        <ele>1209</ele>
        <time>2013-08-24T10:28:11Z</time>
      </trkpt>
      <trkpt lat="45.44708" lon="5.90493">
        <ele>1209.48</ele>
        <time>2013-08-24T10:28:15Z</time>
      </trkpt>
      <trkpt lat="45.44703" lon="5.90494">
        <ele>1209.96</ele>
        <time>2013-08-24T10:28:19Z</time>
      </trkpt>
      <trkpt lat="45.44698" lon="5.90495">
        <ele>1209.48</ele>
        <time>2013-08-24T10:28:23Z</time>
      </trkpt>
      <trkpt lat="45.44693" lon="5.90497">
        <ele>1208.03</ele>
        <time>2013-08-24T10:28:27Z</time>
      </trkpt>
      <trkpt lat="45.44689" lon="5.905">
        <ele>1205.63</ele>
        <time>2013-08-24T10:28:31Z</time>
      </trkpt>
      <trkpt lat="45.44684" lon="5.90501">
        <ele>1204.19</ele>
        <time>2013-08-24T10:28:35Z</time>
      </trkpt>
      <trkpt lat="45.4468" lon="5.90503">
        <ele>1202.27</ele>
        <time>2013-08-24T10:28:39Z</time>
      </trkpt>
      <trkpt lat="45.44677" lon="5.90508">
        <ele>1201.79</ele>
        <time>2013-08-24T10:28:43Z</time>
      </trkpt>
      <trkpt lat="45.44674" lon="5.90512">
        <ele>1200.82</ele>
        <time>2013-08-24T10:28:47Z</time>
      </trkpt>
      <trkpt lat="45.44672" lon="5.90515">
        <ele>1201.79</ele>
        <time>2013-08-24T10:28:51Z</time>
      </trkpt>
      <trkpt lat="45.4467" lon="5.90519">
        <ele>1202.27</ele>
        <time>2013-08-24T10:28:55Z</time>
      </trkpt>
      <trkpt lat="45.44668" lon="5.90521">
        <ele>1203.23</ele>
        <time>2013-08-24T10:28:59Z</time>
      </trkpt>
      <trkpt lat="45.44666" lon="5.90524">
        <ele>1204.19</ele>
        <time>2013-08-24T10:29:03Z</time>
      </trkpt>
      <trkpt lat="45.44665" lon="5.90529">
        <ele>1205.15</ele>
        <time>2013-08-24T10:29:07Z</time>
      </trkpt>
      <trkpt lat="45.44664" lon="5.90535">
        <ele>1205.15</ele>
        <time>2013-08-24T10:29:11Z</time>
      </trkpt>
      <trkpt lat="45.44662" lon="5.90543">
        <ele>1204.67</ele>
        <time>2013-08-24T10:29:15Z</time>
      </trkpt>
      <trkpt lat="45.44661" lon="5.9055">
        <ele>1203.71</ele>
        <time>2013-08-24T10:29:19Z</time>
      </trkpt>
      <trkpt lat="45.44659" lon="5.90557">
        <ele>1203.23</ele>
        <time>2013-08-24T10:29:23Z</time>
      </trkpt>
      <trkpt lat="45.44657" lon="5.90564">
        <ele>1202.27</ele>
        <time>2013-08-24T10:29:27Z</time>
      </trkpt>
      <trkpt lat="45.44655" lon="5.90569">
        <ele>1201.79</ele>
        <time>2013-08-24T10:29:31Z</time>
      </trkpt>
      <trkpt lat="45.44653" lon="5.90575">
        <ele>1201.3</ele>
        <time>2013-08-24T10:29:35Z</time>
      </trkpt>
      <trkpt lat="45.44651" lon="5.90581">
        <ele>1200.34</ele>
        <time>2013-08-24T10:29:39Z</time>
      </trkpt>
      <trkpt lat="45.44648" lon="5.90585">
        <ele>1198.9</ele>
        <time>2013-08-24T10:29:43Z</time>
      </trkpt>
      <trkpt lat="45.44645" lon="5.9059">
        <ele>1198.42</ele>
        <time>2013-08-24T10:29:47Z</time>
      </trkpt>
      <trkpt lat="45.44642" lon="5.90595">
        <ele>1197.46</ele>
        <time>2013-08-24T10:29:51Z</time>
      </trkpt>
      <trkpt lat="45.44638" lon="5.90599">
        <ele>1197.94</ele>
        <time>2013-08-24T10:29:55Z</time>
      </trkpt>
      <trkpt lat="45.44633" lon="5.90599">
        <ele>1198.9</ele>
        <time>2013-08-24T10:29:59Z</time>
      </trkpt>
      <trkpt lat="45.44631" lon="5.906">
        <ele>1200.34</ele>
        <time>2013-08-24T10:30:03Z</time>
      </trkpt>
      <trkpt lat="45.44628" lon="5.90604">
        <ele>1202.75</ele>
        <time>2013-08-24T10:30:07Z</time>
      </trkpt>
      <trkpt lat="45.44626" lon="5.90608">
        <ele>1204.19</ele>
        <time>2013-08-24T10:30:11Z</time>
      </trkpt>
      <trkpt lat="45.44621" lon="5.9061">
        <ele>1205.15</ele>
        <time>2013-08-24T10:30:15Z</time>
      </trkpt>
      <trkpt lat="45.44618" lon="5.90612">
        <ele>1206.59</ele>
        <time>2013-08-24T10:30:19Z</time>
      </trkpt>
      <trkpt lat="45.44614" lon="5.90615">
        <ele>1207.55</ele>
        <time>2013-08-24T10:30:23Z</time>
      </trkpt>
      <trkpt lat="45.4461" lon="5.90618">
        <ele>1209</ele>
        <time>2013-08-24T10:30:27Z</time>
      </trkpt>
      <trkpt lat="45.44606" lon="5.9062">
        <ele>1210.92</ele>
        <time>2013-08-24T10:30:31Z</time>
      </trkpt>
      <trkpt lat="45.44602" lon="5.90621">
        <ele>1214.28</ele>
        <time>2013-08-24T10:30:35Z</time>
      </trkpt>
      <trkpt lat="45.44598" lon="5.90617">
        <ele>1217.65</ele>
        <time>2013-08-24T10:30:39Z</time>
      </trkpt>
      <trkpt lat="45.44596" lon="5.90614">
        <ele>1221.01</ele>
        <time>2013-08-24T10:30:43Z</time>
      </trkpt>
      <trkpt lat="45.44593" lon="5.90609">
        <ele>1223.42</ele>
        <time>2013-08-24T10:30:47Z</time>
      </trkpt>
      <trkpt lat="45.4459" lon="5.90608">
        <ele>1226.78</ele>
        <time>2013-08-24T10:30:51Z</time>
      </trkpt>
      <trkpt lat="45.44589" lon="5.90602">
        <ele>1230.14</ele>
        <time>2013-08-24T10:30:55Z</time>
      </trkpt>
      <trkpt lat="45.44589" lon="5.90594">
        <ele>1233.99</ele>
        <time>2013-08-24T10:30:59Z</time>
      </trkpt>
      <trkpt lat="45.44589" lon="5.9059">
        <ele>1236.87</ele>
        <time>2013-08-24T10:31:03Z</time>
      </trkpt>
      <trkpt lat="45.44586" lon="5.90592">
        <ele>1237.83</ele>
        <time>2013-08-24T10:31:07Z</time>
      </trkpt>
      <trkpt lat="45.44584" lon="5.90595">
        <ele>1239.76</ele>
        <time>2013-08-24T10:31:11Z</time>
      </trkpt>
      <trkpt lat="45.44582" lon="5.90598">
        <ele>1242.64</ele>
        <time>2013-08-24T10:31:15Z</time>
      </trkpt>
      <trkpt lat="45.44579" lon="5.90602">
        <ele>1246.49</ele>
        <time>2013-08-24T10:31:19Z</time>
      </trkpt>
      <trkpt lat="45.44577" lon="5.90606">
        <ele>1248.89</ele>
        <time>2013-08-24T10:31:23Z</time>
      </trkpt>
      <trkpt lat="45.44575" lon="5.9061">
        <ele>1250.81</ele>
        <time>2013-08-24T10:31:27Z</time>
      </trkpt>
      <trkpt lat="45.44572" lon="5.90614">
        <ele>1250.33</ele>
        <time>2013-08-24T10:31:31Z</time>
      </trkpt>
      <trkpt lat="45.44569" lon="5.90619">
        <ele>1248.89</ele>
        <time>2013-08-24T10:31:35Z</time>
      </trkpt>
      <trkpt lat="45.44565" lon="5.90621">
        <ele>1246.49</ele>
        <time>2013-08-24T10:31:39Z</time>
      </trkpt>
      <trkpt lat="45.44561" lon="5.90625">
        <ele>1244.08</ele>
        <time>2013-08-24T10:31:43Z</time>
      </trkpt>
      <trkpt lat="45.44558" lon="5.90629">
        <ele>1242.64</ele>
        <time>2013-08-24T10:31:47Z</time>
      </trkpt>
      <trkpt lat="45.44554" lon="5.90631">
        <ele>1241.68</ele>
        <time>2013-08-24T10:31:51Z</time>
      </trkpt>
      <trkpt lat="45.44553" lon="5.90636">
        <ele>1241.2</ele>
        <time>2013-08-24T10:31:55Z</time>
      </trkpt>
      <trkpt lat="45.44549" lon="5.9064">
        <ele>1240.72</ele>
        <time>2013-08-24T10:31:59Z</time>
      </trkpt>
      <trkpt lat="45.44545" lon="5.90643">
        <ele>1239.76</ele>
        <time>2013-08-24T10:32:03Z</time>
      </trkpt>
      <trkpt lat="45.44541" lon="5.90649">
        <ele>1238.32</ele>
        <time>2013-08-24T10:32:07Z</time>
      </trkpt>
      <trkpt lat="45.44538" lon="5.90652">
        <ele>1236.87</ele>
        <time>2013-08-24T10:32:11Z</time>
      </trkpt>
      <trkpt lat="45.44535" lon="5.90657">
        <ele>1236.39</ele>
        <time>2013-08-24T10:32:15Z</time>
      </trkpt>
      <trkpt lat="45.4453" lon="5.90661">
        <ele>1234.95</ele>
        <time>2013-08-24T10:32:19Z</time>
      </trkpt>
      <trkpt lat="45.44523" lon="5.90665">
        <ele>1232.55</ele>
        <time>2013-08-24T10:32:23Z</time>
      </trkpt>
      <trkpt lat="45.44519" lon="5.9067">
        <ele>1231.11</ele>
        <time>2013-08-24T10:32:27Z</time>
      </trkpt>
      <trkpt lat="45.44515" lon="5.90675">
        <ele>1229.18</ele>
        <time>2013-08-24T10:32:31Z</time>
      </trkpt>
      <trkpt lat="45.44511" lon="5.9068">
        <ele>1227.74</ele>
        <time>2013-08-24T10:32:35Z</time>
      </trkpt>
      <trkpt lat="45.44506" lon="5.90686">
        <ele>1225.34</ele>
        <time>2013-08-24T10:32:39Z</time>
      </trkpt>
      <trkpt lat="45.44502" lon="5.9069">
        <ele>1223.42</ele>
        <time>2013-08-24T10:32:43Z</time>
      </trkpt>
      <trkpt lat="45.44498" lon="5.90695">
        <ele>1221.97</ele>
        <time>2013-08-24T10:32:47Z</time>
      </trkpt>
      <trkpt lat="45.44496" lon="5.90699">
        <ele>1221.01</ele>
        <time>2013-08-24T10:32:51Z</time>
      </trkpt>
      <trkpt lat="45.44491" lon="5.90704">
        <ele>1218.61</ele>
        <time>2013-08-24T10:32:55Z</time>
      </trkpt>
      <trkpt lat="45.44488" lon="5.9071">
        <ele>1217.17</ele>
        <time>2013-08-24T10:32:59Z</time>
      </trkpt>
      <trkpt lat="45.44483" lon="5.90716">
        <ele>1216.21</ele>
        <time>2013-08-24T10:33:03Z</time>
      </trkpt>
      <trkpt lat="45.4448" lon="5.90719">
        <ele>1214.76</ele>
        <time>2013-08-24T10:33:07Z</time>
      </trkpt>
      <trkpt lat="45.44476" lon="5.90722">
        <ele>1213.8</ele>
        <time>2013-08-24T10:33:11Z</time>
      </trkpt>
      <trkpt lat="45.44471" lon="5.90727">
        <ele>1209.96</ele>
        <time>2013-08-24T10:33:15Z</time>
      </trkpt>
      <trkpt lat="45.44465" lon="5.90728">
        <ele>1208.51</ele>
        <time>2013-08-24T10:33:19Z</time>
      </trkpt>
      <trkpt lat="45.4446" lon="5.90729">
        <ele>1207.07</ele>
        <time>2013-08-24T10:33:23Z</time>
      </trkpt>
      <trkpt lat="45.44455" lon="5.90731">
        <ele>1205.63</ele>
        <time>2013-08-24T10:33:27Z</time>
      </trkpt>
      <trkpt lat="45.4445" lon="5.90734">
        <ele>1204.67</ele>
        <time>2013-08-24T10:33:31Z</time>
      </trkpt>
      <trkpt lat="45.44444" lon="5.90737">
        <ele>1203.23</ele>
        <time>2013-08-24T10:33:35Z</time>
      </trkpt>
      <trkpt lat="45.44439" lon="5.90739">
        <ele>1201.79</ele>
        <time>2013-08-24T10:33:39Z</time>
      </trkpt>
      <trkpt lat="45.44434" lon="5.90743">
        <ele>1199.38</ele>
        <time>2013-08-24T10:33:43Z</time>
      </trkpt>
      <trkpt lat="45.4443" lon="5.90747">
        <ele>1198.42</ele>
        <time>2013-08-24T10:33:47Z</time>
      </trkpt>
      <trkpt lat="45.44428" lon="5.90746">
        <ele>1196.02</ele>
        <time>2013-08-24T10:33:51Z</time>
      </trkpt>
      <trkpt lat="45.44426" lon="5.90744">
        <ele>1186.88</ele>
        <time>2013-08-24T10:33:55Z</time>
      </trkpt>
      <trkpt lat="45.44426" lon="5.90741">
        <ele>1181.6</ele>
        <time>2013-08-24T10:33:59Z</time>
      </trkpt>
      <trkpt lat="45.44422" lon="5.90738">
        <ele>1176.79</ele>
        <time>2013-08-24T10:34:03Z</time>
      </trkpt>
      <trkpt lat="45.44421" lon="5.90733">
        <ele>1171.98</ele>
        <time>2013-08-24T10:34:07Z</time>
      </trkpt>
      <trkpt lat="45.4442" lon="5.90737">
        <ele>1153.72</ele>
        <time>2013-08-24T10:34:11Z</time>
      </trkpt>
      <trkpt lat="45.44423" lon="5.90738">
        <ele>1143.63</ele>
        <time>2013-08-24T10:34:15Z</time>
      </trkpt>
      <trkpt lat="45.44428" lon="5.90736">
        <ele>1132.57</ele>
        <time>2013-08-24T10:34:19Z</time>
      </trkpt>
      <trkpt lat="45.44429" lon="5.90736">
        <ele>1132.57</ele>
        <time>2013-08-24T10:34:23Z</time>
      </trkpt>
      <trkpt lat="45.44427" lon="5.90733">
        <ele>1131.61</ele>
        <time>2013-08-24T10:34:27Z</time>
      </trkpt>
      <trkpt lat="45.44426" lon="5.90733">
        <ele>1126.32</ele>
        <time>2013-08-24T10:34:31Z</time>
      </trkpt>
      <trkpt lat="45.44425" lon="5.90729">
        <ele>1122.96</ele>
        <time>2013-08-24T10:34:35Z</time>
      </trkpt>
      <trkpt lat="45.44424" lon="5.90725">
        <ele>1122.48</ele>
        <time>2013-08-24T10:34:39Z</time>
      </trkpt>
      <trkpt lat="45.44422" lon="5.90721">
        <ele>1121.52</ele>
        <time>2013-08-24T10:34:43Z</time>
      </trkpt>
      <trkpt lat="45.4442" lon="5.90716">
        <ele>1121.03</ele>
        <time>2013-08-24T10:34:47Z</time>
      </trkpt>
      <trkpt lat="45.44417" lon="5.90712">
        <ele>1121.03</ele>
        <time>2013-08-24T10:34:51Z</time>
      </trkpt>
      <trkpt lat="45.44413" lon="5.90709">
        <ele>1120.55</ele>
        <time>2013-08-24T10:34:55Z</time>
      </trkpt>
      <trkpt lat="45.4441" lon="5.90706">
        <ele>1120.07</ele>
        <time>2013-08-24T10:34:59Z</time>
      </trkpt>
      <trkpt lat="45.44406" lon="5.90703">
        <ele>1120.07</ele>
        <time>2013-08-24T10:35:03Z</time>
      </trkpt>
      <trkpt lat="45.44402" lon="5.907">
        <ele>1119.59</ele>
        <time>2013-08-24T10:35:07Z</time>
      </trkpt>
      <trkpt lat="45.444" lon="5.90698">
        <ele>1118.15</ele>
        <time>2013-08-24T10:35:11Z</time>
      </trkpt>
      <trkpt lat="45.44398" lon="5.90693">
        <ele>1118.15</ele>
        <time>2013-08-24T10:35:15Z</time>
      </trkpt>
      <trkpt lat="45.44397" lon="5.90689">
        <ele>1118.63</ele>
        <time>2013-08-24T10:35:19Z</time>
      </trkpt>
      <trkpt lat="45.44398" lon="5.90686">
        <ele>1117.19</ele>
        <time>2013-08-24T10:35:23Z</time>
      </trkpt>
      <trkpt lat="45.44402" lon="5.90681">
        <ele>1115.75</ele>
        <time>2013-08-24T10:35:27Z</time>
      </trkpt>
      <trkpt lat="45.44403" lon="5.90676">
        <ele>1115.75</ele>
        <time>2013-08-24T10:35:31Z</time>
      </trkpt>
      <trkpt lat="45.44402" lon="5.90672">
        <ele>1115.75</ele>
        <time>2013-08-24T10:35:35Z</time>
      </trkpt>
      <trkpt lat="45.44405" lon="5.90668">
        <ele>1116.23</ele>
        <time>2013-08-24T10:35:39Z</time>
      </trkpt>
      <trkpt lat="45.44407" lon="5.90663">
        <ele>1116.71</ele>
        <time>2013-08-24T10:35:43Z</time>
      </trkpt>
      <trkpt lat="45.44409" lon="5.90658">
        <ele>1116.71</ele>
        <time>2013-08-24T10:35:47Z</time>
      </trkpt>
      <trkpt lat="45.4441" lon="5.90648">
        <ele>1116.71</ele>
        <time>2013-08-24T10:35:51Z</time>
      </trkpt>
      <trkpt lat="45.44412" lon="5.90634">
        <ele>1115.75</ele>
        <time>2013-08-24T10:35:55Z</time>
      </trkpt>
      <trkpt lat="45.44413" lon="5.90616">
        <ele>1113.34</ele>
        <time>2013-08-24T10:35:59Z</time>
      </trkpt>
      <trkpt lat="45.44413" lon="5.90601">
        <ele>1111.42</ele>
        <time>2013-08-24T10:36:03Z</time>
      </trkpt>
      <trkpt lat="45.44411" lon="5.90584">
        <ele>1108.54</ele>
        <time>2013-08-24T10:36:07Z</time>
      </trkpt>
      <trkpt lat="45.44409" lon="5.90565">
        <ele>1106.13</ele>
        <time>2013-08-24T10:36:11Z</time>
      </trkpt>
      <trkpt lat="45.44407" lon="5.90547">
        <ele>1103.73</ele>
        <time>2013-08-24T10:36:15Z</time>
      </trkpt>
      <trkpt lat="45.44406" lon="5.90529">
        <ele>1101.33</ele>
        <time>2013-08-24T10:36:19Z</time>
      </trkpt>
      <trkpt lat="45.44403" lon="5.90507">
        <ele>1098.44</ele>
        <time>2013-08-24T10:36:23Z</time>
      </trkpt>
      <trkpt lat="45.44402" lon="5.90485">
        <ele>1096.04</ele>
        <time>2013-08-24T10:36:27Z</time>
      </trkpt>
      <trkpt lat="45.44402" lon="5.90464">
        <ele>1094.12</ele>
        <time>2013-08-24T10:36:31Z</time>
      </trkpt>
      <trkpt lat="45.44402" lon="5.90439">
        <ele>1091.71</ele>
        <time>2013-08-24T10:36:35Z</time>
      </trkpt>
      <trkpt lat="45.444" lon="5.90415">
        <ele>1089.79</ele>
        <time>2013-08-24T10:36:39Z</time>
      </trkpt>
      <trkpt lat="45.44398" lon="5.9039">
        <ele>1088.35</ele>
        <time>2013-08-24T10:36:43Z</time>
      </trkpt>
      <trkpt lat="45.44398" lon="5.90368">
        <ele>1087.39</ele>
        <time>2013-08-24T10:36:47Z</time>
      </trkpt>
      <trkpt lat="45.44398" lon="5.90344">
        <ele>1085.47</ele>
        <time>2013-08-24T10:36:51Z</time>
      </trkpt>
      <trkpt lat="45.44397" lon="5.9033">
        <ele>1083.06</ele>
        <time>2013-08-24T10:36:55Z</time>
      </trkpt>
      <trkpt lat="45.44395" lon="5.90327">
        <ele>1081.14</ele>
        <time>2013-08-24T10:36:59Z</time>
      </trkpt>
      <trkpt lat="45.44392" lon="5.90326">
        <ele>1077.29</ele>
        <time>2013-08-24T10:37:03Z</time>
      </trkpt>
      <trkpt lat="45.44393" lon="5.90326">
        <ele>1075.85</ele>
        <time>2013-08-24T10:37:07Z</time>
      </trkpt>
      <trkpt lat="45.44392" lon="5.90325">
        <ele>1075.37</ele>
        <time>2013-08-24T10:37:11Z</time>
      </trkpt>
      <trkpt lat="45.44393" lon="5.90325">
        <ele>1074.41</ele>
        <time>2013-08-24T10:37:15Z</time>
      </trkpt>
      <trkpt lat="45.44394" lon="5.90324">
        <ele>1072.97</ele>
        <time>2013-08-24T10:37:19Z</time>
      </trkpt>
      <trkpt lat="45.44396" lon="5.90323">
        <ele>1072.01</ele>
        <time>2013-08-24T10:37:23Z</time>
      </trkpt>
      <trkpt lat="45.44393" lon="5.9032">
        <ele>1070.57</ele>
        <time>2013-08-24T10:37:27Z</time>
      </trkpt>
      <trkpt lat="45.44393" lon="5.90319">
        <ele>1070.08</ele>
        <time>2013-08-24T10:37:31Z</time>
      </trkpt>
      <trkpt lat="45.44393" lon="5.90319">
        <ele>1070.57</ele>
        <time>2013-08-24T10:37:35Z</time>
      </trkpt>
      <trkpt lat="45.44394" lon="5.90318">
        <ele>1070.57</ele>
        <time>2013-08-24T10:37:39Z</time>
      </trkpt>
      <trkpt lat="45.44394" lon="5.90317">
        <ele>1070.57</ele>
        <time>2013-08-24T10:37:43Z</time>
      </trkpt>
      <trkpt lat="45.44394" lon="5.90317">
        <ele>1070.57</ele>
        <time>2013-08-24T10:37:47Z</time>
      </trkpt>
      <trkpt lat="45.44394" lon="5.90317">
        <ele>1070.08</ele>
        <time>2013-08-24T10:37:51Z</time>
      </trkpt>
      <trkpt lat="45.44393" lon="5.90318">
        <ele>1069.6</ele>
        <time>2013-08-24T10:37:55Z</time>
      </trkpt>
      <trkpt lat="45.44393" lon="5.90318">
        <ele>1070.08</ele>
        <time>2013-08-24T10:37:57Z</time>
      </trkpt>
    </trkseg>
  </trk>
</gpx>